<?xml version="1.0" encoding="UTF-8" standalone="no" ?>
<gpx xmlns="http://www.topografix.com/GPX/1/1" xmlns:xsi="http://www.w3.org/2001/XMLSchema-instance" xsi:schemaLocation="http://www.topografix.com/GPX/1/1 http://www.topografix.com/GPX/1/1/gpx.xsd" version="1.1" creator="VisuGPX - https://www.visugpx.com">
  <metadata>
    <name>Ride 2020-10-29</name>
  </metadata>
  <trk>
    <name><![CDATA[Ride 2020-10-29]]></name>
    <trkseg>
      <trkpt lat="43.04215" lon="0.84569">
        <ele>543.28997803</ele>
        <time>2020-10-29T14:10:56Z</time>
      </trkpt>
      <trkpt lat="43.04217" lon="0.84571">
        <ele>543.28997803</ele>
        <time>2020-10-29T14:10:57Z</time>
      </trkpt>
      <trkpt lat="43.04219" lon="0.84576">
        <ele>543.28997803</ele>
        <time>2020-10-29T14:10:58Z</time>
      </trkpt>
      <trkpt lat="43.04221" lon="0.84581">
        <ele>543.28997803</ele>
        <time>2020-10-29T14:10:59Z</time>
      </trkpt>
      <trkpt lat="43.04225" lon="0.84591">
        <ele>543.28997803</ele>
        <time>2020-10-29T14:11:01Z</time>
      </trkpt>
      <trkpt lat="43.04228" lon="0.84596">
        <ele>543.28997803</ele>
        <time>2020-10-29T14:11:02Z</time>
      </trkpt>
      <trkpt lat="43.04231" lon="0.84599">
        <ele>543.28997803</ele>
        <time>2020-10-29T14:11:03Z</time>
      </trkpt>
      <trkpt lat="43.0424" lon="0.84603">
        <ele>543.28997803</ele>
        <time>2020-10-29T14:11:05Z</time>
      </trkpt>
      <trkpt lat="43.04249" lon="0.846">
        <ele>543.28997803</ele>
        <time>2020-10-29T14:11:07Z</time>
      </trkpt>
      <trkpt lat="43.04261" lon="0.84591">
        <ele>541.63000488</ele>
        <time>2020-10-29T14:11:09Z</time>
      </trkpt>
      <trkpt lat="43.04267" lon="0.84587">
        <ele>541.17999268</ele>
        <time>2020-10-29T14:11:10Z</time>
      </trkpt>
      <trkpt lat="43.04273" lon="0.84584">
        <ele>540.76000977</ele>
        <time>2020-10-29T14:11:11Z</time>
      </trkpt>
      <trkpt lat="43.04278" lon="0.84582">
        <ele>540.55999756</ele>
        <time>2020-10-29T14:11:12Z</time>
      </trkpt>
      <trkpt lat="43.04285" lon="0.84585">
        <ele>539.55999756</ele>
        <time>2020-10-29T14:11:14Z</time>
      </trkpt>
      <trkpt lat="43.04289" lon="0.84593">
        <ele>539.40997314</ele>
        <time>2020-10-29T14:11:16Z</time>
      </trkpt>
      <trkpt lat="43.0429" lon="0.84599">
        <ele>539.34997559</ele>
        <time>2020-10-29T14:11:17Z</time>
      </trkpt>
      <trkpt lat="43.04287" lon="0.84613">
        <ele>539.28997803</ele>
        <time>2020-10-29T14:11:19Z</time>
      </trkpt>
      <trkpt lat="43.04282" lon="0.84627">
        <ele>539.59002686</ele>
        <time>2020-10-29T14:11:21Z</time>
      </trkpt>
      <trkpt lat="43.04281" lon="0.84634">
        <ele>539.72998047</ele>
        <time>2020-10-29T14:11:22Z</time>
      </trkpt>
      <trkpt lat="43.04277" lon="0.84648">
        <ele>539.89001465</ele>
        <time>2020-10-29T14:11:24Z</time>
      </trkpt>
      <trkpt lat="43.04274" lon="0.84661">
        <ele>540.14001465</ele>
        <time>2020-10-29T14:11:26Z</time>
      </trkpt>
      <trkpt lat="43.04273" lon="0.84668">
        <ele>539.96002197</ele>
        <time>2020-10-29T14:11:27Z</time>
      </trkpt>
      <trkpt lat="43.04272" lon="0.84675">
        <ele>539.96002197</ele>
        <time>2020-10-29T14:11:28Z</time>
      </trkpt>
      <trkpt lat="43.0427" lon="0.8469">
        <ele>539.9699707</ele>
        <time>2020-10-29T14:11:30Z</time>
      </trkpt>
      <trkpt lat="43.04269" lon="0.84697">
        <ele>539.88000488</ele>
        <time>2020-10-29T14:11:31Z</time>
      </trkpt>
      <trkpt lat="43.04267" lon="0.84713">
        <ele>539.65997314</ele>
        <time>2020-10-29T14:11:33Z</time>
      </trkpt>
      <trkpt lat="43.04266" lon="0.84721">
        <ele>539.61999512</ele>
        <time>2020-10-29T14:11:34Z</time>
      </trkpt>
      <trkpt lat="43.04265" lon="0.84739">
        <ele>539.30999756</ele>
        <time>2020-10-29T14:11:36Z</time>
      </trkpt>
      <trkpt lat="43.04264" lon="0.84748">
        <ele>538.77001953</ele>
        <time>2020-10-29T14:11:37Z</time>
      </trkpt>
      <trkpt lat="43.04261" lon="0.84766">
        <ele>538.29998779</ele>
        <time>2020-10-29T14:11:39Z</time>
      </trkpt>
      <trkpt lat="43.04259" lon="0.84786">
        <ele>537.5300293</ele>
        <time>2020-10-29T14:11:41Z</time>
      </trkpt>
      <trkpt lat="43.04256" lon="0.84807">
        <ele>536.66998291</ele>
        <time>2020-10-29T14:11:43Z</time>
      </trkpt>
      <trkpt lat="43.04255" lon="0.84817">
        <ele>536.19000244</ele>
        <time>2020-10-29T14:11:44Z</time>
      </trkpt>
      <trkpt lat="43.04251" lon="0.84838">
        <ele>535.15997314</ele>
        <time>2020-10-29T14:11:46Z</time>
      </trkpt>
      <trkpt lat="43.04244" lon="0.84852">
        <ele>534.27001953</ele>
        <time>2020-10-29T14:11:48Z</time>
      </trkpt>
      <trkpt lat="43.04242" lon="0.84854">
        <ele>534.05999756</ele>
        <time>2020-10-29T14:11:49Z</time>
      </trkpt>
      <trkpt lat="43.04239" lon="0.84867">
        <ele>534.02001953</ele>
        <time>2020-10-29T14:11:51Z</time>
      </trkpt>
      <trkpt lat="43.04238" lon="0.84877">
        <ele>534.10998535</ele>
        <time>2020-10-29T14:11:52Z</time>
      </trkpt>
      <trkpt lat="43.04239" lon="0.84888">
        <ele>533.53997803</ele>
        <time>2020-10-29T14:11:53Z</time>
      </trkpt>
      <trkpt lat="43.0424" lon="0.84908">
        <ele>532.98999023</ele>
        <time>2020-10-29T14:11:55Z</time>
      </trkpt>
      <trkpt lat="43.0424" lon="0.84919">
        <ele>532.67999268</ele>
        <time>2020-10-29T14:11:56Z</time>
      </trkpt>
      <trkpt lat="43.04241" lon="0.8493">
        <ele>532.30999756</ele>
        <time>2020-10-29T14:11:57Z</time>
      </trkpt>
      <trkpt lat="43.04243" lon="0.84953">
        <ele>531.09002686</ele>
        <time>2020-10-29T14:11:59Z</time>
      </trkpt>
      <trkpt lat="43.04246" lon="0.84977">
        <ele>530.07000732</ele>
        <time>2020-10-29T14:12:01Z</time>
      </trkpt>
      <trkpt lat="43.04249" lon="0.85001">
        <ele>529.19000244</ele>
        <time>2020-10-29T14:12:03Z</time>
      </trkpt>
      <trkpt lat="43.04252" lon="0.85014">
        <ele>528.36999512</ele>
        <time>2020-10-29T14:12:04Z</time>
      </trkpt>
      <trkpt lat="43.04258" lon="0.85039">
        <ele>527.28997803</ele>
        <time>2020-10-29T14:12:06Z</time>
      </trkpt>
      <trkpt lat="43.04269" lon="0.85066">
        <ele>523.64001465</ele>
        <time>2020-10-29T14:12:08Z</time>
      </trkpt>
      <trkpt lat="43.04275" lon="0.8508">
        <ele>522.67999268</ele>
        <time>2020-10-29T14:12:09Z</time>
      </trkpt>
      <trkpt lat="43.04286" lon="0.8511">
        <ele>519.7800293</ele>
        <time>2020-10-29T14:12:11Z</time>
      </trkpt>
      <trkpt lat="43.04292" lon="0.85126">
        <ele>518.66998291</ele>
        <time>2020-10-29T14:12:12Z</time>
      </trkpt>
      <trkpt lat="43.04304" lon="0.85157">
        <ele>517.82000732</ele>
        <time>2020-10-29T14:12:14Z</time>
      </trkpt>
      <trkpt lat="43.0431" lon="0.85173">
        <ele>516.92999268</ele>
        <time>2020-10-29T14:12:15Z</time>
      </trkpt>
      <trkpt lat="43.04316" lon="0.85189">
        <ele>515.85998535</ele>
        <time>2020-10-29T14:12:16Z</time>
      </trkpt>
      <trkpt lat="43.04321" lon="0.85205">
        <ele>514.98999023</ele>
        <time>2020-10-29T14:12:17Z</time>
      </trkpt>
      <trkpt lat="43.04332" lon="0.85238">
        <ele>513.21002197</ele>
        <time>2020-10-29T14:12:19Z</time>
      </trkpt>
      <trkpt lat="43.04343" lon="0.8527">
        <ele>512.38000488</ele>
        <time>2020-10-29T14:12:21Z</time>
      </trkpt>
      <trkpt lat="43.04352" lon="0.85301">
        <ele>511.19000244</ele>
        <time>2020-10-29T14:12:23Z</time>
      </trkpt>
      <trkpt lat="43.04361" lon="0.85328">
        <ele>510.41000366</ele>
        <time>2020-10-29T14:12:25Z</time>
      </trkpt>
      <trkpt lat="43.04365" lon="0.85338">
        <ele>509.60998535</ele>
        <time>2020-10-29T14:12:26Z</time>
      </trkpt>
      <trkpt lat="43.04366" lon="0.85352">
        <ele>508.83999634</ele>
        <time>2020-10-29T14:12:28Z</time>
      </trkpt>
      <trkpt lat="43.04357" lon="0.85357">
        <ele>508.25</ele>
        <time>2020-10-29T14:12:30Z</time>
      </trkpt>
      <trkpt lat="43.04351" lon="0.85357">
        <ele>507.27999878</ele>
        <time>2020-10-29T14:12:31Z</time>
      </trkpt>
      <trkpt lat="43.04338" lon="0.85355">
        <ele>506.67001343</ele>
        <time>2020-10-29T14:12:33Z</time>
      </trkpt>
      <trkpt lat="43.04324" lon="0.85354">
        <ele>505.77999878</ele>
        <time>2020-10-29T14:12:35Z</time>
      </trkpt>
      <trkpt lat="43.04309" lon="0.85354">
        <ele>504.48001099</ele>
        <time>2020-10-29T14:12:37Z</time>
      </trkpt>
      <trkpt lat="43.0429" lon="0.85354">
        <ele>503.04998779</ele>
        <time>2020-10-29T14:12:39Z</time>
      </trkpt>
      <trkpt lat="43.04279" lon="0.85353">
        <ele>503.07000732</ele>
        <time>2020-10-29T14:12:40Z</time>
      </trkpt>
      <trkpt lat="43.04257" lon="0.85352">
        <ele>501.23999023</ele>
        <time>2020-10-29T14:12:42Z</time>
      </trkpt>
      <trkpt lat="43.04246" lon="0.85353">
        <ele>500.27999878</ele>
        <time>2020-10-29T14:12:43Z</time>
      </trkpt>
      <trkpt lat="43.04224" lon="0.85354">
        <ele>499.02999878</ele>
        <time>2020-10-29T14:12:45Z</time>
      </trkpt>
      <trkpt lat="43.04203" lon="0.85356">
        <ele>497.32000732</ele>
        <time>2020-10-29T14:12:47Z</time>
      </trkpt>
      <trkpt lat="43.04182" lon="0.85357">
        <ele>496.23999023</ele>
        <time>2020-10-29T14:12:49Z</time>
      </trkpt>
      <trkpt lat="43.04172" lon="0.85357">
        <ele>495.48999023</ele>
        <time>2020-10-29T14:12:50Z</time>
      </trkpt>
      <trkpt lat="43.04151" lon="0.85358">
        <ele>494.6499939</ele>
        <time>2020-10-29T14:12:52Z</time>
      </trkpt>
      <trkpt lat="43.0414" lon="0.85357">
        <ele>494.41000366</ele>
        <time>2020-10-29T14:12:53Z</time>
      </trkpt>
      <trkpt lat="43.04129" lon="0.85356">
        <ele>494.25</ele>
        <time>2020-10-29T14:12:54Z</time>
      </trkpt>
      <trkpt lat="43.04109" lon="0.85352">
        <ele>493.04998779</ele>
        <time>2020-10-29T14:12:56Z</time>
      </trkpt>
      <trkpt lat="43.04099" lon="0.85349">
        <ele>492.30999756</ele>
        <time>2020-10-29T14:12:57Z</time>
      </trkpt>
      <trkpt lat="43.04079" lon="0.85351">
        <ele>489.17999268</ele>
        <time>2020-10-29T14:12:59Z</time>
      </trkpt>
      <trkpt lat="43.0407" lon="0.85354">
        <ele>489.45001221</ele>
        <time>2020-10-29T14:13:00Z</time>
      </trkpt>
      <trkpt lat="43.04056" lon="0.85367">
        <ele>489.36999512</ele>
        <time>2020-10-29T14:13:02Z</time>
      </trkpt>
      <trkpt lat="43.04047" lon="0.85378">
        <ele>488.89001465</ele>
        <time>2020-10-29T14:13:04Z</time>
      </trkpt>
      <trkpt lat="43.04043" lon="0.85382">
        <ele>488.88000488</ele>
        <time>2020-10-29T14:13:05Z</time>
      </trkpt>
      <trkpt lat="43.04038" lon="0.85388">
        <ele>488.01000977</ele>
        <time>2020-10-29T14:13:07Z</time>
      </trkpt>
      <trkpt lat="43.04035" lon="0.85392">
        <ele>488</ele>
        <time>2020-10-29T14:13:08Z</time>
      </trkpt>
      <trkpt lat="43.04029" lon="0.85399">
        <ele>487.32998657</ele>
        <time>2020-10-29T14:13:10Z</time>
      </trkpt>
      <trkpt lat="43.04025" lon="0.85403">
        <ele>487.11999512</ele>
        <time>2020-10-29T14:13:11Z</time>
      </trkpt>
      <trkpt lat="43.04017" lon="0.85412">
        <ele>486.88000488</ele>
        <time>2020-10-29T14:13:13Z</time>
      </trkpt>
      <trkpt lat="43.04012" lon="0.85421">
        <ele>486.94000244</ele>
        <time>2020-10-29T14:13:15Z</time>
      </trkpt>
      <trkpt lat="43.04011" lon="0.85434">
        <ele>486.51998901</ele>
        <time>2020-10-29T14:13:17Z</time>
      </trkpt>
      <trkpt lat="43.04017" lon="0.85449">
        <ele>486.75</ele>
        <time>2020-10-29T14:13:19Z</time>
      </trkpt>
      <trkpt lat="43.04028" lon="0.85461">
        <ele>486.92999268</ele>
        <time>2020-10-29T14:13:21Z</time>
      </trkpt>
      <trkpt lat="43.04033" lon="0.85467">
        <ele>486.8500061</ele>
        <time>2020-10-29T14:13:22Z</time>
      </trkpt>
      <trkpt lat="43.04038" lon="0.85474">
        <ele>486.8999939</ele>
        <time>2020-10-29T14:13:23Z</time>
      </trkpt>
      <trkpt lat="43.04046" lon="0.85486">
        <ele>486.91000366</ele>
        <time>2020-10-29T14:13:25Z</time>
      </trkpt>
      <trkpt lat="43.04055" lon="0.85498">
        <ele>486.67001343</ele>
        <time>2020-10-29T14:13:27Z</time>
      </trkpt>
      <trkpt lat="43.04064" lon="0.8551">
        <ele>486.29998779</ele>
        <time>2020-10-29T14:13:29Z</time>
      </trkpt>
      <trkpt lat="43.04073" lon="0.85523">
        <ele>486.30999756</ele>
        <time>2020-10-29T14:13:31Z</time>
      </trkpt>
      <trkpt lat="43.04081" lon="0.85536">
        <ele>486.27999878</ele>
        <time>2020-10-29T14:13:33Z</time>
      </trkpt>
      <trkpt lat="43.04087" lon="0.85551">
        <ele>486.33999634</ele>
        <time>2020-10-29T14:13:35Z</time>
      </trkpt>
      <trkpt lat="43.04092" lon="0.85567">
        <ele>486.32000732</ele>
        <time>2020-10-29T14:13:37Z</time>
      </trkpt>
      <trkpt lat="43.04096" lon="0.85583">
        <ele>486.77999878</ele>
        <time>2020-10-29T14:13:39Z</time>
      </trkpt>
      <trkpt lat="43.04101" lon="0.85599">
        <ele>487.07998657</ele>
        <time>2020-10-29T14:13:41Z</time>
      </trkpt>
      <trkpt lat="43.04103" lon="0.85607">
        <ele>487.22000122</ele>
        <time>2020-10-29T14:13:42Z</time>
      </trkpt>
      <trkpt lat="43.04106" lon="0.85622">
        <ele>487.42001343</ele>
        <time>2020-10-29T14:13:44Z</time>
      </trkpt>
      <trkpt lat="43.04108" lon="0.8563">
        <ele>487.57000732</ele>
        <time>2020-10-29T14:13:45Z</time>
      </trkpt>
      <trkpt lat="43.04112" lon="0.85645">
        <ele>487.52999878</ele>
        <time>2020-10-29T14:13:47Z</time>
      </trkpt>
      <trkpt lat="43.04114" lon="0.85653">
        <ele>487.72000122</ele>
        <time>2020-10-29T14:13:48Z</time>
      </trkpt>
      <trkpt lat="43.04116" lon="0.85661">
        <ele>487.82998657</ele>
        <time>2020-10-29T14:13:49Z</time>
      </trkpt>
      <trkpt lat="43.04121" lon="0.85675">
        <ele>487.95001221</ele>
        <time>2020-10-29T14:13:51Z</time>
      </trkpt>
      <trkpt lat="43.04128" lon="0.85688">
        <ele>488.04998779</ele>
        <time>2020-10-29T14:13:53Z</time>
      </trkpt>
      <trkpt lat="43.04135" lon="0.85699">
        <ele>488.39001465</ele>
        <time>2020-10-29T14:13:55Z</time>
      </trkpt>
      <trkpt lat="43.04143" lon="0.85708">
        <ele>488.17001343</ele>
        <time>2020-10-29T14:13:57Z</time>
      </trkpt>
      <trkpt lat="43.04146" lon="0.85718">
        <ele>487.69000244</ele>
        <time>2020-10-29T14:13:59Z</time>
      </trkpt>
      <trkpt lat="43.0414" lon="0.85728">
        <ele>487.39001465</ele>
        <time>2020-10-29T14:14:01Z</time>
      </trkpt>
      <trkpt lat="43.04135" lon="0.85734">
        <ele>487.10998535</ele>
        <time>2020-10-29T14:14:02Z</time>
      </trkpt>
      <trkpt lat="43.04124" lon="0.85742">
        <ele>486.26998901</ele>
        <time>2020-10-29T14:14:04Z</time>
      </trkpt>
      <trkpt lat="43.04112" lon="0.85752">
        <ele>485.07998657</ele>
        <time>2020-10-29T14:14:06Z</time>
      </trkpt>
      <trkpt lat="43.04106" lon="0.85758">
        <ele>485</ele>
        <time>2020-10-29T14:14:07Z</time>
      </trkpt>
      <trkpt lat="43.041" lon="0.85764">
        <ele>485.01998901</ele>
        <time>2020-10-29T14:14:08Z</time>
      </trkpt>
      <trkpt lat="43.04087" lon="0.85776">
        <ele>484.01998901</ele>
        <time>2020-10-29T14:14:10Z</time>
      </trkpt>
      <trkpt lat="43.0408" lon="0.85783">
        <ele>483.64001465</ele>
        <time>2020-10-29T14:14:11Z</time>
      </trkpt>
      <trkpt lat="43.04068" lon="0.85797">
        <ele>483.04000854</ele>
        <time>2020-10-29T14:14:13Z</time>
      </trkpt>
      <trkpt lat="43.04062" lon="0.85803">
        <ele>483.23001099</ele>
        <time>2020-10-29T14:14:14Z</time>
      </trkpt>
      <trkpt lat="43.04053" lon="0.85817">
        <ele>483.69000244</ele>
        <time>2020-10-29T14:14:16Z</time>
      </trkpt>
      <trkpt lat="43.04049" lon="0.85825">
        <ele>483.73001099</ele>
        <time>2020-10-29T14:14:17Z</time>
      </trkpt>
      <trkpt lat="43.04047" lon="0.85833">
        <ele>483.20999146</ele>
        <time>2020-10-29T14:14:18Z</time>
      </trkpt>
      <trkpt lat="43.04047" lon="0.8584">
        <ele>483.14001465</ele>
        <time>2020-10-29T14:14:19Z</time>
      </trkpt>
      <trkpt lat="43.04052" lon="0.85856">
        <ele>482.36999512</ele>
        <time>2020-10-29T14:14:21Z</time>
      </trkpt>
      <trkpt lat="43.04057" lon="0.85873">
        <ele>483.67999268</ele>
        <time>2020-10-29T14:14:23Z</time>
      </trkpt>
      <trkpt lat="43.04059" lon="0.85881">
        <ele>483.05999756</ele>
        <time>2020-10-29T14:14:24Z</time>
      </trkpt>
      <trkpt lat="43.04062" lon="0.85895">
        <ele>483.29000854</ele>
        <time>2020-10-29T14:14:26Z</time>
      </trkpt>
      <trkpt lat="43.04061" lon="0.85903">
        <ele>483.05999756</ele>
        <time>2020-10-29T14:14:27Z</time>
      </trkpt>
      <trkpt lat="43.04058" lon="0.85917">
        <ele>483.29998779</ele>
        <time>2020-10-29T14:14:29Z</time>
      </trkpt>
      <trkpt lat="43.04057" lon="0.85922">
        <ele>483.73999023</ele>
        <time>2020-10-29T14:14:30Z</time>
      </trkpt>
      <trkpt lat="43.04053" lon="0.85935">
        <ele>484.04998779</ele>
        <time>2020-10-29T14:14:32Z</time>
      </trkpt>
      <trkpt lat="43.0405" lon="0.85948">
        <ele>485.54998779</ele>
        <time>2020-10-29T14:14:34Z</time>
      </trkpt>
      <trkpt lat="43.04048" lon="0.85958">
        <ele>486.86999512</ele>
        <time>2020-10-29T14:14:36Z</time>
      </trkpt>
      <trkpt lat="43.04047" lon="0.85963">
        <ele>487.38000488</ele>
        <time>2020-10-29T14:14:37Z</time>
      </trkpt>
      <trkpt lat="43.04044" lon="0.85968">
        <ele>488.29998779</ele>
        <time>2020-10-29T14:14:38Z</time>
      </trkpt>
      <trkpt lat="43.04041" lon="0.85976">
        <ele>488.08999634</ele>
        <time>2020-10-29T14:14:39Z</time>
      </trkpt>
      <trkpt lat="43.04038" lon="0.85982">
        <ele>488.35998535</ele>
        <time>2020-10-29T14:14:40Z</time>
      </trkpt>
      <trkpt lat="43.04034" lon="0.85994">
        <ele>490.22000122</ele>
        <time>2020-10-29T14:14:42Z</time>
      </trkpt>
      <trkpt lat="43.04036" lon="0.86001">
        <ele>490.19000244</ele>
        <time>2020-10-29T14:14:43Z</time>
      </trkpt>
      <trkpt lat="43.04029" lon="0.86013">
        <ele>490.77999878</ele>
        <time>2020-10-29T14:14:45Z</time>
      </trkpt>
      <trkpt lat="43.04025" lon="0.86021">
        <ele>490.82998657</ele>
        <time>2020-10-29T14:14:46Z</time>
      </trkpt>
      <trkpt lat="43.04017" lon="0.86035">
        <ele>491.72000122</ele>
        <time>2020-10-29T14:14:48Z</time>
      </trkpt>
      <trkpt lat="43.04013" lon="0.86042">
        <ele>492.1499939</ele>
        <time>2020-10-29T14:14:49Z</time>
      </trkpt>
      <trkpt lat="43.04006" lon="0.86055">
        <ele>491.97000122</ele>
        <time>2020-10-29T14:14:51Z</time>
      </trkpt>
      <trkpt lat="43.04002" lon="0.86061">
        <ele>491.76998901</ele>
        <time>2020-10-29T14:14:52Z</time>
      </trkpt>
      <trkpt lat="43.03994" lon="0.86075">
        <ele>492.48001099</ele>
        <time>2020-10-29T14:14:54Z</time>
      </trkpt>
      <trkpt lat="43.03986" lon="0.86088">
        <ele>492.27999878</ele>
        <time>2020-10-29T14:14:56Z</time>
      </trkpt>
      <trkpt lat="43.03983" lon="0.86094">
        <ele>492.41000366</ele>
        <time>2020-10-29T14:14:57Z</time>
      </trkpt>
      <trkpt lat="43.03976" lon="0.86106">
        <ele>492.92001343</ele>
        <time>2020-10-29T14:14:59Z</time>
      </trkpt>
      <trkpt lat="43.03971" lon="0.86121">
        <ele>493.16000366</ele>
        <time>2020-10-29T14:15:01Z</time>
      </trkpt>
      <trkpt lat="43.03968" lon="0.86128">
        <ele>492.91000366</ele>
        <time>2020-10-29T14:15:02Z</time>
      </trkpt>
      <trkpt lat="43.03962" lon="0.86141">
        <ele>493.1000061</ele>
        <time>2020-10-29T14:15:04Z</time>
      </trkpt>
      <trkpt lat="43.0396" lon="0.86148">
        <ele>493.23001099</ele>
        <time>2020-10-29T14:15:05Z</time>
      </trkpt>
      <trkpt lat="43.03955" lon="0.86159">
        <ele>493.45001221</ele>
        <time>2020-10-29T14:15:07Z</time>
      </trkpt>
      <trkpt lat="43.03952" lon="0.86164">
        <ele>493.63000488</ele>
        <time>2020-10-29T14:15:08Z</time>
      </trkpt>
      <trkpt lat="43.03949" lon="0.8617">
        <ele>493.79000854</ele>
        <time>2020-10-29T14:15:09Z</time>
      </trkpt>
      <trkpt lat="43.03946" lon="0.86176">
        <ele>493.86999512</ele>
        <time>2020-10-29T14:15:10Z</time>
      </trkpt>
      <trkpt lat="43.0394" lon="0.86189">
        <ele>493.72000122</ele>
        <time>2020-10-29T14:15:12Z</time>
      </trkpt>
      <trkpt lat="43.03933" lon="0.862">
        <ele>494.27999878</ele>
        <time>2020-10-29T14:15:14Z</time>
      </trkpt>
      <trkpt lat="43.03929" lon="0.86205">
        <ele>494.41000366</ele>
        <time>2020-10-29T14:15:15Z</time>
      </trkpt>
      <trkpt lat="43.03925" lon="0.8621">
        <ele>494.57998657</ele>
        <time>2020-10-29T14:15:16Z</time>
      </trkpt>
      <trkpt lat="43.0392" lon="0.86215">
        <ele>494.6000061</ele>
        <time>2020-10-29T14:15:17Z</time>
      </trkpt>
      <trkpt lat="43.03911" lon="0.86223">
        <ele>495.11999512</ele>
        <time>2020-10-29T14:15:19Z</time>
      </trkpt>
      <trkpt lat="43.03902" lon="0.8623">
        <ele>495.35998535</ele>
        <time>2020-10-29T14:15:21Z</time>
      </trkpt>
      <trkpt lat="43.03892" lon="0.86238">
        <ele>495.16000366</ele>
        <time>2020-10-29T14:15:23Z</time>
      </trkpt>
      <trkpt lat="43.03883" lon="0.86244">
        <ele>494.6000061</ele>
        <time>2020-10-29T14:15:25Z</time>
      </trkpt>
      <trkpt lat="43.03874" lon="0.86258">
        <ele>496.27999878</ele>
        <time>2020-10-29T14:15:27Z</time>
      </trkpt>
      <trkpt lat="43.0387" lon="0.86266">
        <ele>496.3500061</ele>
        <time>2020-10-29T14:15:28Z</time>
      </trkpt>
      <trkpt lat="43.03867" lon="0.86273">
        <ele>495.76998901</ele>
        <time>2020-10-29T14:15:29Z</time>
      </trkpt>
      <trkpt lat="43.03861" lon="0.86288">
        <ele>495.52999878</ele>
        <time>2020-10-29T14:15:31Z</time>
      </trkpt>
      <trkpt lat="43.03858" lon="0.86302">
        <ele>495.32000732</ele>
        <time>2020-10-29T14:15:33Z</time>
      </trkpt>
      <trkpt lat="43.03857" lon="0.86309">
        <ele>495.32998657</ele>
        <time>2020-10-29T14:15:34Z</time>
      </trkpt>
      <trkpt lat="43.03854" lon="0.86316">
        <ele>495.17999268</ele>
        <time>2020-10-29T14:15:35Z</time>
      </trkpt>
      <trkpt lat="43.0385" lon="0.8633">
        <ele>495.08999634</ele>
        <time>2020-10-29T14:15:37Z</time>
      </trkpt>
      <trkpt lat="43.03846" lon="0.86336">
        <ele>495.11999512</ele>
        <time>2020-10-29T14:15:38Z</time>
      </trkpt>
      <trkpt lat="43.03838" lon="0.86344">
        <ele>495.32000732</ele>
        <time>2020-10-29T14:15:40Z</time>
      </trkpt>
      <trkpt lat="43.03833" lon="0.86348">
        <ele>495.1499939</ele>
        <time>2020-10-29T14:15:41Z</time>
      </trkpt>
      <trkpt lat="43.03826" lon="0.86353">
        <ele>495.26000977</ele>
        <time>2020-10-29T14:15:43Z</time>
      </trkpt>
      <trkpt lat="43.03818" lon="0.86359">
        <ele>495.39001465</ele>
        <time>2020-10-29T14:15:45Z</time>
      </trkpt>
      <trkpt lat="43.03812" lon="0.86362">
        <ele>495.45999146</ele>
        <time>2020-10-29T14:15:46Z</time>
      </trkpt>
      <trkpt lat="43.03807" lon="0.86367">
        <ele>495.45001221</ele>
        <time>2020-10-29T14:15:47Z</time>
      </trkpt>
      <trkpt lat="43.03796" lon="0.86374">
        <ele>495.95001221</ele>
        <time>2020-10-29T14:15:49Z</time>
      </trkpt>
      <trkpt lat="43.03784" lon="0.86381">
        <ele>496.70001221</ele>
        <time>2020-10-29T14:15:51Z</time>
      </trkpt>
      <trkpt lat="43.03778" lon="0.86383">
        <ele>496.75</ele>
        <time>2020-10-29T14:15:52Z</time>
      </trkpt>
      <trkpt lat="43.03768" lon="0.86387">
        <ele>496.88000488</ele>
        <time>2020-10-29T14:15:54Z</time>
      </trkpt>
      <trkpt lat="43.03762" lon="0.86388">
        <ele>496.86999512</ele>
        <time>2020-10-29T14:15:55Z</time>
      </trkpt>
      <trkpt lat="43.03757" lon="0.86389">
        <ele>497.17001343</ele>
        <time>2020-10-29T14:15:56Z</time>
      </trkpt>
      <trkpt lat="43.03751" lon="0.86391">
        <ele>497.25</ele>
        <time>2020-10-29T14:15:57Z</time>
      </trkpt>
      <trkpt lat="43.03745" lon="0.86392">
        <ele>497.11999512</ele>
        <time>2020-10-29T14:15:58Z</time>
      </trkpt>
      <trkpt lat="43.03735" lon="0.86396">
        <ele>497.38000488</ele>
        <time>2020-10-29T14:16:00Z</time>
      </trkpt>
      <trkpt lat="43.03729" lon="0.86399">
        <ele>497.70999146</ele>
        <time>2020-10-29T14:16:01Z</time>
      </trkpt>
      <trkpt lat="43.0372" lon="0.86404">
        <ele>496.42999268</ele>
        <time>2020-10-29T14:16:03Z</time>
      </trkpt>
      <trkpt lat="43.03716" lon="0.86407">
        <ele>496.48999023</ele>
        <time>2020-10-29T14:16:04Z</time>
      </trkpt>
      <trkpt lat="43.03707" lon="0.86416">
        <ele>497.82998657</ele>
        <time>2020-10-29T14:16:06Z</time>
      </trkpt>
      <trkpt lat="43.03702" lon="0.8642">
        <ele>497.97000122</ele>
        <time>2020-10-29T14:16:07Z</time>
      </trkpt>
      <trkpt lat="43.03693" lon="0.86428">
        <ele>498.44000244</ele>
        <time>2020-10-29T14:16:09Z</time>
      </trkpt>
      <trkpt lat="43.03682" lon="0.86436">
        <ele>498.6499939</ele>
        <time>2020-10-29T14:16:11Z</time>
      </trkpt>
      <trkpt lat="43.03676" lon="0.86439">
        <ele>498.86999512</ele>
        <time>2020-10-29T14:16:12Z</time>
      </trkpt>
      <trkpt lat="43.03671" lon="0.86442">
        <ele>498.83999634</ele>
        <time>2020-10-29T14:16:13Z</time>
      </trkpt>
      <trkpt lat="43.0366" lon="0.86445">
        <ele>499.07998657</ele>
        <time>2020-10-29T14:16:15Z</time>
      </trkpt>
      <trkpt lat="43.03648" lon="0.86448">
        <ele>500.11999512</ele>
        <time>2020-10-29T14:16:17Z</time>
      </trkpt>
      <trkpt lat="43.03638" lon="0.86451">
        <ele>500.01000977</ele>
        <time>2020-10-29T14:16:19Z</time>
      </trkpt>
      <trkpt lat="43.03627" lon="0.86456">
        <ele>500.05999756</ele>
        <time>2020-10-29T14:16:21Z</time>
      </trkpt>
      <trkpt lat="43.03622" lon="0.8646">
        <ele>500.04000854</ele>
        <time>2020-10-29T14:16:22Z</time>
      </trkpt>
      <trkpt lat="43.03611" lon="0.86465">
        <ele>500.07000732</ele>
        <time>2020-10-29T14:16:24Z</time>
      </trkpt>
      <trkpt lat="43.03605" lon="0.86468">
        <ele>499.8500061</ele>
        <time>2020-10-29T14:16:25Z</time>
      </trkpt>
      <trkpt lat="43.03596" lon="0.86473">
        <ele>499.48999023</ele>
        <time>2020-10-29T14:16:27Z</time>
      </trkpt>
      <trkpt lat="43.03586" lon="0.86477">
        <ele>499.79998779</ele>
        <time>2020-10-29T14:16:29Z</time>
      </trkpt>
      <trkpt lat="43.03579" lon="0.86477">
        <ele>499.20001221</ele>
        <time>2020-10-29T14:16:31Z</time>
      </trkpt>
      <trkpt lat="43.03571" lon="0.86476">
        <ele>498.58999634</ele>
        <time>2020-10-29T14:16:33Z</time>
      </trkpt>
      <trkpt lat="43.03563" lon="0.86476">
        <ele>499.26000977</ele>
        <time>2020-10-29T14:16:35Z</time>
      </trkpt>
      <trkpt lat="43.03559" lon="0.86476">
        <ele>498.29998779</ele>
        <time>2020-10-29T14:16:36Z</time>
      </trkpt>
      <trkpt lat="43.03555" lon="0.86474">
        <ele>497.51000977</ele>
        <time>2020-10-29T14:16:37Z</time>
      </trkpt>
      <trkpt lat="43.03551" lon="0.86474">
        <ele>499.48001099</ele>
        <time>2020-10-29T14:16:39Z</time>
      </trkpt>
      <trkpt lat="43.03544" lon="0.86474">
        <ele>499.13000488</ele>
        <time>2020-10-29T14:16:40Z</time>
      </trkpt>
      <trkpt lat="43.03541" lon="0.86475">
        <ele>498.57998657</ele>
        <time>2020-10-29T14:16:41Z</time>
      </trkpt>
      <trkpt lat="43.03537" lon="0.86475">
        <ele>499.17001343</ele>
        <time>2020-10-29T14:16:43Z</time>
      </trkpt>
      <trkpt lat="43.03531" lon="0.86477">
        <ele>499.88000488</ele>
        <time>2020-10-29T14:16:44Z</time>
      </trkpt>
      <trkpt lat="43.03515" lon="0.86484">
        <ele>498.98001099</ele>
        <time>2020-10-29T14:16:46Z</time>
      </trkpt>
      <trkpt lat="43.0351" lon="0.86487">
        <ele>499.44000244</ele>
        <time>2020-10-29T14:16:47Z</time>
      </trkpt>
      <trkpt lat="43.03508" lon="0.8649">
        <ele>499.80999756</ele>
        <time>2020-10-29T14:16:48Z</time>
      </trkpt>
      <trkpt lat="43.03503" lon="0.86494">
        <ele>500.10998535</ele>
        <time>2020-10-29T14:16:49Z</time>
      </trkpt>
      <trkpt lat="43.03499" lon="0.86499">
        <ele>500.36999512</ele>
        <time>2020-10-29T14:16:50Z</time>
      </trkpt>
      <trkpt lat="43.03496" lon="0.86503">
        <ele>501.29000854</ele>
        <time>2020-10-29T14:16:52Z</time>
      </trkpt>
      <trkpt lat="43.03491" lon="0.86508">
        <ele>501.79998779</ele>
        <time>2020-10-29T14:16:53Z</time>
      </trkpt>
      <trkpt lat="43.03488" lon="0.86513">
        <ele>502.30999756</ele>
        <time>2020-10-29T14:16:55Z</time>
      </trkpt>
      <trkpt lat="43.03485" lon="0.86517">
        <ele>502.83999634</ele>
        <time>2020-10-29T14:16:56Z</time>
      </trkpt>
      <trkpt lat="43.03481" lon="0.86524">
        <ele>503.26000977</ele>
        <time>2020-10-29T14:16:57Z</time>
      </trkpt>
      <trkpt lat="43.03477" lon="0.86532">
        <ele>503.92999268</ele>
        <time>2020-10-29T14:16:59Z</time>
      </trkpt>
      <trkpt lat="43.03475" lon="0.86539">
        <ele>504.23999023</ele>
        <time>2020-10-29T14:17:00Z</time>
      </trkpt>
      <trkpt lat="43.03472" lon="0.86546">
        <ele>506.60998535</ele>
        <time>2020-10-29T14:17:02Z</time>
      </trkpt>
      <trkpt lat="43.03469" lon="0.86557">
        <ele>506.32998657</ele>
        <time>2020-10-29T14:17:03Z</time>
      </trkpt>
      <trkpt lat="43.03467" lon="0.86564">
        <ele>507.23999023</ele>
        <time>2020-10-29T14:17:05Z</time>
      </trkpt>
      <trkpt lat="43.03463" lon="0.86574">
        <ele>507.45999146</ele>
        <time>2020-10-29T14:17:07Z</time>
      </trkpt>
      <trkpt lat="43.03462" lon="0.86579">
        <ele>506.83999634</ele>
        <time>2020-10-29T14:17:08Z</time>
      </trkpt>
      <trkpt lat="43.03459" lon="0.86588">
        <ele>508.54000854</ele>
        <time>2020-10-29T14:17:10Z</time>
      </trkpt>
      <trkpt lat="43.03457" lon="0.86593">
        <ele>508.13000488</ele>
        <time>2020-10-29T14:17:11Z</time>
      </trkpt>
      <trkpt lat="43.03456" lon="0.86601">
        <ele>508.1499939</ele>
        <time>2020-10-29T14:17:12Z</time>
      </trkpt>
      <trkpt lat="43.03455" lon="0.86616">
        <ele>508.16000366</ele>
        <time>2020-10-29T14:17:14Z</time>
      </trkpt>
      <trkpt lat="43.03455" lon="0.86623">
        <ele>508.63000488</ele>
        <time>2020-10-29T14:17:15Z</time>
      </trkpt>
      <trkpt lat="43.03454" lon="0.86628">
        <ele>508.63000488</ele>
        <time>2020-10-29T14:17:16Z</time>
      </trkpt>
      <trkpt lat="43.03453" lon="0.86637">
        <ele>508.97000122</ele>
        <time>2020-10-29T14:17:17Z</time>
      </trkpt>
      <trkpt lat="43.03453" lon="0.86641">
        <ele>509.95001221</ele>
        <time>2020-10-29T14:17:19Z</time>
      </trkpt>
      <trkpt lat="43.03452" lon="0.86648">
        <ele>510.45001221</ele>
        <time>2020-10-29T14:17:21Z</time>
      </trkpt>
      <trkpt lat="43.03453" lon="0.86655">
        <ele>510.08999634</ele>
        <time>2020-10-29T14:17:22Z</time>
      </trkpt>
      <trkpt lat="43.03453" lon="0.8666">
        <ele>510.45999146</ele>
        <time>2020-10-29T14:17:23Z</time>
      </trkpt>
      <trkpt lat="43.03453" lon="0.86667">
        <ele>510.39001465</ele>
        <time>2020-10-29T14:17:25Z</time>
      </trkpt>
      <trkpt lat="43.03453" lon="0.86671">
        <ele>510.47000122</ele>
        <time>2020-10-29T14:17:26Z</time>
      </trkpt>
      <trkpt lat="43.03454" lon="0.8668">
        <ele>511.42001343</ele>
        <time>2020-10-29T14:17:28Z</time>
      </trkpt>
      <trkpt lat="43.03454" lon="0.86687">
        <ele>512.22998047</ele>
        <time>2020-10-29T14:17:29Z</time>
      </trkpt>
      <trkpt lat="43.03455" lon="0.86693">
        <ele>511.95999146</ele>
        <time>2020-10-29T14:17:30Z</time>
      </trkpt>
      <trkpt lat="43.03457" lon="0.867">
        <ele>513.33001709</ele>
        <time>2020-10-29T14:17:32Z</time>
      </trkpt>
      <trkpt lat="43.03458" lon="0.86706">
        <ele>513.32000732</ele>
        <time>2020-10-29T14:17:33Z</time>
      </trkpt>
      <trkpt lat="43.0346" lon="0.86711">
        <ele>513.32000732</ele>
        <time>2020-10-29T14:17:34Z</time>
      </trkpt>
      <trkpt lat="43.03463" lon="0.8672">
        <ele>513.84997559</ele>
        <time>2020-10-29T14:17:35Z</time>
      </trkpt>
      <trkpt lat="43.03465" lon="0.86726">
        <ele>513.73999023</ele>
        <time>2020-10-29T14:17:37Z</time>
      </trkpt>
      <trkpt lat="43.03468" lon="0.86732">
        <ele>514.34002686</ele>
        <time>2020-10-29T14:17:38Z</time>
      </trkpt>
      <trkpt lat="43.03469" lon="0.86736">
        <ele>514.80999756</ele>
        <time>2020-10-29T14:17:39Z</time>
      </trkpt>
      <trkpt lat="43.03471" lon="0.86741">
        <ele>514.80999756</ele>
        <time>2020-10-29T14:17:40Z</time>
      </trkpt>
      <trkpt lat="43.03474" lon="0.86748">
        <ele>514.41998291</ele>
        <time>2020-10-29T14:17:41Z</time>
      </trkpt>
      <trkpt lat="43.03476" lon="0.86753">
        <ele>514</ele>
        <time>2020-10-29T14:17:42Z</time>
      </trkpt>
      <trkpt lat="43.03479" lon="0.86759">
        <ele>514.77001953</ele>
        <time>2020-10-29T14:17:44Z</time>
      </trkpt>
      <trkpt lat="43.03483" lon="0.86769">
        <ele>516.19000244</ele>
        <time>2020-10-29T14:17:46Z</time>
      </trkpt>
      <trkpt lat="43.03486" lon="0.86776">
        <ele>516.20001221</ele>
        <time>2020-10-29T14:17:47Z</time>
      </trkpt>
      <trkpt lat="43.03489" lon="0.86783">
        <ele>516.73999023</ele>
        <time>2020-10-29T14:17:49Z</time>
      </trkpt>
      <trkpt lat="43.03492" lon="0.86791">
        <ele>516.60998535</ele>
        <time>2020-10-29T14:17:50Z</time>
      </trkpt>
      <trkpt lat="43.03494" lon="0.86798">
        <ele>517.60998535</ele>
        <time>2020-10-29T14:17:51Z</time>
      </trkpt>
      <trkpt lat="43.03496" lon="0.86804">
        <ele>518.16998291</ele>
        <time>2020-10-29T14:17:53Z</time>
      </trkpt>
      <trkpt lat="43.03499" lon="0.86809">
        <ele>518.47998047</ele>
        <time>2020-10-29T14:17:54Z</time>
      </trkpt>
      <trkpt lat="43.03502" lon="0.86817">
        <ele>519.57000732</ele>
        <time>2020-10-29T14:17:55Z</time>
      </trkpt>
      <trkpt lat="43.03504" lon="0.86825">
        <ele>519.91998291</ele>
        <time>2020-10-29T14:17:56Z</time>
      </trkpt>
      <trkpt lat="43.03506" lon="0.86831">
        <ele>519.67999268</ele>
        <time>2020-10-29T14:17:58Z</time>
      </trkpt>
      <trkpt lat="43.03507" lon="0.86836">
        <ele>520.09002686</ele>
        <time>2020-10-29T14:17:59Z</time>
      </trkpt>
      <trkpt lat="43.03509" lon="0.86842">
        <ele>520.09002686</ele>
        <time>2020-10-29T14:18:00Z</time>
      </trkpt>
      <trkpt lat="43.0351" lon="0.86853">
        <ele>521.30999756</ele>
        <time>2020-10-29T14:18:02Z</time>
      </trkpt>
      <trkpt lat="43.03512" lon="0.86862">
        <ele>521.66998291</ele>
        <time>2020-10-29T14:18:03Z</time>
      </trkpt>
      <trkpt lat="43.03513" lon="0.86872">
        <ele>522.53997803</ele>
        <time>2020-10-29T14:18:05Z</time>
      </trkpt>
      <trkpt lat="43.03514" lon="0.86878">
        <ele>523.07000732</ele>
        <time>2020-10-29T14:18:06Z</time>
      </trkpt>
      <trkpt lat="43.03514" lon="0.86885">
        <ele>523.77001953</ele>
        <time>2020-10-29T14:18:08Z</time>
      </trkpt>
      <trkpt lat="43.03515" lon="0.86889">
        <ele>523.77001953</ele>
        <time>2020-10-29T14:18:09Z</time>
      </trkpt>
      <trkpt lat="43.03516" lon="0.86898">
        <ele>525.17999268</ele>
        <time>2020-10-29T14:18:10Z</time>
      </trkpt>
      <trkpt lat="43.03516" lon="0.86903">
        <ele>526.09002686</ele>
        <time>2020-10-29T14:18:12Z</time>
      </trkpt>
      <trkpt lat="43.03514" lon="0.86913">
        <ele>527.73999023</ele>
        <time>2020-10-29T14:18:14Z</time>
      </trkpt>
      <trkpt lat="43.03509" lon="0.86915">
        <ele>527.7800293</ele>
        <time>2020-10-29T14:18:15Z</time>
      </trkpt>
      <trkpt lat="43.03506" lon="0.86914">
        <ele>528.48999023</ele>
        <time>2020-10-29T14:18:17Z</time>
      </trkpt>
      <trkpt lat="43.03503" lon="0.86911">
        <ele>528.73999023</ele>
        <time>2020-10-29T14:18:18Z</time>
      </trkpt>
      <trkpt lat="43.03501" lon="0.86908">
        <ele>529.13000488</ele>
        <time>2020-10-29T14:18:19Z</time>
      </trkpt>
      <trkpt lat="43.03501" lon="0.86902">
        <ele>529.63000488</ele>
        <time>2020-10-29T14:18:21Z</time>
      </trkpt>
      <trkpt lat="43.035" lon="0.86896">
        <ele>530.40997314</ele>
        <time>2020-10-29T14:18:22Z</time>
      </trkpt>
      <trkpt lat="43.03499" lon="0.86891">
        <ele>530.65002441</ele>
        <time>2020-10-29T14:18:23Z</time>
      </trkpt>
      <trkpt lat="43.03495" lon="0.86884">
        <ele>530.60998535</ele>
        <time>2020-10-29T14:18:25Z</time>
      </trkpt>
      <trkpt lat="43.03491" lon="0.86876">
        <ele>531.17999268</ele>
        <time>2020-10-29T14:18:27Z</time>
      </trkpt>
      <trkpt lat="43.03487" lon="0.86872">
        <ele>531.08001709</ele>
        <time>2020-10-29T14:18:28Z</time>
      </trkpt>
      <trkpt lat="43.03483" lon="0.86866">
        <ele>531.67999268</ele>
        <time>2020-10-29T14:18:29Z</time>
      </trkpt>
      <trkpt lat="43.0348" lon="0.86861">
        <ele>531.9699707</ele>
        <time>2020-10-29T14:18:30Z</time>
      </trkpt>
      <trkpt lat="43.03476" lon="0.86855">
        <ele>532.77001953</ele>
        <time>2020-10-29T14:18:32Z</time>
      </trkpt>
      <trkpt lat="43.03472" lon="0.86848">
        <ele>533.39001465</ele>
        <time>2020-10-29T14:18:33Z</time>
      </trkpt>
      <trkpt lat="43.03468" lon="0.86843">
        <ele>533.35998535</ele>
        <time>2020-10-29T14:18:34Z</time>
      </trkpt>
      <trkpt lat="43.03465" lon="0.86838">
        <ele>534.79998779</ele>
        <time>2020-10-29T14:18:36Z</time>
      </trkpt>
      <trkpt lat="43.03462" lon="0.86834">
        <ele>534.79998779</ele>
        <time>2020-10-29T14:18:37Z</time>
      </trkpt>
      <trkpt lat="43.0346" lon="0.8683">
        <ele>534.79998779</ele>
        <time>2020-10-29T14:18:38Z</time>
      </trkpt>
      <trkpt lat="43.03456" lon="0.86824">
        <ele>536</ele>
        <time>2020-10-29T14:18:39Z</time>
      </trkpt>
      <trkpt lat="43.03452" lon="0.86819">
        <ele>536.39001465</ele>
        <time>2020-10-29T14:18:40Z</time>
      </trkpt>
      <trkpt lat="43.03448" lon="0.86814">
        <ele>536.4699707</ele>
        <time>2020-10-29T14:18:42Z</time>
      </trkpt>
      <trkpt lat="43.03443" lon="0.86806">
        <ele>537.58001709</ele>
        <time>2020-10-29T14:18:43Z</time>
      </trkpt>
      <trkpt lat="43.03438" lon="0.86799">
        <ele>537.91998291</ele>
        <time>2020-10-29T14:18:45Z</time>
      </trkpt>
      <trkpt lat="43.03436" lon="0.86795">
        <ele>537.91998291</ele>
        <time>2020-10-29T14:18:46Z</time>
      </trkpt>
      <trkpt lat="43.03432" lon="0.86788">
        <ele>538.19000244</ele>
        <time>2020-10-29T14:18:47Z</time>
      </trkpt>
      <trkpt lat="43.03427" lon="0.86781">
        <ele>539.02001953</ele>
        <time>2020-10-29T14:18:49Z</time>
      </trkpt>
      <trkpt lat="43.03425" lon="0.86775">
        <ele>539.16998291</ele>
        <time>2020-10-29T14:18:50Z</time>
      </trkpt>
      <trkpt lat="43.03422" lon="0.8677">
        <ele>538.92999268</ele>
        <time>2020-10-29T14:18:51Z</time>
      </trkpt>
      <trkpt lat="43.03419" lon="0.86765">
        <ele>539.08001709</ele>
        <time>2020-10-29T14:18:52Z</time>
      </trkpt>
      <trkpt lat="43.03417" lon="0.86761">
        <ele>539.91998291</ele>
        <time>2020-10-29T14:18:53Z</time>
      </trkpt>
      <trkpt lat="43.03414" lon="0.86756">
        <ele>540.25</ele>
        <time>2020-10-29T14:18:55Z</time>
      </trkpt>
      <trkpt lat="43.03411" lon="0.86748">
        <ele>540.65997314</ele>
        <time>2020-10-29T14:18:56Z</time>
      </trkpt>
      <trkpt lat="43.03408" lon="0.86743">
        <ele>541.23999023</ele>
        <time>2020-10-29T14:18:58Z</time>
      </trkpt>
      <trkpt lat="43.03407" lon="0.86738">
        <ele>541.70001221</ele>
        <time>2020-10-29T14:18:59Z</time>
      </trkpt>
      <trkpt lat="43.03404" lon="0.86731">
        <ele>541.96002197</ele>
        <time>2020-10-29T14:19:00Z</time>
      </trkpt>
      <trkpt lat="43.03401" lon="0.86725">
        <ele>541.02001953</ele>
        <time>2020-10-29T14:19:02Z</time>
      </trkpt>
      <trkpt lat="43.03397" lon="0.86717">
        <ele>542.34997559</ele>
        <time>2020-10-29T14:19:04Z</time>
      </trkpt>
      <trkpt lat="43.03394" lon="0.86709">
        <ele>542.85998535</ele>
        <time>2020-10-29T14:19:05Z</time>
      </trkpt>
      <trkpt lat="43.03391" lon="0.86704">
        <ele>543.71002197</ele>
        <time>2020-10-29T14:19:07Z</time>
      </trkpt>
      <trkpt lat="43.03388" lon="0.86698">
        <ele>544.15997314</ele>
        <time>2020-10-29T14:19:08Z</time>
      </trkpt>
      <trkpt lat="43.03386" lon="0.86695">
        <ele>544.34002686</ele>
        <time>2020-10-29T14:19:09Z</time>
      </trkpt>
      <trkpt lat="43.03384" lon="0.86691">
        <ele>544.70001221</ele>
        <time>2020-10-29T14:19:10Z</time>
      </trkpt>
      <trkpt lat="43.03381" lon="0.86687">
        <ele>544.41998291</ele>
        <time>2020-10-29T14:19:12Z</time>
      </trkpt>
      <trkpt lat="43.03378" lon="0.86682">
        <ele>545.2800293</ele>
        <time>2020-10-29T14:19:13Z</time>
      </trkpt>
      <trkpt lat="43.03375" lon="0.86675">
        <ele>545.86999512</ele>
        <time>2020-10-29T14:19:15Z</time>
      </trkpt>
      <trkpt lat="43.03372" lon="0.86669">
        <ele>546.35998535</ele>
        <time>2020-10-29T14:19:16Z</time>
      </trkpt>
      <trkpt lat="43.03369" lon="0.86663">
        <ele>546.40002441</ele>
        <time>2020-10-29T14:19:17Z</time>
      </trkpt>
      <trkpt lat="43.03365" lon="0.86657">
        <ele>546.83001709</ele>
        <time>2020-10-29T14:19:18Z</time>
      </trkpt>
      <trkpt lat="43.03363" lon="0.86653">
        <ele>547.07000732</ele>
        <time>2020-10-29T14:19:19Z</time>
      </trkpt>
      <trkpt lat="43.0336" lon="0.86648">
        <ele>547.5300293</ele>
        <time>2020-10-29T14:19:21Z</time>
      </trkpt>
      <trkpt lat="43.03358" lon="0.86643">
        <ele>548.34997559</ele>
        <time>2020-10-29T14:19:22Z</time>
      </trkpt>
      <trkpt lat="43.03354" lon="0.86637">
        <ele>548.77001953</ele>
        <time>2020-10-29T14:19:23Z</time>
      </trkpt>
      <trkpt lat="43.03352" lon="0.86632">
        <ele>549.57000732</ele>
        <time>2020-10-29T14:19:24Z</time>
      </trkpt>
      <trkpt lat="43.03348" lon="0.86627">
        <ele>549.77001953</ele>
        <time>2020-10-29T14:19:25Z</time>
      </trkpt>
      <trkpt lat="43.03345" lon="0.86623">
        <ele>550.17999268</ele>
        <time>2020-10-29T14:19:27Z</time>
      </trkpt>
      <trkpt lat="43.03341" lon="0.8662">
        <ele>550.61999512</ele>
        <time>2020-10-29T14:19:28Z</time>
      </trkpt>
      <trkpt lat="43.03338" lon="0.86616">
        <ele>550.94000244</ele>
        <time>2020-10-29T14:19:29Z</time>
      </trkpt>
      <trkpt lat="43.03333" lon="0.86612">
        <ele>551.28997803</ele>
        <time>2020-10-29T14:19:31Z</time>
      </trkpt>
      <trkpt lat="43.03327" lon="0.86607">
        <ele>552.15997314</ele>
        <time>2020-10-29T14:19:32Z</time>
      </trkpt>
      <trkpt lat="43.03323" lon="0.86605">
        <ele>552.44000244</ele>
        <time>2020-10-29T14:19:33Z</time>
      </trkpt>
      <trkpt lat="43.03318" lon="0.86602">
        <ele>552.95001221</ele>
        <time>2020-10-29T14:19:35Z</time>
      </trkpt>
      <trkpt lat="43.03313" lon="0.86599">
        <ele>554.30999756</ele>
        <time>2020-10-29T14:19:36Z</time>
      </trkpt>
      <trkpt lat="43.0331" lon="0.86597">
        <ele>555.09002686</ele>
        <time>2020-10-29T14:19:38Z</time>
      </trkpt>
      <trkpt lat="43.03306" lon="0.86596">
        <ele>555.95001221</ele>
        <time>2020-10-29T14:19:39Z</time>
      </trkpt>
      <trkpt lat="43.03301" lon="0.86594">
        <ele>556.36999512</ele>
        <time>2020-10-29T14:19:40Z</time>
      </trkpt>
      <trkpt lat="43.03296" lon="0.86592">
        <ele>558.08001709</ele>
        <time>2020-10-29T14:19:41Z</time>
      </trkpt>
      <trkpt lat="43.03292" lon="0.8659">
        <ele>557.42999268</ele>
        <time>2020-10-29T14:19:43Z</time>
      </trkpt>
      <trkpt lat="43.03288" lon="0.86588">
        <ele>557.80999756</ele>
        <time>2020-10-29T14:19:44Z</time>
      </trkpt>
      <trkpt lat="43.03285" lon="0.86587">
        <ele>558.61999512</ele>
        <time>2020-10-29T14:19:45Z</time>
      </trkpt>
      <trkpt lat="43.03281" lon="0.86586">
        <ele>559.26000977</ele>
        <time>2020-10-29T14:19:47Z</time>
      </trkpt>
      <trkpt lat="43.0328" lon="0.86586">
        <ele>560.02001953</ele>
        <time>2020-10-29T14:19:48Z</time>
      </trkpt>
      <trkpt lat="43.03277" lon="0.86585">
        <ele>560.08001709</ele>
        <time>2020-10-29T14:19:49Z</time>
      </trkpt>
      <trkpt lat="43.03275" lon="0.86588">
        <ele>560.30999756</ele>
        <time>2020-10-29T14:19:50Z</time>
      </trkpt>
      <trkpt lat="43.03276" lon="0.86591">
        <ele>559.73999023</ele>
        <time>2020-10-29T14:19:51Z</time>
      </trkpt>
      <trkpt lat="43.03277" lon="0.86594">
        <ele>561.30999756</ele>
        <time>2020-10-29T14:19:53Z</time>
      </trkpt>
      <trkpt lat="43.03281" lon="0.86597">
        <ele>561.30999756</ele>
        <time>2020-10-29T14:19:54Z</time>
      </trkpt>
      <trkpt lat="43.03285" lon="0.86601">
        <ele>561.33001709</ele>
        <time>2020-10-29T14:19:55Z</time>
      </trkpt>
      <trkpt lat="43.03289" lon="0.86604">
        <ele>559.77001953</ele>
        <time>2020-10-29T14:19:57Z</time>
      </trkpt>
      <trkpt lat="43.03292" lon="0.86609">
        <ele>560.83001709</ele>
        <time>2020-10-29T14:19:58Z</time>
      </trkpt>
      <trkpt lat="43.03296" lon="0.86614">
        <ele>561.51000977</ele>
        <time>2020-10-29T14:19:59Z</time>
      </trkpt>
      <trkpt lat="43.033" lon="0.86618">
        <ele>561.63000488</ele>
        <time>2020-10-29T14:20:01Z</time>
      </trkpt>
      <trkpt lat="43.03303" lon="0.86623">
        <ele>562.59997559</ele>
        <time>2020-10-29T14:20:02Z</time>
      </trkpt>
      <trkpt lat="43.03306" lon="0.86628">
        <ele>562.20001221</ele>
        <time>2020-10-29T14:20:03Z</time>
      </trkpt>
      <trkpt lat="43.03309" lon="0.86633">
        <ele>562.77001953</ele>
        <time>2020-10-29T14:20:04Z</time>
      </trkpt>
      <trkpt lat="43.03313" lon="0.86639">
        <ele>563.44000244</ele>
        <time>2020-10-29T14:20:06Z</time>
      </trkpt>
      <trkpt lat="43.03315" lon="0.86645">
        <ele>563.82000732</ele>
        <time>2020-10-29T14:20:07Z</time>
      </trkpt>
      <trkpt lat="43.03318" lon="0.8665">
        <ele>564.0300293</ele>
        <time>2020-10-29T14:20:08Z</time>
      </trkpt>
      <trkpt lat="43.0332" lon="0.86654">
        <ele>564.33001709</ele>
        <time>2020-10-29T14:20:09Z</time>
      </trkpt>
      <trkpt lat="43.03322" lon="0.86658">
        <ele>564.71002197</ele>
        <time>2020-10-29T14:20:10Z</time>
      </trkpt>
      <trkpt lat="43.03324" lon="0.86662">
        <ele>566.15997314</ele>
        <time>2020-10-29T14:20:12Z</time>
      </trkpt>
      <trkpt lat="43.03326" lon="0.86666">
        <ele>565.84997559</ele>
        <time>2020-10-29T14:20:13Z</time>
      </trkpt>
      <trkpt lat="43.03328" lon="0.86671">
        <ele>566.2199707</ele>
        <time>2020-10-29T14:20:14Z</time>
      </trkpt>
      <trkpt lat="43.03331" lon="0.86677">
        <ele>567.07000732</ele>
        <time>2020-10-29T14:20:16Z</time>
      </trkpt>
      <trkpt lat="43.03333" lon="0.86684">
        <ele>567.36999512</ele>
        <time>2020-10-29T14:20:17Z</time>
      </trkpt>
      <trkpt lat="43.03335" lon="0.86691">
        <ele>567.59997559</ele>
        <time>2020-10-29T14:20:19Z</time>
      </trkpt>
      <trkpt lat="43.03337" lon="0.867">
        <ele>569.4699707</ele>
        <time>2020-10-29T14:20:20Z</time>
      </trkpt>
      <trkpt lat="43.0334" lon="0.86707">
        <ele>569.82000732</ele>
        <time>2020-10-29T14:20:21Z</time>
      </trkpt>
      <trkpt lat="43.03343" lon="0.86714">
        <ele>570.03997803</ele>
        <time>2020-10-29T14:20:23Z</time>
      </trkpt>
      <trkpt lat="43.03345" lon="0.86722">
        <ele>571.2800293</ele>
        <time>2020-10-29T14:20:24Z</time>
      </trkpt>
      <trkpt lat="43.03347" lon="0.86727">
        <ele>571.71002197</ele>
        <time>2020-10-29T14:20:25Z</time>
      </trkpt>
      <trkpt lat="43.03348" lon="0.86734">
        <ele>572.54998779</ele>
        <time>2020-10-29T14:20:27Z</time>
      </trkpt>
      <trkpt lat="43.03349" lon="0.8674">
        <ele>573.15002441</ele>
        <time>2020-10-29T14:20:28Z</time>
      </trkpt>
      <trkpt lat="43.0335" lon="0.86745">
        <ele>573.66998291</ele>
        <time>2020-10-29T14:20:29Z</time>
      </trkpt>
      <trkpt lat="43.03351" lon="0.86751">
        <ele>574.09002686</ele>
        <time>2020-10-29T14:20:30Z</time>
      </trkpt>
      <trkpt lat="43.03352" lon="0.86757">
        <ele>574.55999756</ele>
        <time>2020-10-29T14:20:31Z</time>
      </trkpt>
      <trkpt lat="43.03353" lon="0.86762">
        <ele>575.15997314</ele>
        <time>2020-10-29T14:20:33Z</time>
      </trkpt>
      <trkpt lat="43.03354" lon="0.86769">
        <ele>575.5</ele>
        <time>2020-10-29T14:20:34Z</time>
      </trkpt>
      <trkpt lat="43.03355" lon="0.86775">
        <ele>575.92999268</ele>
        <time>2020-10-29T14:20:36Z</time>
      </trkpt>
      <trkpt lat="43.03356" lon="0.86781">
        <ele>576.59997559</ele>
        <time>2020-10-29T14:20:37Z</time>
      </trkpt>
      <trkpt lat="43.03357" lon="0.86787">
        <ele>577.65002441</ele>
        <time>2020-10-29T14:20:38Z</time>
      </trkpt>
      <trkpt lat="43.03358" lon="0.86792">
        <ele>578.15002441</ele>
        <time>2020-10-29T14:20:40Z</time>
      </trkpt>
      <trkpt lat="43.03359" lon="0.86798">
        <ele>577.82000732</ele>
        <time>2020-10-29T14:20:41Z</time>
      </trkpt>
      <trkpt lat="43.03359" lon="0.86803">
        <ele>578.57000732</ele>
        <time>2020-10-29T14:20:42Z</time>
      </trkpt>
      <trkpt lat="43.03358" lon="0.86809">
        <ele>579.25</ele>
        <time>2020-10-29T14:20:44Z</time>
      </trkpt>
      <trkpt lat="43.03358" lon="0.86815">
        <ele>579.92999268</ele>
        <time>2020-10-29T14:20:45Z</time>
      </trkpt>
      <trkpt lat="43.03358" lon="0.8682">
        <ele>580.34997559</ele>
        <time>2020-10-29T14:20:46Z</time>
      </trkpt>
      <trkpt lat="43.03358" lon="0.86827">
        <ele>581.40997314</ele>
        <time>2020-10-29T14:20:48Z</time>
      </trkpt>
      <trkpt lat="43.03359" lon="0.86832">
        <ele>581.54998779</ele>
        <time>2020-10-29T14:20:49Z</time>
      </trkpt>
      <trkpt lat="43.03359" lon="0.86839">
        <ele>582.15997314</ele>
        <time>2020-10-29T14:20:50Z</time>
      </trkpt>
      <trkpt lat="43.0336" lon="0.86844">
        <ele>582.7199707</ele>
        <time>2020-10-29T14:20:51Z</time>
      </trkpt>
      <trkpt lat="43.03361" lon="0.86849">
        <ele>583.30999756</ele>
        <time>2020-10-29T14:20:53Z</time>
      </trkpt>
      <trkpt lat="43.03361" lon="0.86857">
        <ele>584.07000732</ele>
        <time>2020-10-29T14:20:54Z</time>
      </trkpt>
      <trkpt lat="43.03362" lon="0.86862">
        <ele>584.4699707</ele>
        <time>2020-10-29T14:20:55Z</time>
      </trkpt>
      <trkpt lat="43.03362" lon="0.86868">
        <ele>585.09002686</ele>
        <time>2020-10-29T14:20:56Z</time>
      </trkpt>
      <trkpt lat="43.03362" lon="0.86874">
        <ele>585.7800293</ele>
        <time>2020-10-29T14:20:57Z</time>
      </trkpt>
      <trkpt lat="43.03362" lon="0.8688">
        <ele>586.16998291</ele>
        <time>2020-10-29T14:20:59Z</time>
      </trkpt>
      <trkpt lat="43.03363" lon="0.86885">
        <ele>586.59997559</ele>
        <time>2020-10-29T14:21:00Z</time>
      </trkpt>
      <trkpt lat="43.03363" lon="0.86892">
        <ele>587.20001221</ele>
        <time>2020-10-29T14:21:01Z</time>
      </trkpt>
      <trkpt lat="43.03363" lon="0.86898">
        <ele>587.19000244</ele>
        <time>2020-10-29T14:21:02Z</time>
      </trkpt>
      <trkpt lat="43.03364" lon="0.86904">
        <ele>587.73999023</ele>
        <time>2020-10-29T14:21:04Z</time>
      </trkpt>
      <trkpt lat="43.03364" lon="0.8691">
        <ele>587.89001465</ele>
        <time>2020-10-29T14:21:05Z</time>
      </trkpt>
      <trkpt lat="43.03365" lon="0.86917">
        <ele>588.54998779</ele>
        <time>2020-10-29T14:21:06Z</time>
      </trkpt>
      <trkpt lat="43.03365" lon="0.86922">
        <ele>588.82000732</ele>
        <time>2020-10-29T14:21:07Z</time>
      </trkpt>
      <trkpt lat="43.03366" lon="0.86928">
        <ele>588.9699707</ele>
        <time>2020-10-29T14:21:08Z</time>
      </trkpt>
      <trkpt lat="43.03366" lon="0.86934">
        <ele>589.23999023</ele>
        <time>2020-10-29T14:21:09Z</time>
      </trkpt>
      <trkpt lat="43.03366" lon="0.86939">
        <ele>589.58001709</ele>
        <time>2020-10-29T14:21:10Z</time>
      </trkpt>
      <trkpt lat="43.03366" lon="0.86946">
        <ele>589.86999512</ele>
        <time>2020-10-29T14:21:11Z</time>
      </trkpt>
      <trkpt lat="43.03369" lon="0.8696">
        <ele>589.76000977</ele>
        <time>2020-10-29T14:21:13Z</time>
      </trkpt>
      <trkpt lat="43.0337" lon="0.86969">
        <ele>589.94000244</ele>
        <time>2020-10-29T14:21:14Z</time>
      </trkpt>
      <trkpt lat="43.0337" lon="0.86981">
        <ele>589.9699707</ele>
        <time>2020-10-29T14:21:16Z</time>
      </trkpt>
      <trkpt lat="43.0337" lon="0.86989">
        <ele>590.09997559</ele>
        <time>2020-10-29T14:21:17Z</time>
      </trkpt>
      <trkpt lat="43.03369" lon="0.86996">
        <ele>590.46002197</ele>
        <time>2020-10-29T14:21:18Z</time>
      </trkpt>
      <trkpt lat="43.03367" lon="0.87003">
        <ele>590.33001709</ele>
        <time>2020-10-29T14:21:19Z</time>
      </trkpt>
      <trkpt lat="43.03367" lon="0.87005">
        <ele>590.57000732</ele>
        <time>2020-10-29T14:21:20Z</time>
      </trkpt>
      <trkpt lat="43.03365" lon="0.87012">
        <ele>590.5</ele>
        <time>2020-10-29T14:21:21Z</time>
      </trkpt>
      <trkpt lat="43.03362" lon="0.87017">
        <ele>590.82000732</ele>
        <time>2020-10-29T14:21:23Z</time>
      </trkpt>
      <trkpt lat="43.0336" lon="0.87022">
        <ele>590.82000732</ele>
        <time>2020-10-29T14:21:24Z</time>
      </trkpt>
      <trkpt lat="43.03356" lon="0.87033">
        <ele>592.09997559</ele>
        <time>2020-10-29T14:21:26Z</time>
      </trkpt>
      <trkpt lat="43.03353" lon="0.8704">
        <ele>592.80999756</ele>
        <time>2020-10-29T14:21:27Z</time>
      </trkpt>
      <trkpt lat="43.0335" lon="0.87045">
        <ele>593.34002686</ele>
        <time>2020-10-29T14:21:28Z</time>
      </trkpt>
      <trkpt lat="43.03347" lon="0.87051">
        <ele>594.09002686</ele>
        <time>2020-10-29T14:21:30Z</time>
      </trkpt>
      <trkpt lat="43.03343" lon="0.87057">
        <ele>594.36999512</ele>
        <time>2020-10-29T14:21:31Z</time>
      </trkpt>
      <trkpt lat="43.03341" lon="0.87061">
        <ele>594.67999268</ele>
        <time>2020-10-29T14:21:32Z</time>
      </trkpt>
      <trkpt lat="43.03338" lon="0.87066">
        <ele>595.60998535</ele>
        <time>2020-10-29T14:21:33Z</time>
      </trkpt>
      <trkpt lat="43.03334" lon="0.87072">
        <ele>596.32000732</ele>
        <time>2020-10-29T14:21:35Z</time>
      </trkpt>
      <trkpt lat="43.03329" lon="0.87079">
        <ele>596.7199707</ele>
        <time>2020-10-29T14:21:36Z</time>
      </trkpt>
      <trkpt lat="43.03325" lon="0.87084">
        <ele>596.96002197</ele>
        <time>2020-10-29T14:21:37Z</time>
      </trkpt>
      <trkpt lat="43.03321" lon="0.87089">
        <ele>597.10998535</ele>
        <time>2020-10-29T14:21:38Z</time>
      </trkpt>
      <trkpt lat="43.03316" lon="0.87094">
        <ele>598.05999756</ele>
        <time>2020-10-29T14:21:40Z</time>
      </trkpt>
      <trkpt lat="43.03312" lon="0.87098">
        <ele>598.40002441</ele>
        <time>2020-10-29T14:21:41Z</time>
      </trkpt>
      <trkpt lat="43.03306" lon="0.87103">
        <ele>598.34997559</ele>
        <time>2020-10-29T14:21:42Z</time>
      </trkpt>
      <trkpt lat="43.03302" lon="0.87106">
        <ele>598.44000244</ele>
        <time>2020-10-29T14:21:43Z</time>
      </trkpt>
      <trkpt lat="43.03297" lon="0.87108">
        <ele>599.33001709</ele>
        <time>2020-10-29T14:21:45Z</time>
      </trkpt>
      <trkpt lat="43.03293" lon="0.8711">
        <ele>599.33001709</ele>
        <time>2020-10-29T14:21:46Z</time>
      </trkpt>
      <trkpt lat="43.03288" lon="0.87111">
        <ele>600.10998535</ele>
        <time>2020-10-29T14:21:47Z</time>
      </trkpt>
      <trkpt lat="43.03277" lon="0.87115">
        <ele>601.39001465</ele>
        <time>2020-10-29T14:21:49Z</time>
      </trkpt>
      <trkpt lat="43.03272" lon="0.8712">
        <ele>601.73999023</ele>
        <time>2020-10-29T14:21:50Z</time>
      </trkpt>
      <trkpt lat="43.03267" lon="0.87123">
        <ele>602.01000977</ele>
        <time>2020-10-29T14:21:51Z</time>
      </trkpt>
      <trkpt lat="43.03261" lon="0.87125">
        <ele>602.70001221</ele>
        <time>2020-10-29T14:21:53Z</time>
      </trkpt>
      <trkpt lat="43.03257" lon="0.87127">
        <ele>603.30999756</ele>
        <time>2020-10-29T14:21:54Z</time>
      </trkpt>
      <trkpt lat="43.03253" lon="0.87129">
        <ele>603.23999023</ele>
        <time>2020-10-29T14:21:55Z</time>
      </trkpt>
      <trkpt lat="43.03248" lon="0.87131">
        <ele>603.86999512</ele>
        <time>2020-10-29T14:21:57Z</time>
      </trkpt>
      <trkpt lat="43.03241" lon="0.87134">
        <ele>604.53997803</ele>
        <time>2020-10-29T14:21:58Z</time>
      </trkpt>
      <trkpt lat="43.03236" lon="0.87136">
        <ele>605.97998047</ele>
        <time>2020-10-29T14:22:00Z</time>
      </trkpt>
      <trkpt lat="43.03232" lon="0.87138">
        <ele>605.97998047</ele>
        <time>2020-10-29T14:22:01Z</time>
      </trkpt>
      <trkpt lat="43.03225" lon="0.8714">
        <ele>606.5</ele>
        <time>2020-10-29T14:22:02Z</time>
      </trkpt>
      <trkpt lat="43.03221" lon="0.8714">
        <ele>606.65002441</ele>
        <time>2020-10-29T14:22:04Z</time>
      </trkpt>
      <trkpt lat="43.03214" lon="0.8714">
        <ele>606.73999023</ele>
        <time>2020-10-29T14:22:05Z</time>
      </trkpt>
      <trkpt lat="43.03209" lon="0.87139">
        <ele>607.05999756</ele>
        <time>2020-10-29T14:22:06Z</time>
      </trkpt>
      <trkpt lat="43.03204" lon="0.87138">
        <ele>607.73999023</ele>
        <time>2020-10-29T14:22:07Z</time>
      </trkpt>
      <trkpt lat="43.03197" lon="0.87136">
        <ele>608.19000244</ele>
        <time>2020-10-29T14:22:09Z</time>
      </trkpt>
      <trkpt lat="43.03192" lon="0.87135">
        <ele>609.91998291</ele>
        <time>2020-10-29T14:22:11Z</time>
      </trkpt>
      <trkpt lat="43.03186" lon="0.87136">
        <ele>609.95001221</ele>
        <time>2020-10-29T14:22:12Z</time>
      </trkpt>
      <trkpt lat="43.0318" lon="0.87136">
        <ele>609.80999756</ele>
        <time>2020-10-29T14:22:13Z</time>
      </trkpt>
      <trkpt lat="43.03176" lon="0.87137">
        <ele>609.73999023</ele>
        <time>2020-10-29T14:22:15Z</time>
      </trkpt>
      <trkpt lat="43.03169" lon="0.87138">
        <ele>609.96002197</ele>
        <time>2020-10-29T14:22:16Z</time>
      </trkpt>
      <trkpt lat="43.03164" lon="0.87137">
        <ele>610.34002686</ele>
        <time>2020-10-29T14:22:17Z</time>
      </trkpt>
      <trkpt lat="43.0316" lon="0.87137">
        <ele>610.60998535</ele>
        <time>2020-10-29T14:22:18Z</time>
      </trkpt>
      <trkpt lat="43.03155" lon="0.87138">
        <ele>612.19000244</ele>
        <time>2020-10-29T14:22:20Z</time>
      </trkpt>
      <trkpt lat="43.03148" lon="0.87139">
        <ele>612.51000977</ele>
        <time>2020-10-29T14:22:21Z</time>
      </trkpt>
      <trkpt lat="43.03144" lon="0.8714">
        <ele>613.19000244</ele>
        <time>2020-10-29T14:22:23Z</time>
      </trkpt>
      <trkpt lat="43.0314" lon="0.87142">
        <ele>613.19000244</ele>
        <time>2020-10-29T14:22:24Z</time>
      </trkpt>
      <trkpt lat="43.03133" lon="0.87145">
        <ele>614.15002441</ele>
        <time>2020-10-29T14:22:25Z</time>
      </trkpt>
      <trkpt lat="43.03128" lon="0.87148">
        <ele>614.96002197</ele>
        <time>2020-10-29T14:22:26Z</time>
      </trkpt>
      <trkpt lat="43.03123" lon="0.8715">
        <ele>615.29998779</ele>
        <time>2020-10-29T14:22:27Z</time>
      </trkpt>
      <trkpt lat="43.03119" lon="0.87152">
        <ele>615.65002441</ele>
        <time>2020-10-29T14:22:28Z</time>
      </trkpt>
      <trkpt lat="43.03114" lon="0.87155">
        <ele>616.27001953</ele>
        <time>2020-10-29T14:22:30Z</time>
      </trkpt>
      <trkpt lat="43.03108" lon="0.8716">
        <ele>616.94000244</ele>
        <time>2020-10-29T14:22:31Z</time>
      </trkpt>
      <trkpt lat="43.03101" lon="0.87164">
        <ele>617.64001465</ele>
        <time>2020-10-29T14:22:33Z</time>
      </trkpt>
      <trkpt lat="43.03094" lon="0.87169">
        <ele>617.90997314</ele>
        <time>2020-10-29T14:22:34Z</time>
      </trkpt>
      <trkpt lat="43.03089" lon="0.87172">
        <ele>618.34002686</ele>
        <time>2020-10-29T14:22:36Z</time>
      </trkpt>
      <trkpt lat="43.03083" lon="0.87176">
        <ele>618.59997559</ele>
        <time>2020-10-29T14:22:37Z</time>
      </trkpt>
      <trkpt lat="43.03079" lon="0.87178">
        <ele>618.47998047</ele>
        <time>2020-10-29T14:22:38Z</time>
      </trkpt>
      <trkpt lat="43.03075" lon="0.87179">
        <ele>619.47998047</ele>
        <time>2020-10-29T14:22:40Z</time>
      </trkpt>
      <trkpt lat="43.03066" lon="0.87181">
        <ele>620.33001709</ele>
        <time>2020-10-29T14:22:42Z</time>
      </trkpt>
      <trkpt lat="43.0306" lon="0.87182">
        <ele>621.02001953</ele>
        <time>2020-10-29T14:22:43Z</time>
      </trkpt>
      <trkpt lat="43.03056" lon="0.87183">
        <ele>621.2800293</ele>
        <time>2020-10-29T14:22:45Z</time>
      </trkpt>
      <trkpt lat="43.03052" lon="0.87183">
        <ele>621.2800293</ele>
        <time>2020-10-29T14:22:46Z</time>
      </trkpt>
      <trkpt lat="43.03045" lon="0.87184">
        <ele>622.70001221</ele>
        <time>2020-10-29T14:22:47Z</time>
      </trkpt>
      <trkpt lat="43.03041" lon="0.87185">
        <ele>623.55999756</ele>
        <time>2020-10-29T14:22:49Z</time>
      </trkpt>
      <trkpt lat="43.03038" lon="0.87185">
        <ele>624.96002197</ele>
        <time>2020-10-29T14:22:50Z</time>
      </trkpt>
      <trkpt lat="43.03034" lon="0.87186">
        <ele>625.41998291</ele>
        <time>2020-10-29T14:22:51Z</time>
      </trkpt>
      <trkpt lat="43.03031" lon="0.87187">
        <ele>626.07000732</ele>
        <time>2020-10-29T14:22:52Z</time>
      </trkpt>
      <trkpt lat="43.03028" lon="0.8719">
        <ele>626.34997559</ele>
        <time>2020-10-29T14:22:53Z</time>
      </trkpt>
      <trkpt lat="43.03023" lon="0.87193">
        <ele>626.30999756</ele>
        <time>2020-10-29T14:22:54Z</time>
      </trkpt>
      <trkpt lat="43.03018" lon="0.87197">
        <ele>627.32000732</ele>
        <time>2020-10-29T14:22:56Z</time>
      </trkpt>
      <trkpt lat="43.03014" lon="0.87201">
        <ele>628.07000732</ele>
        <time>2020-10-29T14:22:58Z</time>
      </trkpt>
      <trkpt lat="43.03009" lon="0.87208">
        <ele>628.90997314</ele>
        <time>2020-10-29T14:22:59Z</time>
      </trkpt>
      <trkpt lat="43.03004" lon="0.87216">
        <ele>629.15002441</ele>
        <time>2020-10-29T14:23:01Z</time>
      </trkpt>
      <trkpt lat="43.03" lon="0.87227">
        <ele>629.59997559</ele>
        <time>2020-10-29T14:23:02Z</time>
      </trkpt>
      <trkpt lat="43.02996" lon="0.87235">
        <ele>629.05999756</ele>
        <time>2020-10-29T14:23:03Z</time>
      </trkpt>
      <trkpt lat="43.02993" lon="0.87243">
        <ele>628.98999023</ele>
        <time>2020-10-29T14:23:05Z</time>
      </trkpt>
      <trkpt lat="43.0299" lon="0.87251">
        <ele>629.58001709</ele>
        <time>2020-10-29T14:23:06Z</time>
      </trkpt>
      <trkpt lat="43.02987" lon="0.87259">
        <ele>630.15002441</ele>
        <time>2020-10-29T14:23:08Z</time>
      </trkpt>
      <trkpt lat="43.02985" lon="0.87268">
        <ele>630.55999756</ele>
        <time>2020-10-29T14:23:09Z</time>
      </trkpt>
      <trkpt lat="43.02983" lon="0.87273">
        <ele>631.20001221</ele>
        <time>2020-10-29T14:23:10Z</time>
      </trkpt>
      <trkpt lat="43.02981" lon="0.8728">
        <ele>632.26000977</ele>
        <time>2020-10-29T14:23:12Z</time>
      </trkpt>
      <trkpt lat="43.02978" lon="0.8729">
        <ele>634.76000977</ele>
        <time>2020-10-29T14:23:14Z</time>
      </trkpt>
      <trkpt lat="43.02977" lon="0.87295">
        <ele>634.53997803</ele>
        <time>2020-10-29T14:23:15Z</time>
      </trkpt>
      <trkpt lat="43.02975" lon="0.87299">
        <ele>634.53997803</ele>
        <time>2020-10-29T14:23:16Z</time>
      </trkpt>
      <trkpt lat="43.02973" lon="0.87308">
        <ele>636.0300293</ele>
        <time>2020-10-29T14:23:17Z</time>
      </trkpt>
      <trkpt lat="43.02971" lon="0.87316">
        <ele>635.83001709</ele>
        <time>2020-10-29T14:23:19Z</time>
      </trkpt>
      <trkpt lat="43.0297" lon="0.87323">
        <ele>636.16998291</ele>
        <time>2020-10-29T14:23:20Z</time>
      </trkpt>
      <trkpt lat="43.02968" lon="0.87331">
        <ele>636.40997314</ele>
        <time>2020-10-29T14:23:21Z</time>
      </trkpt>
      <trkpt lat="43.02967" lon="0.8734">
        <ele>636.44000244</ele>
        <time>2020-10-29T14:23:23Z</time>
      </trkpt>
      <trkpt lat="43.02966" lon="0.8735">
        <ele>636.52001953</ele>
        <time>2020-10-29T14:23:24Z</time>
      </trkpt>
      <trkpt lat="43.02966" lon="0.87357">
        <ele>638.53997803</ele>
        <time>2020-10-29T14:23:25Z</time>
      </trkpt>
      <trkpt lat="43.02965" lon="0.87365">
        <ele>638.59997559</ele>
        <time>2020-10-29T14:23:26Z</time>
      </trkpt>
      <trkpt lat="43.02964" lon="0.87374">
        <ele>638.76000977</ele>
        <time>2020-10-29T14:23:27Z</time>
      </trkpt>
      <trkpt lat="43.02965" lon="0.87384">
        <ele>638.86999512</ele>
        <time>2020-10-29T14:23:29Z</time>
      </trkpt>
      <trkpt lat="43.02966" lon="0.87391">
        <ele>639.91998291</ele>
        <time>2020-10-29T14:23:31Z</time>
      </trkpt>
      <trkpt lat="43.02969" lon="0.87396">
        <ele>640.48999023</ele>
        <time>2020-10-29T14:23:32Z</time>
      </trkpt>
      <trkpt lat="43.02972" lon="0.87401">
        <ele>639.65997314</ele>
        <time>2020-10-29T14:23:33Z</time>
      </trkpt>
      <trkpt lat="43.02976" lon="0.87407">
        <ele>639.84997559</ele>
        <time>2020-10-29T14:23:34Z</time>
      </trkpt>
      <trkpt lat="43.02979" lon="0.87415">
        <ele>640.55999756</ele>
        <time>2020-10-29T14:23:35Z</time>
      </trkpt>
      <trkpt lat="43.02981" lon="0.87426">
        <ele>640.77001953</ele>
        <time>2020-10-29T14:23:37Z</time>
      </trkpt>
      <trkpt lat="43.02981" lon="0.87431">
        <ele>641.22998047</ele>
        <time>2020-10-29T14:23:38Z</time>
      </trkpt>
      <trkpt lat="43.02978" lon="0.87434">
        <ele>641.73999023</ele>
        <time>2020-10-29T14:23:40Z</time>
      </trkpt>
      <trkpt lat="43.02975" lon="0.87433">
        <ele>642.4699707</ele>
        <time>2020-10-29T14:23:41Z</time>
      </trkpt>
      <trkpt lat="43.02972" lon="0.87432">
        <ele>641.9699707</ele>
        <time>2020-10-29T14:23:42Z</time>
      </trkpt>
      <trkpt lat="43.02967" lon="0.8743">
        <ele>642.71002197</ele>
        <time>2020-10-29T14:23:44Z</time>
      </trkpt>
      <trkpt lat="43.02964" lon="0.87427">
        <ele>643.14001465</ele>
        <time>2020-10-29T14:23:45Z</time>
      </trkpt>
      <trkpt lat="43.02961" lon="0.87423">
        <ele>643.64001465</ele>
        <time>2020-10-29T14:23:46Z</time>
      </trkpt>
      <trkpt lat="43.02958" lon="0.87418">
        <ele>643.5300293</ele>
        <time>2020-10-29T14:23:47Z</time>
      </trkpt>
      <trkpt lat="43.02955" lon="0.87413">
        <ele>643.40997314</ele>
        <time>2020-10-29T14:23:48Z</time>
      </trkpt>
      <trkpt lat="43.02952" lon="0.87404">
        <ele>644.35998535</ele>
        <time>2020-10-29T14:23:50Z</time>
      </trkpt>
      <trkpt lat="43.0295" lon="0.87394">
        <ele>644.79998779</ele>
        <time>2020-10-29T14:23:51Z</time>
      </trkpt>
      <trkpt lat="43.02949" lon="0.87385">
        <ele>644.96002197</ele>
        <time>2020-10-29T14:23:52Z</time>
      </trkpt>
      <trkpt lat="43.02948" lon="0.87377">
        <ele>644.57000732</ele>
        <time>2020-10-29T14:23:53Z</time>
      </trkpt>
      <trkpt lat="43.02947" lon="0.87371">
        <ele>644.48999023</ele>
        <time>2020-10-29T14:23:54Z</time>
      </trkpt>
      <trkpt lat="43.02947" lon="0.87361">
        <ele>642.97998047</ele>
        <time>2020-10-29T14:23:56Z</time>
      </trkpt>
      <trkpt lat="43.02947" lon="0.87353">
        <ele>643.55999756</ele>
        <time>2020-10-29T14:23:57Z</time>
      </trkpt>
      <trkpt lat="43.02946" lon="0.87346">
        <ele>643.04998779</ele>
        <time>2020-10-29T14:23:59Z</time>
      </trkpt>
      <trkpt lat="43.02948" lon="0.87334">
        <ele>643.45001221</ele>
        <time>2020-10-29T14:24:01Z</time>
      </trkpt>
      <trkpt lat="43.02951" lon="0.87311">
        <ele>644.75</ele>
        <time>2020-10-29T14:24:03Z</time>
      </trkpt>
      <trkpt lat="43.02952" lon="0.87303">
        <ele>645.26000977</ele>
        <time>2020-10-29T14:24:04Z</time>
      </trkpt>
      <trkpt lat="43.02954" lon="0.87286">
        <ele>645.28997803</ele>
        <time>2020-10-29T14:24:06Z</time>
      </trkpt>
      <trkpt lat="43.02956" lon="0.87271">
        <ele>644.69000244</ele>
        <time>2020-10-29T14:24:08Z</time>
      </trkpt>
      <trkpt lat="43.02958" lon="0.87258">
        <ele>645.27001953</ele>
        <time>2020-10-29T14:24:10Z</time>
      </trkpt>
      <trkpt lat="43.02959" lon="0.87251">
        <ele>646.02001953</ele>
        <time>2020-10-29T14:24:11Z</time>
      </trkpt>
      <trkpt lat="43.0296" lon="0.87246">
        <ele>646.02001953</ele>
        <time>2020-10-29T14:24:12Z</time>
      </trkpt>
      <trkpt lat="43.02964" lon="0.87237">
        <ele>646.82000732</ele>
        <time>2020-10-29T14:24:13Z</time>
      </trkpt>
      <trkpt lat="43.02966" lon="0.87227">
        <ele>648.01000977</ele>
        <time>2020-10-29T14:24:15Z</time>
      </trkpt>
      <trkpt lat="43.02968" lon="0.8722">
        <ele>647.89001465</ele>
        <time>2020-10-29T14:24:16Z</time>
      </trkpt>
      <trkpt lat="43.02973" lon="0.87211">
        <ele>649.09002686</ele>
        <time>2020-10-29T14:24:18Z</time>
      </trkpt>
      <trkpt lat="43.02978" lon="0.87204">
        <ele>649.70001221</ele>
        <time>2020-10-29T14:24:20Z</time>
      </trkpt>
      <trkpt lat="43.02986" lon="0.87192">
        <ele>650.14001465</ele>
        <time>2020-10-29T14:24:22Z</time>
      </trkpt>
      <trkpt lat="43.0299" lon="0.87187">
        <ele>649.83001709</ele>
        <time>2020-10-29T14:24:23Z</time>
      </trkpt>
      <trkpt lat="43.02993" lon="0.87183">
        <ele>650.40997314</ele>
        <time>2020-10-29T14:24:24Z</time>
      </trkpt>
      <trkpt lat="43.02998" lon="0.87176">
        <ele>650.2199707</ele>
        <time>2020-10-29T14:24:25Z</time>
      </trkpt>
      <trkpt lat="43.03002" lon="0.87172">
        <ele>650.35998535</ele>
        <time>2020-10-29T14:24:26Z</time>
      </trkpt>
      <trkpt lat="43.03006" lon="0.87168">
        <ele>650.70001221</ele>
        <time>2020-10-29T14:24:27Z</time>
      </trkpt>
      <trkpt lat="43.03011" lon="0.87163">
        <ele>651.14001465</ele>
        <time>2020-10-29T14:24:29Z</time>
      </trkpt>
      <trkpt lat="43.03016" lon="0.87158">
        <ele>651.01000977</ele>
        <time>2020-10-29T14:24:31Z</time>
      </trkpt>
      <trkpt lat="43.03019" lon="0.87154">
        <ele>651.34997559</ele>
        <time>2020-10-29T14:24:32Z</time>
      </trkpt>
      <trkpt lat="43.03023" lon="0.8715">
        <ele>651.16998291</ele>
        <time>2020-10-29T14:24:33Z</time>
      </trkpt>
      <trkpt lat="43.03027" lon="0.87147">
        <ele>652.14001465</ele>
        <time>2020-10-29T14:24:34Z</time>
      </trkpt>
      <trkpt lat="43.0303" lon="0.87144">
        <ele>652.11999512</ele>
        <time>2020-10-29T14:24:36Z</time>
      </trkpt>
      <trkpt lat="43.03035" lon="0.87139">
        <ele>652.05999756</ele>
        <time>2020-10-29T14:24:37Z</time>
      </trkpt>
      <trkpt lat="43.03038" lon="0.87135">
        <ele>652.66998291</ele>
        <time>2020-10-29T14:24:39Z</time>
      </trkpt>
      <trkpt lat="43.03043" lon="0.87129">
        <ele>653.63000488</ele>
        <time>2020-10-29T14:24:40Z</time>
      </trkpt>
      <trkpt lat="43.03047" lon="0.87125">
        <ele>653.34997559</ele>
        <time>2020-10-29T14:24:41Z</time>
      </trkpt>
      <trkpt lat="43.03051" lon="0.8712">
        <ele>653.51000977</ele>
        <time>2020-10-29T14:24:43Z</time>
      </trkpt>
      <trkpt lat="43.03056" lon="0.87114">
        <ele>653.65002441</ele>
        <time>2020-10-29T14:24:44Z</time>
      </trkpt>
      <trkpt lat="43.03063" lon="0.87108">
        <ele>655.7199707</ele>
        <time>2020-10-29T14:24:46Z</time>
      </trkpt>
      <trkpt lat="43.0307" lon="0.87106">
        <ele>656.90997314</ele>
        <time>2020-10-29T14:24:48Z</time>
      </trkpt>
      <trkpt lat="43.03074" lon="0.87104">
        <ele>656.75</ele>
        <time>2020-10-29T14:24:49Z</time>
      </trkpt>
      <trkpt lat="43.03079" lon="0.87102">
        <ele>657.01000977</ele>
        <time>2020-10-29T14:24:50Z</time>
      </trkpt>
      <trkpt lat="43.03083" lon="0.871">
        <ele>657.35998535</ele>
        <time>2020-10-29T14:24:51Z</time>
      </trkpt>
      <trkpt lat="43.03088" lon="0.87099">
        <ele>657.59002686</ele>
        <time>2020-10-29T14:24:53Z</time>
      </trkpt>
      <trkpt lat="43.03093" lon="0.87096">
        <ele>657.9699707</ele>
        <time>2020-10-29T14:24:54Z</time>
      </trkpt>
      <trkpt lat="43.03099" lon="0.87095">
        <ele>658.46002197</ele>
        <time>2020-10-29T14:24:55Z</time>
      </trkpt>
      <trkpt lat="43.03104" lon="0.87092">
        <ele>658.88000488</ele>
        <time>2020-10-29T14:24:57Z</time>
      </trkpt>
      <trkpt lat="43.03109" lon="0.8709">
        <ele>658.96002197</ele>
        <time>2020-10-29T14:24:58Z</time>
      </trkpt>
      <trkpt lat="43.03112" lon="0.87089">
        <ele>659.51000977</ele>
        <time>2020-10-29T14:24:59Z</time>
      </trkpt>
      <trkpt lat="43.03115" lon="0.87087">
        <ele>660.65002441</ele>
        <time>2020-10-29T14:25:01Z</time>
      </trkpt>
      <trkpt lat="43.03121" lon="0.87083">
        <ele>660.75</ele>
        <time>2020-10-29T14:25:02Z</time>
      </trkpt>
      <trkpt lat="43.03125" lon="0.87078">
        <ele>661.39001465</ele>
        <time>2020-10-29T14:25:04Z</time>
      </trkpt>
      <trkpt lat="43.03126" lon="0.87072">
        <ele>661.48999023</ele>
        <time>2020-10-29T14:25:05Z</time>
      </trkpt>
      <trkpt lat="43.03126" lon="0.87066">
        <ele>661.48999023</ele>
        <time>2020-10-29T14:25:06Z</time>
      </trkpt>
      <trkpt lat="43.03125" lon="0.87058">
        <ele>661.95001221</ele>
        <time>2020-10-29T14:25:07Z</time>
      </trkpt>
      <trkpt lat="43.03122" lon="0.87049">
        <ele>661.88000488</ele>
        <time>2020-10-29T14:25:08Z</time>
      </trkpt>
      <trkpt lat="43.03119" lon="0.8704">
        <ele>663.65002441</ele>
        <time>2020-10-29T14:25:10Z</time>
      </trkpt>
      <trkpt lat="43.03117" lon="0.87033">
        <ele>663.65002441</ele>
        <time>2020-10-29T14:25:11Z</time>
      </trkpt>
      <trkpt lat="43.0311" lon="0.87006">
        <ele>660.90002441</ele>
        <time>2020-10-29T14:25:13Z</time>
      </trkpt>
      <trkpt lat="43.03105" lon="0.86992">
        <ele>662.90002441</ele>
        <time>2020-10-29T14:25:15Z</time>
      </trkpt>
      <trkpt lat="43.03099" lon="0.86987">
        <ele>663</ele>
        <time>2020-10-29T14:25:16Z</time>
      </trkpt>
      <trkpt lat="43.03096" lon="0.86982">
        <ele>663.83001709</ele>
        <time>2020-10-29T14:25:17Z</time>
      </trkpt>
      <trkpt lat="43.03093" lon="0.86976">
        <ele>665.36999512</ele>
        <time>2020-10-29T14:25:19Z</time>
      </trkpt>
      <trkpt lat="43.03089" lon="0.8697">
        <ele>665.71002197</ele>
        <time>2020-10-29T14:25:20Z</time>
      </trkpt>
      <trkpt lat="43.03085" lon="0.86963">
        <ele>666.59002686</ele>
        <time>2020-10-29T14:25:21Z</time>
      </trkpt>
      <trkpt lat="43.03079" lon="0.86954">
        <ele>666.36999512</ele>
        <time>2020-10-29T14:25:23Z</time>
      </trkpt>
      <trkpt lat="43.03079" lon="0.86945">
        <ele>666.59997559</ele>
        <time>2020-10-29T14:25:24Z</time>
      </trkpt>
      <trkpt lat="43.03076" lon="0.86939">
        <ele>669.40997314</ele>
        <time>2020-10-29T14:25:26Z</time>
      </trkpt>
      <trkpt lat="43.03073" lon="0.86929">
        <ele>670.84997559</ele>
        <time>2020-10-29T14:25:27Z</time>
      </trkpt>
      <trkpt lat="43.03068" lon="0.86914">
        <ele>671.45001221</ele>
        <time>2020-10-29T14:25:29Z</time>
      </trkpt>
      <trkpt lat="43.03064" lon="0.86899">
        <ele>671.94000244</ele>
        <time>2020-10-29T14:25:31Z</time>
      </trkpt>
      <trkpt lat="43.03062" lon="0.86883">
        <ele>672.25</ele>
        <time>2020-10-29T14:25:33Z</time>
      </trkpt>
      <trkpt lat="43.0306" lon="0.86876">
        <ele>672.59002686</ele>
        <time>2020-10-29T14:25:34Z</time>
      </trkpt>
      <trkpt lat="43.03059" lon="0.8687">
        <ele>673.2800293</ele>
        <time>2020-10-29T14:25:35Z</time>
      </trkpt>
      <trkpt lat="43.03057" lon="0.86857">
        <ele>674.30999756</ele>
        <time>2020-10-29T14:25:37Z</time>
      </trkpt>
      <trkpt lat="43.03055" lon="0.86851">
        <ele>674.4699707</ele>
        <time>2020-10-29T14:25:38Z</time>
      </trkpt>
      <trkpt lat="43.03051" lon="0.86839">
        <ele>675.15002441</ele>
        <time>2020-10-29T14:25:40Z</time>
      </trkpt>
      <trkpt lat="43.03046" lon="0.8683">
        <ele>676</ele>
        <time>2020-10-29T14:25:42Z</time>
      </trkpt>
      <trkpt lat="43.03042" lon="0.86825">
        <ele>676.30999756</ele>
        <time>2020-10-29T14:25:43Z</time>
      </trkpt>
      <trkpt lat="43.03039" lon="0.8682">
        <ele>676.59997559</ele>
        <time>2020-10-29T14:25:44Z</time>
      </trkpt>
      <trkpt lat="43.03031" lon="0.86811">
        <ele>677.19000244</ele>
        <time>2020-10-29T14:25:46Z</time>
      </trkpt>
      <trkpt lat="43.03027" lon="0.86807">
        <ele>677.70001221</ele>
        <time>2020-10-29T14:25:47Z</time>
      </trkpt>
      <trkpt lat="43.03019" lon="0.868">
        <ele>678.21002197</ele>
        <time>2020-10-29T14:25:49Z</time>
      </trkpt>
      <trkpt lat="43.03016" lon="0.86797">
        <ele>678.60998535</ele>
        <time>2020-10-29T14:25:50Z</time>
      </trkpt>
      <trkpt lat="43.03009" lon="0.86791">
        <ele>679.76000977</ele>
        <time>2020-10-29T14:25:52Z</time>
      </trkpt>
      <trkpt lat="43.03005" lon="0.86784">
        <ele>680</ele>
        <time>2020-10-29T14:25:53Z</time>
      </trkpt>
      <trkpt lat="43.03" lon="0.8678">
        <ele>680.73999023</ele>
        <time>2020-10-29T14:25:54Z</time>
      </trkpt>
      <trkpt lat="43.02992" lon="0.86781">
        <ele>681.23999023</ele>
        <time>2020-10-29T14:25:56Z</time>
      </trkpt>
      <trkpt lat="43.02987" lon="0.86782">
        <ele>681.48999023</ele>
        <time>2020-10-29T14:25:57Z</time>
      </trkpt>
      <trkpt lat="43.02982" lon="0.86781">
        <ele>682.10998535</ele>
        <time>2020-10-29T14:25:58Z</time>
      </trkpt>
      <trkpt lat="43.02977" lon="0.8678">
        <ele>682.48999023</ele>
        <time>2020-10-29T14:25:59Z</time>
      </trkpt>
      <trkpt lat="43.0297" lon="0.86781">
        <ele>683.82000732</ele>
        <time>2020-10-29T14:26:01Z</time>
      </trkpt>
      <trkpt lat="43.02965" lon="0.86781">
        <ele>684.14001465</ele>
        <time>2020-10-29T14:26:02Z</time>
      </trkpt>
      <trkpt lat="43.02959" lon="0.86779">
        <ele>684.04998779</ele>
        <time>2020-10-29T14:26:03Z</time>
      </trkpt>
      <trkpt lat="43.02955" lon="0.86779">
        <ele>683.92999268</ele>
        <time>2020-10-29T14:26:04Z</time>
      </trkpt>
      <trkpt lat="43.02951" lon="0.86779">
        <ele>684.38000488</ele>
        <time>2020-10-29T14:26:06Z</time>
      </trkpt>
      <trkpt lat="43.02945" lon="0.86781">
        <ele>683.95001221</ele>
        <time>2020-10-29T14:26:07Z</time>
      </trkpt>
      <trkpt lat="43.0294" lon="0.86783">
        <ele>684.08001709</ele>
        <time>2020-10-29T14:26:08Z</time>
      </trkpt>
      <trkpt lat="43.02935" lon="0.86785">
        <ele>683.79998779</ele>
        <time>2020-10-29T14:26:10Z</time>
      </trkpt>
      <trkpt lat="43.0293" lon="0.86785">
        <ele>683.88000488</ele>
        <time>2020-10-29T14:26:11Z</time>
      </trkpt>
      <trkpt lat="43.02925" lon="0.86785">
        <ele>685.57000732</ele>
        <time>2020-10-29T14:26:13Z</time>
      </trkpt>
      <trkpt lat="43.02922" lon="0.86785">
        <ele>686</ele>
        <time>2020-10-29T14:26:14Z</time>
      </trkpt>
      <trkpt lat="43.02917" lon="0.86783">
        <ele>686.90002441</ele>
        <time>2020-10-29T14:26:15Z</time>
      </trkpt>
      <trkpt lat="43.02914" lon="0.86782">
        <ele>686.32000732</ele>
        <time>2020-10-29T14:26:17Z</time>
      </trkpt>
      <trkpt lat="43.02908" lon="0.8678">
        <ele>687.4699707</ele>
        <time>2020-10-29T14:26:19Z</time>
      </trkpt>
      <trkpt lat="43.02902" lon="0.86779">
        <ele>689</ele>
        <time>2020-10-29T14:26:20Z</time>
      </trkpt>
      <trkpt lat="43.02898" lon="0.86777">
        <ele>688.97998047</ele>
        <time>2020-10-29T14:26:22Z</time>
      </trkpt>
      <trkpt lat="43.02893" lon="0.86776">
        <ele>691.55999756</ele>
        <time>2020-10-29T14:26:23Z</time>
      </trkpt>
      <trkpt lat="43.02889" lon="0.86774">
        <ele>691.7800293</ele>
        <time>2020-10-29T14:26:24Z</time>
      </trkpt>
      <trkpt lat="43.02884" lon="0.86771">
        <ele>691.9699707</ele>
        <time>2020-10-29T14:26:26Z</time>
      </trkpt>
      <trkpt lat="43.02877" lon="0.86767">
        <ele>693.36999512</ele>
        <time>2020-10-29T14:26:28Z</time>
      </trkpt>
      <trkpt lat="43.02875" lon="0.86765">
        <ele>693.36999512</ele>
        <time>2020-10-29T14:26:29Z</time>
      </trkpt>
      <trkpt lat="43.02871" lon="0.8676">
        <ele>693.20001221</ele>
        <time>2020-10-29T14:26:30Z</time>
      </trkpt>
      <trkpt lat="43.02867" lon="0.86756">
        <ele>694.21002197</ele>
        <time>2020-10-29T14:26:31Z</time>
      </trkpt>
      <trkpt lat="43.02864" lon="0.86753">
        <ele>693.26000977</ele>
        <time>2020-10-29T14:26:33Z</time>
      </trkpt>
      <trkpt lat="43.02862" lon="0.86749">
        <ele>694.09997559</ele>
        <time>2020-10-29T14:26:34Z</time>
      </trkpt>
      <trkpt lat="43.02859" lon="0.86744">
        <ele>694.95001221</ele>
        <time>2020-10-29T14:26:35Z</time>
      </trkpt>
      <trkpt lat="43.02856" lon="0.86739">
        <ele>696.10998535</ele>
        <time>2020-10-29T14:26:36Z</time>
      </trkpt>
      <trkpt lat="43.02853" lon="0.86732">
        <ele>696.05999756</ele>
        <time>2020-10-29T14:26:38Z</time>
      </trkpt>
      <trkpt lat="43.02851" lon="0.86725">
        <ele>695.09997559</ele>
        <time>2020-10-29T14:26:39Z</time>
      </trkpt>
      <trkpt lat="43.02849" lon="0.86719">
        <ele>694</ele>
        <time>2020-10-29T14:26:40Z</time>
      </trkpt>
      <trkpt lat="43.02845" lon="0.86711">
        <ele>696.84002686</ele>
        <time>2020-10-29T14:26:42Z</time>
      </trkpt>
      <trkpt lat="43.02842" lon="0.86702">
        <ele>697.41998291</ele>
        <time>2020-10-29T14:26:43Z</time>
      </trkpt>
      <trkpt lat="43.0284" lon="0.86694">
        <ele>697.33001709</ele>
        <time>2020-10-29T14:26:44Z</time>
      </trkpt>
      <trkpt lat="43.02837" lon="0.86686">
        <ele>697.59997559</ele>
        <time>2020-10-29T14:26:46Z</time>
      </trkpt>
      <trkpt lat="43.02834" lon="0.86678">
        <ele>696.94000244</ele>
        <time>2020-10-29T14:26:47Z</time>
      </trkpt>
      <trkpt lat="43.02831" lon="0.86669">
        <ele>697.69000244</ele>
        <time>2020-10-29T14:26:48Z</time>
      </trkpt>
      <trkpt lat="43.02828" lon="0.86661">
        <ele>698.27001953</ele>
        <time>2020-10-29T14:26:50Z</time>
      </trkpt>
      <trkpt lat="43.02826" lon="0.86656">
        <ele>699.51000977</ele>
        <time>2020-10-29T14:26:51Z</time>
      </trkpt>
      <trkpt lat="43.02824" lon="0.8665">
        <ele>700.59997559</ele>
        <time>2020-10-29T14:26:53Z</time>
      </trkpt>
      <trkpt lat="43.02822" lon="0.86645">
        <ele>701.92999268</ele>
        <time>2020-10-29T14:26:54Z</time>
      </trkpt>
      <trkpt lat="43.0282" lon="0.86639">
        <ele>702.09002686</ele>
        <time>2020-10-29T14:26:55Z</time>
      </trkpt>
      <trkpt lat="43.02818" lon="0.86632">
        <ele>703.94000244</ele>
        <time>2020-10-29T14:26:57Z</time>
      </trkpt>
      <trkpt lat="43.02817" lon="0.86625">
        <ele>703.78997803</ele>
        <time>2020-10-29T14:26:58Z</time>
      </trkpt>
      <trkpt lat="43.02816" lon="0.86617">
        <ele>703.84002686</ele>
        <time>2020-10-29T14:27:00Z</time>
      </trkpt>
      <trkpt lat="43.02815" lon="0.86609">
        <ele>704.83001709</ele>
        <time>2020-10-29T14:27:01Z</time>
      </trkpt>
      <trkpt lat="43.02814" lon="0.86603">
        <ele>704.34002686</ele>
        <time>2020-10-29T14:27:02Z</time>
      </trkpt>
      <trkpt lat="43.02814" lon="0.86596">
        <ele>703.9699707</ele>
        <time>2020-10-29T14:27:03Z</time>
      </trkpt>
      <trkpt lat="43.02814" lon="0.8658">
        <ele>705.64001465</ele>
        <time>2020-10-29T14:27:05Z</time>
      </trkpt>
      <trkpt lat="43.02812" lon="0.86564">
        <ele>706.80999756</ele>
        <time>2020-10-29T14:27:07Z</time>
      </trkpt>
      <trkpt lat="43.02809" lon="0.86557">
        <ele>707.0300293</ele>
        <time>2020-10-29T14:27:08Z</time>
      </trkpt>
      <trkpt lat="43.02805" lon="0.8655">
        <ele>707.83001709</ele>
        <time>2020-10-29T14:27:10Z</time>
      </trkpt>
      <trkpt lat="43.02802" lon="0.86546">
        <ele>707.83001709</ele>
        <time>2020-10-29T14:27:11Z</time>
      </trkpt>
      <trkpt lat="43.02797" lon="0.86543">
        <ele>708.65997314</ele>
        <time>2020-10-29T14:27:12Z</time>
      </trkpt>
      <trkpt lat="43.02792" lon="0.86544">
        <ele>708.20001221</ele>
        <time>2020-10-29T14:27:13Z</time>
      </trkpt>
      <trkpt lat="43.02787" lon="0.86548">
        <ele>709.02001953</ele>
        <time>2020-10-29T14:27:15Z</time>
      </trkpt>
      <trkpt lat="43.02782" lon="0.8655">
        <ele>709.54998779</ele>
        <time>2020-10-29T14:27:16Z</time>
      </trkpt>
      <trkpt lat="43.02773" lon="0.86553">
        <ele>711.79998779</ele>
        <time>2020-10-29T14:27:18Z</time>
      </trkpt>
      <trkpt lat="43.02768" lon="0.86554">
        <ele>711.80999756</ele>
        <time>2020-10-29T14:27:19Z</time>
      </trkpt>
      <trkpt lat="43.02759" lon="0.86555">
        <ele>711.88000488</ele>
        <time>2020-10-29T14:27:21Z</time>
      </trkpt>
      <trkpt lat="43.02752" lon="0.86555">
        <ele>711.52001953</ele>
        <time>2020-10-29T14:27:22Z</time>
      </trkpt>
      <trkpt lat="43.02747" lon="0.86556">
        <ele>711.51000977</ele>
        <time>2020-10-29T14:27:24Z</time>
      </trkpt>
      <trkpt lat="43.02742" lon="0.86556">
        <ele>712.2199707</ele>
        <time>2020-10-29T14:27:25Z</time>
      </trkpt>
      <trkpt lat="43.02736" lon="0.86557">
        <ele>712.66998291</ele>
        <time>2020-10-29T14:27:26Z</time>
      </trkpt>
      <trkpt lat="43.0273" lon="0.86557">
        <ele>712.92999268</ele>
        <time>2020-10-29T14:27:27Z</time>
      </trkpt>
      <trkpt lat="43.02726" lon="0.86558">
        <ele>713.21002197</ele>
        <time>2020-10-29T14:27:29Z</time>
      </trkpt>
      <trkpt lat="43.0272" lon="0.8656">
        <ele>713.90997314</ele>
        <time>2020-10-29T14:27:30Z</time>
      </trkpt>
      <trkpt lat="43.02715" lon="0.86561">
        <ele>714.21002197</ele>
        <time>2020-10-29T14:27:32Z</time>
      </trkpt>
      <trkpt lat="43.02711" lon="0.86561">
        <ele>714.84997559</ele>
        <time>2020-10-29T14:27:33Z</time>
      </trkpt>
      <trkpt lat="43.02706" lon="0.86562">
        <ele>714.27001953</ele>
        <time>2020-10-29T14:27:35Z</time>
      </trkpt>
      <trkpt lat="43.02701" lon="0.86563">
        <ele>714.72998047</ele>
        <time>2020-10-29T14:27:36Z</time>
      </trkpt>
      <trkpt lat="43.02697" lon="0.86565">
        <ele>715.0300293</ele>
        <time>2020-10-29T14:27:37Z</time>
      </trkpt>
      <trkpt lat="43.02693" lon="0.86567">
        <ele>715.48999023</ele>
        <time>2020-10-29T14:27:39Z</time>
      </trkpt>
      <trkpt lat="43.02689" lon="0.86569">
        <ele>715.66998291</ele>
        <time>2020-10-29T14:27:40Z</time>
      </trkpt>
      <trkpt lat="43.02684" lon="0.8657">
        <ele>715.94000244</ele>
        <time>2020-10-29T14:27:41Z</time>
      </trkpt>
      <trkpt lat="43.02679" lon="0.8657">
        <ele>716.69000244</ele>
        <time>2020-10-29T14:27:42Z</time>
      </trkpt>
      <trkpt lat="43.02675" lon="0.86571">
        <ele>719.05999756</ele>
        <time>2020-10-29T14:27:44Z</time>
      </trkpt>
      <trkpt lat="43.02666" lon="0.86573">
        <ele>717.90997314</ele>
        <time>2020-10-29T14:27:46Z</time>
      </trkpt>
      <trkpt lat="43.02662" lon="0.86574">
        <ele>718.34002686</ele>
        <time>2020-10-29T14:27:47Z</time>
      </trkpt>
      <trkpt lat="43.02657" lon="0.86574">
        <ele>719.02001953</ele>
        <time>2020-10-29T14:27:48Z</time>
      </trkpt>
      <trkpt lat="43.0265" lon="0.86574">
        <ele>721.10998535</ele>
        <time>2020-10-29T14:27:50Z</time>
      </trkpt>
      <trkpt lat="43.02645" lon="0.86573">
        <ele>721.59002686</ele>
        <time>2020-10-29T14:27:51Z</time>
      </trkpt>
      <trkpt lat="43.02639" lon="0.86574">
        <ele>721.69000244</ele>
        <time>2020-10-29T14:27:52Z</time>
      </trkpt>
      <trkpt lat="43.02634" lon="0.86574">
        <ele>721.13000488</ele>
        <time>2020-10-29T14:27:53Z</time>
      </trkpt>
      <trkpt lat="43.02629" lon="0.86574">
        <ele>719.84997559</ele>
        <time>2020-10-29T14:27:54Z</time>
      </trkpt>
      <trkpt lat="43.02623" lon="0.86575">
        <ele>720.73999023</ele>
        <time>2020-10-29T14:27:55Z</time>
      </trkpt>
      <trkpt lat="43.02617" lon="0.86575">
        <ele>721.07000732</ele>
        <time>2020-10-29T14:27:57Z</time>
      </trkpt>
      <trkpt lat="43.02611" lon="0.86574">
        <ele>722.40997314</ele>
        <time>2020-10-29T14:27:58Z</time>
      </trkpt>
      <trkpt lat="43.02604" lon="0.86573">
        <ele>723.2800293</ele>
        <time>2020-10-29T14:27:59Z</time>
      </trkpt>
      <trkpt lat="43.02597" lon="0.86573">
        <ele>723.48999023</ele>
        <time>2020-10-29T14:28:00Z</time>
      </trkpt>
      <trkpt lat="43.02591" lon="0.86572">
        <ele>723.10998535</ele>
        <time>2020-10-29T14:28:01Z</time>
      </trkpt>
      <trkpt lat="43.02584" lon="0.8657">
        <ele>724.14001465</ele>
        <time>2020-10-29T14:28:03Z</time>
      </trkpt>
      <trkpt lat="43.0257" lon="0.86571">
        <ele>725.03997803</ele>
        <time>2020-10-29T14:28:05Z</time>
      </trkpt>
      <trkpt lat="43.02565" lon="0.8657">
        <ele>725.03997803</ele>
        <time>2020-10-29T14:28:06Z</time>
      </trkpt>
      <trkpt lat="43.02555" lon="0.86568">
        <ele>725.35998535</ele>
        <time>2020-10-29T14:28:08Z</time>
      </trkpt>
      <trkpt lat="43.02546" lon="0.86565">
        <ele>726.15997314</ele>
        <time>2020-10-29T14:28:09Z</time>
      </trkpt>
      <trkpt lat="43.0254" lon="0.86562">
        <ele>726.7199707</ele>
        <time>2020-10-29T14:28:10Z</time>
      </trkpt>
      <trkpt lat="43.02532" lon="0.86557">
        <ele>727.71002197</ele>
        <time>2020-10-29T14:28:12Z</time>
      </trkpt>
      <trkpt lat="43.02523" lon="0.86553">
        <ele>727.85998535</ele>
        <time>2020-10-29T14:28:13Z</time>
      </trkpt>
      <trkpt lat="43.02517" lon="0.86549">
        <ele>728.16998291</ele>
        <time>2020-10-29T14:28:14Z</time>
      </trkpt>
      <trkpt lat="43.02513" lon="0.86546">
        <ele>727.59002686</ele>
        <time>2020-10-29T14:28:15Z</time>
      </trkpt>
      <trkpt lat="43.02509" lon="0.86542">
        <ele>728.09002686</ele>
        <time>2020-10-29T14:28:17Z</time>
      </trkpt>
      <trkpt lat="43.02501" lon="0.86535">
        <ele>729.54998779</ele>
        <time>2020-10-29T14:28:18Z</time>
      </trkpt>
      <trkpt lat="43.02497" lon="0.86531">
        <ele>729.72998047</ele>
        <time>2020-10-29T14:28:20Z</time>
      </trkpt>
      <trkpt lat="43.0248" lon="0.86526">
        <ele>731.33001709</ele>
        <time>2020-10-29T14:28:22Z</time>
      </trkpt>
      <trkpt lat="43.02474" lon="0.86526">
        <ele>731.23999023</ele>
        <time>2020-10-29T14:28:23Z</time>
      </trkpt>
      <trkpt lat="43.02462" lon="0.86526">
        <ele>731.4699707</ele>
        <time>2020-10-29T14:28:25Z</time>
      </trkpt>
      <trkpt lat="43.02457" lon="0.86526">
        <ele>732.13000488</ele>
        <time>2020-10-29T14:28:26Z</time>
      </trkpt>
      <trkpt lat="43.02446" lon="0.86526">
        <ele>732.89001465</ele>
        <time>2020-10-29T14:28:28Z</time>
      </trkpt>
      <trkpt lat="43.02441" lon="0.86526">
        <ele>733.40002441</ele>
        <time>2020-10-29T14:28:29Z</time>
      </trkpt>
      <trkpt lat="43.02431" lon="0.86526">
        <ele>733.83001709</ele>
        <time>2020-10-29T14:28:31Z</time>
      </trkpt>
      <trkpt lat="43.02426" lon="0.86524">
        <ele>734.30999756</ele>
        <time>2020-10-29T14:28:32Z</time>
      </trkpt>
      <trkpt lat="43.02417" lon="0.86522">
        <ele>735.23999023</ele>
        <time>2020-10-29T14:28:34Z</time>
      </trkpt>
      <trkpt lat="43.02413" lon="0.86521">
        <ele>735.2800293</ele>
        <time>2020-10-29T14:28:35Z</time>
      </trkpt>
      <trkpt lat="43.02409" lon="0.8652">
        <ele>735.28997803</ele>
        <time>2020-10-29T14:28:36Z</time>
      </trkpt>
      <trkpt lat="43.02402" lon="0.86519">
        <ele>736.17999268</ele>
        <time>2020-10-29T14:28:38Z</time>
      </trkpt>
      <trkpt lat="43.02398" lon="0.86519">
        <ele>736.17999268</ele>
        <time>2020-10-29T14:28:39Z</time>
      </trkpt>
      <trkpt lat="43.02397" lon="0.86515">
        <ele>736.39001465</ele>
        <time>2020-10-29T14:28:40Z</time>
      </trkpt>
      <trkpt lat="43.02389" lon="0.86515">
        <ele>736.92999268</ele>
        <time>2020-10-29T14:28:42Z</time>
      </trkpt>
      <trkpt lat="43.02385" lon="0.86515">
        <ele>736.92999268</ele>
        <time>2020-10-29T14:28:43Z</time>
      </trkpt>
      <trkpt lat="43.02377" lon="0.86514">
        <ele>736.89001465</ele>
        <time>2020-10-29T14:28:44Z</time>
      </trkpt>
      <trkpt lat="43.02373" lon="0.86514">
        <ele>737.34997559</ele>
        <time>2020-10-29T14:28:46Z</time>
      </trkpt>
      <trkpt lat="43.02367" lon="0.86514">
        <ele>737.91998291</ele>
        <time>2020-10-29T14:28:47Z</time>
      </trkpt>
      <trkpt lat="43.02361" lon="0.86514">
        <ele>738.51000977</ele>
        <time>2020-10-29T14:28:48Z</time>
      </trkpt>
      <trkpt lat="43.02354" lon="0.86513">
        <ele>739.0300293</ele>
        <time>2020-10-29T14:28:50Z</time>
      </trkpt>
      <trkpt lat="43.02348" lon="0.86513">
        <ele>739.07000732</ele>
        <time>2020-10-29T14:28:52Z</time>
      </trkpt>
      <trkpt lat="43.0234" lon="0.86512">
        <ele>740.2800293</ele>
        <time>2020-10-29T14:28:53Z</time>
      </trkpt>
      <trkpt lat="43.02333" lon="0.86512">
        <ele>740.48999023</ele>
        <time>2020-10-29T14:28:55Z</time>
      </trkpt>
      <trkpt lat="43.02326" lon="0.86512">
        <ele>741.44000244</ele>
        <time>2020-10-29T14:28:56Z</time>
      </trkpt>
      <trkpt lat="43.02316" lon="0.86512">
        <ele>742.10998535</ele>
        <time>2020-10-29T14:28:57Z</time>
      </trkpt>
      <trkpt lat="43.02309" lon="0.86513">
        <ele>742.5300293</ele>
        <time>2020-10-29T14:28:58Z</time>
      </trkpt>
      <trkpt lat="43.02292" lon="0.8651">
        <ele>743.05999756</ele>
        <time>2020-10-29T14:29:00Z</time>
      </trkpt>
      <trkpt lat="43.0228" lon="0.86508">
        <ele>743.92999268</ele>
        <time>2020-10-29T14:29:02Z</time>
      </trkpt>
      <trkpt lat="43.02275" lon="0.86504">
        <ele>744.83001709</ele>
        <time>2020-10-29T14:29:03Z</time>
      </trkpt>
      <trkpt lat="43.02269" lon="0.86502">
        <ele>745.52001953</ele>
        <time>2020-10-29T14:29:04Z</time>
      </trkpt>
      <trkpt lat="43.02261" lon="0.86499">
        <ele>745.57000732</ele>
        <time>2020-10-29T14:29:06Z</time>
      </trkpt>
      <trkpt lat="43.02257" lon="0.86498">
        <ele>746.05999756</ele>
        <time>2020-10-29T14:29:07Z</time>
      </trkpt>
      <trkpt lat="43.0225" lon="0.86496">
        <ele>746.25</ele>
        <time>2020-10-29T14:29:09Z</time>
      </trkpt>
      <trkpt lat="43.02238" lon="0.86497">
        <ele>746.33001709</ele>
        <time>2020-10-29T14:29:11Z</time>
      </trkpt>
      <trkpt lat="43.02233" lon="0.86497">
        <ele>746.98999023</ele>
        <time>2020-10-29T14:29:12Z</time>
      </trkpt>
      <trkpt lat="43.02227" lon="0.86497">
        <ele>747.51000977</ele>
        <time>2020-10-29T14:29:13Z</time>
      </trkpt>
      <trkpt lat="43.02222" lon="0.86499">
        <ele>748.07000732</ele>
        <time>2020-10-29T14:29:15Z</time>
      </trkpt>
      <trkpt lat="43.02212" lon="0.86504">
        <ele>749.21002197</ele>
        <time>2020-10-29T14:29:17Z</time>
      </trkpt>
      <trkpt lat="43.02205" lon="0.86506">
        <ele>749.9699707</ele>
        <time>2020-10-29T14:29:18Z</time>
      </trkpt>
      <trkpt lat="43.02196" lon="0.86508">
        <ele>751.21002197</ele>
        <time>2020-10-29T14:29:21Z</time>
      </trkpt>
      <trkpt lat="43.02187" lon="0.8651">
        <ele>750.10998535</ele>
        <time>2020-10-29T14:29:22Z</time>
      </trkpt>
      <trkpt lat="43.0218" lon="0.86511">
        <ele>750.10998535</ele>
        <time>2020-10-29T14:29:24Z</time>
      </trkpt>
      <trkpt lat="43.02162" lon="0.86512">
        <ele>749.80999756</ele>
        <time>2020-10-29T14:29:26Z</time>
      </trkpt>
      <trkpt lat="43.02156" lon="0.86511">
        <ele>750.94000244</ele>
        <time>2020-10-29T14:29:27Z</time>
      </trkpt>
      <trkpt lat="43.02143" lon="0.86507">
        <ele>749.94000244</ele>
        <time>2020-10-29T14:29:29Z</time>
      </trkpt>
      <trkpt lat="43.02127" lon="0.86503">
        <ele>748.97998047</ele>
        <time>2020-10-29T14:29:31Z</time>
      </trkpt>
      <trkpt lat="43.02109" lon="0.865">
        <ele>747.80999756</ele>
        <time>2020-10-29T14:29:33Z</time>
      </trkpt>
      <trkpt lat="43.0209" lon="0.865">
        <ele>746.30999756</ele>
        <time>2020-10-29T14:29:35Z</time>
      </trkpt>
      <trkpt lat="43.02069" lon="0.86503">
        <ele>744.51000977</ele>
        <time>2020-10-29T14:29:37Z</time>
      </trkpt>
      <trkpt lat="43.02059" lon="0.86503">
        <ele>744.0300293</ele>
        <time>2020-10-29T14:29:38Z</time>
      </trkpt>
      <trkpt lat="43.0205" lon="0.86502">
        <ele>743.47998047</ele>
        <time>2020-10-29T14:29:39Z</time>
      </trkpt>
      <trkpt lat="43.02041" lon="0.86501">
        <ele>743.14001465</ele>
        <time>2020-10-29T14:29:40Z</time>
      </trkpt>
      <trkpt lat="43.02026" lon="0.86499">
        <ele>743.48999023</ele>
        <time>2020-10-29T14:29:42Z</time>
      </trkpt>
      <trkpt lat="43.02015" lon="0.86497">
        <ele>744.02001953</ele>
        <time>2020-10-29T14:29:44Z</time>
      </trkpt>
      <trkpt lat="43.0201" lon="0.86496">
        <ele>744.08001709</ele>
        <time>2020-10-29T14:29:45Z</time>
      </trkpt>
      <trkpt lat="43.02005" lon="0.86495">
        <ele>744.59002686</ele>
        <time>2020-10-29T14:29:46Z</time>
      </trkpt>
      <trkpt lat="43.01998" lon="0.86495">
        <ele>745.38000488</ele>
        <time>2020-10-29T14:29:48Z</time>
      </trkpt>
      <trkpt lat="43.01995" lon="0.86495">
        <ele>745.39001465</ele>
        <time>2020-10-29T14:29:49Z</time>
      </trkpt>
      <trkpt lat="43.01987" lon="0.86494">
        <ele>746.04998779</ele>
        <time>2020-10-29T14:29:51Z</time>
      </trkpt>
      <trkpt lat="43.01978" lon="0.86491">
        <ele>747.13000488</ele>
        <time>2020-10-29T14:29:53Z</time>
      </trkpt>
      <trkpt lat="43.01973" lon="0.86488">
        <ele>747.77001953</ele>
        <time>2020-10-29T14:29:54Z</time>
      </trkpt>
      <trkpt lat="43.01962" lon="0.86482">
        <ele>747.98999023</ele>
        <time>2020-10-29T14:29:56Z</time>
      </trkpt>
      <trkpt lat="43.01957" lon="0.86479">
        <ele>748.55999756</ele>
        <time>2020-10-29T14:29:57Z</time>
      </trkpt>
      <trkpt lat="43.01946" lon="0.86472">
        <ele>749.45001221</ele>
        <time>2020-10-29T14:29:59Z</time>
      </trkpt>
      <trkpt lat="43.01937" lon="0.86464">
        <ele>750.13000488</ele>
        <time>2020-10-29T14:30:01Z</time>
      </trkpt>
      <trkpt lat="43.01928" lon="0.86454">
        <ele>750.34997559</ele>
        <time>2020-10-29T14:30:03Z</time>
      </trkpt>
      <trkpt lat="43.01924" lon="0.8645">
        <ele>750.65002441</ele>
        <time>2020-10-29T14:30:04Z</time>
      </trkpt>
      <trkpt lat="43.01918" lon="0.8644">
        <ele>748.58001709</ele>
        <time>2020-10-29T14:30:06Z</time>
      </trkpt>
      <trkpt lat="43.01914" lon="0.86433">
        <ele>749.30999756</ele>
        <time>2020-10-29T14:30:07Z</time>
      </trkpt>
      <trkpt lat="43.01907" lon="0.86421">
        <ele>750.29998779</ele>
        <time>2020-10-29T14:30:09Z</time>
      </trkpt>
      <trkpt lat="43.019" lon="0.86408">
        <ele>750.9699707</ele>
        <time>2020-10-29T14:30:11Z</time>
      </trkpt>
      <trkpt lat="43.01897" lon="0.86401">
        <ele>751.51000977</ele>
        <time>2020-10-29T14:30:12Z</time>
      </trkpt>
      <trkpt lat="43.01894" lon="0.86395">
        <ele>751.92999268</ele>
        <time>2020-10-29T14:30:13Z</time>
      </trkpt>
      <trkpt lat="43.01887" lon="0.86384">
        <ele>752.60998535</ele>
        <time>2020-10-29T14:30:15Z</time>
      </trkpt>
      <trkpt lat="43.01882" lon="0.86373">
        <ele>753.28997803</ele>
        <time>2020-10-29T14:30:17Z</time>
      </trkpt>
      <trkpt lat="43.0188" lon="0.86367">
        <ele>753.97998047</ele>
        <time>2020-10-29T14:30:18Z</time>
      </trkpt>
      <trkpt lat="43.01878" lon="0.8636">
        <ele>754.54998779</ele>
        <time>2020-10-29T14:30:19Z</time>
      </trkpt>
      <trkpt lat="43.01877" lon="0.86354">
        <ele>755</ele>
        <time>2020-10-29T14:30:20Z</time>
      </trkpt>
      <trkpt lat="43.01876" lon="0.86347">
        <ele>755.55999756</ele>
        <time>2020-10-29T14:30:21Z</time>
      </trkpt>
      <trkpt lat="43.01876" lon="0.86333">
        <ele>756.0300293</ele>
        <time>2020-10-29T14:30:23Z</time>
      </trkpt>
      <trkpt lat="43.01877" lon="0.8632">
        <ele>756.5300293</ele>
        <time>2020-10-29T14:30:25Z</time>
      </trkpt>
      <trkpt lat="43.01878" lon="0.86313">
        <ele>756.73999023</ele>
        <time>2020-10-29T14:30:26Z</time>
      </trkpt>
      <trkpt lat="43.0188" lon="0.86301">
        <ele>758.38000488</ele>
        <time>2020-10-29T14:30:28Z</time>
      </trkpt>
      <trkpt lat="43.01882" lon="0.86292">
        <ele>758.66998291</ele>
        <time>2020-10-29T14:30:29Z</time>
      </trkpt>
      <trkpt lat="43.01884" lon="0.86284">
        <ele>758.89001465</ele>
        <time>2020-10-29T14:30:30Z</time>
      </trkpt>
      <trkpt lat="43.01887" lon="0.86268">
        <ele>760.08001709</ele>
        <time>2020-10-29T14:30:32Z</time>
      </trkpt>
      <trkpt lat="43.01887" lon="0.86254">
        <ele>761.11999512</ele>
        <time>2020-10-29T14:30:34Z</time>
      </trkpt>
      <trkpt lat="43.01885" lon="0.86244">
        <ele>761.09997559</ele>
        <time>2020-10-29T14:30:36Z</time>
      </trkpt>
      <trkpt lat="43.01881" lon="0.86234">
        <ele>761.16998291</ele>
        <time>2020-10-29T14:30:38Z</time>
      </trkpt>
      <trkpt lat="43.01877" lon="0.8623">
        <ele>761.15997314</ele>
        <time>2020-10-29T14:30:39Z</time>
      </trkpt>
      <trkpt lat="43.01871" lon="0.86224">
        <ele>761.69000244</ele>
        <time>2020-10-29T14:30:41Z</time>
      </trkpt>
      <trkpt lat="43.01868" lon="0.86224">
        <ele>762.53997803</ele>
        <time>2020-10-29T14:30:42Z</time>
      </trkpt>
      <trkpt lat="43.01864" lon="0.86219">
        <ele>763.41998291</ele>
        <time>2020-10-29T14:30:43Z</time>
      </trkpt>
      <trkpt lat="43.01858" lon="0.86211">
        <ele>764.53997803</ele>
        <time>2020-10-29T14:30:45Z</time>
      </trkpt>
      <trkpt lat="43.01851" lon="0.86201">
        <ele>767.54998779</ele>
        <time>2020-10-29T14:30:47Z</time>
      </trkpt>
      <trkpt lat="43.01851" lon="0.86195">
        <ele>767.86999512</ele>
        <time>2020-10-29T14:30:48Z</time>
      </trkpt>
      <trkpt lat="43.01849" lon="0.86189">
        <ele>767.7199707</ele>
        <time>2020-10-29T14:30:49Z</time>
      </trkpt>
      <trkpt lat="43.01845" lon="0.86183">
        <ele>767.83001709</ele>
        <time>2020-10-29T14:30:50Z</time>
      </trkpt>
      <trkpt lat="43.01839" lon="0.86172">
        <ele>768.33001709</ele>
        <time>2020-10-29T14:30:52Z</time>
      </trkpt>
      <trkpt lat="43.01837" lon="0.86166">
        <ele>768.44000244</ele>
        <time>2020-10-29T14:30:53Z</time>
      </trkpt>
      <trkpt lat="43.01834" lon="0.86159">
        <ele>768.53997803</ele>
        <time>2020-10-29T14:30:54Z</time>
      </trkpt>
      <trkpt lat="43.01829" lon="0.86148">
        <ele>768.91998291</ele>
        <time>2020-10-29T14:30:56Z</time>
      </trkpt>
      <trkpt lat="43.01825" lon="0.86133">
        <ele>768.71002197</ele>
        <time>2020-10-29T14:30:58Z</time>
      </trkpt>
      <trkpt lat="43.01822" lon="0.86125">
        <ele>769.02001953</ele>
        <time>2020-10-29T14:30:59Z</time>
      </trkpt>
      <trkpt lat="43.01819" lon="0.86118">
        <ele>768.88000488</ele>
        <time>2020-10-29T14:31:00Z</time>
      </trkpt>
      <trkpt lat="43.01815" lon="0.8611">
        <ele>768.60998535</ele>
        <time>2020-10-29T14:31:01Z</time>
      </trkpt>
      <trkpt lat="43.01806" lon="0.86097">
        <ele>768.44000244</ele>
        <time>2020-10-29T14:31:03Z</time>
      </trkpt>
      <trkpt lat="43.01796" lon="0.86085">
        <ele>768.30999756</ele>
        <time>2020-10-29T14:31:05Z</time>
      </trkpt>
      <trkpt lat="43.01787" lon="0.86072">
        <ele>768.2800293</ele>
        <time>2020-10-29T14:31:07Z</time>
      </trkpt>
      <trkpt lat="43.01779" lon="0.86057">
        <ele>768.26000977</ele>
        <time>2020-10-29T14:31:09Z</time>
      </trkpt>
      <trkpt lat="43.01775" lon="0.8605">
        <ele>768.41998291</ele>
        <time>2020-10-29T14:31:10Z</time>
      </trkpt>
      <trkpt lat="43.01769" lon="0.86037">
        <ele>768.19000244</ele>
        <time>2020-10-29T14:31:12Z</time>
      </trkpt>
      <trkpt lat="43.01765" lon="0.8603">
        <ele>768.51000977</ele>
        <time>2020-10-29T14:31:13Z</time>
      </trkpt>
      <trkpt lat="43.01755" lon="0.86018">
        <ele>767.84997559</ele>
        <time>2020-10-29T14:31:15Z</time>
      </trkpt>
      <trkpt lat="43.01744" lon="0.86007">
        <ele>766.86999512</ele>
        <time>2020-10-29T14:31:17Z</time>
      </trkpt>
      <trkpt lat="43.01729" lon="0.85997">
        <ele>766.54998779</ele>
        <time>2020-10-29T14:31:19Z</time>
      </trkpt>
      <trkpt lat="43.01721" lon="0.8599">
        <ele>766.01000977</ele>
        <time>2020-10-29T14:31:20Z</time>
      </trkpt>
      <trkpt lat="43.01705" lon="0.85976">
        <ele>763.42999268</ele>
        <time>2020-10-29T14:31:22Z</time>
      </trkpt>
      <trkpt lat="43.01696" lon="0.85969">
        <ele>762.52001953</ele>
        <time>2020-10-29T14:31:23Z</time>
      </trkpt>
      <trkpt lat="43.01687" lon="0.85962">
        <ele>761.22998047</ele>
        <time>2020-10-29T14:31:24Z</time>
      </trkpt>
      <trkpt lat="43.01676" lon="0.85956">
        <ele>760.19000244</ele>
        <time>2020-10-29T14:31:25Z</time>
      </trkpt>
      <trkpt lat="43.01656" lon="0.85953">
        <ele>759.23999023</ele>
        <time>2020-10-29T14:31:27Z</time>
      </trkpt>
      <trkpt lat="43.01638" lon="0.85952">
        <ele>758.69000244</ele>
        <time>2020-10-29T14:31:29Z</time>
      </trkpt>
      <trkpt lat="43.01631" lon="0.85951">
        <ele>758.10998535</ele>
        <time>2020-10-29T14:31:30Z</time>
      </trkpt>
      <trkpt lat="43.01624" lon="0.8595">
        <ele>757.15002441</ele>
        <time>2020-10-29T14:31:31Z</time>
      </trkpt>
      <trkpt lat="43.01615" lon="0.85951">
        <ele>757.66998291</ele>
        <time>2020-10-29T14:31:33Z</time>
      </trkpt>
      <trkpt lat="43.0161" lon="0.85953">
        <ele>757.23999023</ele>
        <time>2020-10-29T14:31:35Z</time>
      </trkpt>
      <trkpt lat="43.01601" lon="0.85948">
        <ele>757.13000488</ele>
        <time>2020-10-29T14:31:37Z</time>
      </trkpt>
      <trkpt lat="43.01599" lon="0.85944">
        <ele>757.35998535</ele>
        <time>2020-10-29T14:31:38Z</time>
      </trkpt>
      <trkpt lat="43.01599" lon="0.8593">
        <ele>757.28997803</ele>
        <time>2020-10-29T14:31:40Z</time>
      </trkpt>
      <trkpt lat="43.01602" lon="0.85925">
        <ele>758.21002197</ele>
        <time>2020-10-29T14:31:41Z</time>
      </trkpt>
      <trkpt lat="43.01603" lon="0.85917">
        <ele>758.78997803</ele>
        <time>2020-10-29T14:31:42Z</time>
      </trkpt>
      <trkpt lat="43.01603" lon="0.85911">
        <ele>758.75</ele>
        <time>2020-10-29T14:31:44Z</time>
      </trkpt>
      <trkpt lat="43.01602" lon="0.85906">
        <ele>758.75</ele>
        <time>2020-10-29T14:31:45Z</time>
      </trkpt>
      <trkpt lat="43.01601" lon="0.85901">
        <ele>758.79998779</ele>
        <time>2020-10-29T14:31:46Z</time>
      </trkpt>
      <trkpt lat="43.01599" lon="0.85896">
        <ele>759.88000488</ele>
        <time>2020-10-29T14:31:47Z</time>
      </trkpt>
      <trkpt lat="43.01597" lon="0.85889">
        <ele>760.04998779</ele>
        <time>2020-10-29T14:31:48Z</time>
      </trkpt>
      <trkpt lat="43.01595" lon="0.85883">
        <ele>761.09002686</ele>
        <time>2020-10-29T14:31:50Z</time>
      </trkpt>
      <trkpt lat="43.01593" lon="0.85873">
        <ele>761.39001465</ele>
        <time>2020-10-29T14:31:51Z</time>
      </trkpt>
      <trkpt lat="43.01591" lon="0.85866">
        <ele>761.4699707</ele>
        <time>2020-10-29T14:31:53Z</time>
      </trkpt>
      <trkpt lat="43.0159" lon="0.85859">
        <ele>762.5300293</ele>
        <time>2020-10-29T14:31:54Z</time>
      </trkpt>
      <trkpt lat="43.01589" lon="0.85852">
        <ele>762.89001465</ele>
        <time>2020-10-29T14:31:55Z</time>
      </trkpt>
      <trkpt lat="43.01589" lon="0.85846">
        <ele>762.95001221</ele>
        <time>2020-10-29T14:31:56Z</time>
      </trkpt>
      <trkpt lat="43.01587" lon="0.8584">
        <ele>763.42999268</ele>
        <time>2020-10-29T14:31:58Z</time>
      </trkpt>
      <trkpt lat="43.01587" lon="0.85835">
        <ele>763.42999268</ele>
        <time>2020-10-29T14:31:59Z</time>
      </trkpt>
      <trkpt lat="43.01586" lon="0.85829">
        <ele>763.26000977</ele>
        <time>2020-10-29T14:32:00Z</time>
      </trkpt>
      <trkpt lat="43.01584" lon="0.85822">
        <ele>764.09997559</ele>
        <time>2020-10-29T14:32:02Z</time>
      </trkpt>
      <trkpt lat="43.01582" lon="0.85817">
        <ele>764.51000977</ele>
        <time>2020-10-29T14:32:03Z</time>
      </trkpt>
      <trkpt lat="43.01579" lon="0.85808">
        <ele>764.41998291</ele>
        <time>2020-10-29T14:32:05Z</time>
      </trkpt>
      <trkpt lat="43.01576" lon="0.85804">
        <ele>764.41998291</ele>
        <time>2020-10-29T14:32:06Z</time>
      </trkpt>
      <trkpt lat="43.01573" lon="0.85799">
        <ele>765.08001709</ele>
        <time>2020-10-29T14:32:07Z</time>
      </trkpt>
      <trkpt lat="43.0157" lon="0.85794">
        <ele>765.44000244</ele>
        <time>2020-10-29T14:32:09Z</time>
      </trkpt>
      <trkpt lat="43.01566" lon="0.85791">
        <ele>766.90002441</ele>
        <time>2020-10-29T14:32:10Z</time>
      </trkpt>
      <trkpt lat="43.01561" lon="0.85789">
        <ele>766.88000488</ele>
        <time>2020-10-29T14:32:11Z</time>
      </trkpt>
      <trkpt lat="43.01557" lon="0.85788">
        <ele>767.09997559</ele>
        <time>2020-10-29T14:32:12Z</time>
      </trkpt>
      <trkpt lat="43.01552" lon="0.85787">
        <ele>767.75</ele>
        <time>2020-10-29T14:32:14Z</time>
      </trkpt>
      <trkpt lat="43.01548" lon="0.85786">
        <ele>768.03997803</ele>
        <time>2020-10-29T14:32:15Z</time>
      </trkpt>
      <trkpt lat="43.01542" lon="0.85786">
        <ele>768.17999268</ele>
        <time>2020-10-29T14:32:16Z</time>
      </trkpt>
      <trkpt lat="43.01537" lon="0.85786">
        <ele>768.38000488</ele>
        <time>2020-10-29T14:32:17Z</time>
      </trkpt>
      <trkpt lat="43.01532" lon="0.85786">
        <ele>768.40002441</ele>
        <time>2020-10-29T14:32:18Z</time>
      </trkpt>
      <trkpt lat="43.01528" lon="0.85787">
        <ele>769.10998535</ele>
        <time>2020-10-29T14:32:20Z</time>
      </trkpt>
      <trkpt lat="43.01524" lon="0.85787">
        <ele>769.0300293</ele>
        <time>2020-10-29T14:32:21Z</time>
      </trkpt>
      <trkpt lat="43.01516" lon="0.85788">
        <ele>769.21002197</ele>
        <time>2020-10-29T14:32:22Z</time>
      </trkpt>
      <trkpt lat="43.01512" lon="0.85788">
        <ele>769.40997314</ele>
        <time>2020-10-29T14:32:24Z</time>
      </trkpt>
      <trkpt lat="43.01505" lon="0.85787">
        <ele>770.16998291</ele>
        <time>2020-10-29T14:32:25Z</time>
      </trkpt>
      <trkpt lat="43.01501" lon="0.85788">
        <ele>770.39001465</ele>
        <time>2020-10-29T14:32:27Z</time>
      </trkpt>
      <trkpt lat="43.01493" lon="0.85788">
        <ele>771.41998291</ele>
        <time>2020-10-29T14:32:28Z</time>
      </trkpt>
      <trkpt lat="43.01488" lon="0.85788">
        <ele>771.88000488</ele>
        <time>2020-10-29T14:32:30Z</time>
      </trkpt>
      <trkpt lat="43.01481" lon="0.85788">
        <ele>772.0300293</ele>
        <time>2020-10-29T14:32:32Z</time>
      </trkpt>
      <trkpt lat="43.01476" lon="0.85788">
        <ele>772.52001953</ele>
        <time>2020-10-29T14:32:33Z</time>
      </trkpt>
      <trkpt lat="43.01471" lon="0.85788">
        <ele>772.69000244</ele>
        <time>2020-10-29T14:32:35Z</time>
      </trkpt>
      <trkpt lat="43.01464" lon="0.85787">
        <ele>773.22998047</ele>
        <time>2020-10-29T14:32:36Z</time>
      </trkpt>
      <trkpt lat="43.01461" lon="0.85785">
        <ele>772.5</ele>
        <time>2020-10-29T14:32:38Z</time>
      </trkpt>
      <trkpt lat="43.01458" lon="0.85783">
        <ele>772.71002197</ele>
        <time>2020-10-29T14:32:39Z</time>
      </trkpt>
      <trkpt lat="43.01453" lon="0.85781">
        <ele>772.63000488</ele>
        <time>2020-10-29T14:32:40Z</time>
      </trkpt>
      <trkpt lat="43.0145" lon="0.85779">
        <ele>772.95001221</ele>
        <time>2020-10-29T14:32:41Z</time>
      </trkpt>
      <trkpt lat="43.01448" lon="0.85778">
        <ele>773.71002197</ele>
        <time>2020-10-29T14:32:43Z</time>
      </trkpt>
      <trkpt lat="43.01445" lon="0.85778">
        <ele>773.09997559</ele>
        <time>2020-10-29T14:32:44Z</time>
      </trkpt>
      <trkpt lat="43.01441" lon="0.85776">
        <ele>773.26000977</ele>
        <time>2020-10-29T14:32:46Z</time>
      </trkpt>
      <trkpt lat="43.01439" lon="0.85775">
        <ele>773.26000977</ele>
        <time>2020-10-29T14:32:47Z</time>
      </trkpt>
      <trkpt lat="43.01435" lon="0.85773">
        <ele>773.48999023</ele>
        <time>2020-10-29T14:32:49Z</time>
      </trkpt>
      <trkpt lat="43.01431" lon="0.85771">
        <ele>773.21002197</ele>
        <time>2020-10-29T14:32:51Z</time>
      </trkpt>
      <trkpt lat="43.01428" lon="0.8577">
        <ele>773.21002197</ele>
        <time>2020-10-29T14:32:52Z</time>
      </trkpt>
      <trkpt lat="43.01424" lon="0.85768">
        <ele>773.26000977</ele>
        <time>2020-10-29T14:32:53Z</time>
      </trkpt>
      <trkpt lat="43.0142" lon="0.85766">
        <ele>773.78997803</ele>
        <time>2020-10-29T14:32:55Z</time>
      </trkpt>
      <trkpt lat="43.01414" lon="0.85764">
        <ele>774.82000732</ele>
        <time>2020-10-29T14:32:57Z</time>
      </trkpt>
      <trkpt lat="43.01409" lon="0.85761">
        <ele>775.35998535</ele>
        <time>2020-10-29T14:32:58Z</time>
      </trkpt>
      <trkpt lat="43.01405" lon="0.85758">
        <ele>775.69000244</ele>
        <time>2020-10-29T14:32:59Z</time>
      </trkpt>
      <trkpt lat="43.01399" lon="0.85754">
        <ele>776.60998535</ele>
        <time>2020-10-29T14:33:01Z</time>
      </trkpt>
      <trkpt lat="43.01395" lon="0.85751">
        <ele>776.52001953</ele>
        <time>2020-10-29T14:33:02Z</time>
      </trkpt>
      <trkpt lat="43.01391" lon="0.85748">
        <ele>777</ele>
        <time>2020-10-29T14:33:04Z</time>
      </trkpt>
      <trkpt lat="43.01387" lon="0.85745">
        <ele>777.5300293</ele>
        <time>2020-10-29T14:33:05Z</time>
      </trkpt>
      <trkpt lat="43.01384" lon="0.85741">
        <ele>777.90997314</ele>
        <time>2020-10-29T14:33:06Z</time>
      </trkpt>
      <trkpt lat="43.01381" lon="0.85737">
        <ele>776.91998291</ele>
        <time>2020-10-29T14:33:07Z</time>
      </trkpt>
      <trkpt lat="43.01378" lon="0.85735">
        <ele>777.33001709</ele>
        <time>2020-10-29T14:33:08Z</time>
      </trkpt>
      <trkpt lat="43.01375" lon="0.85731">
        <ele>778.21002197</ele>
        <time>2020-10-29T14:33:10Z</time>
      </trkpt>
      <trkpt lat="43.01372" lon="0.85727">
        <ele>778.21002197</ele>
        <time>2020-10-29T14:33:11Z</time>
      </trkpt>
      <trkpt lat="43.01368" lon="0.85721">
        <ele>779.90002441</ele>
        <time>2020-10-29T14:33:12Z</time>
      </trkpt>
      <trkpt lat="43.01363" lon="0.85714">
        <ele>779.86999512</ele>
        <time>2020-10-29T14:33:14Z</time>
      </trkpt>
      <trkpt lat="43.0136" lon="0.85708">
        <ele>779.88000488</ele>
        <time>2020-10-29T14:33:15Z</time>
      </trkpt>
      <trkpt lat="43.01356" lon="0.85701">
        <ele>780</ele>
        <time>2020-10-29T14:33:16Z</time>
      </trkpt>
      <trkpt lat="43.01353" lon="0.85695">
        <ele>780.10998535</ele>
        <time>2020-10-29T14:33:18Z</time>
      </trkpt>
      <trkpt lat="43.01352" lon="0.85691">
        <ele>780.32000732</ele>
        <time>2020-10-29T14:33:19Z</time>
      </trkpt>
      <trkpt lat="43.0135" lon="0.85686">
        <ele>780.51000977</ele>
        <time>2020-10-29T14:33:20Z</time>
      </trkpt>
      <trkpt lat="43.01348" lon="0.8568">
        <ele>780.27001953</ele>
        <time>2020-10-29T14:33:22Z</time>
      </trkpt>
      <trkpt lat="43.01347" lon="0.85676">
        <ele>780.98999023</ele>
        <time>2020-10-29T14:33:23Z</time>
      </trkpt>
      <trkpt lat="43.01344" lon="0.85669">
        <ele>781.2800293</ele>
        <time>2020-10-29T14:33:24Z</time>
      </trkpt>
      <trkpt lat="43.01343" lon="0.85663">
        <ele>781.40997314</ele>
        <time>2020-10-29T14:33:25Z</time>
      </trkpt>
      <trkpt lat="43.01341" lon="0.85657">
        <ele>781.11999512</ele>
        <time>2020-10-29T14:33:26Z</time>
      </trkpt>
      <trkpt lat="43.01339" lon="0.85652">
        <ele>781.21002197</ele>
        <time>2020-10-29T14:33:28Z</time>
      </trkpt>
      <trkpt lat="43.01337" lon="0.85647">
        <ele>781.09997559</ele>
        <time>2020-10-29T14:33:29Z</time>
      </trkpt>
      <trkpt lat="43.01336" lon="0.85643">
        <ele>781.98999023</ele>
        <time>2020-10-29T14:33:30Z</time>
      </trkpt>
      <trkpt lat="43.01334" lon="0.85638">
        <ele>782.78997803</ele>
        <time>2020-10-29T14:33:32Z</time>
      </trkpt>
      <trkpt lat="43.01332" lon="0.85632">
        <ele>783.25</ele>
        <time>2020-10-29T14:33:33Z</time>
      </trkpt>
      <trkpt lat="43.0133" lon="0.85625">
        <ele>782.65997314</ele>
        <time>2020-10-29T14:33:35Z</time>
      </trkpt>
      <trkpt lat="43.01328" lon="0.85617">
        <ele>782.54998779</ele>
        <time>2020-10-29T14:33:36Z</time>
      </trkpt>
      <trkpt lat="43.01326" lon="0.85611">
        <ele>782.86999512</ele>
        <time>2020-10-29T14:33:38Z</time>
      </trkpt>
      <trkpt lat="43.01323" lon="0.85601">
        <ele>783.20001221</ele>
        <time>2020-10-29T14:33:39Z</time>
      </trkpt>
      <trkpt lat="43.0132" lon="0.85592">
        <ele>783.76000977</ele>
        <time>2020-10-29T14:33:41Z</time>
      </trkpt>
      <trkpt lat="43.01315" lon="0.85585">
        <ele>784.05999756</ele>
        <time>2020-10-29T14:33:43Z</time>
      </trkpt>
      <trkpt lat="43.01312" lon="0.85579">
        <ele>783.55999756</ele>
        <time>2020-10-29T14:33:44Z</time>
      </trkpt>
      <trkpt lat="43.01307" lon="0.85574">
        <ele>783.86999512</ele>
        <time>2020-10-29T14:33:45Z</time>
      </trkpt>
      <trkpt lat="43.01305" lon="0.85571">
        <ele>784.07000732</ele>
        <time>2020-10-29T14:33:46Z</time>
      </trkpt>
      <trkpt lat="43.01302" lon="0.85568">
        <ele>784.44000244</ele>
        <time>2020-10-29T14:33:47Z</time>
      </trkpt>
      <trkpt lat="43.01298" lon="0.85566">
        <ele>784.19000244</ele>
        <time>2020-10-29T14:33:49Z</time>
      </trkpt>
      <trkpt lat="43.01294" lon="0.85563">
        <ele>784.58001709</ele>
        <time>2020-10-29T14:33:50Z</time>
      </trkpt>
      <trkpt lat="43.01289" lon="0.85561">
        <ele>785.05999756</ele>
        <time>2020-10-29T14:33:52Z</time>
      </trkpt>
      <trkpt lat="43.01283" lon="0.85559">
        <ele>785.92999268</ele>
        <time>2020-10-29T14:33:53Z</time>
      </trkpt>
      <trkpt lat="43.01278" lon="0.85557">
        <ele>786.88000488</ele>
        <time>2020-10-29T14:33:55Z</time>
      </trkpt>
      <trkpt lat="43.01274" lon="0.85556">
        <ele>787.14001465</ele>
        <time>2020-10-29T14:33:56Z</time>
      </trkpt>
      <trkpt lat="43.01267" lon="0.85554">
        <ele>787.9699707</ele>
        <time>2020-10-29T14:33:58Z</time>
      </trkpt>
      <trkpt lat="43.01264" lon="0.85553">
        <ele>788.20001221</ele>
        <time>2020-10-29T14:33:59Z</time>
      </trkpt>
      <trkpt lat="43.01258" lon="0.85552">
        <ele>788.33001709</ele>
        <time>2020-10-29T14:34:00Z</time>
      </trkpt>
      <trkpt lat="43.01253" lon="0.85551">
        <ele>788.32000732</ele>
        <time>2020-10-29T14:34:02Z</time>
      </trkpt>
      <trkpt lat="43.01249" lon="0.85549">
        <ele>788.70001221</ele>
        <time>2020-10-29T14:34:03Z</time>
      </trkpt>
      <trkpt lat="43.01243" lon="0.85548">
        <ele>789.05999756</ele>
        <time>2020-10-29T14:34:04Z</time>
      </trkpt>
      <trkpt lat="43.01238" lon="0.85546">
        <ele>789.77001953</ele>
        <time>2020-10-29T14:34:06Z</time>
      </trkpt>
      <trkpt lat="43.01234" lon="0.85544">
        <ele>789.73999023</ele>
        <time>2020-10-29T14:34:07Z</time>
      </trkpt>
      <trkpt lat="43.01231" lon="0.85542">
        <ele>790.29998779</ele>
        <time>2020-10-29T14:34:09Z</time>
      </trkpt>
      <trkpt lat="43.01225" lon="0.8554">
        <ele>790.54998779</ele>
        <time>2020-10-29T14:34:10Z</time>
      </trkpt>
      <trkpt lat="43.01218" lon="0.85538">
        <ele>790.98999023</ele>
        <time>2020-10-29T14:34:12Z</time>
      </trkpt>
      <trkpt lat="43.01213" lon="0.85536">
        <ele>791.20001221</ele>
        <time>2020-10-29T14:34:14Z</time>
      </trkpt>
      <trkpt lat="43.0121" lon="0.85534">
        <ele>791.41998291</ele>
        <time>2020-10-29T14:34:15Z</time>
      </trkpt>
      <trkpt lat="43.01207" lon="0.85533">
        <ele>791.61999512</ele>
        <time>2020-10-29T14:34:16Z</time>
      </trkpt>
      <trkpt lat="43.01204" lon="0.85532">
        <ele>791.80999756</ele>
        <time>2020-10-29T14:34:17Z</time>
      </trkpt>
      <trkpt lat="43.012" lon="0.8553">
        <ele>792.21002197</ele>
        <time>2020-10-29T14:34:19Z</time>
      </trkpt>
      <trkpt lat="43.01193" lon="0.85528">
        <ele>792.54998779</ele>
        <time>2020-10-29T14:34:21Z</time>
      </trkpt>
      <trkpt lat="43.01188" lon="0.85526">
        <ele>792.96002197</ele>
        <time>2020-10-29T14:34:22Z</time>
      </trkpt>
      <trkpt lat="43.01183" lon="0.85525">
        <ele>793.40002441</ele>
        <time>2020-10-29T14:34:24Z</time>
      </trkpt>
      <trkpt lat="43.01178" lon="0.85524">
        <ele>793.66998291</ele>
        <time>2020-10-29T14:34:25Z</time>
      </trkpt>
      <trkpt lat="43.01174" lon="0.85523">
        <ele>793.90002441</ele>
        <time>2020-10-29T14:34:26Z</time>
      </trkpt>
      <trkpt lat="43.0117" lon="0.85523">
        <ele>794.46002197</ele>
        <time>2020-10-29T14:34:28Z</time>
      </trkpt>
      <trkpt lat="43.01166" lon="0.85522">
        <ele>794.46002197</ele>
        <time>2020-10-29T14:34:29Z</time>
      </trkpt>
      <trkpt lat="43.01162" lon="0.85522">
        <ele>795.21002197</ele>
        <time>2020-10-29T14:34:30Z</time>
      </trkpt>
      <trkpt lat="43.01157" lon="0.85522">
        <ele>795.4699707</ele>
        <time>2020-10-29T14:34:31Z</time>
      </trkpt>
      <trkpt lat="43.01153" lon="0.85522">
        <ele>795.67999268</ele>
        <time>2020-10-29T14:34:33Z</time>
      </trkpt>
      <trkpt lat="43.01148" lon="0.85521">
        <ele>796.0300293</ele>
        <time>2020-10-29T14:34:34Z</time>
      </trkpt>
      <trkpt lat="43.01145" lon="0.85521">
        <ele>796.40997314</ele>
        <time>2020-10-29T14:34:35Z</time>
      </trkpt>
      <trkpt lat="43.0114" lon="0.85521">
        <ele>796.48999023</ele>
        <time>2020-10-29T14:34:37Z</time>
      </trkpt>
      <trkpt lat="43.01133" lon="0.8552">
        <ele>796.95001221</ele>
        <time>2020-10-29T14:34:39Z</time>
      </trkpt>
      <trkpt lat="43.01126" lon="0.8552">
        <ele>797.13000488</ele>
        <time>2020-10-29T14:34:40Z</time>
      </trkpt>
      <trkpt lat="43.0112" lon="0.85519">
        <ele>797.15002441</ele>
        <time>2020-10-29T14:34:42Z</time>
      </trkpt>
      <trkpt lat="43.01116" lon="0.85519">
        <ele>797.48999023</ele>
        <time>2020-10-29T14:34:43Z</time>
      </trkpt>
      <trkpt lat="43.01111" lon="0.85518">
        <ele>797.69000244</ele>
        <time>2020-10-29T14:34:44Z</time>
      </trkpt>
      <trkpt lat="43.01106" lon="0.85518">
        <ele>797.94000244</ele>
        <time>2020-10-29T14:34:45Z</time>
      </trkpt>
      <trkpt lat="43.01102" lon="0.85517">
        <ele>798.32000732</ele>
        <time>2020-10-29T14:34:47Z</time>
      </trkpt>
      <trkpt lat="43.01099" lon="0.85517">
        <ele>798.59002686</ele>
        <time>2020-10-29T14:34:48Z</time>
      </trkpt>
      <trkpt lat="43.01094" lon="0.85516">
        <ele>798.59002686</ele>
        <time>2020-10-29T14:34:49Z</time>
      </trkpt>
      <trkpt lat="43.0109" lon="0.85515">
        <ele>798.55999756</ele>
        <time>2020-10-29T14:34:50Z</time>
      </trkpt>
      <trkpt lat="43.01085" lon="0.85514">
        <ele>798.91998291</ele>
        <time>2020-10-29T14:34:52Z</time>
      </trkpt>
      <trkpt lat="43.01081" lon="0.85513">
        <ele>799.34002686</ele>
        <time>2020-10-29T14:34:53Z</time>
      </trkpt>
      <trkpt lat="43.01075" lon="0.85511">
        <ele>799.36999512</ele>
        <time>2020-10-29T14:34:54Z</time>
      </trkpt>
      <trkpt lat="43.0107" lon="0.85508">
        <ele>799.85998535</ele>
        <time>2020-10-29T14:34:56Z</time>
      </trkpt>
      <trkpt lat="43.01064" lon="0.85503">
        <ele>800.09002686</ele>
        <time>2020-10-29T14:34:57Z</time>
      </trkpt>
      <trkpt lat="43.0106" lon="0.855">
        <ele>800.27001953</ele>
        <time>2020-10-29T14:34:59Z</time>
      </trkpt>
      <trkpt lat="43.01057" lon="0.85497">
        <ele>800.48999023</ele>
        <time>2020-10-29T14:35:00Z</time>
      </trkpt>
      <trkpt lat="43.01052" lon="0.85493">
        <ele>800.73999023</ele>
        <time>2020-10-29T14:35:01Z</time>
      </trkpt>
      <trkpt lat="43.01047" lon="0.85487">
        <ele>800.7800293</ele>
        <time>2020-10-29T14:35:03Z</time>
      </trkpt>
      <trkpt lat="43.01043" lon="0.85482">
        <ele>801.25</ele>
        <time>2020-10-29T14:35:04Z</time>
      </trkpt>
      <trkpt lat="43.01037" lon="0.85476">
        <ele>801.52001953</ele>
        <time>2020-10-29T14:35:06Z</time>
      </trkpt>
      <trkpt lat="43.01034" lon="0.85472">
        <ele>801.9699707</ele>
        <time>2020-10-29T14:35:07Z</time>
      </trkpt>
      <trkpt lat="43.01031" lon="0.85469">
        <ele>802.07000732</ele>
        <time>2020-10-29T14:35:08Z</time>
      </trkpt>
      <trkpt lat="43.01027" lon="0.85465">
        <ele>802.45001221</ele>
        <time>2020-10-29T14:35:09Z</time>
      </trkpt>
      <trkpt lat="43.01023" lon="0.85462">
        <ele>802.73999023</ele>
        <time>2020-10-29T14:35:10Z</time>
      </trkpt>
      <trkpt lat="43.01019" lon="0.85459">
        <ele>802.73999023</ele>
        <time>2020-10-29T14:35:12Z</time>
      </trkpt>
      <trkpt lat="43.01016" lon="0.85457">
        <ele>802.79998779</ele>
        <time>2020-10-29T14:35:13Z</time>
      </trkpt>
      <trkpt lat="43.0101" lon="0.85453">
        <ele>802.9699707</ele>
        <time>2020-10-29T14:35:14Z</time>
      </trkpt>
      <trkpt lat="43.01007" lon="0.85451">
        <ele>803.35998535</ele>
        <time>2020-10-29T14:35:16Z</time>
      </trkpt>
      <trkpt lat="43.01003" lon="0.85448">
        <ele>803.35998535</ele>
        <time>2020-10-29T14:35:17Z</time>
      </trkpt>
      <trkpt lat="43.00995" lon="0.85445">
        <ele>803.39001465</ele>
        <time>2020-10-29T14:35:19Z</time>
      </trkpt>
      <trkpt lat="43.00988" lon="0.85443">
        <ele>803.20001221</ele>
        <time>2020-10-29T14:35:20Z</time>
      </trkpt>
      <trkpt lat="43.00984" lon="0.85442">
        <ele>803.60998535</ele>
        <time>2020-10-29T14:35:22Z</time>
      </trkpt>
      <trkpt lat="43.00979" lon="0.85441">
        <ele>803.92999268</ele>
        <time>2020-10-29T14:35:23Z</time>
      </trkpt>
      <trkpt lat="43.00973" lon="0.85439">
        <ele>804.5300293</ele>
        <time>2020-10-29T14:35:25Z</time>
      </trkpt>
      <trkpt lat="43.00968" lon="0.85442">
        <ele>804.84002686</ele>
        <time>2020-10-29T14:35:26Z</time>
      </trkpt>
      <trkpt lat="43.00963" lon="0.85445">
        <ele>805.20001221</ele>
        <time>2020-10-29T14:35:27Z</time>
      </trkpt>
      <trkpt lat="43.00959" lon="0.85447">
        <ele>805.45001221</ele>
        <time>2020-10-29T14:35:29Z</time>
      </trkpt>
      <trkpt lat="43.00953" lon="0.85453">
        <ele>805.88000488</ele>
        <time>2020-10-29T14:35:31Z</time>
      </trkpt>
      <trkpt lat="43.00948" lon="0.85456">
        <ele>806.2800293</ele>
        <time>2020-10-29T14:35:32Z</time>
      </trkpt>
      <trkpt lat="43.00943" lon="0.8546">
        <ele>806.95001221</ele>
        <time>2020-10-29T14:35:34Z</time>
      </trkpt>
      <trkpt lat="43.0094" lon="0.85462">
        <ele>807.08001709</ele>
        <time>2020-10-29T14:35:35Z</time>
      </trkpt>
      <trkpt lat="43.00933" lon="0.85466">
        <ele>807.59002686</ele>
        <time>2020-10-29T14:35:37Z</time>
      </trkpt>
      <trkpt lat="43.0093" lon="0.85468">
        <ele>807.66998291</ele>
        <time>2020-10-29T14:35:38Z</time>
      </trkpt>
      <trkpt lat="43.00925" lon="0.8547">
        <ele>808</ele>
        <time>2020-10-29T14:35:39Z</time>
      </trkpt>
      <trkpt lat="43.00921" lon="0.85473">
        <ele>808.09997559</ele>
        <time>2020-10-29T14:35:40Z</time>
      </trkpt>
      <trkpt lat="43.00915" lon="0.85476">
        <ele>808.02001953</ele>
        <time>2020-10-29T14:35:41Z</time>
      </trkpt>
      <trkpt lat="43.00908" lon="0.85481">
        <ele>808.53997803</ele>
        <time>2020-10-29T14:35:43Z</time>
      </trkpt>
      <trkpt lat="43.00903" lon="0.85484">
        <ele>808.61999512</ele>
        <time>2020-10-29T14:35:45Z</time>
      </trkpt>
      <trkpt lat="43.00899" lon="0.85486">
        <ele>808.83001709</ele>
        <time>2020-10-29T14:35:46Z</time>
      </trkpt>
      <trkpt lat="43.00894" lon="0.85489">
        <ele>808.83001709</ele>
        <time>2020-10-29T14:35:47Z</time>
      </trkpt>
      <trkpt lat="43.00886" lon="0.85494">
        <ele>809.96002197</ele>
        <time>2020-10-29T14:35:49Z</time>
      </trkpt>
      <trkpt lat="43.00883" lon="0.85495">
        <ele>810.20001221</ele>
        <time>2020-10-29T14:35:50Z</time>
      </trkpt>
      <trkpt lat="43.00883" lon="0.85496">
        <ele>810.11999512</ele>
        <time>2020-10-29T14:35:51Z</time>
      </trkpt>
      <trkpt lat="43.00878" lon="0.85499">
        <ele>809.90997314</ele>
        <time>2020-10-29T14:35:52Z</time>
      </trkpt>
      <trkpt lat="43.00874" lon="0.85501">
        <ele>809.70001221</ele>
        <time>2020-10-29T14:35:54Z</time>
      </trkpt>
      <trkpt lat="43.00866" lon="0.85504">
        <ele>810.77001953</ele>
        <time>2020-10-29T14:35:55Z</time>
      </trkpt>
      <trkpt lat="43.00859" lon="0.85505">
        <ele>811.38000488</ele>
        <time>2020-10-29T14:35:57Z</time>
      </trkpt>
      <trkpt lat="43.00853" lon="0.85506">
        <ele>811.36999512</ele>
        <time>2020-10-29T14:35:58Z</time>
      </trkpt>
      <trkpt lat="43.00849" lon="0.85506">
        <ele>811.26000977</ele>
        <time>2020-10-29T14:35:59Z</time>
      </trkpt>
      <trkpt lat="43.00845" lon="0.85505">
        <ele>811.65002441</ele>
        <time>2020-10-29T14:36:00Z</time>
      </trkpt>
      <trkpt lat="43.00841" lon="0.85504">
        <ele>811.91998291</ele>
        <time>2020-10-29T14:36:02Z</time>
      </trkpt>
      <trkpt lat="43.00838" lon="0.85501">
        <ele>811.70001221</ele>
        <time>2020-10-29T14:36:03Z</time>
      </trkpt>
      <trkpt lat="43.00834" lon="0.85498">
        <ele>812.03997803</ele>
        <time>2020-10-29T14:36:04Z</time>
      </trkpt>
      <trkpt lat="43.0083" lon="0.85495">
        <ele>812.11999512</ele>
        <time>2020-10-29T14:36:05Z</time>
      </trkpt>
      <trkpt lat="43.00827" lon="0.85491">
        <ele>812.92999268</ele>
        <time>2020-10-29T14:36:07Z</time>
      </trkpt>
      <trkpt lat="43.00823" lon="0.85487">
        <ele>813.2199707</ele>
        <time>2020-10-29T14:36:09Z</time>
      </trkpt>
      <trkpt lat="43.00817" lon="0.85481">
        <ele>814.13000488</ele>
        <time>2020-10-29T14:36:11Z</time>
      </trkpt>
      <trkpt lat="43.00812" lon="0.85476">
        <ele>814.19000244</ele>
        <time>2020-10-29T14:36:12Z</time>
      </trkpt>
      <trkpt lat="43.00808" lon="0.85472">
        <ele>813.9699707</ele>
        <time>2020-10-29T14:36:13Z</time>
      </trkpt>
      <trkpt lat="43.00805" lon="0.85468">
        <ele>814.41998291</ele>
        <time>2020-10-29T14:36:14Z</time>
      </trkpt>
      <trkpt lat="43.00801" lon="0.85464">
        <ele>814.7800293</ele>
        <time>2020-10-29T14:36:16Z</time>
      </trkpt>
      <trkpt lat="43.00797" lon="0.85459">
        <ele>814.88000488</ele>
        <time>2020-10-29T14:36:17Z</time>
      </trkpt>
      <trkpt lat="43.00794" lon="0.85455">
        <ele>814.79998779</ele>
        <time>2020-10-29T14:36:18Z</time>
      </trkpt>
      <trkpt lat="43.00789" lon="0.85448">
        <ele>815.5</ele>
        <time>2020-10-29T14:36:20Z</time>
      </trkpt>
      <trkpt lat="43.00785" lon="0.85442">
        <ele>815.65997314</ele>
        <time>2020-10-29T14:36:21Z</time>
      </trkpt>
      <trkpt lat="43.00781" lon="0.85437">
        <ele>815.55999756</ele>
        <time>2020-10-29T14:36:23Z</time>
      </trkpt>
      <trkpt lat="43.00777" lon="0.85432">
        <ele>816.5</ele>
        <time>2020-10-29T14:36:24Z</time>
      </trkpt>
      <trkpt lat="43.00774" lon="0.85426">
        <ele>816.59997559</ele>
        <time>2020-10-29T14:36:25Z</time>
      </trkpt>
      <trkpt lat="43.00771" lon="0.8542">
        <ele>816.90997314</ele>
        <time>2020-10-29T14:36:26Z</time>
      </trkpt>
      <trkpt lat="43.00768" lon="0.85416">
        <ele>817.91998291</ele>
        <time>2020-10-29T14:36:28Z</time>
      </trkpt>
      <trkpt lat="43.00765" lon="0.85408">
        <ele>818.25</ele>
        <time>2020-10-29T14:36:30Z</time>
      </trkpt>
      <trkpt lat="43.00763" lon="0.85403">
        <ele>818.25</ele>
        <time>2020-10-29T14:36:31Z</time>
      </trkpt>
      <trkpt lat="43.0076" lon="0.85395">
        <ele>819.2800293</ele>
        <time>2020-10-29T14:36:32Z</time>
      </trkpt>
      <trkpt lat="43.00759" lon="0.8539">
        <ele>819.42999268</ele>
        <time>2020-10-29T14:36:33Z</time>
      </trkpt>
      <trkpt lat="43.00757" lon="0.85385">
        <ele>819.67999268</ele>
        <time>2020-10-29T14:36:35Z</time>
      </trkpt>
      <trkpt lat="43.00755" lon="0.8538">
        <ele>820.08001709</ele>
        <time>2020-10-29T14:36:36Z</time>
      </trkpt>
      <trkpt lat="43.00753" lon="0.85371">
        <ele>820</ele>
        <time>2020-10-29T14:36:37Z</time>
      </trkpt>
      <trkpt lat="43.00752" lon="0.85365">
        <ele>820.07000732</ele>
        <time>2020-10-29T14:36:39Z</time>
      </trkpt>
      <trkpt lat="43.0075" lon="0.85355">
        <ele>820.46002197</ele>
        <time>2020-10-29T14:36:40Z</time>
      </trkpt>
      <trkpt lat="43.00749" lon="0.8535">
        <ele>821.9699707</ele>
        <time>2020-10-29T14:36:41Z</time>
      </trkpt>
      <trkpt lat="43.00748" lon="0.85342">
        <ele>823.32000732</ele>
        <time>2020-10-29T14:36:43Z</time>
      </trkpt>
      <trkpt lat="43.00745" lon="0.85328">
        <ele>824.04998779</ele>
        <time>2020-10-29T14:36:44Z</time>
      </trkpt>
      <trkpt lat="43.00744" lon="0.8532">
        <ele>824.69000244</ele>
        <time>2020-10-29T14:36:46Z</time>
      </trkpt>
      <trkpt lat="43.00742" lon="0.85308">
        <ele>825.64001465</ele>
        <time>2020-10-29T14:36:47Z</time>
      </trkpt>
      <trkpt lat="43.00742" lon="0.853">
        <ele>825.77001953</ele>
        <time>2020-10-29T14:36:49Z</time>
      </trkpt>
      <trkpt lat="43.00741" lon="0.85289">
        <ele>826.83001709</ele>
        <time>2020-10-29T14:36:50Z</time>
      </trkpt>
      <trkpt lat="43.00741" lon="0.85283">
        <ele>827.15997314</ele>
        <time>2020-10-29T14:36:52Z</time>
      </trkpt>
      <trkpt lat="43.0074" lon="0.85273">
        <ele>828.82000732</ele>
        <time>2020-10-29T14:36:53Z</time>
      </trkpt>
      <trkpt lat="43.0074" lon="0.85267">
        <ele>829.2800293</ele>
        <time>2020-10-29T14:36:55Z</time>
      </trkpt>
      <trkpt lat="43.00739" lon="0.85261">
        <ele>829.2800293</ele>
        <time>2020-10-29T14:36:56Z</time>
      </trkpt>
      <trkpt lat="43.00738" lon="0.85252">
        <ele>830.27001953</ele>
        <time>2020-10-29T14:36:57Z</time>
      </trkpt>
      <trkpt lat="43.00737" lon="0.85246">
        <ele>830.55999756</ele>
        <time>2020-10-29T14:36:58Z</time>
      </trkpt>
      <trkpt lat="43.00737" lon="0.85241">
        <ele>830.10998535</ele>
        <time>2020-10-29T14:37:00Z</time>
      </trkpt>
      <trkpt lat="43.00735" lon="0.85234">
        <ele>830.90997314</ele>
        <time>2020-10-29T14:37:01Z</time>
      </trkpt>
      <trkpt lat="43.00734" lon="0.85228">
        <ele>831.22998047</ele>
        <time>2020-10-29T14:37:02Z</time>
      </trkpt>
      <trkpt lat="43.00733" lon="0.85223">
        <ele>831.13000488</ele>
        <time>2020-10-29T14:37:03Z</time>
      </trkpt>
      <trkpt lat="43.00731" lon="0.85218">
        <ele>832.55999756</ele>
        <time>2020-10-29T14:37:05Z</time>
      </trkpt>
      <trkpt lat="43.00729" lon="0.85215">
        <ele>832.7199707</ele>
        <time>2020-10-29T14:37:06Z</time>
      </trkpt>
      <trkpt lat="43.00725" lon="0.85214">
        <ele>832.90997314</ele>
        <time>2020-10-29T14:37:07Z</time>
      </trkpt>
      <trkpt lat="43.00724" lon="0.85215">
        <ele>833.20001221</ele>
        <time>2020-10-29T14:37:08Z</time>
      </trkpt>
      <trkpt lat="43.00723" lon="0.85219">
        <ele>832.76000977</ele>
        <time>2020-10-29T14:37:09Z</time>
      </trkpt>
      <trkpt lat="43.00723" lon="0.85224">
        <ele>832.54998779</ele>
        <time>2020-10-29T14:37:10Z</time>
      </trkpt>
      <trkpt lat="43.00724" lon="0.8523">
        <ele>832.46002197</ele>
        <time>2020-10-29T14:37:11Z</time>
      </trkpt>
      <trkpt lat="43.00725" lon="0.85238">
        <ele>833.59997559</ele>
        <time>2020-10-29T14:37:13Z</time>
      </trkpt>
      <trkpt lat="43.00728" lon="0.85251">
        <ele>832.48999023</ele>
        <time>2020-10-29T14:37:14Z</time>
      </trkpt>
      <trkpt lat="43.00732" lon="0.85262">
        <ele>833.32000732</ele>
        <time>2020-10-29T14:37:16Z</time>
      </trkpt>
      <trkpt lat="43.00733" lon="0.8527">
        <ele>833.88000488</ele>
        <time>2020-10-29T14:37:18Z</time>
      </trkpt>
      <trkpt lat="43.00733" lon="0.85279">
        <ele>836.15002441</ele>
        <time>2020-10-29T14:37:19Z</time>
      </trkpt>
      <trkpt lat="43.00733" lon="0.85286">
        <ele>836.22998047</ele>
        <time>2020-10-29T14:37:20Z</time>
      </trkpt>
      <trkpt lat="43.00732" lon="0.85295">
        <ele>835.75</ele>
        <time>2020-10-29T14:37:22Z</time>
      </trkpt>
      <trkpt lat="43.0073" lon="0.85308">
        <ele>835.45001221</ele>
        <time>2020-10-29T14:37:23Z</time>
      </trkpt>
      <trkpt lat="43.0073" lon="0.85315">
        <ele>836.17999268</ele>
        <time>2020-10-29T14:37:25Z</time>
      </trkpt>
      <trkpt lat="43.00727" lon="0.85334">
        <ele>837.22998047</ele>
        <time>2020-10-29T14:37:27Z</time>
      </trkpt>
      <trkpt lat="43.00725" lon="0.85337">
        <ele>837.45001221</ele>
        <time>2020-10-29T14:37:28Z</time>
      </trkpt>
      <trkpt lat="43.00724" lon="0.85344">
        <ele>837.2199707</ele>
        <time>2020-10-29T14:37:29Z</time>
      </trkpt>
      <trkpt lat="43.00724" lon="0.85359">
        <ele>838.28997803</ele>
        <time>2020-10-29T14:37:31Z</time>
      </trkpt>
      <trkpt lat="43.00725" lon="0.85375">
        <ele>839.90997314</ele>
        <time>2020-10-29T14:37:33Z</time>
      </trkpt>
      <trkpt lat="43.00725" lon="0.85382">
        <ele>839.90002441</ele>
        <time>2020-10-29T14:37:34Z</time>
      </trkpt>
      <trkpt lat="43.00725" lon="0.85388">
        <ele>839.90002441</ele>
        <time>2020-10-29T14:37:35Z</time>
      </trkpt>
      <trkpt lat="43.00724" lon="0.854">
        <ele>840.69000244</ele>
        <time>2020-10-29T14:37:37Z</time>
      </trkpt>
      <trkpt lat="43.00725" lon="0.85413">
        <ele>841.70001221</ele>
        <time>2020-10-29T14:37:38Z</time>
      </trkpt>
      <trkpt lat="43.00726" lon="0.85421">
        <ele>841.97998047</ele>
        <time>2020-10-29T14:37:40Z</time>
      </trkpt>
      <trkpt lat="43.00726" lon="0.85427">
        <ele>841.97998047</ele>
        <time>2020-10-29T14:37:41Z</time>
      </trkpt>
      <trkpt lat="43.00726" lon="0.85436">
        <ele>842.63000488</ele>
        <time>2020-10-29T14:37:42Z</time>
      </trkpt>
      <trkpt lat="43.00727" lon="0.85443">
        <ele>842.88000488</ele>
        <time>2020-10-29T14:37:44Z</time>
      </trkpt>
      <trkpt lat="43.00728" lon="0.85449">
        <ele>843.2199707</ele>
        <time>2020-10-29T14:37:45Z</time>
      </trkpt>
      <trkpt lat="43.00728" lon="0.85454">
        <ele>843.52001953</ele>
        <time>2020-10-29T14:37:46Z</time>
      </trkpt>
      <trkpt lat="43.00729" lon="0.85462">
        <ele>843.84002686</ele>
        <time>2020-10-29T14:37:47Z</time>
      </trkpt>
      <trkpt lat="43.0073" lon="0.85468">
        <ele>844.34002686</ele>
        <time>2020-10-29T14:37:48Z</time>
      </trkpt>
      <trkpt lat="43.0073" lon="0.85475">
        <ele>844.29998779</ele>
        <time>2020-10-29T14:37:49Z</time>
      </trkpt>
      <trkpt lat="43.00729" lon="0.85483">
        <ele>844.79998779</ele>
        <time>2020-10-29T14:37:50Z</time>
      </trkpt>
      <trkpt lat="43.00729" lon="0.85496">
        <ele>847.09997559</ele>
        <time>2020-10-29T14:37:52Z</time>
      </trkpt>
      <trkpt lat="43.00728" lon="0.8551">
        <ele>847.85998535</ele>
        <time>2020-10-29T14:37:54Z</time>
      </trkpt>
      <trkpt lat="43.00727" lon="0.85515">
        <ele>847.85998535</ele>
        <time>2020-10-29T14:37:55Z</time>
      </trkpt>
      <trkpt lat="43.00726" lon="0.85528">
        <ele>848.46002197</ele>
        <time>2020-10-29T14:37:57Z</time>
      </trkpt>
      <trkpt lat="43.00724" lon="0.85535">
        <ele>848.77001953</ele>
        <time>2020-10-29T14:37:58Z</time>
      </trkpt>
      <trkpt lat="43.0072" lon="0.85549">
        <ele>849.76000977</ele>
        <time>2020-10-29T14:38:00Z</time>
      </trkpt>
      <trkpt lat="43.00719" lon="0.8556">
        <ele>849.82000732</ele>
        <time>2020-10-29T14:38:02Z</time>
      </trkpt>
      <trkpt lat="43.00714" lon="0.85568">
        <ele>850.40002441</ele>
        <time>2020-10-29T14:38:03Z</time>
      </trkpt>
      <trkpt lat="43.0071" lon="0.85579">
        <ele>851.2199707</ele>
        <time>2020-10-29T14:38:05Z</time>
      </trkpt>
      <trkpt lat="43.00705" lon="0.8559">
        <ele>851.7800293</ele>
        <time>2020-10-29T14:38:07Z</time>
      </trkpt>
      <trkpt lat="43.00701" lon="0.85596">
        <ele>851.78997803</ele>
        <time>2020-10-29T14:38:08Z</time>
      </trkpt>
      <trkpt lat="43.00696" lon="0.85605">
        <ele>853.13000488</ele>
        <time>2020-10-29T14:38:10Z</time>
      </trkpt>
      <trkpt lat="43.00691" lon="0.85612">
        <ele>853.19000244</ele>
        <time>2020-10-29T14:38:12Z</time>
      </trkpt>
      <trkpt lat="43.00686" lon="0.85618">
        <ele>853.30999756</ele>
        <time>2020-10-29T14:38:13Z</time>
      </trkpt>
      <trkpt lat="43.00682" lon="0.85623">
        <ele>853.51000977</ele>
        <time>2020-10-29T14:38:14Z</time>
      </trkpt>
      <trkpt lat="43.00677" lon="0.85627">
        <ele>854.97998047</ele>
        <time>2020-10-29T14:38:16Z</time>
      </trkpt>
      <trkpt lat="43.00671" lon="0.85635">
        <ele>855.7800293</ele>
        <time>2020-10-29T14:38:18Z</time>
      </trkpt>
      <trkpt lat="43.00667" lon="0.85639">
        <ele>856.05999756</ele>
        <time>2020-10-29T14:38:19Z</time>
      </trkpt>
      <trkpt lat="43.00663" lon="0.85642">
        <ele>856.05999756</ele>
        <time>2020-10-29T14:38:20Z</time>
      </trkpt>
      <trkpt lat="43.00656" lon="0.85647">
        <ele>856.48999023</ele>
        <time>2020-10-29T14:38:21Z</time>
      </trkpt>
      <trkpt lat="43.00651" lon="0.8565">
        <ele>856.39001465</ele>
        <time>2020-10-29T14:38:22Z</time>
      </trkpt>
      <trkpt lat="43.00646" lon="0.85654">
        <ele>856.14001465</ele>
        <time>2020-10-29T14:38:24Z</time>
      </trkpt>
      <trkpt lat="43.00642" lon="0.85657">
        <ele>855.98999023</ele>
        <time>2020-10-29T14:38:25Z</time>
      </trkpt>
      <trkpt lat="43.00638" lon="0.85659">
        <ele>856.75</ele>
        <time>2020-10-29T14:38:26Z</time>
      </trkpt>
      <trkpt lat="43.00633" lon="0.85662">
        <ele>857.03997803</ele>
        <time>2020-10-29T14:38:27Z</time>
      </trkpt>
      <trkpt lat="43.00627" lon="0.85664">
        <ele>857.05999756</ele>
        <time>2020-10-29T14:38:29Z</time>
      </trkpt>
      <trkpt lat="43.00623" lon="0.85664">
        <ele>857.25</ele>
        <time>2020-10-29T14:38:30Z</time>
      </trkpt>
      <trkpt lat="43.00614" lon="0.85662">
        <ele>857.98999023</ele>
        <time>2020-10-29T14:38:31Z</time>
      </trkpt>
      <trkpt lat="43.0061" lon="0.85662">
        <ele>858.45001221</ele>
        <time>2020-10-29T14:38:33Z</time>
      </trkpt>
      <trkpt lat="43.00606" lon="0.85661">
        <ele>858.65997314</ele>
        <time>2020-10-29T14:38:34Z</time>
      </trkpt>
      <trkpt lat="43.00602" lon="0.85661">
        <ele>858.60998535</ele>
        <time>2020-10-29T14:38:35Z</time>
      </trkpt>
      <trkpt lat="43.00595" lon="0.8566">
        <ele>858.59997559</ele>
        <time>2020-10-29T14:38:37Z</time>
      </trkpt>
      <trkpt lat="43.00588" lon="0.8566">
        <ele>859.15002441</ele>
        <time>2020-10-29T14:38:38Z</time>
      </trkpt>
      <trkpt lat="43.00583" lon="0.8566">
        <ele>860.09002686</ele>
        <time>2020-10-29T14:38:40Z</time>
      </trkpt>
      <trkpt lat="43.00579" lon="0.85659">
        <ele>860.70001221</ele>
        <time>2020-10-29T14:38:41Z</time>
      </trkpt>
      <trkpt lat="43.00574" lon="0.85658">
        <ele>861.36999512</ele>
        <time>2020-10-29T14:38:42Z</time>
      </trkpt>
      <trkpt lat="43.0057" lon="0.85657">
        <ele>860.76000977</ele>
        <time>2020-10-29T14:38:43Z</time>
      </trkpt>
      <trkpt lat="43.00565" lon="0.85655">
        <ele>861.11999512</ele>
        <time>2020-10-29T14:38:45Z</time>
      </trkpt>
      <trkpt lat="43.00557" lon="0.85654">
        <ele>861.27001953</ele>
        <time>2020-10-29T14:38:46Z</time>
      </trkpt>
      <trkpt lat="43.0055" lon="0.85653">
        <ele>862.78997803</ele>
        <time>2020-10-29T14:38:48Z</time>
      </trkpt>
      <trkpt lat="43.00543" lon="0.85652">
        <ele>863.09002686</ele>
        <time>2020-10-29T14:38:50Z</time>
      </trkpt>
      <trkpt lat="43.00538" lon="0.85652">
        <ele>863.09002686</ele>
        <time>2020-10-29T14:38:51Z</time>
      </trkpt>
      <trkpt lat="43.00532" lon="0.85651">
        <ele>862.95001221</ele>
        <time>2020-10-29T14:38:52Z</time>
      </trkpt>
      <trkpt lat="43.00526" lon="0.85648">
        <ele>863.38000488</ele>
        <time>2020-10-29T14:38:53Z</time>
      </trkpt>
      <trkpt lat="43.0052" lon="0.85645">
        <ele>864.2800293</ele>
        <time>2020-10-29T14:38:55Z</time>
      </trkpt>
      <trkpt lat="43.00515" lon="0.8564">
        <ele>865.34997559</ele>
        <time>2020-10-29T14:38:57Z</time>
      </trkpt>
      <trkpt lat="43.00511" lon="0.85635">
        <ele>865.34997559</ele>
        <time>2020-10-29T14:38:58Z</time>
      </trkpt>
      <trkpt lat="43.00499" lon="0.85635">
        <ele>865.48999023</ele>
        <time>2020-10-29T14:39:00Z</time>
      </trkpt>
      <trkpt lat="43.00495" lon="0.85631">
        <ele>866.45001221</ele>
        <time>2020-10-29T14:39:01Z</time>
      </trkpt>
      <trkpt lat="43.00488" lon="0.85623">
        <ele>866.48999023</ele>
        <time>2020-10-29T14:39:03Z</time>
      </trkpt>
      <trkpt lat="43.00484" lon="0.85618">
        <ele>867.15002441</ele>
        <time>2020-10-29T14:39:04Z</time>
      </trkpt>
      <trkpt lat="43.00477" lon="0.8561">
        <ele>868.19000244</ele>
        <time>2020-10-29T14:39:06Z</time>
      </trkpt>
      <trkpt lat="43.00469" lon="0.856">
        <ele>869.13000488</ele>
        <time>2020-10-29T14:39:08Z</time>
      </trkpt>
      <trkpt lat="43.00466" lon="0.85595">
        <ele>869.20001221</ele>
        <time>2020-10-29T14:39:09Z</time>
      </trkpt>
      <trkpt lat="43.00458" lon="0.85586">
        <ele>869.67999268</ele>
        <time>2020-10-29T14:39:11Z</time>
      </trkpt>
      <trkpt lat="43.00454" lon="0.85581">
        <ele>870.10998535</ele>
        <time>2020-10-29T14:39:12Z</time>
      </trkpt>
      <trkpt lat="43.0045" lon="0.85577">
        <ele>870.2199707</ele>
        <time>2020-10-29T14:39:13Z</time>
      </trkpt>
      <trkpt lat="43.00443" lon="0.85572">
        <ele>871.04998779</ele>
        <time>2020-10-29T14:39:15Z</time>
      </trkpt>
      <trkpt lat="43.00438" lon="0.85568">
        <ele>871.30999756</ele>
        <time>2020-10-29T14:39:16Z</time>
      </trkpt>
      <trkpt lat="43.00426" lon="0.85561">
        <ele>871.29998779</ele>
        <time>2020-10-29T14:39:18Z</time>
      </trkpt>
      <trkpt lat="43.0042" lon="0.85558">
        <ele>871.27001953</ele>
        <time>2020-10-29T14:39:19Z</time>
      </trkpt>
      <trkpt lat="43.00411" lon="0.85552">
        <ele>871.63000488</ele>
        <time>2020-10-29T14:39:21Z</time>
      </trkpt>
      <trkpt lat="43.00407" lon="0.85549">
        <ele>871.63000488</ele>
        <time>2020-10-29T14:39:22Z</time>
      </trkpt>
      <trkpt lat="43.00394" lon="0.85542">
        <ele>872.57000732</ele>
        <time>2020-10-29T14:39:24Z</time>
      </trkpt>
      <trkpt lat="43.00389" lon="0.85539">
        <ele>873.19000244</ele>
        <time>2020-10-29T14:39:25Z</time>
      </trkpt>
      <trkpt lat="43.00377" lon="0.85533">
        <ele>873.4699707</ele>
        <time>2020-10-29T14:39:27Z</time>
      </trkpt>
      <trkpt lat="43.00371" lon="0.8553">
        <ele>873.64001465</ele>
        <time>2020-10-29T14:39:28Z</time>
      </trkpt>
      <trkpt lat="43.00361" lon="0.85524">
        <ele>873.82000732</ele>
        <time>2020-10-29T14:39:30Z</time>
      </trkpt>
      <trkpt lat="43.00352" lon="0.85519">
        <ele>873.71002197</ele>
        <time>2020-10-29T14:39:32Z</time>
      </trkpt>
      <trkpt lat="43.00342" lon="0.85511">
        <ele>873.38000488</ele>
        <time>2020-10-29T14:39:34Z</time>
      </trkpt>
      <trkpt lat="43.00337" lon="0.85506">
        <ele>873.57000732</ele>
        <time>2020-10-29T14:39:35Z</time>
      </trkpt>
      <trkpt lat="43.00327" lon="0.85495">
        <ele>873.96002197</ele>
        <time>2020-10-29T14:39:37Z</time>
      </trkpt>
      <trkpt lat="43.00323" lon="0.85489">
        <ele>873.70001221</ele>
        <time>2020-10-29T14:39:38Z</time>
      </trkpt>
      <trkpt lat="43.00319" lon="0.85483">
        <ele>877.07000732</ele>
        <time>2020-10-29T14:39:39Z</time>
      </trkpt>
      <trkpt lat="43.00316" lon="0.85475">
        <ele>877.36999512</ele>
        <time>2020-10-29T14:39:40Z</time>
      </trkpt>
      <trkpt lat="43.00312" lon="0.85461">
        <ele>877.66998291</ele>
        <time>2020-10-29T14:39:42Z</time>
      </trkpt>
      <trkpt lat="43.00308" lon="0.85446">
        <ele>878.17999268</ele>
        <time>2020-10-29T14:39:44Z</time>
      </trkpt>
      <trkpt lat="43.00306" lon="0.85439">
        <ele>878.19000244</ele>
        <time>2020-10-29T14:39:45Z</time>
      </trkpt>
      <trkpt lat="43.00304" lon="0.85431">
        <ele>878.35998535</ele>
        <time>2020-10-29T14:39:46Z</time>
      </trkpt>
      <trkpt lat="43.00302" lon="0.85423">
        <ele>878.55999756</ele>
        <time>2020-10-29T14:39:47Z</time>
      </trkpt>
      <trkpt lat="43.00299" lon="0.85409">
        <ele>876.90002441</ele>
        <time>2020-10-29T14:39:49Z</time>
      </trkpt>
      <trkpt lat="43.00295" lon="0.85396">
        <ele>877.19000244</ele>
        <time>2020-10-29T14:39:51Z</time>
      </trkpt>
      <trkpt lat="43.00293" lon="0.85389">
        <ele>877.51000977</ele>
        <time>2020-10-29T14:39:52Z</time>
      </trkpt>
      <trkpt lat="43.00289" lon="0.85376">
        <ele>878.07000732</ele>
        <time>2020-10-29T14:39:54Z</time>
      </trkpt>
      <trkpt lat="43.00284" lon="0.85365">
        <ele>878.67999268</ele>
        <time>2020-10-29T14:39:56Z</time>
      </trkpt>
      <trkpt lat="43.00279" lon="0.85356">
        <ele>879.53997803</ele>
        <time>2020-10-29T14:39:58Z</time>
      </trkpt>
      <trkpt lat="43.00274" lon="0.85344">
        <ele>879.97998047</ele>
        <time>2020-10-29T14:40:00Z</time>
      </trkpt>
      <trkpt lat="43.00271" lon="0.85338">
        <ele>880.17999268</ele>
        <time>2020-10-29T14:40:01Z</time>
      </trkpt>
      <trkpt lat="43.00265" lon="0.85325">
        <ele>880.13000488</ele>
        <time>2020-10-29T14:40:03Z</time>
      </trkpt>
      <trkpt lat="43.0026" lon="0.85314">
        <ele>879.14001465</ele>
        <time>2020-10-29T14:40:05Z</time>
      </trkpt>
      <trkpt lat="43.00254" lon="0.85303">
        <ele>879.98999023</ele>
        <time>2020-10-29T14:40:07Z</time>
      </trkpt>
      <trkpt lat="43.00248" lon="0.85293">
        <ele>880.76000977</ele>
        <time>2020-10-29T14:40:09Z</time>
      </trkpt>
      <trkpt lat="43.00244" lon="0.85286">
        <ele>880.5</ele>
        <time>2020-10-29T14:40:11Z</time>
      </trkpt>
      <trkpt lat="43.00238" lon="0.85275">
        <ele>880.66998291</ele>
        <time>2020-10-29T14:40:13Z</time>
      </trkpt>
      <trkpt lat="43.00235" lon="0.85269">
        <ele>880.95001221</ele>
        <time>2020-10-29T14:40:14Z</time>
      </trkpt>
      <trkpt lat="43.00231" lon="0.85261">
        <ele>880.96002197</ele>
        <time>2020-10-29T14:40:15Z</time>
      </trkpt>
      <trkpt lat="43.00227" lon="0.85255">
        <ele>880.55999756</ele>
        <time>2020-10-29T14:40:16Z</time>
      </trkpt>
      <trkpt lat="43.00224" lon="0.85251">
        <ele>881.5300293</ele>
        <time>2020-10-29T14:40:18Z</time>
      </trkpt>
      <trkpt lat="43.0022" lon="0.85244">
        <ele>882.11999512</ele>
        <time>2020-10-29T14:40:19Z</time>
      </trkpt>
      <trkpt lat="43.00213" lon="0.85235">
        <ele>883.71002197</ele>
        <time>2020-10-29T14:40:21Z</time>
      </trkpt>
      <trkpt lat="43.00208" lon="0.85226">
        <ele>883.09002686</ele>
        <time>2020-10-29T14:40:22Z</time>
      </trkpt>
      <trkpt lat="43.00204" lon="0.85221">
        <ele>882.59002686</ele>
        <time>2020-10-29T14:40:23Z</time>
      </trkpt>
      <trkpt lat="43.00199" lon="0.85216">
        <ele>883.34997559</ele>
        <time>2020-10-29T14:40:25Z</time>
      </trkpt>
      <trkpt lat="43.0019" lon="0.85207">
        <ele>883.22998047</ele>
        <time>2020-10-29T14:40:26Z</time>
      </trkpt>
      <trkpt lat="43.00177" lon="0.85196">
        <ele>883.75</ele>
        <time>2020-10-29T14:40:28Z</time>
      </trkpt>
      <trkpt lat="43.00165" lon="0.85192">
        <ele>886.23999023</ele>
        <time>2020-10-29T14:40:30Z</time>
      </trkpt>
      <trkpt lat="43.00158" lon="0.85193">
        <ele>885.73999023</ele>
        <time>2020-10-29T14:40:31Z</time>
      </trkpt>
      <trkpt lat="43.00146" lon="0.85198">
        <ele>886.41998291</ele>
        <time>2020-10-29T14:40:33Z</time>
      </trkpt>
      <trkpt lat="43.0014" lon="0.85201">
        <ele>886.11999512</ele>
        <time>2020-10-29T14:40:34Z</time>
      </trkpt>
      <trkpt lat="43.0013" lon="0.85206">
        <ele>886.73999023</ele>
        <time>2020-10-29T14:40:36Z</time>
      </trkpt>
      <trkpt lat="43.00121" lon="0.85211">
        <ele>887.03997803</ele>
        <time>2020-10-29T14:40:38Z</time>
      </trkpt>
      <trkpt lat="43.00115" lon="0.85215">
        <ele>886.59997559</ele>
        <time>2020-10-29T14:40:39Z</time>
      </trkpt>
      <trkpt lat="43.00107" lon="0.85225">
        <ele>887.48999023</ele>
        <time>2020-10-29T14:40:41Z</time>
      </trkpt>
      <trkpt lat="43.00099" lon="0.85237">
        <ele>887.34997559</ele>
        <time>2020-10-29T14:40:43Z</time>
      </trkpt>
      <trkpt lat="43.00089" lon="0.85246">
        <ele>888.21002197</ele>
        <time>2020-10-29T14:40:45Z</time>
      </trkpt>
      <trkpt lat="43.00079" lon="0.8525">
        <ele>888.73999023</ele>
        <time>2020-10-29T14:40:47Z</time>
      </trkpt>
      <trkpt lat="43.00076" lon="0.85252">
        <ele>888.90002441</ele>
        <time>2020-10-29T14:40:48Z</time>
      </trkpt>
      <trkpt lat="43.0007" lon="0.85253">
        <ele>888.2199707</ele>
        <time>2020-10-29T14:40:49Z</time>
      </trkpt>
      <trkpt lat="43.00059" lon="0.85254">
        <ele>889.10998535</ele>
        <time>2020-10-29T14:40:51Z</time>
      </trkpt>
      <trkpt lat="43.00047" lon="0.85257">
        <ele>890.38000488</ele>
        <time>2020-10-29T14:40:53Z</time>
      </trkpt>
      <trkpt lat="43.0004" lon="0.85258">
        <ele>889.51000977</ele>
        <time>2020-10-29T14:40:54Z</time>
      </trkpt>
      <trkpt lat="43.0003" lon="0.85261">
        <ele>891.46002197</ele>
        <time>2020-10-29T14:40:56Z</time>
      </trkpt>
      <trkpt lat="43.00024" lon="0.85262">
        <ele>894.59002686</ele>
        <time>2020-10-29T14:40:57Z</time>
      </trkpt>
      <trkpt lat="43.00017" lon="0.85265">
        <ele>894.08001709</ele>
        <time>2020-10-29T14:40:58Z</time>
      </trkpt>
      <trkpt lat="43.00005" lon="0.85269">
        <ele>893.92999268</ele>
        <time>2020-10-29T14:41:00Z</time>
      </trkpt>
      <trkpt lat="42.99994" lon="0.85272">
        <ele>892.95001221</ele>
        <time>2020-10-29T14:41:02Z</time>
      </trkpt>
      <trkpt lat="42.99984" lon="0.85275">
        <ele>893.22998047</ele>
        <time>2020-10-29T14:41:04Z</time>
      </trkpt>
      <trkpt lat="42.99979" lon="0.85276">
        <ele>893.15997314</ele>
        <time>2020-10-29T14:41:05Z</time>
      </trkpt>
      <trkpt lat="42.99974" lon="0.85276">
        <ele>893.09997559</ele>
        <time>2020-10-29T14:41:06Z</time>
      </trkpt>
      <trkpt lat="42.99969" lon="0.85277">
        <ele>893.4699707</ele>
        <time>2020-10-29T14:41:07Z</time>
      </trkpt>
      <trkpt lat="42.99964" lon="0.85277">
        <ele>893.32000732</ele>
        <time>2020-10-29T14:41:08Z</time>
      </trkpt>
      <trkpt lat="42.99958" lon="0.85279">
        <ele>893.17999268</ele>
        <time>2020-10-29T14:41:10Z</time>
      </trkpt>
      <trkpt lat="42.99951" lon="0.8528">
        <ele>893.5300293</ele>
        <time>2020-10-29T14:41:11Z</time>
      </trkpt>
      <trkpt lat="42.99947" lon="0.85281">
        <ele>894.51000977</ele>
        <time>2020-10-29T14:41:13Z</time>
      </trkpt>
      <trkpt lat="42.9994" lon="0.85282">
        <ele>895.46002197</ele>
        <time>2020-10-29T14:41:14Z</time>
      </trkpt>
      <trkpt lat="42.99936" lon="0.85283">
        <ele>895.51000977</ele>
        <time>2020-10-29T14:41:15Z</time>
      </trkpt>
      <trkpt lat="42.99932" lon="0.85285">
        <ele>895.47998047</ele>
        <time>2020-10-29T14:41:17Z</time>
      </trkpt>
      <trkpt lat="42.99928" lon="0.85287">
        <ele>895.65002441</ele>
        <time>2020-10-29T14:41:18Z</time>
      </trkpt>
      <trkpt lat="42.99917" lon="0.85294">
        <ele>896.46002197</ele>
        <time>2020-10-29T14:41:20Z</time>
      </trkpt>
      <trkpt lat="42.9991" lon="0.85298">
        <ele>896.69000244</ele>
        <time>2020-10-29T14:41:21Z</time>
      </trkpt>
      <trkpt lat="42.99905" lon="0.85301">
        <ele>896.7800293</ele>
        <time>2020-10-29T14:41:22Z</time>
      </trkpt>
      <trkpt lat="42.99901" lon="0.85303">
        <ele>896.86999512</ele>
        <time>2020-10-29T14:41:24Z</time>
      </trkpt>
      <trkpt lat="42.99894" lon="0.85305">
        <ele>897.09002686</ele>
        <time>2020-10-29T14:41:25Z</time>
      </trkpt>
      <trkpt lat="42.99889" lon="0.85307">
        <ele>897.84997559</ele>
        <time>2020-10-29T14:41:26Z</time>
      </trkpt>
      <trkpt lat="42.99885" lon="0.8531">
        <ele>897.91998291</ele>
        <time>2020-10-29T14:41:28Z</time>
      </trkpt>
      <trkpt lat="42.99878" lon="0.85312">
        <ele>897.96002197</ele>
        <time>2020-10-29T14:41:29Z</time>
      </trkpt>
      <trkpt lat="42.99872" lon="0.85314">
        <ele>897.9699707</ele>
        <time>2020-10-29T14:41:30Z</time>
      </trkpt>
      <trkpt lat="42.99866" lon="0.85316">
        <ele>898.53997803</ele>
        <time>2020-10-29T14:41:32Z</time>
      </trkpt>
      <trkpt lat="42.99862" lon="0.85317">
        <ele>898.17999268</ele>
        <time>2020-10-29T14:41:33Z</time>
      </trkpt>
      <trkpt lat="42.99857" lon="0.85319">
        <ele>898.42999268</ele>
        <time>2020-10-29T14:41:34Z</time>
      </trkpt>
      <trkpt lat="42.99853" lon="0.85319">
        <ele>898.58001709</ele>
        <time>2020-10-29T14:41:35Z</time>
      </trkpt>
      <trkpt lat="42.99847" lon="0.85321">
        <ele>899.35998535</ele>
        <time>2020-10-29T14:41:37Z</time>
      </trkpt>
      <trkpt lat="42.99839" lon="0.85326">
        <ele>899.40002441</ele>
        <time>2020-10-29T14:41:39Z</time>
      </trkpt>
      <trkpt lat="42.99831" lon="0.8533">
        <ele>899.65997314</ele>
        <time>2020-10-29T14:41:40Z</time>
      </trkpt>
      <trkpt lat="42.99827" lon="0.85333">
        <ele>899.4699707</ele>
        <time>2020-10-29T14:41:42Z</time>
      </trkpt>
      <trkpt lat="42.99822" lon="0.85335">
        <ele>899.10998535</ele>
        <time>2020-10-29T14:41:43Z</time>
      </trkpt>
      <trkpt lat="42.99817" lon="0.85337">
        <ele>899.82000732</ele>
        <time>2020-10-29T14:41:44Z</time>
      </trkpt>
      <trkpt lat="42.99811" lon="0.85341">
        <ele>900.05999756</ele>
        <time>2020-10-29T14:41:45Z</time>
      </trkpt>
      <trkpt lat="42.99808" lon="0.85344">
        <ele>900.35998535</ele>
        <time>2020-10-29T14:41:47Z</time>
      </trkpt>
      <trkpt lat="42.99802" lon="0.85348">
        <ele>900.40997314</ele>
        <time>2020-10-29T14:41:48Z</time>
      </trkpt>
      <trkpt lat="42.99798" lon="0.85352">
        <ele>900.59002686</ele>
        <time>2020-10-29T14:41:49Z</time>
      </trkpt>
      <trkpt lat="42.99793" lon="0.85355">
        <ele>900.67999268</ele>
        <time>2020-10-29T14:41:51Z</time>
      </trkpt>
      <trkpt lat="42.99788" lon="0.8536">
        <ele>900.55999756</ele>
        <time>2020-10-29T14:41:52Z</time>
      </trkpt>
      <trkpt lat="42.99782" lon="0.85364">
        <ele>900.34002686</ele>
        <time>2020-10-29T14:41:54Z</time>
      </trkpt>
      <trkpt lat="42.99776" lon="0.85369">
        <ele>900.65002441</ele>
        <time>2020-10-29T14:41:56Z</time>
      </trkpt>
      <trkpt lat="42.99772" lon="0.85372">
        <ele>900.15002441</ele>
        <time>2020-10-29T14:41:58Z</time>
      </trkpt>
      <trkpt lat="42.99767" lon="0.85371">
        <ele>900.46002197</ele>
        <time>2020-10-29T14:42:00Z</time>
      </trkpt>
      <trkpt lat="42.99764" lon="0.8537">
        <ele>900.44000244</ele>
        <time>2020-10-29T14:42:01Z</time>
      </trkpt>
      <trkpt lat="42.99756" lon="0.85369">
        <ele>900.13000488</ele>
        <time>2020-10-29T14:42:02Z</time>
      </trkpt>
      <trkpt lat="42.99751" lon="0.85368">
        <ele>900.52001953</ele>
        <time>2020-10-29T14:42:04Z</time>
      </trkpt>
      <trkpt lat="42.99744" lon="0.85365">
        <ele>901.08001709</ele>
        <time>2020-10-29T14:42:05Z</time>
      </trkpt>
      <trkpt lat="42.99739" lon="0.85362">
        <ele>902.40997314</ele>
        <time>2020-10-29T14:42:07Z</time>
      </trkpt>
      <trkpt lat="42.99732" lon="0.85361">
        <ele>902.2199707</ele>
        <time>2020-10-29T14:42:08Z</time>
      </trkpt>
      <trkpt lat="42.99721" lon="0.85362">
        <ele>903.01000977</ele>
        <time>2020-10-29T14:42:10Z</time>
      </trkpt>
      <trkpt lat="42.99714" lon="0.8536">
        <ele>903.15002441</ele>
        <time>2020-10-29T14:42:11Z</time>
      </trkpt>
      <trkpt lat="42.99708" lon="0.85366">
        <ele>902.28997803</ele>
        <time>2020-10-29T14:42:13Z</time>
      </trkpt>
      <trkpt lat="42.99704" lon="0.85369">
        <ele>902.32000732</ele>
        <time>2020-10-29T14:42:14Z</time>
      </trkpt>
      <trkpt lat="42.997" lon="0.85371">
        <ele>902.2800293</ele>
        <time>2020-10-29T14:42:15Z</time>
      </trkpt>
      <trkpt lat="42.99696" lon="0.85367">
        <ele>902.20001221</ele>
        <time>2020-10-29T14:42:16Z</time>
      </trkpt>
      <trkpt lat="42.99691" lon="0.85369">
        <ele>902.0300293</ele>
        <time>2020-10-29T14:42:18Z</time>
      </trkpt>
      <trkpt lat="42.99686" lon="0.8537">
        <ele>902.08001709</ele>
        <time>2020-10-29T14:42:19Z</time>
      </trkpt>
      <trkpt lat="42.99678" lon="0.85368">
        <ele>902.54998779</ele>
        <time>2020-10-29T14:42:21Z</time>
      </trkpt>
      <trkpt lat="42.99671" lon="0.85367">
        <ele>905.64001465</ele>
        <time>2020-10-29T14:42:22Z</time>
      </trkpt>
      <trkpt lat="42.99666" lon="0.85364">
        <ele>905.2199707</ele>
        <time>2020-10-29T14:42:23Z</time>
      </trkpt>
      <trkpt lat="42.9966" lon="0.85359">
        <ele>904.82000732</ele>
        <time>2020-10-29T14:42:24Z</time>
      </trkpt>
      <trkpt lat="42.99657" lon="0.85357">
        <ele>904.65997314</ele>
        <time>2020-10-29T14:42:25Z</time>
      </trkpt>
      <trkpt lat="42.99652" lon="0.85354">
        <ele>904.29998779</ele>
        <time>2020-10-29T14:42:26Z</time>
      </trkpt>
      <trkpt lat="42.99647" lon="0.85353">
        <ele>904.5300293</ele>
        <time>2020-10-29T14:42:28Z</time>
      </trkpt>
      <trkpt lat="42.99641" lon="0.85351">
        <ele>904.91998291</ele>
        <time>2020-10-29T14:42:29Z</time>
      </trkpt>
      <trkpt lat="42.99635" lon="0.8535">
        <ele>905.15002441</ele>
        <time>2020-10-29T14:42:31Z</time>
      </trkpt>
      <trkpt lat="42.99632" lon="0.85349">
        <ele>904.98999023</ele>
        <time>2020-10-29T14:42:32Z</time>
      </trkpt>
      <trkpt lat="42.99625" lon="0.8535">
        <ele>904.94000244</ele>
        <time>2020-10-29T14:42:34Z</time>
      </trkpt>
      <trkpt lat="42.99618" lon="0.85352">
        <ele>904.89001465</ele>
        <time>2020-10-29T14:42:36Z</time>
      </trkpt>
      <trkpt lat="42.99613" lon="0.85355">
        <ele>905.51000977</ele>
        <time>2020-10-29T14:42:37Z</time>
      </trkpt>
      <trkpt lat="42.99608" lon="0.85358">
        <ele>905.97998047</ele>
        <time>2020-10-29T14:42:38Z</time>
      </trkpt>
      <trkpt lat="42.99603" lon="0.8536">
        <ele>905.88000488</ele>
        <time>2020-10-29T14:42:40Z</time>
      </trkpt>
      <trkpt lat="42.99598" lon="0.85362">
        <ele>906.30999756</ele>
        <time>2020-10-29T14:42:41Z</time>
      </trkpt>
      <trkpt lat="42.99593" lon="0.85363">
        <ele>906.54998779</ele>
        <time>2020-10-29T14:42:42Z</time>
      </trkpt>
      <trkpt lat="42.99588" lon="0.85362">
        <ele>907.7800293</ele>
        <time>2020-10-29T14:42:44Z</time>
      </trkpt>
      <trkpt lat="42.99584" lon="0.85361">
        <ele>907.5300293</ele>
        <time>2020-10-29T14:42:45Z</time>
      </trkpt>
      <trkpt lat="42.9958" lon="0.8536">
        <ele>907.55999756</ele>
        <time>2020-10-29T14:42:46Z</time>
      </trkpt>
      <trkpt lat="42.99574" lon="0.85358">
        <ele>907.34997559</ele>
        <time>2020-10-29T14:42:48Z</time>
      </trkpt>
      <trkpt lat="42.99569" lon="0.85356">
        <ele>907.90997314</ele>
        <time>2020-10-29T14:42:49Z</time>
      </trkpt>
      <trkpt lat="42.99563" lon="0.85353">
        <ele>906.90997314</ele>
        <time>2020-10-29T14:42:51Z</time>
      </trkpt>
      <trkpt lat="42.99559" lon="0.85348">
        <ele>906.95001221</ele>
        <time>2020-10-29T14:42:52Z</time>
      </trkpt>
      <trkpt lat="42.99553" lon="0.85342">
        <ele>907.59002686</ele>
        <time>2020-10-29T14:42:54Z</time>
      </trkpt>
      <trkpt lat="42.99548" lon="0.85337">
        <ele>907.78997803</ele>
        <time>2020-10-29T14:42:55Z</time>
      </trkpt>
      <trkpt lat="42.99543" lon="0.85333">
        <ele>907.32000732</ele>
        <time>2020-10-29T14:42:56Z</time>
      </trkpt>
      <trkpt lat="42.99537" lon="0.85329">
        <ele>907.84002686</ele>
        <time>2020-10-29T14:42:57Z</time>
      </trkpt>
      <trkpt lat="42.99532" lon="0.85326">
        <ele>907.94000244</ele>
        <time>2020-10-29T14:42:58Z</time>
      </trkpt>
      <trkpt lat="42.99528" lon="0.85323">
        <ele>908.59002686</ele>
        <time>2020-10-29T14:43:00Z</time>
      </trkpt>
      <trkpt lat="42.99522" lon="0.85319">
        <ele>908.2800293</ele>
        <time>2020-10-29T14:43:01Z</time>
      </trkpt>
      <trkpt lat="42.99518" lon="0.85317">
        <ele>908.25</ele>
        <time>2020-10-29T14:43:02Z</time>
      </trkpt>
      <trkpt lat="42.99511" lon="0.85313">
        <ele>908.9699707</ele>
        <time>2020-10-29T14:43:04Z</time>
      </trkpt>
      <trkpt lat="42.99504" lon="0.8531">
        <ele>909.5</ele>
        <time>2020-10-29T14:43:05Z</time>
      </trkpt>
      <trkpt lat="42.99499" lon="0.85308">
        <ele>909.38000488</ele>
        <time>2020-10-29T14:43:07Z</time>
      </trkpt>
      <trkpt lat="42.99493" lon="0.85306">
        <ele>909.59997559</ele>
        <time>2020-10-29T14:43:08Z</time>
      </trkpt>
      <trkpt lat="42.99487" lon="0.85304">
        <ele>910.60998535</ele>
        <time>2020-10-29T14:43:09Z</time>
      </trkpt>
      <trkpt lat="42.9948" lon="0.85303">
        <ele>910.61999512</ele>
        <time>2020-10-29T14:43:11Z</time>
      </trkpt>
      <trkpt lat="42.99475" lon="0.85301">
        <ele>910.61999512</ele>
        <time>2020-10-29T14:43:12Z</time>
      </trkpt>
      <trkpt lat="42.99468" lon="0.85299">
        <ele>911.23999023</ele>
        <time>2020-10-29T14:43:13Z</time>
      </trkpt>
      <trkpt lat="42.99462" lon="0.85297">
        <ele>912.40997314</ele>
        <time>2020-10-29T14:43:15Z</time>
      </trkpt>
      <trkpt lat="42.99454" lon="0.85295">
        <ele>913.21002197</ele>
        <time>2020-10-29T14:43:17Z</time>
      </trkpt>
      <trkpt lat="42.99449" lon="0.85295">
        <ele>913.52001953</ele>
        <time>2020-10-29T14:43:18Z</time>
      </trkpt>
      <trkpt lat="42.99443" lon="0.85295">
        <ele>913.36999512</ele>
        <time>2020-10-29T14:43:19Z</time>
      </trkpt>
      <trkpt lat="42.99439" lon="0.85295">
        <ele>913.28997803</ele>
        <time>2020-10-29T14:43:20Z</time>
      </trkpt>
      <trkpt lat="42.99433" lon="0.85296">
        <ele>913.79998779</ele>
        <time>2020-10-29T14:43:22Z</time>
      </trkpt>
      <trkpt lat="42.99429" lon="0.85297">
        <ele>913.0300293</ele>
        <time>2020-10-29T14:43:23Z</time>
      </trkpt>
      <trkpt lat="42.99425" lon="0.85297">
        <ele>913.57000732</ele>
        <time>2020-10-29T14:43:24Z</time>
      </trkpt>
      <trkpt lat="42.99421" lon="0.85297">
        <ele>913.57000732</ele>
        <time>2020-10-29T14:43:25Z</time>
      </trkpt>
      <trkpt lat="42.99416" lon="0.85297">
        <ele>914.41998291</ele>
        <time>2020-10-29T14:43:26Z</time>
      </trkpt>
      <trkpt lat="42.9941" lon="0.85299">
        <ele>915.30999756</ele>
        <time>2020-10-29T14:43:27Z</time>
      </trkpt>
      <trkpt lat="42.99404" lon="0.85303">
        <ele>914.66998291</ele>
        <time>2020-10-29T14:43:28Z</time>
      </trkpt>
      <trkpt lat="42.99398" lon="0.85308">
        <ele>914.76000977</ele>
        <time>2020-10-29T14:43:30Z</time>
      </trkpt>
      <trkpt lat="42.99392" lon="0.85313">
        <ele>915.36999512</ele>
        <time>2020-10-29T14:43:32Z</time>
      </trkpt>
      <trkpt lat="42.99385" lon="0.85317">
        <ele>915.15997314</ele>
        <time>2020-10-29T14:43:33Z</time>
      </trkpt>
      <trkpt lat="42.9938" lon="0.85321">
        <ele>915.21002197</ele>
        <time>2020-10-29T14:43:35Z</time>
      </trkpt>
      <trkpt lat="42.99375" lon="0.85324">
        <ele>914.79998779</ele>
        <time>2020-10-29T14:43:36Z</time>
      </trkpt>
      <trkpt lat="42.99369" lon="0.85328">
        <ele>915.09002686</ele>
        <time>2020-10-29T14:43:37Z</time>
      </trkpt>
      <trkpt lat="42.99364" lon="0.85331">
        <ele>914.60998535</ele>
        <time>2020-10-29T14:43:39Z</time>
      </trkpt>
      <trkpt lat="42.99359" lon="0.85335">
        <ele>914.76000977</ele>
        <time>2020-10-29T14:43:40Z</time>
      </trkpt>
      <trkpt lat="42.99354" lon="0.85338">
        <ele>914.59002686</ele>
        <time>2020-10-29T14:43:41Z</time>
      </trkpt>
      <trkpt lat="42.99349" lon="0.85341">
        <ele>914.57000732</ele>
        <time>2020-10-29T14:43:42Z</time>
      </trkpt>
      <trkpt lat="42.99343" lon="0.85345">
        <ele>914.26000977</ele>
        <time>2020-10-29T14:43:44Z</time>
      </trkpt>
      <trkpt lat="42.99329" lon="0.85361">
        <ele>915.84002686</ele>
        <time>2020-10-29T14:43:46Z</time>
      </trkpt>
      <trkpt lat="42.99321" lon="0.85372">
        <ele>915.66998291</ele>
        <time>2020-10-29T14:43:48Z</time>
      </trkpt>
      <trkpt lat="42.99317" lon="0.85378">
        <ele>915.40997314</ele>
        <time>2020-10-29T14:43:49Z</time>
      </trkpt>
      <trkpt lat="42.99313" lon="0.85386">
        <ele>915.51000977</ele>
        <time>2020-10-29T14:43:50Z</time>
      </trkpt>
      <trkpt lat="42.99312" lon="0.85392">
        <ele>915.63000488</ele>
        <time>2020-10-29T14:43:51Z</time>
      </trkpt>
      <trkpt lat="42.99308" lon="0.85399">
        <ele>914.64001465</ele>
        <time>2020-10-29T14:43:52Z</time>
      </trkpt>
      <trkpt lat="42.99307" lon="0.85408">
        <ele>914.88000488</ele>
        <time>2020-10-29T14:43:54Z</time>
      </trkpt>
      <trkpt lat="42.99307" lon="0.85427">
        <ele>915.39001465</ele>
        <time>2020-10-29T14:43:56Z</time>
      </trkpt>
      <trkpt lat="42.99308" lon="0.85437">
        <ele>915.39001465</ele>
        <time>2020-10-29T14:43:57Z</time>
      </trkpt>
      <trkpt lat="42.99312" lon="0.85446">
        <ele>915.23999023</ele>
        <time>2020-10-29T14:43:59Z</time>
      </trkpt>
      <trkpt lat="42.99315" lon="0.85455">
        <ele>915.89001465</ele>
        <time>2020-10-29T14:44:00Z</time>
      </trkpt>
      <trkpt lat="42.99318" lon="0.85461">
        <ele>915.72998047</ele>
        <time>2020-10-29T14:44:01Z</time>
      </trkpt>
      <trkpt lat="42.9932" lon="0.85465">
        <ele>916.15997314</ele>
        <time>2020-10-29T14:44:02Z</time>
      </trkpt>
      <trkpt lat="42.99322" lon="0.8547">
        <ele>916.02001953</ele>
        <time>2020-10-29T14:44:04Z</time>
      </trkpt>
      <trkpt lat="42.99324" lon="0.85473">
        <ele>916.67999268</ele>
        <time>2020-10-29T14:44:05Z</time>
      </trkpt>
      <trkpt lat="42.99326" lon="0.85477">
        <ele>917.32000732</ele>
        <time>2020-10-29T14:44:06Z</time>
      </trkpt>
      <trkpt lat="42.99328" lon="0.85482">
        <ele>916.98999023</ele>
        <time>2020-10-29T14:44:07Z</time>
      </trkpt>
      <trkpt lat="42.9933" lon="0.85487">
        <ele>916.65997314</ele>
        <time>2020-10-29T14:44:08Z</time>
      </trkpt>
      <trkpt lat="42.99331" lon="0.85494">
        <ele>917.34997559</ele>
        <time>2020-10-29T14:44:09Z</time>
      </trkpt>
      <trkpt lat="42.99332" lon="0.85499">
        <ele>917.76000977</ele>
        <time>2020-10-29T14:44:10Z</time>
      </trkpt>
      <trkpt lat="42.99334" lon="0.85505">
        <ele>919</ele>
        <time>2020-10-29T14:44:12Z</time>
      </trkpt>
      <trkpt lat="42.99337" lon="0.85509">
        <ele>919</ele>
        <time>2020-10-29T14:44:13Z</time>
      </trkpt>
      <trkpt lat="42.9934" lon="0.85515">
        <ele>918.97998047</ele>
        <time>2020-10-29T14:44:14Z</time>
      </trkpt>
      <trkpt lat="42.99344" lon="0.85523">
        <ele>919.51000977</ele>
        <time>2020-10-29T14:44:15Z</time>
      </trkpt>
      <trkpt lat="42.99347" lon="0.85528">
        <ele>919.40997314</ele>
        <time>2020-10-29T14:44:16Z</time>
      </trkpt>
      <trkpt lat="42.99348" lon="0.85532">
        <ele>919.22998047</ele>
        <time>2020-10-29T14:44:17Z</time>
      </trkpt>
      <trkpt lat="42.9935" lon="0.85537">
        <ele>918.96002197</ele>
        <time>2020-10-29T14:44:19Z</time>
      </trkpt>
      <trkpt lat="42.99352" lon="0.85544">
        <ele>919.53997803</ele>
        <time>2020-10-29T14:44:20Z</time>
      </trkpt>
      <trkpt lat="42.99352" lon="0.8555">
        <ele>919.70001221</ele>
        <time>2020-10-29T14:44:22Z</time>
      </trkpt>
      <trkpt lat="42.99353" lon="0.85554">
        <ele>920.46002197</ele>
        <time>2020-10-29T14:44:23Z</time>
      </trkpt>
      <trkpt lat="42.99353" lon="0.85558">
        <ele>920.46002197</ele>
        <time>2020-10-29T14:44:24Z</time>
      </trkpt>
      <trkpt lat="42.99353" lon="0.85566">
        <ele>921.30999756</ele>
        <time>2020-10-29T14:44:25Z</time>
      </trkpt>
      <trkpt lat="42.99354" lon="0.85571">
        <ele>921.5300293</ele>
        <time>2020-10-29T14:44:27Z</time>
      </trkpt>
      <trkpt lat="42.99355" lon="0.85577">
        <ele>922.40002441</ele>
        <time>2020-10-29T14:44:28Z</time>
      </trkpt>
      <trkpt lat="42.99357" lon="0.85584">
        <ele>922.80999756</ele>
        <time>2020-10-29T14:44:29Z</time>
      </trkpt>
      <trkpt lat="42.99359" lon="0.85591">
        <ele>922.7199707</ele>
        <time>2020-10-29T14:44:31Z</time>
      </trkpt>
      <trkpt lat="42.9936" lon="0.85596">
        <ele>922.7800293</ele>
        <time>2020-10-29T14:44:32Z</time>
      </trkpt>
      <trkpt lat="42.99361" lon="0.856">
        <ele>923.09997559</ele>
        <time>2020-10-29T14:44:33Z</time>
      </trkpt>
      <trkpt lat="42.99361" lon="0.85605">
        <ele>923.32000732</ele>
        <time>2020-10-29T14:44:34Z</time>
      </trkpt>
      <trkpt lat="42.99361" lon="0.85611">
        <ele>924.78997803</ele>
        <time>2020-10-29T14:44:35Z</time>
      </trkpt>
      <trkpt lat="42.99362" lon="0.85617">
        <ele>924.23999023</ele>
        <time>2020-10-29T14:44:37Z</time>
      </trkpt>
      <trkpt lat="42.99363" lon="0.85621">
        <ele>924.23999023</ele>
        <time>2020-10-29T14:44:38Z</time>
      </trkpt>
      <trkpt lat="42.99363" lon="0.85627">
        <ele>924.82000732</ele>
        <time>2020-10-29T14:44:39Z</time>
      </trkpt>
      <trkpt lat="42.99362" lon="0.85634">
        <ele>924.83001709</ele>
        <time>2020-10-29T14:44:41Z</time>
      </trkpt>
      <trkpt lat="42.99361" lon="0.85639">
        <ele>924.83001709</ele>
        <time>2020-10-29T14:44:42Z</time>
      </trkpt>
      <trkpt lat="42.99361" lon="0.85649">
        <ele>926.07000732</ele>
        <time>2020-10-29T14:44:44Z</time>
      </trkpt>
      <trkpt lat="42.99361" lon="0.85658">
        <ele>926.67999268</ele>
        <time>2020-10-29T14:44:45Z</time>
      </trkpt>
      <trkpt lat="42.99361" lon="0.85665">
        <ele>926.33001709</ele>
        <time>2020-10-29T14:44:47Z</time>
      </trkpt>
      <trkpt lat="42.99361" lon="0.8567">
        <ele>926.22998047</ele>
        <time>2020-10-29T14:44:48Z</time>
      </trkpt>
      <trkpt lat="42.99361" lon="0.85676">
        <ele>926.72998047</ele>
        <time>2020-10-29T14:44:49Z</time>
      </trkpt>
      <trkpt lat="42.99362" lon="0.85682">
        <ele>927.19000244</ele>
        <time>2020-10-29T14:44:50Z</time>
      </trkpt>
      <trkpt lat="42.99364" lon="0.85686">
        <ele>927.28997803</ele>
        <time>2020-10-29T14:44:51Z</time>
      </trkpt>
      <trkpt lat="42.99365" lon="0.85689">
        <ele>927.0300293</ele>
        <time>2020-10-29T14:44:52Z</time>
      </trkpt>
      <trkpt lat="42.99366" lon="0.85693">
        <ele>926.48999023</ele>
        <time>2020-10-29T14:44:54Z</time>
      </trkpt>
      <trkpt lat="42.99368" lon="0.85697">
        <ele>926.65002441</ele>
        <time>2020-10-29T14:44:55Z</time>
      </trkpt>
      <trkpt lat="42.9937" lon="0.85699">
        <ele>926.90002441</ele>
        <time>2020-10-29T14:44:56Z</time>
      </trkpt>
      <trkpt lat="42.99373" lon="0.85702">
        <ele>926.82000732</ele>
        <time>2020-10-29T14:44:57Z</time>
      </trkpt>
      <trkpt lat="42.99375" lon="0.85706">
        <ele>926.96002197</ele>
        <time>2020-10-29T14:44:58Z</time>
      </trkpt>
      <trkpt lat="42.99378" lon="0.8571">
        <ele>926.88000488</ele>
        <time>2020-10-29T14:45:00Z</time>
      </trkpt>
      <trkpt lat="42.99381" lon="0.85713">
        <ele>926.88000488</ele>
        <time>2020-10-29T14:45:01Z</time>
      </trkpt>
      <trkpt lat="42.99385" lon="0.85719">
        <ele>926.9699707</ele>
        <time>2020-10-29T14:45:02Z</time>
      </trkpt>
      <trkpt lat="42.99388" lon="0.85722">
        <ele>927.2199707</ele>
        <time>2020-10-29T14:45:03Z</time>
      </trkpt>
      <trkpt lat="42.99391" lon="0.85725">
        <ele>927.21002197</ele>
        <time>2020-10-29T14:45:05Z</time>
      </trkpt>
      <trkpt lat="42.99396" lon="0.8573">
        <ele>927.47998047</ele>
        <time>2020-10-29T14:45:06Z</time>
      </trkpt>
      <trkpt lat="42.99399" lon="0.85734">
        <ele>927.15997314</ele>
        <time>2020-10-29T14:45:07Z</time>
      </trkpt>
      <trkpt lat="42.99402" lon="0.85737">
        <ele>927.01000977</ele>
        <time>2020-10-29T14:45:09Z</time>
      </trkpt>
      <trkpt lat="42.99408" lon="0.85743">
        <ele>927.78997803</ele>
        <time>2020-10-29T14:45:10Z</time>
      </trkpt>
      <trkpt lat="42.99412" lon="0.85747">
        <ele>927.86999512</ele>
        <time>2020-10-29T14:45:12Z</time>
      </trkpt>
      <trkpt lat="42.99417" lon="0.85752">
        <ele>927.70001221</ele>
        <time>2020-10-29T14:45:13Z</time>
      </trkpt>
      <trkpt lat="42.9942" lon="0.85756">
        <ele>927.82000732</ele>
        <time>2020-10-29T14:45:14Z</time>
      </trkpt>
      <trkpt lat="42.99424" lon="0.85761">
        <ele>927.7199707</ele>
        <time>2020-10-29T14:45:15Z</time>
      </trkpt>
      <trkpt lat="42.99427" lon="0.85767">
        <ele>927.78997803</ele>
        <time>2020-10-29T14:45:16Z</time>
      </trkpt>
      <trkpt lat="42.99429" lon="0.85772">
        <ele>927.7199707</ele>
        <time>2020-10-29T14:45:17Z</time>
      </trkpt>
      <trkpt lat="42.99431" lon="0.85778">
        <ele>927.80999756</ele>
        <time>2020-10-29T14:45:19Z</time>
      </trkpt>
      <trkpt lat="42.99432" lon="0.85783">
        <ele>928.15997314</ele>
        <time>2020-10-29T14:45:20Z</time>
      </trkpt>
      <trkpt lat="42.99433" lon="0.85788">
        <ele>928.23999023</ele>
        <time>2020-10-29T14:45:21Z</time>
      </trkpt>
      <trkpt lat="42.99433" lon="0.85794">
        <ele>928.34002686</ele>
        <time>2020-10-29T14:45:22Z</time>
      </trkpt>
      <trkpt lat="42.99433" lon="0.85801">
        <ele>929.23999023</ele>
        <time>2020-10-29T14:45:23Z</time>
      </trkpt>
      <trkpt lat="42.99433" lon="0.85807">
        <ele>929.23999023</ele>
        <time>2020-10-29T14:45:24Z</time>
      </trkpt>
      <trkpt lat="42.99433" lon="0.85815">
        <ele>928.65997314</ele>
        <time>2020-10-29T14:45:26Z</time>
      </trkpt>
      <trkpt lat="42.99432" lon="0.85822">
        <ele>928.55999756</ele>
        <time>2020-10-29T14:45:27Z</time>
      </trkpt>
      <trkpt lat="42.99431" lon="0.85829">
        <ele>928.52001953</ele>
        <time>2020-10-29T14:45:29Z</time>
      </trkpt>
      <trkpt lat="42.99424" lon="0.85846">
        <ele>929.29998779</ele>
        <time>2020-10-29T14:45:31Z</time>
      </trkpt>
      <trkpt lat="42.9942" lon="0.8585">
        <ele>929.40997314</ele>
        <time>2020-10-29T14:45:32Z</time>
      </trkpt>
      <trkpt lat="42.99416" lon="0.85853">
        <ele>929.40997314</ele>
        <time>2020-10-29T14:45:33Z</time>
      </trkpt>
      <trkpt lat="42.99411" lon="0.85855">
        <ele>929.29998779</ele>
        <time>2020-10-29T14:45:34Z</time>
      </trkpt>
      <trkpt lat="42.99405" lon="0.85855">
        <ele>929.76000977</ele>
        <time>2020-10-29T14:45:36Z</time>
      </trkpt>
      <trkpt lat="42.99402" lon="0.85855">
        <ele>929.35998535</ele>
        <time>2020-10-29T14:45:37Z</time>
      </trkpt>
      <trkpt lat="42.99399" lon="0.85855">
        <ele>928.75</ele>
        <time>2020-10-29T14:45:38Z</time>
      </trkpt>
      <trkpt lat="42.99397" lon="0.85854">
        <ele>929.21002197</ele>
        <time>2020-10-29T14:45:39Z</time>
      </trkpt>
      <trkpt lat="42.99394" lon="0.85853">
        <ele>929.84997559</ele>
        <time>2020-10-29T14:45:40Z</time>
      </trkpt>
      <trkpt lat="42.99392" lon="0.85851">
        <ele>929.88000488</ele>
        <time>2020-10-29T14:45:41Z</time>
      </trkpt>
      <trkpt lat="42.99389" lon="0.85849">
        <ele>929.90997314</ele>
        <time>2020-10-29T14:45:42Z</time>
      </trkpt>
      <trkpt lat="42.99386" lon="0.85846">
        <ele>930.14001465</ele>
        <time>2020-10-29T14:45:43Z</time>
      </trkpt>
      <trkpt lat="42.99383" lon="0.85844">
        <ele>930.2800293</ele>
        <time>2020-10-29T14:45:44Z</time>
      </trkpt>
      <trkpt lat="42.99381" lon="0.85843">
        <ele>930.51000977</ele>
        <time>2020-10-29T14:45:46Z</time>
      </trkpt>
      <trkpt lat="42.9938" lon="0.85841">
        <ele>930.51000977</ele>
        <time>2020-10-29T14:45:47Z</time>
      </trkpt>
      <trkpt lat="42.99377" lon="0.85838">
        <ele>930.66998291</ele>
        <time>2020-10-29T14:45:48Z</time>
      </trkpt>
      <trkpt lat="42.99376" lon="0.85834">
        <ele>931.27001953</ele>
        <time>2020-10-29T14:45:49Z</time>
      </trkpt>
      <trkpt lat="42.99374" lon="0.85829">
        <ele>931.23999023</ele>
        <time>2020-10-29T14:45:50Z</time>
      </trkpt>
      <trkpt lat="42.99372" lon="0.85824">
        <ele>931.40002441</ele>
        <time>2020-10-29T14:45:52Z</time>
      </trkpt>
      <trkpt lat="42.99371" lon="0.85819">
        <ele>931.40002441</ele>
        <time>2020-10-29T14:45:53Z</time>
      </trkpt>
      <trkpt lat="42.9937" lon="0.85811">
        <ele>932.7199707</ele>
        <time>2020-10-29T14:45:54Z</time>
      </trkpt>
      <trkpt lat="42.99369" lon="0.85802">
        <ele>932.46002197</ele>
        <time>2020-10-29T14:45:56Z</time>
      </trkpt>
      <trkpt lat="42.99368" lon="0.85791">
        <ele>932.47998047</ele>
        <time>2020-10-29T14:45:57Z</time>
      </trkpt>
      <trkpt lat="42.99366" lon="0.85783">
        <ele>933.40002441</ele>
        <time>2020-10-29T14:45:59Z</time>
      </trkpt>
      <trkpt lat="42.99363" lon="0.85776">
        <ele>933.97998047</ele>
        <time>2020-10-29T14:46:00Z</time>
      </trkpt>
      <trkpt lat="42.99362" lon="0.85774">
        <ele>934.22998047</ele>
        <time>2020-10-29T14:46:02Z</time>
      </trkpt>
      <trkpt lat="42.9936" lon="0.85772">
        <ele>934.73999023</ele>
        <time>2020-10-29T14:46:03Z</time>
      </trkpt>
      <trkpt lat="42.99357" lon="0.85769">
        <ele>935.84997559</ele>
        <time>2020-10-29T14:46:04Z</time>
      </trkpt>
      <trkpt lat="42.99354" lon="0.85766">
        <ele>936.34002686</ele>
        <time>2020-10-29T14:46:06Z</time>
      </trkpt>
      <trkpt lat="42.9935" lon="0.85765">
        <ele>937.67999268</ele>
        <time>2020-10-29T14:46:07Z</time>
      </trkpt>
      <trkpt lat="42.99348" lon="0.85765">
        <ele>938.60998535</ele>
        <time>2020-10-29T14:46:09Z</time>
      </trkpt>
      <trkpt lat="42.99342" lon="0.85766">
        <ele>939.10998535</ele>
        <time>2020-10-29T14:46:10Z</time>
      </trkpt>
      <trkpt lat="42.99337" lon="0.85768">
        <ele>939.67999268</ele>
        <time>2020-10-29T14:46:12Z</time>
      </trkpt>
      <trkpt lat="42.99332" lon="0.8577">
        <ele>940.76000977</ele>
        <time>2020-10-29T14:46:13Z</time>
      </trkpt>
      <trkpt lat="42.99328" lon="0.85772">
        <ele>941.60998535</ele>
        <time>2020-10-29T14:46:14Z</time>
      </trkpt>
      <trkpt lat="42.99325" lon="0.85773">
        <ele>942.45001221</ele>
        <time>2020-10-29T14:46:15Z</time>
      </trkpt>
      <trkpt lat="42.99321" lon="0.85774">
        <ele>942.53997803</ele>
        <time>2020-10-29T14:46:17Z</time>
      </trkpt>
      <trkpt lat="42.99316" lon="0.85774">
        <ele>942.64001465</ele>
        <time>2020-10-29T14:46:18Z</time>
      </trkpt>
      <trkpt lat="42.99312" lon="0.85775">
        <ele>943.03997803</ele>
        <time>2020-10-29T14:46:20Z</time>
      </trkpt>
      <trkpt lat="42.99308" lon="0.85776">
        <ele>943.75</ele>
        <time>2020-10-29T14:46:21Z</time>
      </trkpt>
      <trkpt lat="42.99304" lon="0.85777">
        <ele>944.60998535</ele>
        <time>2020-10-29T14:46:22Z</time>
      </trkpt>
      <trkpt lat="42.993" lon="0.85778">
        <ele>945.16998291</ele>
        <time>2020-10-29T14:46:23Z</time>
      </trkpt>
      <trkpt lat="42.99295" lon="0.8578">
        <ele>945.41998291</ele>
        <time>2020-10-29T14:46:25Z</time>
      </trkpt>
      <trkpt lat="42.9929" lon="0.85781">
        <ele>945.95001221</ele>
        <time>2020-10-29T14:46:26Z</time>
      </trkpt>
      <trkpt lat="42.99286" lon="0.85782">
        <ele>946.17999268</ele>
        <time>2020-10-29T14:46:27Z</time>
      </trkpt>
      <trkpt lat="42.99281" lon="0.85782">
        <ele>945.96002197</ele>
        <time>2020-10-29T14:46:29Z</time>
      </trkpt>
      <trkpt lat="42.99276" lon="0.85783">
        <ele>946.55999756</ele>
        <time>2020-10-29T14:46:31Z</time>
      </trkpt>
      <trkpt lat="42.99271" lon="0.85783">
        <ele>946.77001953</ele>
        <time>2020-10-29T14:46:32Z</time>
      </trkpt>
      <trkpt lat="42.99267" lon="0.85783">
        <ele>947.07000732</ele>
        <time>2020-10-29T14:46:34Z</time>
      </trkpt>
      <trkpt lat="42.99264" lon="0.85784">
        <ele>947.59002686</ele>
        <time>2020-10-29T14:46:35Z</time>
      </trkpt>
      <trkpt lat="42.99261" lon="0.85784">
        <ele>947.59002686</ele>
        <time>2020-10-29T14:46:36Z</time>
      </trkpt>
      <trkpt lat="42.99254" lon="0.85786">
        <ele>948.26000977</ele>
        <time>2020-10-29T14:46:37Z</time>
      </trkpt>
      <trkpt lat="42.99248" lon="0.85786">
        <ele>948.7800293</ele>
        <time>2020-10-29T14:46:39Z</time>
      </trkpt>
      <trkpt lat="42.99243" lon="0.85787">
        <ele>948.66998291</ele>
        <time>2020-10-29T14:46:40Z</time>
      </trkpt>
      <trkpt lat="42.99238" lon="0.85788">
        <ele>949.13000488</ele>
        <time>2020-10-29T14:46:42Z</time>
      </trkpt>
      <trkpt lat="42.99233" lon="0.8579">
        <ele>949.34997559</ele>
        <time>2020-10-29T14:46:43Z</time>
      </trkpt>
      <trkpt lat="42.99229" lon="0.85791">
        <ele>949.72998047</ele>
        <time>2020-10-29T14:46:44Z</time>
      </trkpt>
      <trkpt lat="42.99224" lon="0.85793">
        <ele>949.95001221</ele>
        <time>2020-10-29T14:46:46Z</time>
      </trkpt>
      <trkpt lat="42.99221" lon="0.85794">
        <ele>949.95001221</ele>
        <time>2020-10-29T14:46:47Z</time>
      </trkpt>
      <trkpt lat="42.99216" lon="0.85796">
        <ele>949.92999268</ele>
        <time>2020-10-29T14:46:49Z</time>
      </trkpt>
      <trkpt lat="42.99211" lon="0.85796">
        <ele>951.20001221</ele>
        <time>2020-10-29T14:46:50Z</time>
      </trkpt>
      <trkpt lat="42.99208" lon="0.85797">
        <ele>951.58001709</ele>
        <time>2020-10-29T14:46:52Z</time>
      </trkpt>
      <trkpt lat="42.99203" lon="0.85799">
        <ele>951.51000977</ele>
        <time>2020-10-29T14:46:53Z</time>
      </trkpt>
      <trkpt lat="42.992" lon="0.85799">
        <ele>951.5</ele>
        <time>2020-10-29T14:46:54Z</time>
      </trkpt>
      <trkpt lat="42.99196" lon="0.858">
        <ele>951.53997803</ele>
        <time>2020-10-29T14:46:55Z</time>
      </trkpt>
      <trkpt lat="42.99193" lon="0.85801">
        <ele>951.90002441</ele>
        <time>2020-10-29T14:46:56Z</time>
      </trkpt>
      <trkpt lat="42.9919" lon="0.85802">
        <ele>952.4699707</ele>
        <time>2020-10-29T14:46:58Z</time>
      </trkpt>
      <trkpt lat="42.99187" lon="0.85803">
        <ele>952.90002441</ele>
        <time>2020-10-29T14:46:59Z</time>
      </trkpt>
      <trkpt lat="42.99183" lon="0.85803">
        <ele>953.61999512</ele>
        <time>2020-10-29T14:47:00Z</time>
      </trkpt>
      <trkpt lat="42.9918" lon="0.85803">
        <ele>953.59002686</ele>
        <time>2020-10-29T14:47:02Z</time>
      </trkpt>
      <trkpt lat="42.99176" lon="0.85803">
        <ele>953.97998047</ele>
        <time>2020-10-29T14:47:04Z</time>
      </trkpt>
      <trkpt lat="42.99172" lon="0.85803">
        <ele>955.29998779</ele>
        <time>2020-10-29T14:47:06Z</time>
      </trkpt>
      <trkpt lat="42.99167" lon="0.85806">
        <ele>955.72998047</ele>
        <time>2020-10-29T14:47:07Z</time>
      </trkpt>
      <trkpt lat="42.99163" lon="0.85806">
        <ele>956.36999512</ele>
        <time>2020-10-29T14:47:09Z</time>
      </trkpt>
      <trkpt lat="42.99161" lon="0.85808">
        <ele>956.85998535</ele>
        <time>2020-10-29T14:47:11Z</time>
      </trkpt>
      <trkpt lat="42.99158" lon="0.8581">
        <ele>956.97998047</ele>
        <time>2020-10-29T14:47:12Z</time>
      </trkpt>
      <trkpt lat="42.99154" lon="0.85813">
        <ele>958.5</ele>
        <time>2020-10-29T14:47:13Z</time>
      </trkpt>
      <trkpt lat="42.99151" lon="0.85816">
        <ele>958.47998047</ele>
        <time>2020-10-29T14:47:14Z</time>
      </trkpt>
      <trkpt lat="42.99148" lon="0.85819">
        <ele>958.82000732</ele>
        <time>2020-10-29T14:47:16Z</time>
      </trkpt>
      <trkpt lat="42.99145" lon="0.85823">
        <ele>959.19000244</ele>
        <time>2020-10-29T14:47:17Z</time>
      </trkpt>
      <trkpt lat="42.99142" lon="0.85824">
        <ele>959.55999756</ele>
        <time>2020-10-29T14:47:18Z</time>
      </trkpt>
      <trkpt lat="42.99139" lon="0.85826">
        <ele>959.98999023</ele>
        <time>2020-10-29T14:47:20Z</time>
      </trkpt>
      <trkpt lat="42.99137" lon="0.85827">
        <ele>960.0300293</ele>
        <time>2020-10-29T14:47:21Z</time>
      </trkpt>
      <trkpt lat="42.99134" lon="0.85828">
        <ele>960.82000732</ele>
        <time>2020-10-29T14:47:22Z</time>
      </trkpt>
      <trkpt lat="42.99131" lon="0.8583">
        <ele>961.54998779</ele>
        <time>2020-10-29T14:47:24Z</time>
      </trkpt>
      <trkpt lat="42.99127" lon="0.85831">
        <ele>961.34002686</ele>
        <time>2020-10-29T14:47:25Z</time>
      </trkpt>
      <trkpt lat="42.99124" lon="0.85832">
        <ele>961.94000244</ele>
        <time>2020-10-29T14:47:27Z</time>
      </trkpt>
      <trkpt lat="42.99121" lon="0.85832">
        <ele>962.64001465</ele>
        <time>2020-10-29T14:47:28Z</time>
      </trkpt>
      <trkpt lat="42.99119" lon="0.85833">
        <ele>963.30999756</ele>
        <time>2020-10-29T14:47:29Z</time>
      </trkpt>
      <trkpt lat="42.99116" lon="0.85834">
        <ele>963.57000732</ele>
        <time>2020-10-29T14:47:31Z</time>
      </trkpt>
      <trkpt lat="42.9911" lon="0.85858">
        <ele>967.55999756</ele>
        <time>2020-10-29T14:51:27Z</time>
      </trkpt>
      <trkpt lat="42.99111" lon="0.85859">
        <ele>967.55999756</ele>
        <time>2020-10-29T14:51:28Z</time>
      </trkpt>
      <trkpt lat="42.99113" lon="0.8586">
        <ele>966.7800293</ele>
        <time>2020-10-29T14:51:29Z</time>
      </trkpt>
      <trkpt lat="42.99114" lon="0.8586">
        <ele>966.22998047</ele>
        <time>2020-10-29T14:51:30Z</time>
      </trkpt>
      <trkpt lat="42.99117" lon="0.85859">
        <ele>965.76000977</ele>
        <time>2020-10-29T14:51:32Z</time>
      </trkpt>
      <trkpt lat="42.99119" lon="0.85858">
        <ele>965.04998779</ele>
        <time>2020-10-29T14:51:33Z</time>
      </trkpt>
      <trkpt lat="42.99121" lon="0.85858">
        <ele>964.5300293</ele>
        <time>2020-10-29T14:51:34Z</time>
      </trkpt>
      <trkpt lat="42.99124" lon="0.85856">
        <ele>963.69000244</ele>
        <time>2020-10-29T14:51:36Z</time>
      </trkpt>
      <trkpt lat="42.99126" lon="0.85854">
        <ele>962.59997559</ele>
        <time>2020-10-29T14:51:38Z</time>
      </trkpt>
      <trkpt lat="42.99128" lon="0.85851">
        <ele>962.58001709</ele>
        <time>2020-10-29T14:51:39Z</time>
      </trkpt>
      <trkpt lat="42.9913" lon="0.85849">
        <ele>962.96002197</ele>
        <time>2020-10-29T14:51:40Z</time>
      </trkpt>
      <trkpt lat="42.99132" lon="0.85847">
        <ele>962.60998535</ele>
        <time>2020-10-29T14:51:41Z</time>
      </trkpt>
      <trkpt lat="42.99133" lon="0.85845">
        <ele>960.86999512</ele>
        <time>2020-10-29T14:51:43Z</time>
      </trkpt>
      <trkpt lat="42.99136" lon="0.85843">
        <ele>960.86999512</ele>
        <time>2020-10-29T14:51:44Z</time>
      </trkpt>
      <trkpt lat="42.9914" lon="0.85841">
        <ele>959.84997559</ele>
        <time>2020-10-29T14:51:45Z</time>
      </trkpt>
      <trkpt lat="42.99143" lon="0.85838">
        <ele>958.67999268</ele>
        <time>2020-10-29T14:51:47Z</time>
      </trkpt>
      <trkpt lat="42.99145" lon="0.85837">
        <ele>958.67999268</ele>
        <time>2020-10-29T14:51:48Z</time>
      </trkpt>
      <trkpt lat="42.99149" lon="0.85835">
        <ele>957.89001465</ele>
        <time>2020-10-29T14:51:49Z</time>
      </trkpt>
      <trkpt lat="42.99154" lon="0.85832">
        <ele>957.60998535</ele>
        <time>2020-10-29T14:51:50Z</time>
      </trkpt>
      <trkpt lat="42.99158" lon="0.85831">
        <ele>957.51000977</ele>
        <time>2020-10-29T14:51:51Z</time>
      </trkpt>
      <trkpt lat="42.99162" lon="0.8583">
        <ele>956.34002686</ele>
        <time>2020-10-29T14:51:52Z</time>
      </trkpt>
      <trkpt lat="42.99166" lon="0.85825">
        <ele>954.45001221</ele>
        <time>2020-10-29T14:51:54Z</time>
      </trkpt>
      <trkpt lat="42.99168" lon="0.85822">
        <ele>953.7800293</ele>
        <time>2020-10-29T14:51:55Z</time>
      </trkpt>
      <trkpt lat="42.99172" lon="0.85818">
        <ele>953</ele>
        <time>2020-10-29T14:51:57Z</time>
      </trkpt>
      <trkpt lat="42.99175" lon="0.85814">
        <ele>952.10998535</ele>
        <time>2020-10-29T14:51:58Z</time>
      </trkpt>
      <trkpt lat="42.99181" lon="0.8581">
        <ele>950.65997314</ele>
        <time>2020-10-29T14:51:59Z</time>
      </trkpt>
      <trkpt lat="42.99185" lon="0.85806">
        <ele>949.66998291</ele>
        <time>2020-10-29T14:52:00Z</time>
      </trkpt>
      <trkpt lat="42.99192" lon="0.85802">
        <ele>948.83001709</ele>
        <time>2020-10-29T14:52:02Z</time>
      </trkpt>
      <trkpt lat="42.99197" lon="0.858">
        <ele>948.58001709</ele>
        <time>2020-10-29T14:52:03Z</time>
      </trkpt>
      <trkpt lat="42.99202" lon="0.85797">
        <ele>947.92999268</ele>
        <time>2020-10-29T14:52:05Z</time>
      </trkpt>
      <trkpt lat="42.99208" lon="0.85796">
        <ele>947.38000488</ele>
        <time>2020-10-29T14:52:06Z</time>
      </trkpt>
      <trkpt lat="42.99214" lon="0.85795">
        <ele>946.08001709</ele>
        <time>2020-10-29T14:52:08Z</time>
      </trkpt>
      <trkpt lat="42.99221" lon="0.85794">
        <ele>945.64001465</ele>
        <time>2020-10-29T14:52:09Z</time>
      </trkpt>
      <trkpt lat="42.99225" lon="0.85791">
        <ele>944.39001465</ele>
        <time>2020-10-29T14:52:10Z</time>
      </trkpt>
      <trkpt lat="42.99231" lon="0.85789">
        <ele>944.16998291</ele>
        <time>2020-10-29T14:52:12Z</time>
      </trkpt>
      <trkpt lat="42.99236" lon="0.85787">
        <ele>944.09997559</ele>
        <time>2020-10-29T14:52:13Z</time>
      </trkpt>
      <trkpt lat="42.99242" lon="0.85786">
        <ele>943.98999023</ele>
        <time>2020-10-29T14:52:14Z</time>
      </trkpt>
      <trkpt lat="42.99246" lon="0.85785">
        <ele>943.71002197</ele>
        <time>2020-10-29T14:52:15Z</time>
      </trkpt>
      <trkpt lat="42.99249" lon="0.85785">
        <ele>943.86999512</ele>
        <time>2020-10-29T14:52:17Z</time>
      </trkpt>
      <trkpt lat="42.99253" lon="0.85787">
        <ele>944.10998535</ele>
        <time>2020-10-29T14:52:18Z</time>
      </trkpt>
      <trkpt lat="42.99255" lon="0.85788">
        <ele>943.90002441</ele>
        <time>2020-10-29T14:52:19Z</time>
      </trkpt>
      <trkpt lat="42.99257" lon="0.8579">
        <ele>943.90997314</ele>
        <time>2020-10-29T14:52:20Z</time>
      </trkpt>
      <trkpt lat="42.99259" lon="0.85792">
        <ele>942.91998291</ele>
        <time>2020-10-29T14:52:22Z</time>
      </trkpt>
      <trkpt lat="42.99262" lon="0.85795">
        <ele>942.46002197</ele>
        <time>2020-10-29T14:52:23Z</time>
      </trkpt>
      <trkpt lat="42.99265" lon="0.85799">
        <ele>941.82000732</ele>
        <time>2020-10-29T14:52:24Z</time>
      </trkpt>
      <trkpt lat="42.99269" lon="0.85803">
        <ele>941.29998779</ele>
        <time>2020-10-29T14:52:25Z</time>
      </trkpt>
      <trkpt lat="42.99285" lon="0.85815">
        <ele>937.14001465</ele>
        <time>2020-10-29T14:52:27Z</time>
      </trkpt>
      <trkpt lat="42.99293" lon="0.85823">
        <ele>934.19000244</ele>
        <time>2020-10-29T14:52:28Z</time>
      </trkpt>
      <trkpt lat="42.99312" lon="0.85836">
        <ele>932.96002197</ele>
        <time>2020-10-29T14:52:30Z</time>
      </trkpt>
      <trkpt lat="42.99318" lon="0.85842">
        <ele>932.67999268</ele>
        <time>2020-10-29T14:52:31Z</time>
      </trkpt>
      <trkpt lat="42.9932" lon="0.85845">
        <ele>930.78997803</ele>
        <time>2020-10-29T14:52:33Z</time>
      </trkpt>
      <trkpt lat="42.99324" lon="0.85848">
        <ele>930.78997803</ele>
        <time>2020-10-29T14:52:34Z</time>
      </trkpt>
      <trkpt lat="42.99334" lon="0.85852">
        <ele>929.69000244</ele>
        <time>2020-10-29T14:52:35Z</time>
      </trkpt>
      <trkpt lat="42.99336" lon="0.85854">
        <ele>928.09002686</ele>
        <time>2020-10-29T14:52:36Z</time>
      </trkpt>
      <trkpt lat="42.9934" lon="0.85854">
        <ele>925.4699707</ele>
        <time>2020-10-29T14:52:38Z</time>
      </trkpt>
      <trkpt lat="42.99344" lon="0.85854">
        <ele>924.63000488</ele>
        <time>2020-10-29T14:52:39Z</time>
      </trkpt>
      <trkpt lat="42.99347" lon="0.85855">
        <ele>923.90997314</ele>
        <time>2020-10-29T14:52:40Z</time>
      </trkpt>
      <trkpt lat="42.99349" lon="0.85858">
        <ele>923.2199707</ele>
        <time>2020-10-29T14:52:42Z</time>
      </trkpt>
      <trkpt lat="42.99344" lon="0.85859">
        <ele>923.19000244</ele>
        <time>2020-10-29T14:52:44Z</time>
      </trkpt>
      <trkpt lat="42.9934" lon="0.85858">
        <ele>922.86999512</ele>
        <time>2020-10-29T14:52:45Z</time>
      </trkpt>
      <trkpt lat="42.9933" lon="0.85852">
        <ele>921.14001465</ele>
        <time>2020-10-29T14:52:47Z</time>
      </trkpt>
      <trkpt lat="42.99318" lon="0.85846">
        <ele>920.17999268</ele>
        <time>2020-10-29T14:52:49Z</time>
      </trkpt>
      <trkpt lat="42.99304" lon="0.85835">
        <ele>918.59002686</ele>
        <time>2020-10-29T14:52:51Z</time>
      </trkpt>
      <trkpt lat="42.99289" lon="0.8583">
        <ele>917.71002197</ele>
        <time>2020-10-29T14:52:53Z</time>
      </trkpt>
      <trkpt lat="42.9928" lon="0.85832">
        <ele>918.51000977</ele>
        <time>2020-10-29T14:52:54Z</time>
      </trkpt>
      <trkpt lat="42.99271" lon="0.85838">
        <ele>917.90002441</ele>
        <time>2020-10-29T14:52:55Z</time>
      </trkpt>
      <trkpt lat="42.99263" lon="0.85844">
        <ele>917.09002686</ele>
        <time>2020-10-29T14:52:56Z</time>
      </trkpt>
      <trkpt lat="42.99246" lon="0.8586">
        <ele>915.34002686</ele>
        <time>2020-10-29T14:52:58Z</time>
      </trkpt>
      <trkpt lat="42.99237" lon="0.85868">
        <ele>914.64001465</ele>
        <time>2020-10-29T14:52:59Z</time>
      </trkpt>
      <trkpt lat="42.9922" lon="0.85882">
        <ele>913.30999756</ele>
        <time>2020-10-29T14:53:01Z</time>
      </trkpt>
      <trkpt lat="42.99202" lon="0.85892">
        <ele>912.70001221</ele>
        <time>2020-10-29T14:53:03Z</time>
      </trkpt>
      <trkpt lat="42.99189" lon="0.85904">
        <ele>911.21002197</ele>
        <time>2020-10-29T14:53:05Z</time>
      </trkpt>
      <trkpt lat="42.99185" lon="0.85913">
        <ele>910.40002441</ele>
        <time>2020-10-29T14:53:06Z</time>
      </trkpt>
      <trkpt lat="42.99181" lon="0.85923">
        <ele>909.40997314</ele>
        <time>2020-10-29T14:53:07Z</time>
      </trkpt>
      <trkpt lat="42.99175" lon="0.85933">
        <ele>909.29998779</ele>
        <time>2020-10-29T14:53:08Z</time>
      </trkpt>
      <trkpt lat="42.99168" lon="0.85942">
        <ele>907.09002686</ele>
        <time>2020-10-29T14:53:09Z</time>
      </trkpt>
      <trkpt lat="42.99155" lon="0.85955">
        <ele>905.25</ele>
        <time>2020-10-29T14:53:11Z</time>
      </trkpt>
      <trkpt lat="42.99143" lon="0.85958">
        <ele>904.5</ele>
        <time>2020-10-29T14:53:13Z</time>
      </trkpt>
      <trkpt lat="42.99137" lon="0.85955">
        <ele>903.53997803</ele>
        <time>2020-10-29T14:53:14Z</time>
      </trkpt>
      <trkpt lat="42.99124" lon="0.85953">
        <ele>902.84002686</ele>
        <time>2020-10-29T14:53:16Z</time>
      </trkpt>
      <trkpt lat="42.99117" lon="0.85952">
        <ele>902.26000977</ele>
        <time>2020-10-29T14:53:17Z</time>
      </trkpt>
      <trkpt lat="42.9911" lon="0.85951">
        <ele>901.63000488</ele>
        <time>2020-10-29T14:53:18Z</time>
      </trkpt>
      <trkpt lat="42.99095" lon="0.85952">
        <ele>901.47998047</ele>
        <time>2020-10-29T14:53:20Z</time>
      </trkpt>
      <trkpt lat="42.99087" lon="0.85954">
        <ele>900.84997559</ele>
        <time>2020-10-29T14:53:21Z</time>
      </trkpt>
      <trkpt lat="42.9907" lon="0.85963">
        <ele>899.16998291</ele>
        <time>2020-10-29T14:53:23Z</time>
      </trkpt>
      <trkpt lat="42.99061" lon="0.85965">
        <ele>898.71002197</ele>
        <time>2020-10-29T14:53:24Z</time>
      </trkpt>
      <trkpt lat="42.99044" lon="0.85961">
        <ele>896.61999512</ele>
        <time>2020-10-29T14:53:26Z</time>
      </trkpt>
      <trkpt lat="42.99027" lon="0.85953">
        <ele>896.67999268</ele>
        <time>2020-10-29T14:53:28Z</time>
      </trkpt>
      <trkpt lat="42.99011" lon="0.85951">
        <ele>896.09002686</ele>
        <time>2020-10-29T14:53:30Z</time>
      </trkpt>
      <trkpt lat="42.99004" lon="0.85952">
        <ele>896.26000977</ele>
        <time>2020-10-29T14:53:31Z</time>
      </trkpt>
      <trkpt lat="42.98996" lon="0.85954">
        <ele>895.52001953</ele>
        <time>2020-10-29T14:53:32Z</time>
      </trkpt>
      <trkpt lat="42.98989" lon="0.85957">
        <ele>895.46002197</ele>
        <time>2020-10-29T14:53:33Z</time>
      </trkpt>
      <trkpt lat="42.98974" lon="0.85962">
        <ele>894.29998779</ele>
        <time>2020-10-29T14:53:35Z</time>
      </trkpt>
      <trkpt lat="42.98966" lon="0.85966">
        <ele>894.16998291</ele>
        <time>2020-10-29T14:53:36Z</time>
      </trkpt>
      <trkpt lat="42.9895" lon="0.85975">
        <ele>894.9699707</ele>
        <time>2020-10-29T14:53:38Z</time>
      </trkpt>
      <trkpt lat="42.98934" lon="0.85981">
        <ele>891.47998047</ele>
        <time>2020-10-29T14:53:40Z</time>
      </trkpt>
      <trkpt lat="42.98926" lon="0.85983">
        <ele>890.96002197</ele>
        <time>2020-10-29T14:53:41Z</time>
      </trkpt>
      <trkpt lat="42.9891" lon="0.85987">
        <ele>889.25</ele>
        <time>2020-10-29T14:53:43Z</time>
      </trkpt>
      <trkpt lat="42.98892" lon="0.8599">
        <ele>888.45001221</ele>
        <time>2020-10-29T14:53:45Z</time>
      </trkpt>
      <trkpt lat="42.98875" lon="0.85991">
        <ele>888.15002441</ele>
        <time>2020-10-29T14:53:47Z</time>
      </trkpt>
      <trkpt lat="42.98867" lon="0.85992">
        <ele>887.72998047</ele>
        <time>2020-10-29T14:53:48Z</time>
      </trkpt>
      <trkpt lat="42.98862" lon="0.85994">
        <ele>886.71002197</ele>
        <time>2020-10-29T14:53:49Z</time>
      </trkpt>
      <trkpt lat="42.98859" lon="0.85999">
        <ele>886.94000244</ele>
        <time>2020-10-29T14:53:51Z</time>
      </trkpt>
      <trkpt lat="42.98857" lon="0.86002">
        <ele>886.58001709</ele>
        <time>2020-10-29T14:53:52Z</time>
      </trkpt>
      <trkpt lat="42.98856" lon="0.86006">
        <ele>886.02001953</ele>
        <time>2020-10-29T14:53:54Z</time>
      </trkpt>
      <trkpt lat="42.98855" lon="0.86017">
        <ele>886.33001709</ele>
        <time>2020-10-29T14:53:56Z</time>
      </trkpt>
      <trkpt lat="42.98854" lon="0.86018">
        <ele>886.05999756</ele>
        <time>2020-10-29T14:53:57Z</time>
      </trkpt>
      <trkpt lat="42.98856" lon="0.86034">
        <ele>885.82000732</ele>
        <time>2020-10-29T14:53:59Z</time>
      </trkpt>
      <trkpt lat="42.98857" lon="0.86041">
        <ele>885.63000488</ele>
        <time>2020-10-29T14:54:00Z</time>
      </trkpt>
      <trkpt lat="42.98859" lon="0.86044">
        <ele>885.07000732</ele>
        <time>2020-10-29T14:54:01Z</time>
      </trkpt>
      <trkpt lat="42.9886" lon="0.86053">
        <ele>884.89001465</ele>
        <time>2020-10-29T14:54:03Z</time>
      </trkpt>
      <trkpt lat="42.98862" lon="0.86064">
        <ele>885.90002441</ele>
        <time>2020-10-29T14:54:04Z</time>
      </trkpt>
      <trkpt lat="42.98863" lon="0.86073">
        <ele>884.27001953</ele>
        <time>2020-10-29T14:54:06Z</time>
      </trkpt>
      <trkpt lat="42.98864" lon="0.86079">
        <ele>885.33001709</ele>
        <time>2020-10-29T14:54:07Z</time>
      </trkpt>
      <trkpt lat="42.98864" lon="0.86085">
        <ele>886.83001709</ele>
        <time>2020-10-29T14:54:09Z</time>
      </trkpt>
      <trkpt lat="42.98865" lon="0.86091">
        <ele>887.03997803</ele>
        <time>2020-10-29T14:54:10Z</time>
      </trkpt>
      <trkpt lat="42.98865" lon="0.861">
        <ele>887.44000244</ele>
        <time>2020-10-29T14:54:11Z</time>
      </trkpt>
      <trkpt lat="42.98865" lon="0.86105">
        <ele>887.79998779</ele>
        <time>2020-10-29T14:54:13Z</time>
      </trkpt>
      <trkpt lat="42.98866" lon="0.8611">
        <ele>887.79998779</ele>
        <time>2020-10-29T14:54:14Z</time>
      </trkpt>
      <trkpt lat="42.98869" lon="0.86118">
        <ele>887.94000244</ele>
        <time>2020-10-29T14:54:15Z</time>
      </trkpt>
      <trkpt lat="42.98872" lon="0.86127">
        <ele>888.34002686</ele>
        <time>2020-10-29T14:54:17Z</time>
      </trkpt>
      <trkpt lat="42.98874" lon="0.86136">
        <ele>888.71002197</ele>
        <time>2020-10-29T14:54:19Z</time>
      </trkpt>
      <trkpt lat="42.98876" lon="0.86143">
        <ele>888.71002197</ele>
        <time>2020-10-29T14:54:20Z</time>
      </trkpt>
      <trkpt lat="42.98879" lon="0.86153">
        <ele>889.78997803</ele>
        <time>2020-10-29T14:54:21Z</time>
      </trkpt>
      <trkpt lat="42.98883" lon="0.86162">
        <ele>890.03997803</ele>
        <time>2020-10-29T14:54:22Z</time>
      </trkpt>
      <trkpt lat="42.98885" lon="0.8617">
        <ele>889.44000244</ele>
        <time>2020-10-29T14:54:24Z</time>
      </trkpt>
      <trkpt lat="42.98887" lon="0.86179">
        <ele>889.48999023</ele>
        <time>2020-10-29T14:54:25Z</time>
      </trkpt>
      <trkpt lat="42.98888" lon="0.86196">
        <ele>890.04998779</ele>
        <time>2020-10-29T14:54:27Z</time>
      </trkpt>
      <trkpt lat="42.98894" lon="0.86213">
        <ele>890.83001709</ele>
        <time>2020-10-29T14:54:29Z</time>
      </trkpt>
      <trkpt lat="42.98897" lon="0.86221">
        <ele>890.98999023</ele>
        <time>2020-10-29T14:54:30Z</time>
      </trkpt>
      <trkpt lat="42.98901" lon="0.86229">
        <ele>891.67999268</ele>
        <time>2020-10-29T14:54:31Z</time>
      </trkpt>
      <trkpt lat="42.98906" lon="0.86239">
        <ele>891.69000244</ele>
        <time>2020-10-29T14:54:33Z</time>
      </trkpt>
      <trkpt lat="42.98909" lon="0.86247">
        <ele>892.13000488</ele>
        <time>2020-10-29T14:54:34Z</time>
      </trkpt>
      <trkpt lat="42.98912" lon="0.86254">
        <ele>891.41998291</ele>
        <time>2020-10-29T14:54:35Z</time>
      </trkpt>
      <trkpt lat="42.98914" lon="0.8626">
        <ele>892.53997803</ele>
        <time>2020-10-29T14:54:37Z</time>
      </trkpt>
      <trkpt lat="42.98917" lon="0.86267">
        <ele>892.79998779</ele>
        <time>2020-10-29T14:54:38Z</time>
      </trkpt>
      <trkpt lat="42.9892" lon="0.86272">
        <ele>893.26000977</ele>
        <time>2020-10-29T14:54:39Z</time>
      </trkpt>
      <trkpt lat="42.98922" lon="0.86277">
        <ele>894</ele>
        <time>2020-10-29T14:54:41Z</time>
      </trkpt>
      <trkpt lat="42.98925" lon="0.86282">
        <ele>894.5</ele>
        <time>2020-10-29T14:54:42Z</time>
      </trkpt>
      <trkpt lat="42.98927" lon="0.86285">
        <ele>894.89001465</ele>
        <time>2020-10-29T14:54:43Z</time>
      </trkpt>
      <trkpt lat="42.98929" lon="0.86289">
        <ele>895.38000488</ele>
        <time>2020-10-29T14:54:45Z</time>
      </trkpt>
      <trkpt lat="42.98931" lon="0.86292">
        <ele>896.35998535</ele>
        <time>2020-10-29T14:54:46Z</time>
      </trkpt>
      <trkpt lat="42.98933" lon="0.86296">
        <ele>896.75</ele>
        <time>2020-10-29T14:54:47Z</time>
      </trkpt>
      <trkpt lat="42.98937" lon="0.86301">
        <ele>896.15997314</ele>
        <time>2020-10-29T14:54:48Z</time>
      </trkpt>
      <trkpt lat="42.98939" lon="0.86306">
        <ele>896.5300293</ele>
        <time>2020-10-29T14:54:49Z</time>
      </trkpt>
      <trkpt lat="42.9894" lon="0.86311">
        <ele>896.76000977</ele>
        <time>2020-10-29T14:54:50Z</time>
      </trkpt>
      <trkpt lat="42.98943" lon="0.86315">
        <ele>897.90997314</ele>
        <time>2020-10-29T14:54:52Z</time>
      </trkpt>
      <trkpt lat="42.98947" lon="0.8632">
        <ele>897.92999268</ele>
        <time>2020-10-29T14:54:53Z</time>
      </trkpt>
      <trkpt lat="42.98949" lon="0.86324">
        <ele>898.41998291</ele>
        <time>2020-10-29T14:54:54Z</time>
      </trkpt>
      <trkpt lat="42.98953" lon="0.86329">
        <ele>898.59002686</ele>
        <time>2020-10-29T14:54:55Z</time>
      </trkpt>
      <trkpt lat="42.98956" lon="0.86333">
        <ele>898.35998535</ele>
        <time>2020-10-29T14:54:57Z</time>
      </trkpt>
      <trkpt lat="42.98959" lon="0.86337">
        <ele>898.35998535</ele>
        <time>2020-10-29T14:54:58Z</time>
      </trkpt>
      <trkpt lat="42.98963" lon="0.86342">
        <ele>898.30999756</ele>
        <time>2020-10-29T14:54:59Z</time>
      </trkpt>
      <trkpt lat="42.98964" lon="0.86345">
        <ele>898.55999756</ele>
        <time>2020-10-29T14:55:00Z</time>
      </trkpt>
      <trkpt lat="42.98967" lon="0.86349">
        <ele>899.16998291</ele>
        <time>2020-10-29T14:55:02Z</time>
      </trkpt>
      <trkpt lat="42.9897" lon="0.86354">
        <ele>899.29998779</ele>
        <time>2020-10-29T14:55:03Z</time>
      </trkpt>
      <trkpt lat="42.98972" lon="0.86359">
        <ele>899.33001709</ele>
        <time>2020-10-29T14:55:04Z</time>
      </trkpt>
      <trkpt lat="42.98975" lon="0.86363">
        <ele>899.39001465</ele>
        <time>2020-10-29T14:55:06Z</time>
      </trkpt>
      <trkpt lat="42.9898" lon="0.86369">
        <ele>899.90002441</ele>
        <time>2020-10-29T14:55:08Z</time>
      </trkpt>
      <trkpt lat="42.98986" lon="0.86376">
        <ele>899.77001953</ele>
        <time>2020-10-29T14:55:10Z</time>
      </trkpt>
      <trkpt lat="42.98989" lon="0.86381">
        <ele>899.05999756</ele>
        <time>2020-10-29T14:55:11Z</time>
      </trkpt>
      <trkpt lat="42.98994" lon="0.86386">
        <ele>899.4699707</ele>
        <time>2020-10-29T14:55:12Z</time>
      </trkpt>
      <trkpt lat="42.99002" lon="0.8639">
        <ele>899.22998047</ele>
        <time>2020-10-29T14:55:14Z</time>
      </trkpt>
      <trkpt lat="42.99005" lon="0.86391">
        <ele>898.72998047</ele>
        <time>2020-10-29T14:55:15Z</time>
      </trkpt>
      <trkpt lat="42.99009" lon="0.86393">
        <ele>897.92999268</ele>
        <time>2020-10-29T14:55:16Z</time>
      </trkpt>
      <trkpt lat="42.99017" lon="0.86396">
        <ele>897.66998291</ele>
        <time>2020-10-29T14:55:18Z</time>
      </trkpt>
      <trkpt lat="42.99027" lon="0.86404">
        <ele>896.77001953</ele>
        <time>2020-10-29T14:55:20Z</time>
      </trkpt>
      <trkpt lat="42.99039" lon="0.86412">
        <ele>896.95001221</ele>
        <time>2020-10-29T14:55:22Z</time>
      </trkpt>
      <trkpt lat="42.99052" lon="0.86418">
        <ele>896.42999268</ele>
        <time>2020-10-29T14:55:24Z</time>
      </trkpt>
      <trkpt lat="42.99058" lon="0.86421">
        <ele>895.96002197</ele>
        <time>2020-10-29T14:55:25Z</time>
      </trkpt>
      <trkpt lat="42.99066" lon="0.86426">
        <ele>895.44000244</ele>
        <time>2020-10-29T14:55:26Z</time>
      </trkpt>
      <trkpt lat="42.99078" lon="0.86438">
        <ele>894.05999756</ele>
        <time>2020-10-29T14:55:28Z</time>
      </trkpt>
      <trkpt lat="42.99084" lon="0.86445">
        <ele>893.89001465</ele>
        <time>2020-10-29T14:55:29Z</time>
      </trkpt>
      <trkpt lat="42.99096" lon="0.86459">
        <ele>892.95001221</ele>
        <time>2020-10-29T14:55:31Z</time>
      </trkpt>
      <trkpt lat="42.99102" lon="0.86467">
        <ele>892.76000977</ele>
        <time>2020-10-29T14:55:32Z</time>
      </trkpt>
      <trkpt lat="42.99107" lon="0.86474">
        <ele>891.90002441</ele>
        <time>2020-10-29T14:55:33Z</time>
      </trkpt>
      <trkpt lat="42.9911" lon="0.86483">
        <ele>891.71002197</ele>
        <time>2020-10-29T14:55:34Z</time>
      </trkpt>
      <trkpt lat="42.99119" lon="0.86499">
        <ele>891.33001709</ele>
        <time>2020-10-29T14:55:36Z</time>
      </trkpt>
      <trkpt lat="42.99123" lon="0.86507">
        <ele>890.89001465</ele>
        <time>2020-10-29T14:55:37Z</time>
      </trkpt>
      <trkpt lat="42.9913" lon="0.86523">
        <ele>890.38000488</ele>
        <time>2020-10-29T14:55:39Z</time>
      </trkpt>
      <trkpt lat="42.99136" lon="0.86536">
        <ele>889.34002686</ele>
        <time>2020-10-29T14:55:41Z</time>
      </trkpt>
      <trkpt lat="42.99137" lon="0.86539">
        <ele>888.47998047</ele>
        <time>2020-10-29T14:55:42Z</time>
      </trkpt>
      <trkpt lat="42.99138" lon="0.86545">
        <ele>890.23999023</ele>
        <time>2020-10-29T14:55:44Z</time>
      </trkpt>
      <trkpt lat="42.99138" lon="0.86546">
        <ele>890.58001709</ele>
        <time>2020-10-29T14:55:46Z</time>
      </trkpt>
      <trkpt lat="42.99138" lon="0.86545">
        <ele>890.42999268</ele>
        <time>2020-10-29T14:55:49Z</time>
      </trkpt>
      <trkpt lat="42.99138" lon="0.86541">
        <ele>890.09997559</ele>
        <time>2020-10-29T14:55:50Z</time>
      </trkpt>
      <trkpt lat="42.99137" lon="0.86535">
        <ele>889.48999023</ele>
        <time>2020-10-29T14:55:52Z</time>
      </trkpt>
      <trkpt lat="42.99135" lon="0.8653">
        <ele>889.48999023</ele>
        <time>2020-10-29T14:55:53Z</time>
      </trkpt>
      <trkpt lat="42.99131" lon="0.86519">
        <ele>889.38000488</ele>
        <time>2020-10-29T14:55:54Z</time>
      </trkpt>
      <trkpt lat="42.99126" lon="0.8651">
        <ele>889.47998047</ele>
        <time>2020-10-29T14:55:55Z</time>
      </trkpt>
      <trkpt lat="42.99123" lon="0.86503">
        <ele>889.91998291</ele>
        <time>2020-10-29T14:55:57Z</time>
      </trkpt>
      <trkpt lat="42.99119" lon="0.86496">
        <ele>890.20001221</ele>
        <time>2020-10-29T14:55:58Z</time>
      </trkpt>
      <trkpt lat="42.99113" lon="0.86488">
        <ele>890.22998047</ele>
        <time>2020-10-29T14:55:59Z</time>
      </trkpt>
      <trkpt lat="42.99108" lon="0.8648">
        <ele>890.26000977</ele>
        <time>2020-10-29T14:56:00Z</time>
      </trkpt>
      <trkpt lat="42.99104" lon="0.86473">
        <ele>890.7800293</ele>
        <time>2020-10-29T14:56:02Z</time>
      </trkpt>
      <trkpt lat="42.99099" lon="0.86466">
        <ele>891.17999268</ele>
        <time>2020-10-29T14:56:03Z</time>
      </trkpt>
      <trkpt lat="42.99095" lon="0.8646">
        <ele>891.44000244</ele>
        <time>2020-10-29T14:56:04Z</time>
      </trkpt>
      <trkpt lat="42.9909" lon="0.86453">
        <ele>892.04998779</ele>
        <time>2020-10-29T14:56:06Z</time>
      </trkpt>
      <trkpt lat="42.99087" lon="0.86448">
        <ele>892.09002686</ele>
        <time>2020-10-29T14:56:07Z</time>
      </trkpt>
      <trkpt lat="42.99084" lon="0.86445">
        <ele>892.35998535</ele>
        <time>2020-10-29T14:56:08Z</time>
      </trkpt>
      <trkpt lat="42.99081" lon="0.8644">
        <ele>893.42999268</ele>
        <time>2020-10-29T14:56:10Z</time>
      </trkpt>
      <trkpt lat="42.99078" lon="0.86437">
        <ele>894.02001953</ele>
        <time>2020-10-29T14:56:11Z</time>
      </trkpt>
      <trkpt lat="42.99074" lon="0.86433">
        <ele>894.10998535</ele>
        <time>2020-10-29T14:56:12Z</time>
      </trkpt>
      <trkpt lat="42.9907" lon="0.86428">
        <ele>894.51000977</ele>
        <time>2020-10-29T14:56:13Z</time>
      </trkpt>
      <trkpt lat="42.99068" lon="0.86425">
        <ele>895.45001221</ele>
        <time>2020-10-29T14:56:15Z</time>
      </trkpt>
      <trkpt lat="42.99065" lon="0.86423">
        <ele>895.34997559</ele>
        <time>2020-10-29T14:56:16Z</time>
      </trkpt>
      <trkpt lat="42.9906" lon="0.86419">
        <ele>895.5300293</ele>
        <time>2020-10-29T14:56:17Z</time>
      </trkpt>
      <trkpt lat="42.99057" lon="0.86415">
        <ele>896.19000244</ele>
        <time>2020-10-29T14:56:18Z</time>
      </trkpt>
      <trkpt lat="42.99053" lon="0.86412">
        <ele>896.61999512</ele>
        <time>2020-10-29T14:56:19Z</time>
      </trkpt>
      <trkpt lat="42.9905" lon="0.86409">
        <ele>896.48999023</ele>
        <time>2020-10-29T14:56:21Z</time>
      </trkpt>
      <trkpt lat="42.99044" lon="0.86405">
        <ele>896.05999756</ele>
        <time>2020-10-29T14:56:23Z</time>
      </trkpt>
      <trkpt lat="42.99038" lon="0.86402">
        <ele>896.39001465</ele>
        <time>2020-10-29T14:56:24Z</time>
      </trkpt>
      <trkpt lat="42.99034" lon="0.864">
        <ele>896.78997803</ele>
        <time>2020-10-29T14:56:25Z</time>
      </trkpt>
      <trkpt lat="42.99029" lon="0.86397">
        <ele>898.08001709</ele>
        <time>2020-10-29T14:56:27Z</time>
      </trkpt>
      <trkpt lat="42.99024" lon="0.86395">
        <ele>897.77001953</ele>
        <time>2020-10-29T14:56:29Z</time>
      </trkpt>
      <trkpt lat="42.99021" lon="0.86394">
        <ele>898.39001465</ele>
        <time>2020-10-29T14:56:30Z</time>
      </trkpt>
      <trkpt lat="42.99017" lon="0.86393">
        <ele>898.44000244</ele>
        <time>2020-10-29T14:56:31Z</time>
      </trkpt>
      <trkpt lat="42.99013" lon="0.86392">
        <ele>898.08001709</ele>
        <time>2020-10-29T14:56:32Z</time>
      </trkpt>
      <trkpt lat="42.9901" lon="0.86391">
        <ele>898.29998779</ele>
        <time>2020-10-29T14:56:33Z</time>
      </trkpt>
      <trkpt lat="42.99007" lon="0.8639">
        <ele>897.77001953</ele>
        <time>2020-10-29T14:56:34Z</time>
      </trkpt>
      <trkpt lat="42.99002" lon="0.86389">
        <ele>897.55999756</ele>
        <time>2020-10-29T14:56:36Z</time>
      </trkpt>
      <trkpt lat="42.98999" lon="0.86386">
        <ele>896.73999023</ele>
        <time>2020-10-29T14:56:37Z</time>
      </trkpt>
      <trkpt lat="42.98995" lon="0.86384">
        <ele>896.91998291</ele>
        <time>2020-10-29T14:56:38Z</time>
      </trkpt>
      <trkpt lat="42.98989" lon="0.86379">
        <ele>896.84997559</ele>
        <time>2020-10-29T14:56:40Z</time>
      </trkpt>
      <trkpt lat="42.98981" lon="0.86372">
        <ele>897.88000488</ele>
        <time>2020-10-29T14:56:42Z</time>
      </trkpt>
      <trkpt lat="42.98976" lon="0.86365">
        <ele>897.92999268</ele>
        <time>2020-10-29T14:56:43Z</time>
      </trkpt>
      <trkpt lat="42.98971" lon="0.86359">
        <ele>898.10998535</ele>
        <time>2020-10-29T14:56:44Z</time>
      </trkpt>
      <trkpt lat="42.98961" lon="0.86349">
        <ele>898.29998779</ele>
        <time>2020-10-29T14:56:46Z</time>
      </trkpt>
      <trkpt lat="42.98958" lon="0.86343">
        <ele>898.17999268</ele>
        <time>2020-10-29T14:56:47Z</time>
      </trkpt>
      <trkpt lat="42.98951" lon="0.86333">
        <ele>899.79998779</ele>
        <time>2020-10-29T14:56:49Z</time>
      </trkpt>
      <trkpt lat="42.98942" lon="0.86318">
        <ele>899.42999268</ele>
        <time>2020-10-29T14:56:51Z</time>
      </trkpt>
      <trkpt lat="42.98934" lon="0.86305">
        <ele>898.25</ele>
        <time>2020-10-29T14:56:53Z</time>
      </trkpt>
      <trkpt lat="42.98926" lon="0.86289">
        <ele>898.34002686</ele>
        <time>2020-10-29T14:56:55Z</time>
      </trkpt>
      <trkpt lat="42.9892" lon="0.86272">
        <ele>897.04998779</ele>
        <time>2020-10-29T14:56:57Z</time>
      </trkpt>
      <trkpt lat="42.98913" lon="0.86255">
        <ele>896.60998535</ele>
        <time>2020-10-29T14:56:59Z</time>
      </trkpt>
      <trkpt lat="42.98908" lon="0.86236">
        <ele>894.92999268</ele>
        <time>2020-10-29T14:57:01Z</time>
      </trkpt>
      <trkpt lat="42.98904" lon="0.86226">
        <ele>894.13000488</ele>
        <time>2020-10-29T14:57:02Z</time>
      </trkpt>
      <trkpt lat="42.98899" lon="0.86208">
        <ele>893.58001709</ele>
        <time>2020-10-29T14:57:04Z</time>
      </trkpt>
      <trkpt lat="42.98897" lon="0.86199">
        <ele>892.84002686</ele>
        <time>2020-10-29T14:57:05Z</time>
      </trkpt>
      <trkpt lat="42.98892" lon="0.86184">
        <ele>891.59002686</ele>
        <time>2020-10-29T14:57:07Z</time>
      </trkpt>
      <trkpt lat="42.98889" lon="0.86176">
        <ele>891.71002197</ele>
        <time>2020-10-29T14:57:08Z</time>
      </trkpt>
      <trkpt lat="42.98886" lon="0.86169">
        <ele>891.80999756</ele>
        <time>2020-10-29T14:57:09Z</time>
      </trkpt>
      <trkpt lat="42.98881" lon="0.86155">
        <ele>890.9699707</ele>
        <time>2020-10-29T14:57:11Z</time>
      </trkpt>
      <trkpt lat="42.98876" lon="0.86141">
        <ele>891.22998047</ele>
        <time>2020-10-29T14:57:13Z</time>
      </trkpt>
      <trkpt lat="42.98872" lon="0.86126">
        <ele>890.83001709</ele>
        <time>2020-10-29T14:57:15Z</time>
      </trkpt>
      <trkpt lat="42.9887" lon="0.86119">
        <ele>891.2199707</ele>
        <time>2020-10-29T14:57:16Z</time>
      </trkpt>
      <trkpt lat="42.98866" lon="0.86104">
        <ele>890.57000732</ele>
        <time>2020-10-29T14:57:18Z</time>
      </trkpt>
      <trkpt lat="42.98863" lon="0.86096">
        <ele>889.52001953</ele>
        <time>2020-10-29T14:57:19Z</time>
      </trkpt>
      <trkpt lat="42.98857" lon="0.86069">
        <ele>887.88000488</ele>
        <time>2020-10-29T14:57:22Z</time>
      </trkpt>
      <trkpt lat="42.98855" lon="0.86059">
        <ele>887.21002197</ele>
        <time>2020-10-29T14:57:23Z</time>
      </trkpt>
      <trkpt lat="42.98853" lon="0.8604">
        <ele>886.36999512</ele>
        <time>2020-10-29T14:57:25Z</time>
      </trkpt>
      <trkpt lat="42.98852" lon="0.8603">
        <ele>886.29998779</ele>
        <time>2020-10-29T14:57:26Z</time>
      </trkpt>
      <trkpt lat="42.98852" lon="0.86016">
        <ele>886.7199707</ele>
        <time>2020-10-29T14:57:28Z</time>
      </trkpt>
      <trkpt lat="42.98853" lon="0.86012">
        <ele>886.5300293</ele>
        <time>2020-10-29T14:57:30Z</time>
      </trkpt>
      <trkpt lat="42.98854" lon="0.86009">
        <ele>886.64001465</ele>
        <time>2020-10-29T14:57:31Z</time>
      </trkpt>
      <trkpt lat="42.98858" lon="0.86003">
        <ele>886.15002441</ele>
        <time>2020-10-29T14:57:33Z</time>
      </trkpt>
      <trkpt lat="42.9886" lon="0.85999">
        <ele>885.97998047</ele>
        <time>2020-10-29T14:57:34Z</time>
      </trkpt>
      <trkpt lat="42.98861" lon="0.85999">
        <ele>886.72998047</ele>
        <time>2020-10-29T14:57:35Z</time>
      </trkpt>
      <trkpt lat="42.98864" lon="0.85997">
        <ele>886.7199707</ele>
        <time>2020-10-29T14:57:36Z</time>
      </trkpt>
      <trkpt lat="42.98867" lon="0.85997">
        <ele>887.59997559</ele>
        <time>2020-10-29T14:57:37Z</time>
      </trkpt>
      <trkpt lat="42.9887" lon="0.85997">
        <ele>887.11999512</ele>
        <time>2020-10-29T14:57:38Z</time>
      </trkpt>
      <trkpt lat="42.98873" lon="0.85997">
        <ele>886.58001709</ele>
        <time>2020-10-29T14:57:40Z</time>
      </trkpt>
      <trkpt lat="42.98877" lon="0.85996">
        <ele>886.94000244</ele>
        <time>2020-10-29T14:57:41Z</time>
      </trkpt>
      <trkpt lat="42.9888" lon="0.85996">
        <ele>887.34997559</ele>
        <time>2020-10-29T14:57:43Z</time>
      </trkpt>
      <trkpt lat="42.98885" lon="0.85995">
        <ele>887.36999512</ele>
        <time>2020-10-29T14:57:44Z</time>
      </trkpt>
      <trkpt lat="42.98889" lon="0.85995">
        <ele>887.04998779</ele>
        <time>2020-10-29T14:57:45Z</time>
      </trkpt>
      <trkpt lat="42.98895" lon="0.85994">
        <ele>887.02001953</ele>
        <time>2020-10-29T14:57:48Z</time>
      </trkpt>
      <trkpt lat="42.98898" lon="0.85993">
        <ele>887.80999756</ele>
        <time>2020-10-29T14:57:49Z</time>
      </trkpt>
      <trkpt lat="42.98903" lon="0.85991">
        <ele>888.45001221</ele>
        <time>2020-10-29T14:57:50Z</time>
      </trkpt>
      <trkpt lat="42.98907" lon="0.8599">
        <ele>888.69000244</ele>
        <time>2020-10-29T14:57:52Z</time>
      </trkpt>
      <trkpt lat="42.98912" lon="0.85989">
        <ele>888.42999268</ele>
        <time>2020-10-29T14:57:53Z</time>
      </trkpt>
      <trkpt lat="42.98915" lon="0.85988">
        <ele>889.10998535</ele>
        <time>2020-10-29T14:57:54Z</time>
      </trkpt>
      <trkpt lat="42.98919" lon="0.85986">
        <ele>890.11999512</ele>
        <time>2020-10-29T14:57:56Z</time>
      </trkpt>
      <trkpt lat="42.98924" lon="0.85984">
        <ele>892.84997559</ele>
        <time>2020-10-29T14:57:57Z</time>
      </trkpt>
      <trkpt lat="42.98928" lon="0.85984">
        <ele>892.40997314</ele>
        <time>2020-10-29T14:57:59Z</time>
      </trkpt>
      <trkpt lat="42.98936" lon="0.85984">
        <ele>891.28997803</ele>
        <time>2020-10-29T14:58:01Z</time>
      </trkpt>
      <trkpt lat="42.98943" lon="0.85982">
        <ele>891.66998291</ele>
        <time>2020-10-29T14:58:02Z</time>
      </trkpt>
      <trkpt lat="42.98948" lon="0.85982">
        <ele>891.92999268</ele>
        <time>2020-10-29T14:58:03Z</time>
      </trkpt>
      <trkpt lat="42.98952" lon="0.8598">
        <ele>891.84997559</ele>
        <time>2020-10-29T14:58:05Z</time>
      </trkpt>
      <trkpt lat="42.98957" lon="0.85979">
        <ele>892.90997314</ele>
        <time>2020-10-29T14:58:06Z</time>
      </trkpt>
      <trkpt lat="42.98961" lon="0.85979">
        <ele>893.2800293</ele>
        <time>2020-10-29T14:58:08Z</time>
      </trkpt>
      <trkpt lat="42.98967" lon="0.85978">
        <ele>893.44000244</ele>
        <time>2020-10-29T14:58:10Z</time>
      </trkpt>
      <trkpt lat="42.98969" lon="0.85976">
        <ele>893.44000244</ele>
        <time>2020-10-29T14:58:11Z</time>
      </trkpt>
      <trkpt lat="42.98973" lon="0.85974">
        <ele>894.47998047</ele>
        <time>2020-10-29T14:58:12Z</time>
      </trkpt>
      <trkpt lat="42.98977" lon="0.85972">
        <ele>895.16998291</ele>
        <time>2020-10-29T14:58:14Z</time>
      </trkpt>
      <trkpt lat="42.98985" lon="0.8597">
        <ele>896.28997803</ele>
        <time>2020-10-29T14:58:16Z</time>
      </trkpt>
      <trkpt lat="42.98989" lon="0.85968">
        <ele>896.28997803</ele>
        <time>2020-10-29T14:58:17Z</time>
      </trkpt>
      <trkpt lat="42.98995" lon="0.85965">
        <ele>895.92999268</ele>
        <time>2020-10-29T14:58:18Z</time>
      </trkpt>
      <trkpt lat="42.99001" lon="0.85963">
        <ele>895.85998535</ele>
        <time>2020-10-29T14:58:20Z</time>
      </trkpt>
      <trkpt lat="42.99009" lon="0.85961">
        <ele>895.79998779</ele>
        <time>2020-10-29T14:58:21Z</time>
      </trkpt>
      <trkpt lat="42.99016" lon="0.8596">
        <ele>898.17999268</ele>
        <time>2020-10-29T14:58:23Z</time>
      </trkpt>
      <trkpt lat="42.99021" lon="0.8596">
        <ele>897.52001953</ele>
        <time>2020-10-29T14:58:24Z</time>
      </trkpt>
      <trkpt lat="42.99027" lon="0.85961">
        <ele>897.42999268</ele>
        <time>2020-10-29T14:58:26Z</time>
      </trkpt>
      <trkpt lat="42.99032" lon="0.85961">
        <ele>895.92999268</ele>
        <time>2020-10-29T14:58:27Z</time>
      </trkpt>
      <trkpt lat="42.99038" lon="0.85962">
        <ele>895.08001709</ele>
        <time>2020-10-29T14:58:28Z</time>
      </trkpt>
      <trkpt lat="42.99042" lon="0.85963">
        <ele>895.89001465</ele>
        <time>2020-10-29T14:58:29Z</time>
      </trkpt>
      <trkpt lat="42.99046" lon="0.85963">
        <ele>893.95001221</ele>
        <time>2020-10-29T14:58:31Z</time>
      </trkpt>
      <trkpt lat="42.99049" lon="0.85963">
        <ele>893.95001221</ele>
        <time>2020-10-29T14:58:32Z</time>
      </trkpt>
      <trkpt lat="42.99052" lon="0.85963">
        <ele>894.46002197</ele>
        <time>2020-10-29T14:58:33Z</time>
      </trkpt>
      <trkpt lat="42.99054" lon="0.85962">
        <ele>895.65002441</ele>
        <time>2020-10-29T14:58:34Z</time>
      </trkpt>
      <trkpt lat="42.99056" lon="0.85962">
        <ele>895.7800293</ele>
        <time>2020-10-29T14:58:35Z</time>
      </trkpt>
      <trkpt lat="42.99059" lon="0.85962">
        <ele>896.07000732</ele>
        <time>2020-10-29T14:58:37Z</time>
      </trkpt>
      <trkpt lat="42.99063" lon="0.85962">
        <ele>897.23999023</ele>
        <time>2020-10-29T14:58:38Z</time>
      </trkpt>
      <trkpt lat="42.99066" lon="0.8596">
        <ele>897.20001221</ele>
        <time>2020-10-29T14:58:39Z</time>
      </trkpt>
      <trkpt lat="42.9907" lon="0.8596">
        <ele>898</ele>
        <time>2020-10-29T14:58:41Z</time>
      </trkpt>
      <trkpt lat="42.99075" lon="0.85959">
        <ele>898.85998535</ele>
        <time>2020-10-29T14:58:42Z</time>
      </trkpt>
      <trkpt lat="42.9908" lon="0.85959">
        <ele>898.46002197</ele>
        <time>2020-10-29T14:58:44Z</time>
      </trkpt>
      <trkpt lat="42.99085" lon="0.85959">
        <ele>899.26000977</ele>
        <time>2020-10-29T14:58:45Z</time>
      </trkpt>
      <trkpt lat="42.9909" lon="0.85959">
        <ele>900.28997803</ele>
        <time>2020-10-29T14:58:47Z</time>
      </trkpt>
      <trkpt lat="42.99093" lon="0.85959">
        <ele>900.28997803</ele>
        <time>2020-10-29T14:58:48Z</time>
      </trkpt>
      <trkpt lat="42.991" lon="0.85959">
        <ele>900.40997314</ele>
        <time>2020-10-29T14:58:49Z</time>
      </trkpt>
      <trkpt lat="42.99106" lon="0.85959">
        <ele>900.79998779</ele>
        <time>2020-10-29T14:58:51Z</time>
      </trkpt>
      <trkpt lat="42.9911" lon="0.85959">
        <ele>900.80999756</ele>
        <time>2020-10-29T14:58:52Z</time>
      </trkpt>
      <trkpt lat="42.99113" lon="0.85958">
        <ele>901.19000244</ele>
        <time>2020-10-29T14:58:53Z</time>
      </trkpt>
      <trkpt lat="42.99119" lon="0.85956">
        <ele>901.63000488</ele>
        <time>2020-10-29T14:58:54Z</time>
      </trkpt>
      <trkpt lat="42.99123" lon="0.85956">
        <ele>901.32000732</ele>
        <time>2020-10-29T14:58:56Z</time>
      </trkpt>
      <trkpt lat="42.99128" lon="0.85956">
        <ele>901.01000977</ele>
        <time>2020-10-29T14:58:57Z</time>
      </trkpt>
      <trkpt lat="42.99131" lon="0.85956">
        <ele>902.30999756</ele>
        <time>2020-10-29T14:58:59Z</time>
      </trkpt>
      <trkpt lat="42.99135" lon="0.85957">
        <ele>902.34997559</ele>
        <time>2020-10-29T14:59:00Z</time>
      </trkpt>
      <trkpt lat="42.9914" lon="0.85956">
        <ele>901.89001465</ele>
        <time>2020-10-29T14:59:01Z</time>
      </trkpt>
      <trkpt lat="42.99144" lon="0.85956">
        <ele>902.52001953</ele>
        <time>2020-10-29T14:59:02Z</time>
      </trkpt>
      <trkpt lat="42.99146" lon="0.85956">
        <ele>903.42999268</ele>
        <time>2020-10-29T14:59:03Z</time>
      </trkpt>
      <trkpt lat="42.99149" lon="0.85955">
        <ele>904.40997314</ele>
        <time>2020-10-29T14:59:05Z</time>
      </trkpt>
      <trkpt lat="42.99152" lon="0.85955">
        <ele>904.40997314</ele>
        <time>2020-10-29T14:59:06Z</time>
      </trkpt>
      <trkpt lat="42.99155" lon="0.85953">
        <ele>903.95001221</ele>
        <time>2020-10-29T14:59:07Z</time>
      </trkpt>
      <trkpt lat="42.99159" lon="0.85951">
        <ele>904.90997314</ele>
        <time>2020-10-29T14:59:08Z</time>
      </trkpt>
      <trkpt lat="42.99163" lon="0.85949">
        <ele>905.5</ele>
        <time>2020-10-29T14:59:09Z</time>
      </trkpt>
      <trkpt lat="42.99167" lon="0.85947">
        <ele>906.34997559</ele>
        <time>2020-10-29T14:59:11Z</time>
      </trkpt>
      <trkpt lat="42.9917" lon="0.85945">
        <ele>906.46002197</ele>
        <time>2020-10-29T14:59:12Z</time>
      </trkpt>
      <trkpt lat="42.99173" lon="0.85943">
        <ele>906.46002197</ele>
        <time>2020-10-29T14:59:13Z</time>
      </trkpt>
      <trkpt lat="42.99176" lon="0.85941">
        <ele>906.86999512</ele>
        <time>2020-10-29T14:59:14Z</time>
      </trkpt>
      <trkpt lat="42.99178" lon="0.85939">
        <ele>908.09997559</ele>
        <time>2020-10-29T14:59:16Z</time>
      </trkpt>
      <trkpt lat="42.99181" lon="0.85938">
        <ele>908.2199707</ele>
        <time>2020-10-29T14:59:17Z</time>
      </trkpt>
      <trkpt lat="42.99184" lon="0.85936">
        <ele>908.59997559</ele>
        <time>2020-10-29T14:59:18Z</time>
      </trkpt>
      <trkpt lat="42.99186" lon="0.85933">
        <ele>908.34002686</ele>
        <time>2020-10-29T14:59:19Z</time>
      </trkpt>
      <trkpt lat="42.99189" lon="0.85931">
        <ele>908.46002197</ele>
        <time>2020-10-29T14:59:21Z</time>
      </trkpt>
      <trkpt lat="42.99191" lon="0.8593">
        <ele>908.94000244</ele>
        <time>2020-10-29T14:59:22Z</time>
      </trkpt>
      <trkpt lat="42.99193" lon="0.85928">
        <ele>910.27001953</ele>
        <time>2020-10-29T14:59:23Z</time>
      </trkpt>
      <trkpt lat="42.99196" lon="0.85926">
        <ele>910.76000977</ele>
        <time>2020-10-29T14:59:26Z</time>
      </trkpt>
      <trkpt lat="42.99198" lon="0.85925">
        <ele>910.65997314</ele>
        <time>2020-10-29T14:59:27Z</time>
      </trkpt>
      <trkpt lat="42.992" lon="0.85924">
        <ele>910.96002197</ele>
        <time>2020-10-29T14:59:28Z</time>
      </trkpt>
      <trkpt lat="42.99203" lon="0.85923">
        <ele>911.17999268</ele>
        <time>2020-10-29T14:59:30Z</time>
      </trkpt>
      <trkpt lat="42.99207" lon="0.85922">
        <ele>910.97998047</ele>
        <time>2020-10-29T14:59:31Z</time>
      </trkpt>
      <trkpt lat="42.99209" lon="0.85921">
        <ele>911.32000732</ele>
        <time>2020-10-29T14:59:32Z</time>
      </trkpt>
      <trkpt lat="42.99211" lon="0.8592">
        <ele>911.88000488</ele>
        <time>2020-10-29T14:59:34Z</time>
      </trkpt>
      <trkpt lat="42.99214" lon="0.85918">
        <ele>911.60998535</ele>
        <time>2020-10-29T14:59:35Z</time>
      </trkpt>
      <trkpt lat="42.99216" lon="0.85917">
        <ele>911.7199707</ele>
        <time>2020-10-29T14:59:37Z</time>
      </trkpt>
      <trkpt lat="42.99219" lon="0.85915">
        <ele>911.96002197</ele>
        <time>2020-10-29T14:59:38Z</time>
      </trkpt>
      <trkpt lat="42.99221" lon="0.85914">
        <ele>911.7199707</ele>
        <time>2020-10-29T14:59:39Z</time>
      </trkpt>
      <trkpt lat="42.99225" lon="0.85912">
        <ele>912.03997803</ele>
        <time>2020-10-29T14:59:41Z</time>
      </trkpt>
      <trkpt lat="42.99228" lon="0.85909">
        <ele>912.38000488</ele>
        <time>2020-10-29T14:59:42Z</time>
      </trkpt>
      <trkpt lat="42.99231" lon="0.85906">
        <ele>911.32000732</ele>
        <time>2020-10-29T14:59:44Z</time>
      </trkpt>
      <trkpt lat="42.99235" lon="0.859">
        <ele>912.46002197</ele>
        <time>2020-10-29T14:59:46Z</time>
      </trkpt>
      <trkpt lat="42.99238" lon="0.85895">
        <ele>912.70001221</ele>
        <time>2020-10-29T14:59:47Z</time>
      </trkpt>
      <trkpt lat="42.99241" lon="0.85891">
        <ele>913.79998779</ele>
        <time>2020-10-29T14:59:49Z</time>
      </trkpt>
      <trkpt lat="42.99243" lon="0.85888">
        <ele>912.33001709</ele>
        <time>2020-10-29T14:59:50Z</time>
      </trkpt>
      <trkpt lat="42.99247" lon="0.85881">
        <ele>912.88000488</ele>
        <time>2020-10-29T14:59:51Z</time>
      </trkpt>
      <trkpt lat="42.99251" lon="0.85875">
        <ele>914.2199707</ele>
        <time>2020-10-29T14:59:54Z</time>
      </trkpt>
      <trkpt lat="42.99253" lon="0.85872">
        <ele>914.2199707</ele>
        <time>2020-10-29T14:59:55Z</time>
      </trkpt>
      <trkpt lat="42.99256" lon="0.85869">
        <ele>915.15997314</ele>
        <time>2020-10-29T14:59:56Z</time>
      </trkpt>
      <trkpt lat="42.99259" lon="0.85866">
        <ele>915.51000977</ele>
        <time>2020-10-29T14:59:57Z</time>
      </trkpt>
      <trkpt lat="42.99262" lon="0.85864">
        <ele>915.5</ele>
        <time>2020-10-29T14:59:58Z</time>
      </trkpt>
      <trkpt lat="42.99266" lon="0.85861">
        <ele>914.20001221</ele>
        <time>2020-10-29T15:00:00Z</time>
      </trkpt>
      <trkpt lat="42.99268" lon="0.85859">
        <ele>915.44000244</ele>
        <time>2020-10-29T15:00:01Z</time>
      </trkpt>
      <trkpt lat="42.99271" lon="0.85857">
        <ele>915.91998291</ele>
        <time>2020-10-29T15:00:02Z</time>
      </trkpt>
      <trkpt lat="42.99274" lon="0.85856">
        <ele>916.16998291</ele>
        <time>2020-10-29T15:00:03Z</time>
      </trkpt>
      <trkpt lat="42.99276" lon="0.85854">
        <ele>916.4699707</ele>
        <time>2020-10-29T15:00:04Z</time>
      </trkpt>
      <trkpt lat="42.99279" lon="0.85853">
        <ele>916.7800293</ele>
        <time>2020-10-29T15:00:06Z</time>
      </trkpt>
      <trkpt lat="42.99281" lon="0.85852">
        <ele>916.7800293</ele>
        <time>2020-10-29T15:00:07Z</time>
      </trkpt>
      <trkpt lat="42.99283" lon="0.8585">
        <ele>916.7199707</ele>
        <time>2020-10-29T15:00:08Z</time>
      </trkpt>
      <trkpt lat="42.99286" lon="0.85849">
        <ele>917.17999268</ele>
        <time>2020-10-29T15:00:10Z</time>
      </trkpt>
      <trkpt lat="42.99288" lon="0.85847">
        <ele>917.57000732</ele>
        <time>2020-10-29T15:00:11Z</time>
      </trkpt>
      <trkpt lat="42.9929" lon="0.85845">
        <ele>917.22998047</ele>
        <time>2020-10-29T15:00:13Z</time>
      </trkpt>
      <trkpt lat="42.99294" lon="0.85844">
        <ele>918.01000977</ele>
        <time>2020-10-29T15:00:14Z</time>
      </trkpt>
      <trkpt lat="42.99296" lon="0.85843">
        <ele>918</ele>
        <time>2020-10-29T15:00:16Z</time>
      </trkpt>
      <trkpt lat="42.99299" lon="0.85842">
        <ele>918.07000732</ele>
        <time>2020-10-29T15:00:17Z</time>
      </trkpt>
      <trkpt lat="42.99302" lon="0.85842">
        <ele>918.16998291</ele>
        <time>2020-10-29T15:00:18Z</time>
      </trkpt>
      <trkpt lat="42.99304" lon="0.85842">
        <ele>918.15002441</ele>
        <time>2020-10-29T15:00:19Z</time>
      </trkpt>
      <trkpt lat="42.99305" lon="0.85843">
        <ele>918.86999512</ele>
        <time>2020-10-29T15:00:21Z</time>
      </trkpt>
      <trkpt lat="42.99308" lon="0.85844">
        <ele>919.40002441</ele>
        <time>2020-10-29T15:00:22Z</time>
      </trkpt>
      <trkpt lat="42.9931" lon="0.85845">
        <ele>919.2800293</ele>
        <time>2020-10-29T15:00:24Z</time>
      </trkpt>
      <trkpt lat="42.99312" lon="0.85847">
        <ele>919.85998535</ele>
        <time>2020-10-29T15:00:25Z</time>
      </trkpt>
      <trkpt lat="42.99315" lon="0.85849">
        <ele>919.97998047</ele>
        <time>2020-10-29T15:00:26Z</time>
      </trkpt>
      <trkpt lat="42.99322" lon="0.85853">
        <ele>920.22998047</ele>
        <time>2020-10-29T15:00:28Z</time>
      </trkpt>
      <trkpt lat="42.99323" lon="0.85854">
        <ele>920.22998047</ele>
        <time>2020-10-29T15:00:29Z</time>
      </trkpt>
      <trkpt lat="42.99326" lon="0.85855">
        <ele>920.22998047</ele>
        <time>2020-10-29T15:00:30Z</time>
      </trkpt>
      <trkpt lat="42.99328" lon="0.85856">
        <ele>920.80999756</ele>
        <time>2020-10-29T15:00:32Z</time>
      </trkpt>
      <trkpt lat="42.9933" lon="0.85857">
        <ele>921.16998291</ele>
        <time>2020-10-29T15:00:33Z</time>
      </trkpt>
      <trkpt lat="42.99334" lon="0.85858">
        <ele>921.63000488</ele>
        <time>2020-10-29T15:00:35Z</time>
      </trkpt>
      <trkpt lat="42.99336" lon="0.85859">
        <ele>921.52001953</ele>
        <time>2020-10-29T15:00:36Z</time>
      </trkpt>
      <trkpt lat="42.99338" lon="0.8586">
        <ele>921.96002197</ele>
        <time>2020-10-29T15:00:37Z</time>
      </trkpt>
      <trkpt lat="42.9934" lon="0.85861">
        <ele>922.4699707</ele>
        <time>2020-10-29T15:00:38Z</time>
      </trkpt>
      <trkpt lat="42.99343" lon="0.85862">
        <ele>923.13000488</ele>
        <time>2020-10-29T15:00:41Z</time>
      </trkpt>
      <trkpt lat="42.99347" lon="0.85863">
        <ele>923.5300293</ele>
        <time>2020-10-29T15:00:43Z</time>
      </trkpt>
      <trkpt lat="42.99349" lon="0.85863">
        <ele>923.4699707</ele>
        <time>2020-10-29T15:00:45Z</time>
      </trkpt>
      <trkpt lat="42.99351" lon="0.85863">
        <ele>924.2199707</ele>
        <time>2020-10-29T15:00:46Z</time>
      </trkpt>
      <trkpt lat="42.99354" lon="0.85863">
        <ele>924.28997803</ele>
        <time>2020-10-29T15:00:48Z</time>
      </trkpt>
      <trkpt lat="42.99357" lon="0.85862">
        <ele>924.70001221</ele>
        <time>2020-10-29T15:00:49Z</time>
      </trkpt>
      <trkpt lat="42.9936" lon="0.85862">
        <ele>924.89001465</ele>
        <time>2020-10-29T15:00:50Z</time>
      </trkpt>
      <trkpt lat="42.99365" lon="0.85861">
        <ele>925.32000732</ele>
        <time>2020-10-29T15:00:52Z</time>
      </trkpt>
      <trkpt lat="42.99368" lon="0.85861">
        <ele>925.96002197</ele>
        <time>2020-10-29T15:00:54Z</time>
      </trkpt>
      <trkpt lat="42.9937" lon="0.85861">
        <ele>926.05999756</ele>
        <time>2020-10-29T15:00:55Z</time>
      </trkpt>
      <trkpt lat="42.99374" lon="0.8586">
        <ele>926.45001221</ele>
        <time>2020-10-29T15:00:56Z</time>
      </trkpt>
      <trkpt lat="42.99379" lon="0.85859">
        <ele>926.65002441</ele>
        <time>2020-10-29T15:00:57Z</time>
      </trkpt>
      <trkpt lat="42.99383" lon="0.85859">
        <ele>927.04998779</ele>
        <time>2020-10-29T15:00:58Z</time>
      </trkpt>
      <trkpt lat="42.99386" lon="0.85858">
        <ele>926.94000244</ele>
        <time>2020-10-29T15:01:00Z</time>
      </trkpt>
      <trkpt lat="42.99391" lon="0.85858">
        <ele>926.80999756</ele>
        <time>2020-10-29T15:01:02Z</time>
      </trkpt>
      <trkpt lat="42.99399" lon="0.85856">
        <ele>927.13000488</ele>
        <time>2020-10-29T15:01:03Z</time>
      </trkpt>
      <trkpt lat="42.99404" lon="0.85855">
        <ele>926.77001953</ele>
        <time>2020-10-29T15:01:05Z</time>
      </trkpt>
      <trkpt lat="42.99409" lon="0.85856">
        <ele>926.76000977</ele>
        <time>2020-10-29T15:01:06Z</time>
      </trkpt>
      <trkpt lat="42.99415" lon="0.85856">
        <ele>926.0300293</ele>
        <time>2020-10-29T15:01:07Z</time>
      </trkpt>
      <trkpt lat="42.9942" lon="0.85858">
        <ele>924.67999268</ele>
        <time>2020-10-29T15:01:08Z</time>
      </trkpt>
      <trkpt lat="42.99425" lon="0.8586">
        <ele>923.45001221</ele>
        <time>2020-10-29T15:01:09Z</time>
      </trkpt>
      <trkpt lat="42.99431" lon="0.85862">
        <ele>922.19000244</ele>
        <time>2020-10-29T15:01:11Z</time>
      </trkpt>
      <trkpt lat="42.99437" lon="0.85866">
        <ele>919.33001709</ele>
        <time>2020-10-29T15:01:12Z</time>
      </trkpt>
      <trkpt lat="42.99441" lon="0.85869">
        <ele>919.59002686</ele>
        <time>2020-10-29T15:01:13Z</time>
      </trkpt>
      <trkpt lat="42.99445" lon="0.85873">
        <ele>917.69000244</ele>
        <time>2020-10-29T15:01:15Z</time>
      </trkpt>
      <trkpt lat="42.99448" lon="0.85875">
        <ele>916.66998291</ele>
        <time>2020-10-29T15:01:16Z</time>
      </trkpt>
      <trkpt lat="42.99451" lon="0.85876">
        <ele>916.66998291</ele>
        <time>2020-10-29T15:01:17Z</time>
      </trkpt>
      <trkpt lat="42.99458" lon="0.85879">
        <ele>914.65997314</ele>
        <time>2020-10-29T15:01:18Z</time>
      </trkpt>
      <trkpt lat="42.99466" lon="0.85883">
        <ele>913.58001709</ele>
        <time>2020-10-29T15:01:20Z</time>
      </trkpt>
      <trkpt lat="42.99474" lon="0.85887">
        <ele>912.14001465</ele>
        <time>2020-10-29T15:01:22Z</time>
      </trkpt>
      <trkpt lat="42.99473" lon="0.85882">
        <ele>910.90997314</ele>
        <time>2020-10-29T15:01:23Z</time>
      </trkpt>
      <trkpt lat="42.99476" lon="0.85885">
        <ele>909.73999023</ele>
        <time>2020-10-29T15:01:24Z</time>
      </trkpt>
      <trkpt lat="42.99479" lon="0.85888">
        <ele>908.82000732</ele>
        <time>2020-10-29T15:01:25Z</time>
      </trkpt>
      <trkpt lat="42.99486" lon="0.85893">
        <ele>905.59997559</ele>
        <time>2020-10-29T15:01:27Z</time>
      </trkpt>
      <trkpt lat="42.99489" lon="0.85894">
        <ele>904.23999023</ele>
        <time>2020-10-29T15:01:28Z</time>
      </trkpt>
      <trkpt lat="42.99497" lon="0.85895">
        <ele>901.70001221</ele>
        <time>2020-10-29T15:01:30Z</time>
      </trkpt>
      <trkpt lat="42.99504" lon="0.85897">
        <ele>901.2800293</ele>
        <time>2020-10-29T15:01:32Z</time>
      </trkpt>
      <trkpt lat="42.99509" lon="0.85901">
        <ele>901.2800293</ele>
        <time>2020-10-29T15:01:33Z</time>
      </trkpt>
      <trkpt lat="42.99516" lon="0.85901">
        <ele>899.15002441</ele>
        <time>2020-10-29T15:01:34Z</time>
      </trkpt>
      <trkpt lat="42.99522" lon="0.85899">
        <ele>897.76000977</ele>
        <time>2020-10-29T15:01:35Z</time>
      </trkpt>
      <trkpt lat="42.99528" lon="0.85899">
        <ele>896.2800293</ele>
        <time>2020-10-29T15:01:37Z</time>
      </trkpt>
      <trkpt lat="42.99535" lon="0.85898">
        <ele>895.34002686</ele>
        <time>2020-10-29T15:01:38Z</time>
      </trkpt>
      <trkpt lat="42.99538" lon="0.85898">
        <ele>892.44000244</ele>
        <time>2020-10-29T15:01:40Z</time>
      </trkpt>
      <trkpt lat="42.99543" lon="0.85896">
        <ele>892.44000244</ele>
        <time>2020-10-29T15:01:41Z</time>
      </trkpt>
      <trkpt lat="42.99549" lon="0.85895">
        <ele>891.39001465</ele>
        <time>2020-10-29T15:01:42Z</time>
      </trkpt>
      <trkpt lat="42.99554" lon="0.85895">
        <ele>888.60998535</ele>
        <time>2020-10-29T15:01:44Z</time>
      </trkpt>
      <trkpt lat="42.9956" lon="0.859">
        <ele>885.45001221</ele>
        <time>2020-10-29T15:01:46Z</time>
      </trkpt>
      <trkpt lat="42.99563" lon="0.85904">
        <ele>885.45001221</ele>
        <time>2020-10-29T15:01:47Z</time>
      </trkpt>
      <trkpt lat="42.99567" lon="0.85907">
        <ele>882.88000488</ele>
        <time>2020-10-29T15:01:48Z</time>
      </trkpt>
      <trkpt lat="42.99574" lon="0.85915">
        <ele>881.75</ele>
        <time>2020-10-29T15:01:50Z</time>
      </trkpt>
      <trkpt lat="42.99578" lon="0.8592">
        <ele>880.9699707</ele>
        <time>2020-10-29T15:01:51Z</time>
      </trkpt>
      <trkpt lat="42.99584" lon="0.85922">
        <ele>878.53997803</ele>
        <time>2020-10-29T15:01:52Z</time>
      </trkpt>
      <trkpt lat="42.99591" lon="0.85923">
        <ele>876.70001221</ele>
        <time>2020-10-29T15:01:54Z</time>
      </trkpt>
      <trkpt lat="42.99602" lon="0.85925">
        <ele>875.88000488</ele>
        <time>2020-10-29T15:01:55Z</time>
      </trkpt>
      <trkpt lat="42.99604" lon="0.8593">
        <ele>874.9699707</ele>
        <time>2020-10-29T15:01:56Z</time>
      </trkpt>
      <trkpt lat="42.99607" lon="0.85933">
        <ele>873.20001221</ele>
        <time>2020-10-29T15:01:58Z</time>
      </trkpt>
      <trkpt lat="42.9961" lon="0.85938">
        <ele>871.65997314</ele>
        <time>2020-10-29T15:02:00Z</time>
      </trkpt>
      <trkpt lat="42.99612" lon="0.85941">
        <ele>870.52001953</ele>
        <time>2020-10-29T15:02:01Z</time>
      </trkpt>
      <trkpt lat="42.99618" lon="0.85946">
        <ele>869.71002197</ele>
        <time>2020-10-29T15:02:02Z</time>
      </trkpt>
      <trkpt lat="42.99622" lon="0.8595">
        <ele>868.09002686</ele>
        <time>2020-10-29T15:02:03Z</time>
      </trkpt>
      <trkpt lat="42.99626" lon="0.85956">
        <ele>866.96002197</ele>
        <time>2020-10-29T15:02:05Z</time>
      </trkpt>
      <trkpt lat="42.99629" lon="0.8596">
        <ele>865.07000732</ele>
        <time>2020-10-29T15:02:06Z</time>
      </trkpt>
      <trkpt lat="42.99632" lon="0.85966">
        <ele>864.79998779</ele>
        <time>2020-10-29T15:02:07Z</time>
      </trkpt>
      <trkpt lat="42.99635" lon="0.85972">
        <ele>863.98999023</ele>
        <time>2020-10-29T15:02:09Z</time>
      </trkpt>
      <trkpt lat="42.99639" lon="0.85976">
        <ele>861.14001465</ele>
        <time>2020-10-29T15:02:10Z</time>
      </trkpt>
      <trkpt lat="42.99642" lon="0.85979">
        <ele>859.95001221</ele>
        <time>2020-10-29T15:02:11Z</time>
      </trkpt>
      <trkpt lat="42.99645" lon="0.85984">
        <ele>858.36999512</ele>
        <time>2020-10-29T15:02:13Z</time>
      </trkpt>
      <trkpt lat="42.99646" lon="0.85987">
        <ele>858.36999512</ele>
        <time>2020-10-29T15:02:14Z</time>
      </trkpt>
      <trkpt lat="42.99648" lon="0.85992">
        <ele>858.51000977</ele>
        <time>2020-10-29T15:02:15Z</time>
      </trkpt>
      <trkpt lat="42.99651" lon="0.85996">
        <ele>856.59002686</ele>
        <time>2020-10-29T15:02:16Z</time>
      </trkpt>
      <trkpt lat="42.99653" lon="0.85997">
        <ele>855.4699707</ele>
        <time>2020-10-29T15:02:17Z</time>
      </trkpt>
      <trkpt lat="42.99655" lon="0.86">
        <ele>854.13000488</ele>
        <time>2020-10-29T15:02:19Z</time>
      </trkpt>
      <trkpt lat="42.99658" lon="0.86004">
        <ele>852.89001465</ele>
        <time>2020-10-29T15:02:20Z</time>
      </trkpt>
      <trkpt lat="42.99663" lon="0.86009">
        <ele>852.33001709</ele>
        <time>2020-10-29T15:02:22Z</time>
      </trkpt>
      <trkpt lat="42.99667" lon="0.86011">
        <ele>851.85998535</ele>
        <time>2020-10-29T15:02:23Z</time>
      </trkpt>
      <trkpt lat="42.99669" lon="0.86012">
        <ele>851.17999268</ele>
        <time>2020-10-29T15:02:25Z</time>
      </trkpt>
      <trkpt lat="42.99676" lon="0.86025">
        <ele>848</ele>
        <time>2020-10-29T15:02:43Z</time>
      </trkpt>
      <trkpt lat="42.99677" lon="0.86026">
        <ele>846.84997559</ele>
        <time>2020-10-29T15:02:45Z</time>
      </trkpt>
      <trkpt lat="42.9968" lon="0.86028">
        <ele>846.84997559</ele>
        <time>2020-10-29T15:02:46Z</time>
      </trkpt>
      <trkpt lat="42.99686" lon="0.86032">
        <ele>844.85998535</ele>
        <time>2020-10-29T15:02:47Z</time>
      </trkpt>
      <trkpt lat="42.99689" lon="0.86034">
        <ele>844.08001709</ele>
        <time>2020-10-29T15:02:49Z</time>
      </trkpt>
      <trkpt lat="42.99695" lon="0.86037">
        <ele>843.29998779</ele>
        <time>2020-10-29T15:02:50Z</time>
      </trkpt>
      <trkpt lat="42.99698" lon="0.86037">
        <ele>843.09002686</ele>
        <time>2020-10-29T15:02:51Z</time>
      </trkpt>
      <trkpt lat="42.99701" lon="0.86035">
        <ele>842.55999756</ele>
        <time>2020-10-29T15:02:53Z</time>
      </trkpt>
      <trkpt lat="42.99705" lon="0.86033">
        <ele>841.09997559</ele>
        <time>2020-10-29T15:02:54Z</time>
      </trkpt>
      <trkpt lat="42.99709" lon="0.86032">
        <ele>840.36999512</ele>
        <time>2020-10-29T15:02:56Z</time>
      </trkpt>
      <trkpt lat="42.99711" lon="0.86033">
        <ele>837.9699707</ele>
        <time>2020-10-29T15:02:57Z</time>
      </trkpt>
      <trkpt lat="42.99714" lon="0.86033">
        <ele>838.44000244</ele>
        <time>2020-10-29T15:02:59Z</time>
      </trkpt>
      <trkpt lat="42.99718" lon="0.86036">
        <ele>835.98999023</ele>
        <time>2020-10-29T15:03:01Z</time>
      </trkpt>
      <trkpt lat="42.9972" lon="0.86036">
        <ele>834.40997314</ele>
        <time>2020-10-29T15:03:02Z</time>
      </trkpt>
      <trkpt lat="42.99725" lon="0.86037">
        <ele>833.33001709</ele>
        <time>2020-10-29T15:03:03Z</time>
      </trkpt>
      <trkpt lat="42.99727" lon="0.86039">
        <ele>830.67999268</ele>
        <time>2020-10-29T15:03:05Z</time>
      </trkpt>
      <trkpt lat="42.99732" lon="0.86042">
        <ele>829.21002197</ele>
        <time>2020-10-29T15:03:06Z</time>
      </trkpt>
      <trkpt lat="42.99741" lon="0.86049">
        <ele>826.66998291</ele>
        <time>2020-10-29T15:03:08Z</time>
      </trkpt>
      <trkpt lat="42.99744" lon="0.86051">
        <ele>826.66998291</ele>
        <time>2020-10-29T15:03:09Z</time>
      </trkpt>
      <trkpt lat="42.99745" lon="0.86056">
        <ele>824.82000732</ele>
        <time>2020-10-29T15:03:10Z</time>
      </trkpt>
      <trkpt lat="42.99749" lon="0.8606">
        <ele>823.11999512</ele>
        <time>2020-10-29T15:03:11Z</time>
      </trkpt>
      <trkpt lat="42.99753" lon="0.86063">
        <ele>821.92999268</ele>
        <time>2020-10-29T15:03:12Z</time>
      </trkpt>
      <trkpt lat="42.99757" lon="0.86065">
        <ele>816.66998291</ele>
        <time>2020-10-29T15:03:14Z</time>
      </trkpt>
      <trkpt lat="42.99767" lon="0.8607">
        <ele>815.34002686</ele>
        <time>2020-10-29T15:03:15Z</time>
      </trkpt>
      <trkpt lat="42.99772" lon="0.86072">
        <ele>813.71002197</ele>
        <time>2020-10-29T15:03:16Z</time>
      </trkpt>
      <trkpt lat="42.99776" lon="0.86074">
        <ele>812.25</ele>
        <time>2020-10-29T15:03:17Z</time>
      </trkpt>
      <trkpt lat="42.99781" lon="0.86081">
        <ele>809.94000244</ele>
        <time>2020-10-29T15:03:19Z</time>
      </trkpt>
      <trkpt lat="42.99784" lon="0.86084">
        <ele>808.36999512</ele>
        <time>2020-10-29T15:03:20Z</time>
      </trkpt>
      <trkpt lat="42.9979" lon="0.86094">
        <ele>808.45001221</ele>
        <time>2020-10-29T15:03:22Z</time>
      </trkpt>
      <trkpt lat="42.99792" lon="0.86094">
        <ele>805.65997314</ele>
        <time>2020-10-29T15:03:23Z</time>
      </trkpt>
      <trkpt lat="42.99796" lon="0.86095">
        <ele>802.82000732</ele>
        <time>2020-10-29T15:03:24Z</time>
      </trkpt>
      <trkpt lat="42.998" lon="0.86099">
        <ele>801.94000244</ele>
        <time>2020-10-29T15:03:26Z</time>
      </trkpt>
      <trkpt lat="42.99802" lon="0.86101">
        <ele>799.69000244</ele>
        <time>2020-10-29T15:03:27Z</time>
      </trkpt>
      <trkpt lat="42.99804" lon="0.86108">
        <ele>797.02001953</ele>
        <time>2020-10-29T15:03:28Z</time>
      </trkpt>
      <trkpt lat="42.99804" lon="0.86112">
        <ele>795.29998779</ele>
        <time>2020-10-29T15:03:29Z</time>
      </trkpt>
      <trkpt lat="42.99805" lon="0.86116">
        <ele>793.33001709</ele>
        <time>2020-10-29T15:03:30Z</time>
      </trkpt>
      <trkpt lat="42.99806" lon="0.86122">
        <ele>792.17999268</ele>
        <time>2020-10-29T15:03:32Z</time>
      </trkpt>
      <trkpt lat="42.99806" lon="0.86126">
        <ele>791.70001221</ele>
        <time>2020-10-29T15:03:33Z</time>
      </trkpt>
      <trkpt lat="42.99812" lon="0.86139">
        <ele>789.48999023</ele>
        <time>2020-10-29T15:03:34Z</time>
      </trkpt>
      <trkpt lat="42.99816" lon="0.86145">
        <ele>786.35998535</ele>
        <time>2020-10-29T15:03:36Z</time>
      </trkpt>
      <trkpt lat="42.99825" lon="0.86151">
        <ele>784.46002197</ele>
        <time>2020-10-29T15:03:37Z</time>
      </trkpt>
      <trkpt lat="42.99832" lon="0.86151">
        <ele>782.35998535</ele>
        <time>2020-10-29T15:03:38Z</time>
      </trkpt>
      <trkpt lat="42.99837" lon="0.86148">
        <ele>781.59002686</ele>
        <time>2020-10-29T15:03:40Z</time>
      </trkpt>
      <trkpt lat="42.99844" lon="0.86138">
        <ele>776.91998291</ele>
        <time>2020-10-29T15:03:42Z</time>
      </trkpt>
      <trkpt lat="42.99848" lon="0.86134">
        <ele>773.84002686</ele>
        <time>2020-10-29T15:03:43Z</time>
      </trkpt>
      <trkpt lat="42.99855" lon="0.86124">
        <ele>770.7199707</ele>
        <time>2020-10-29T15:03:45Z</time>
      </trkpt>
      <trkpt lat="42.9986" lon="0.86118">
        <ele>767.17999268</ele>
        <time>2020-10-29T15:03:47Z</time>
      </trkpt>
      <trkpt lat="42.99866" lon="0.86115">
        <ele>763.91998291</ele>
        <time>2020-10-29T15:03:48Z</time>
      </trkpt>
      <trkpt lat="42.99873" lon="0.86117">
        <ele>762.5</ele>
        <time>2020-10-29T15:03:50Z</time>
      </trkpt>
      <trkpt lat="42.99876" lon="0.86118">
        <ele>761.46002197</ele>
        <time>2020-10-29T15:03:52Z</time>
      </trkpt>
      <trkpt lat="42.99877" lon="0.8612">
        <ele>758.28997803</ele>
        <time>2020-10-29T15:03:53Z</time>
      </trkpt>
      <trkpt lat="42.99879" lon="0.86122">
        <ele>756.73999023</ele>
        <time>2020-10-29T15:03:54Z</time>
      </trkpt>
      <trkpt lat="42.99881" lon="0.86125">
        <ele>757.40997314</ele>
        <time>2020-10-29T15:03:55Z</time>
      </trkpt>
      <trkpt lat="42.99885" lon="0.86126">
        <ele>760.30999756</ele>
        <time>2020-10-29T15:03:57Z</time>
      </trkpt>
      <trkpt lat="42.99893" lon="0.86125">
        <ele>759.39001465</ele>
        <time>2020-10-29T15:03:58Z</time>
      </trkpt>
      <trkpt lat="42.999" lon="0.86125">
        <ele>756.38000488</ele>
        <time>2020-10-29T15:03:59Z</time>
      </trkpt>
      <trkpt lat="42.99907" lon="0.86132">
        <ele>754.30999756</ele>
        <time>2020-10-29T15:04:01Z</time>
      </trkpt>
      <trkpt lat="42.99912" lon="0.86136">
        <ele>752.33001709</ele>
        <time>2020-10-29T15:04:02Z</time>
      </trkpt>
      <trkpt lat="42.99926" lon="0.86154">
        <ele>748.34002686</ele>
        <time>2020-10-29T15:04:05Z</time>
      </trkpt>
      <trkpt lat="42.9993" lon="0.86162">
        <ele>746.35998535</ele>
        <time>2020-10-29T15:04:06Z</time>
      </trkpt>
      <trkpt lat="42.99938" lon="0.86174">
        <ele>743.98999023</ele>
        <time>2020-10-29T15:04:08Z</time>
      </trkpt>
      <trkpt lat="42.99944" lon="0.86177">
        <ele>742.82000732</ele>
        <time>2020-10-29T15:04:09Z</time>
      </trkpt>
      <trkpt lat="42.99948" lon="0.86182">
        <ele>742.36999512</ele>
        <time>2020-10-29T15:04:10Z</time>
      </trkpt>
      <trkpt lat="42.9995" lon="0.8619">
        <ele>741.07000732</ele>
        <time>2020-10-29T15:04:11Z</time>
      </trkpt>
      <trkpt lat="42.99951" lon="0.86199">
        <ele>740.40002441</ele>
        <time>2020-10-29T15:04:12Z</time>
      </trkpt>
      <trkpt lat="42.99953" lon="0.86213">
        <ele>738.29998779</ele>
        <time>2020-10-29T15:04:14Z</time>
      </trkpt>
      <trkpt lat="42.99955" lon="0.86221">
        <ele>737.69000244</ele>
        <time>2020-10-29T15:04:15Z</time>
      </trkpt>
      <trkpt lat="42.9996" lon="0.86238">
        <ele>736.59002686</ele>
        <time>2020-10-29T15:04:17Z</time>
      </trkpt>
      <trkpt lat="42.99966" lon="0.86258">
        <ele>733.16998291</ele>
        <time>2020-10-29T15:04:19Z</time>
      </trkpt>
      <trkpt lat="42.99971" lon="0.86268">
        <ele>734.13000488</ele>
        <time>2020-10-29T15:04:20Z</time>
      </trkpt>
      <trkpt lat="42.99978" lon="0.8628">
        <ele>732.73999023</ele>
        <time>2020-10-29T15:04:21Z</time>
      </trkpt>
      <trkpt lat="42.99993" lon="0.86302">
        <ele>729.39001465</ele>
        <time>2020-10-29T15:04:23Z</time>
      </trkpt>
      <trkpt lat="43.00004" lon="0.86323">
        <ele>726.34002686</ele>
        <time>2020-10-29T15:04:25Z</time>
      </trkpt>
      <trkpt lat="43.00007" lon="0.86334">
        <ele>722.70001221</ele>
        <time>2020-10-29T15:04:26Z</time>
      </trkpt>
      <trkpt lat="43.00013" lon="0.86358">
        <ele>720.47998047</ele>
        <time>2020-10-29T15:04:28Z</time>
      </trkpt>
      <trkpt lat="43.0002" lon="0.86377">
        <ele>719.32000732</ele>
        <time>2020-10-29T15:04:30Z</time>
      </trkpt>
      <trkpt lat="43.00038" lon="0.86398">
        <ele>717.2199707</ele>
        <time>2020-10-29T15:04:32Z</time>
      </trkpt>
      <trkpt lat="43.00057" lon="0.86418">
        <ele>715.28997803</ele>
        <time>2020-10-29T15:04:34Z</time>
      </trkpt>
      <trkpt lat="43.00074" lon="0.86434">
        <ele>712.67999268</ele>
        <time>2020-10-29T15:04:36Z</time>
      </trkpt>
      <trkpt lat="43.00078" lon="0.86444">
        <ele>711.75</ele>
        <time>2020-10-29T15:04:37Z</time>
      </trkpt>
      <trkpt lat="43.00107" lon="0.86468">
        <ele>710.76000977</ele>
        <time>2020-10-29T15:04:39Z</time>
      </trkpt>
      <trkpt lat="43.00119" lon="0.8649">
        <ele>708.9699707</ele>
        <time>2020-10-29T15:04:41Z</time>
      </trkpt>
      <trkpt lat="43.00129" lon="0.86511">
        <ele>708.65002441</ele>
        <time>2020-10-29T15:04:43Z</time>
      </trkpt>
      <trkpt lat="43.00139" lon="0.86528">
        <ele>708.76000977</ele>
        <time>2020-10-29T15:04:45Z</time>
      </trkpt>
      <trkpt lat="43.00145" lon="0.86535">
        <ele>708.78997803</ele>
        <time>2020-10-29T15:04:46Z</time>
      </trkpt>
      <trkpt lat="43.00155" lon="0.8655">
        <ele>707.08001709</ele>
        <time>2020-10-29T15:04:48Z</time>
      </trkpt>
      <trkpt lat="43.0016" lon="0.86558">
        <ele>706.16998291</ele>
        <time>2020-10-29T15:04:49Z</time>
      </trkpt>
      <trkpt lat="43.00169" lon="0.86574">
        <ele>704.08001709</ele>
        <time>2020-10-29T15:04:51Z</time>
      </trkpt>
      <trkpt lat="43.00177" lon="0.86592">
        <ele>702.2199707</ele>
        <time>2020-10-29T15:04:53Z</time>
      </trkpt>
      <trkpt lat="43.00184" lon="0.86615">
        <ele>700.65997314</ele>
        <time>2020-10-29T15:04:55Z</time>
      </trkpt>
      <trkpt lat="43.0019" lon="0.86627">
        <ele>698.9699707</ele>
        <time>2020-10-29T15:04:56Z</time>
      </trkpt>
      <trkpt lat="43.00203" lon="0.86649">
        <ele>696.13000488</ele>
        <time>2020-10-29T15:04:58Z</time>
      </trkpt>
      <trkpt lat="43.00214" lon="0.86669">
        <ele>692.63000488</ele>
        <time>2020-10-29T15:05:00Z</time>
      </trkpt>
      <trkpt lat="43.0022" lon="0.86679">
        <ele>690.9699707</ele>
        <time>2020-10-29T15:05:01Z</time>
      </trkpt>
      <trkpt lat="43.00231" lon="0.86701">
        <ele>686.26000977</ele>
        <time>2020-10-29T15:05:03Z</time>
      </trkpt>
      <trkpt lat="43.00239" lon="0.86728">
        <ele>682.52001953</ele>
        <time>2020-10-29T15:05:05Z</time>
      </trkpt>
      <trkpt lat="43.00245" lon="0.86741">
        <ele>678.82000732</ele>
        <time>2020-10-29T15:05:06Z</time>
      </trkpt>
      <trkpt lat="43.00255" lon="0.86762">
        <ele>676.04998779</ele>
        <time>2020-10-29T15:05:08Z</time>
      </trkpt>
      <trkpt lat="43.00259" lon="0.86768">
        <ele>674.35998535</ele>
        <time>2020-10-29T15:05:09Z</time>
      </trkpt>
      <trkpt lat="43.0026" lon="0.8677">
        <ele>673.15997314</ele>
        <time>2020-10-29T15:05:10Z</time>
      </trkpt>
      <trkpt lat="43.0026" lon="0.86769">
        <ele>671.42999268</ele>
        <time>2020-10-29T15:05:12Z</time>
      </trkpt>
      <trkpt lat="43.00259" lon="0.8677">
        <ele>670.71002197</ele>
        <time>2020-10-29T15:05:13Z</time>
      </trkpt>
      <trkpt lat="43.0026" lon="0.8677">
        <ele>670.48999023</ele>
        <time>2020-10-29T15:05:14Z</time>
      </trkpt>
      <trkpt lat="43.00261" lon="0.86764">
        <ele>670.47998047</ele>
        <time>2020-10-29T15:05:16Z</time>
      </trkpt>
      <trkpt lat="43.00261" lon="0.86764">
        <ele>670.26000977</ele>
        <time>2020-10-29T15:05:17Z</time>
      </trkpt>
      <trkpt lat="43.00262" lon="0.8676">
        <ele>670.23999023</ele>
        <time>2020-10-29T15:05:19Z</time>
      </trkpt>
      <trkpt lat="43.00262" lon="0.86756">
        <ele>670.30999756</ele>
        <time>2020-10-29T15:05:20Z</time>
      </trkpt>
      <trkpt lat="43.00263" lon="0.8675">
        <ele>670.34997559</ele>
        <time>2020-10-29T15:05:21Z</time>
      </trkpt>
      <trkpt lat="43.00263" lon="0.86745">
        <ele>670.5</ele>
        <time>2020-10-29T15:05:22Z</time>
      </trkpt>
      <trkpt lat="43.00264" lon="0.8674">
        <ele>670.88000488</ele>
        <time>2020-10-29T15:05:23Z</time>
      </trkpt>
      <trkpt lat="43.00264" lon="0.86729">
        <ele>672.15997314</ele>
        <time>2020-10-29T15:05:26Z</time>
      </trkpt>
      <trkpt lat="43.00264" lon="0.86719">
        <ele>673.2800293</ele>
        <time>2020-10-29T15:05:28Z</time>
      </trkpt>
      <trkpt lat="43.00264" lon="0.86715">
        <ele>673.2800293</ele>
        <time>2020-10-29T15:05:29Z</time>
      </trkpt>
      <trkpt lat="43.00263" lon="0.86708">
        <ele>674.55999756</ele>
        <time>2020-10-29T15:05:30Z</time>
      </trkpt>
      <trkpt lat="43.00263" lon="0.86701">
        <ele>674.7800293</ele>
        <time>2020-10-29T15:05:32Z</time>
      </trkpt>
      <trkpt lat="43.00262" lon="0.86694">
        <ele>675.38000488</ele>
        <time>2020-10-29T15:05:33Z</time>
      </trkpt>
      <trkpt lat="43.00261" lon="0.86688">
        <ele>675.98999023</ele>
        <time>2020-10-29T15:05:35Z</time>
      </trkpt>
      <trkpt lat="43.00261" lon="0.86681">
        <ele>676.59002686</ele>
        <time>2020-10-29T15:05:36Z</time>
      </trkpt>
      <trkpt lat="43.0026" lon="0.86676">
        <ele>677.21002197</ele>
        <time>2020-10-29T15:05:37Z</time>
      </trkpt>
      <trkpt lat="43.00259" lon="0.86671">
        <ele>678.14001465</ele>
        <time>2020-10-29T15:05:39Z</time>
      </trkpt>
      <trkpt lat="43.00258" lon="0.86667">
        <ele>677.92999268</ele>
        <time>2020-10-29T15:05:40Z</time>
      </trkpt>
      <trkpt lat="43.00257" lon="0.86661">
        <ele>677.83001709</ele>
        <time>2020-10-29T15:05:42Z</time>
      </trkpt>
      <trkpt lat="43.00256" lon="0.86657">
        <ele>679.40997314</ele>
        <time>2020-10-29T15:05:43Z</time>
      </trkpt>
      <trkpt lat="43.00254" lon="0.86652">
        <ele>679.42999268</ele>
        <time>2020-10-29T15:05:44Z</time>
      </trkpt>
      <trkpt lat="43.00253" lon="0.86647">
        <ele>679.65002441</ele>
        <time>2020-10-29T15:05:45Z</time>
      </trkpt>
      <trkpt lat="43.00252" lon="0.86642">
        <ele>679.91998291</ele>
        <time>2020-10-29T15:05:46Z</time>
      </trkpt>
      <trkpt lat="43.00251" lon="0.86638">
        <ele>680.16998291</ele>
        <time>2020-10-29T15:05:47Z</time>
      </trkpt>
      <trkpt lat="43.0025" lon="0.86632">
        <ele>680.57000732</ele>
        <time>2020-10-29T15:05:49Z</time>
      </trkpt>
      <trkpt lat="43.00249" lon="0.86626">
        <ele>681.14001465</ele>
        <time>2020-10-29T15:05:50Z</time>
      </trkpt>
      <trkpt lat="43.00249" lon="0.8662">
        <ele>681.05999756</ele>
        <time>2020-10-29T15:05:51Z</time>
      </trkpt>
      <trkpt lat="43.00248" lon="0.86615">
        <ele>681.35998535</ele>
        <time>2020-10-29T15:05:52Z</time>
      </trkpt>
      <trkpt lat="43.00248" lon="0.8661">
        <ele>681.08001709</ele>
        <time>2020-10-29T15:05:54Z</time>
      </trkpt>
      <trkpt lat="43.00247" lon="0.86603">
        <ele>681.10998535</ele>
        <time>2020-10-29T15:05:55Z</time>
      </trkpt>
      <trkpt lat="43.00246" lon="0.86598">
        <ele>679.46002197</ele>
        <time>2020-10-29T15:05:57Z</time>
      </trkpt>
      <trkpt lat="43.00245" lon="0.86594">
        <ele>679.36999512</ele>
        <time>2020-10-29T15:05:58Z</time>
      </trkpt>
      <trkpt lat="43.00243" lon="0.86588">
        <ele>680.0300293</ele>
        <time>2020-10-29T15:05:59Z</time>
      </trkpt>
      <trkpt lat="43.00242" lon="0.86582">
        <ele>680.03997803</ele>
        <time>2020-10-29T15:06:00Z</time>
      </trkpt>
      <trkpt lat="43.0024" lon="0.86578">
        <ele>680.15002441</ele>
        <time>2020-10-29T15:06:02Z</time>
      </trkpt>
      <trkpt lat="43.00237" lon="0.86572">
        <ele>680.44000244</ele>
        <time>2020-10-29T15:06:03Z</time>
      </trkpt>
      <trkpt lat="43.00235" lon="0.86566">
        <ele>681.66998291</ele>
        <time>2020-10-29T15:06:05Z</time>
      </trkpt>
      <trkpt lat="43.00232" lon="0.8656">
        <ele>680.75</ele>
        <time>2020-10-29T15:06:06Z</time>
      </trkpt>
      <trkpt lat="43.0023" lon="0.86555">
        <ele>680.40997314</ele>
        <time>2020-10-29T15:06:07Z</time>
      </trkpt>
      <trkpt lat="43.00228" lon="0.8655">
        <ele>680.5300293</ele>
        <time>2020-10-29T15:06:09Z</time>
      </trkpt>
      <trkpt lat="43.00224" lon="0.86542">
        <ele>680.54998779</ele>
        <time>2020-10-29T15:06:11Z</time>
      </trkpt>
      <trkpt lat="43.0022" lon="0.86535">
        <ele>680.15002441</ele>
        <time>2020-10-29T15:06:13Z</time>
      </trkpt>
      <trkpt lat="43.00216" lon="0.86528">
        <ele>680.55999756</ele>
        <time>2020-10-29T15:06:14Z</time>
      </trkpt>
      <trkpt lat="43.00212" lon="0.86522">
        <ele>680.83001709</ele>
        <time>2020-10-29T15:06:16Z</time>
      </trkpt>
      <trkpt lat="43.0021" lon="0.86517">
        <ele>681.39001465</ele>
        <time>2020-10-29T15:06:17Z</time>
      </trkpt>
      <trkpt lat="43.00207" lon="0.86513">
        <ele>682.07000732</ele>
        <time>2020-10-29T15:06:18Z</time>
      </trkpt>
      <trkpt lat="43.00206" lon="0.86508">
        <ele>682.07000732</ele>
        <time>2020-10-29T15:06:20Z</time>
      </trkpt>
      <trkpt lat="43.00202" lon="0.86502">
        <ele>682.39001465</ele>
        <time>2020-10-29T15:06:21Z</time>
      </trkpt>
      <trkpt lat="43.00199" lon="0.86496">
        <ele>682.59997559</ele>
        <time>2020-10-29T15:06:23Z</time>
      </trkpt>
      <trkpt lat="43.00196" lon="0.8649">
        <ele>683.02001953</ele>
        <time>2020-10-29T15:06:24Z</time>
      </trkpt>
      <trkpt lat="43.00194" lon="0.86485">
        <ele>682.69000244</ele>
        <time>2020-10-29T15:06:26Z</time>
      </trkpt>
      <trkpt lat="43.00191" lon="0.8648">
        <ele>682.63000488</ele>
        <time>2020-10-29T15:06:27Z</time>
      </trkpt>
      <trkpt lat="43.00188" lon="0.86475">
        <ele>682.39001465</ele>
        <time>2020-10-29T15:06:28Z</time>
      </trkpt>
      <trkpt lat="43.00186" lon="0.8647">
        <ele>682.96002197</ele>
        <time>2020-10-29T15:06:29Z</time>
      </trkpt>
      <trkpt lat="43.00184" lon="0.86467">
        <ele>682.65002441</ele>
        <time>2020-10-29T15:06:31Z</time>
      </trkpt>
      <trkpt lat="43.00182" lon="0.86462">
        <ele>683.15002441</ele>
        <time>2020-10-29T15:06:32Z</time>
      </trkpt>
      <trkpt lat="43.00179" lon="0.86456">
        <ele>683.29998779</ele>
        <time>2020-10-29T15:06:34Z</time>
      </trkpt>
      <trkpt lat="43.00176" lon="0.86447">
        <ele>683.36999512</ele>
        <time>2020-10-29T15:06:35Z</time>
      </trkpt>
      <trkpt lat="43.00173" lon="0.86441">
        <ele>683.65002441</ele>
        <time>2020-10-29T15:06:37Z</time>
      </trkpt>
      <trkpt lat="43.00171" lon="0.86436">
        <ele>683.91998291</ele>
        <time>2020-10-29T15:06:38Z</time>
      </trkpt>
      <trkpt lat="43.00169" lon="0.86432">
        <ele>683.46002197</ele>
        <time>2020-10-29T15:06:40Z</time>
      </trkpt>
      <trkpt lat="43.00168" lon="0.86429">
        <ele>683.46002197</ele>
        <time>2020-10-29T15:06:41Z</time>
      </trkpt>
      <trkpt lat="43.00167" lon="0.86423">
        <ele>683.88000488</ele>
        <time>2020-10-29T15:06:42Z</time>
      </trkpt>
      <trkpt lat="43.00164" lon="0.86416">
        <ele>683.85998535</ele>
        <time>2020-10-29T15:06:44Z</time>
      </trkpt>
      <trkpt lat="43.00163" lon="0.8641">
        <ele>683.85998535</ele>
        <time>2020-10-29T15:06:45Z</time>
      </trkpt>
      <trkpt lat="43.00159" lon="0.86399">
        <ele>684.65002441</ele>
        <time>2020-10-29T15:06:46Z</time>
      </trkpt>
      <trkpt lat="43.00158" lon="0.86393">
        <ele>684.90002441</ele>
        <time>2020-10-29T15:06:48Z</time>
      </trkpt>
      <trkpt lat="43.00155" lon="0.86383">
        <ele>685.33001709</ele>
        <time>2020-10-29T15:06:50Z</time>
      </trkpt>
      <trkpt lat="43.00151" lon="0.86374">
        <ele>685.88000488</ele>
        <time>2020-10-29T15:06:51Z</time>
      </trkpt>
      <trkpt lat="43.00149" lon="0.86365">
        <ele>686.26000977</ele>
        <time>2020-10-29T15:06:53Z</time>
      </trkpt>
      <trkpt lat="43.00147" lon="0.86356">
        <ele>686.70001221</ele>
        <time>2020-10-29T15:06:55Z</time>
      </trkpt>
      <trkpt lat="43.00144" lon="0.86348">
        <ele>686.75</ele>
        <time>2020-10-29T15:06:56Z</time>
      </trkpt>
      <trkpt lat="43.00142" lon="0.86344">
        <ele>687.03997803</ele>
        <time>2020-10-29T15:06:57Z</time>
      </trkpt>
      <trkpt lat="43.00141" lon="0.8634">
        <ele>686.84002686</ele>
        <time>2020-10-29T15:06:59Z</time>
      </trkpt>
      <trkpt lat="43.00139" lon="0.86333">
        <ele>687.02001953</ele>
        <time>2020-10-29T15:07:00Z</time>
      </trkpt>
      <trkpt lat="43.00136" lon="0.86328">
        <ele>686.75</ele>
        <time>2020-10-29T15:07:01Z</time>
      </trkpt>
      <trkpt lat="43.00135" lon="0.86323">
        <ele>686.70001221</ele>
        <time>2020-10-29T15:07:03Z</time>
      </trkpt>
      <trkpt lat="43.00133" lon="0.86319">
        <ele>686.70001221</ele>
        <time>2020-10-29T15:07:04Z</time>
      </trkpt>
      <trkpt lat="43.0013" lon="0.86312">
        <ele>687.13000488</ele>
        <time>2020-10-29T15:07:05Z</time>
      </trkpt>
      <trkpt lat="43.00128" lon="0.86307">
        <ele>687.5</ele>
        <time>2020-10-29T15:07:06Z</time>
      </trkpt>
      <trkpt lat="43.00126" lon="0.86302">
        <ele>687.65002441</ele>
        <time>2020-10-29T15:07:08Z</time>
      </trkpt>
      <trkpt lat="43.00124" lon="0.86295">
        <ele>688.23999023</ele>
        <time>2020-10-29T15:07:09Z</time>
      </trkpt>
      <trkpt lat="43.00122" lon="0.8629">
        <ele>688.39001465</ele>
        <time>2020-10-29T15:07:11Z</time>
      </trkpt>
      <trkpt lat="43.00119" lon="0.86283">
        <ele>688.40997314</ele>
        <time>2020-10-29T15:07:12Z</time>
      </trkpt>
      <trkpt lat="43.00117" lon="0.86277">
        <ele>688.65002441</ele>
        <time>2020-10-29T15:07:13Z</time>
      </trkpt>
      <trkpt lat="43.00116" lon="0.86273">
        <ele>688.73999023</ele>
        <time>2020-10-29T15:07:15Z</time>
      </trkpt>
      <trkpt lat="43.00114" lon="0.86267">
        <ele>688.07000732</ele>
        <time>2020-10-29T15:07:16Z</time>
      </trkpt>
      <trkpt lat="43.00113" lon="0.86261">
        <ele>689.4699707</ele>
        <time>2020-10-29T15:07:18Z</time>
      </trkpt>
      <trkpt lat="43.00112" lon="0.86257">
        <ele>689.08001709</ele>
        <time>2020-10-29T15:07:19Z</time>
      </trkpt>
      <trkpt lat="43.00111" lon="0.86253">
        <ele>688.96002197</ele>
        <time>2020-10-29T15:07:20Z</time>
      </trkpt>
      <trkpt lat="43.0011" lon="0.86247">
        <ele>689.21002197</ele>
        <time>2020-10-29T15:07:21Z</time>
      </trkpt>
      <trkpt lat="43.0011" lon="0.86243">
        <ele>689.66998291</ele>
        <time>2020-10-29T15:07:23Z</time>
      </trkpt>
      <trkpt lat="43.00109" lon="0.86236">
        <ele>689.45001221</ele>
        <time>2020-10-29T15:07:24Z</time>
      </trkpt>
      <trkpt lat="43.00108" lon="0.8623">
        <ele>689.88000488</ele>
        <time>2020-10-29T15:07:25Z</time>
      </trkpt>
      <trkpt lat="43.00107" lon="0.86225">
        <ele>690.03997803</ele>
        <time>2020-10-29T15:07:27Z</time>
      </trkpt>
      <trkpt lat="43.00107" lon="0.86221">
        <ele>690.03997803</ele>
        <time>2020-10-29T15:07:28Z</time>
      </trkpt>
      <trkpt lat="43.00106" lon="0.86214">
        <ele>689.76000977</ele>
        <time>2020-10-29T15:07:29Z</time>
      </trkpt>
      <trkpt lat="43.00105" lon="0.8621">
        <ele>689.16998291</ele>
        <time>2020-10-29T15:07:30Z</time>
      </trkpt>
      <trkpt lat="43.00104" lon="0.86205">
        <ele>689.39001465</ele>
        <time>2020-10-29T15:07:31Z</time>
      </trkpt>
      <trkpt lat="43.00104" lon="0.86201">
        <ele>690.90997314</ele>
        <time>2020-10-29T15:07:33Z</time>
      </trkpt>
      <trkpt lat="43.00105" lon="0.86193">
        <ele>690.83001709</ele>
        <time>2020-10-29T15:07:35Z</time>
      </trkpt>
      <trkpt lat="43.00105" lon="0.86187">
        <ele>690.41998291</ele>
        <time>2020-10-29T15:07:36Z</time>
      </trkpt>
      <trkpt lat="43.00107" lon="0.8618">
        <ele>690.78997803</ele>
        <time>2020-10-29T15:07:37Z</time>
      </trkpt>
      <trkpt lat="43.00108" lon="0.86173">
        <ele>690.88000488</ele>
        <time>2020-10-29T15:07:39Z</time>
      </trkpt>
      <trkpt lat="43.00109" lon="0.86166">
        <ele>692.67999268</ele>
        <time>2020-10-29T15:07:40Z</time>
      </trkpt>
      <trkpt lat="43.0011" lon="0.8616">
        <ele>691.89001465</ele>
        <time>2020-10-29T15:07:42Z</time>
      </trkpt>
      <trkpt lat="43.0011" lon="0.86153">
        <ele>691.88000488</ele>
        <time>2020-10-29T15:07:43Z</time>
      </trkpt>
      <trkpt lat="43.00111" lon="0.86148">
        <ele>691.84997559</ele>
        <time>2020-10-29T15:07:44Z</time>
      </trkpt>
      <trkpt lat="43.00112" lon="0.86144">
        <ele>691.40997314</ele>
        <time>2020-10-29T15:07:46Z</time>
      </trkpt>
      <trkpt lat="43.00113" lon="0.86139">
        <ele>691.2800293</ele>
        <time>2020-10-29T15:07:47Z</time>
      </trkpt>
      <trkpt lat="43.00114" lon="0.86134">
        <ele>691.82000732</ele>
        <time>2020-10-29T15:07:48Z</time>
      </trkpt>
      <trkpt lat="43.00115" lon="0.86129">
        <ele>692.40002441</ele>
        <time>2020-10-29T15:07:50Z</time>
      </trkpt>
      <trkpt lat="43.00116" lon="0.86121">
        <ele>692.16998291</ele>
        <time>2020-10-29T15:07:51Z</time>
      </trkpt>
      <trkpt lat="43.00116" lon="0.86117">
        <ele>692.10998535</ele>
        <time>2020-10-29T15:07:52Z</time>
      </trkpt>
      <trkpt lat="43.00117" lon="0.8611">
        <ele>692.71002197</ele>
        <time>2020-10-29T15:07:54Z</time>
      </trkpt>
      <trkpt lat="43.00117" lon="0.86105">
        <ele>692.4699707</ele>
        <time>2020-10-29T15:07:55Z</time>
      </trkpt>
      <trkpt lat="43.00118" lon="0.86099">
        <ele>692.60998535</ele>
        <time>2020-10-29T15:07:56Z</time>
      </trkpt>
      <trkpt lat="43.0012" lon="0.86092">
        <ele>692.45001221</ele>
        <time>2020-10-29T15:07:58Z</time>
      </trkpt>
      <trkpt lat="43.00121" lon="0.86086">
        <ele>691.69000244</ele>
        <time>2020-10-29T15:07:59Z</time>
      </trkpt>
      <trkpt lat="43.00122" lon="0.86083">
        <ele>691.76000977</ele>
        <time>2020-10-29T15:08:00Z</time>
      </trkpt>
      <trkpt lat="43.00122" lon="0.86077">
        <ele>691.95001221</ele>
        <time>2020-10-29T15:08:02Z</time>
      </trkpt>
      <trkpt lat="43.00122" lon="0.86074">
        <ele>692.15002441</ele>
        <time>2020-10-29T15:08:04Z</time>
      </trkpt>
      <trkpt lat="43.00122" lon="0.8607">
        <ele>692.61999512</ele>
        <time>2020-10-29T15:08:05Z</time>
      </trkpt>
      <trkpt lat="43.00122" lon="0.86066">
        <ele>692.58001709</ele>
        <time>2020-10-29T15:08:06Z</time>
      </trkpt>
      <trkpt lat="43.00122" lon="0.86063">
        <ele>692.78997803</ele>
        <time>2020-10-29T15:08:08Z</time>
      </trkpt>
      <trkpt lat="43.00121" lon="0.86058">
        <ele>691.52001953</ele>
        <time>2020-10-29T15:08:09Z</time>
      </trkpt>
      <trkpt lat="43.0012" lon="0.86053">
        <ele>691.9699707</ele>
        <time>2020-10-29T15:08:10Z</time>
      </trkpt>
      <trkpt lat="43.00119" lon="0.86047">
        <ele>692.53997803</ele>
        <time>2020-10-29T15:08:12Z</time>
      </trkpt>
      <trkpt lat="43.00116" lon="0.86038">
        <ele>692.82000732</ele>
        <time>2020-10-29T15:08:13Z</time>
      </trkpt>
      <trkpt lat="43.00115" lon="0.86033">
        <ele>692.59997559</ele>
        <time>2020-10-29T15:08:14Z</time>
      </trkpt>
      <trkpt lat="43.00114" lon="0.86027">
        <ele>693.94000244</ele>
        <time>2020-10-29T15:08:16Z</time>
      </trkpt>
      <trkpt lat="43.00111" lon="0.8602">
        <ele>693.80999756</ele>
        <time>2020-10-29T15:08:17Z</time>
      </trkpt>
      <trkpt lat="43.00107" lon="0.86011">
        <ele>694.64001465</ele>
        <time>2020-10-29T15:08:18Z</time>
      </trkpt>
      <trkpt lat="43.00103" lon="0.86006">
        <ele>695.07000732</ele>
        <time>2020-10-29T15:08:19Z</time>
      </trkpt>
      <trkpt lat="43.001" lon="0.86">
        <ele>694.83001709</ele>
        <time>2020-10-29T15:08:20Z</time>
      </trkpt>
      <trkpt lat="43.00095" lon="0.85993">
        <ele>695.64001465</ele>
        <time>2020-10-29T15:08:22Z</time>
      </trkpt>
      <trkpt lat="43.0009" lon="0.85985">
        <ele>696.03997803</ele>
        <time>2020-10-29T15:08:23Z</time>
      </trkpt>
      <trkpt lat="43.00085" lon="0.85979">
        <ele>696.11999512</ele>
        <time>2020-10-29T15:08:24Z</time>
      </trkpt>
      <trkpt lat="43.00078" lon="0.85972">
        <ele>696.48999023</ele>
        <time>2020-10-29T15:08:26Z</time>
      </trkpt>
      <trkpt lat="43.00073" lon="0.85967">
        <ele>696.36999512</ele>
        <time>2020-10-29T15:08:27Z</time>
      </trkpt>
      <trkpt lat="43.0007" lon="0.85963">
        <ele>696.09997559</ele>
        <time>2020-10-29T15:08:29Z</time>
      </trkpt>
      <trkpt lat="43.00068" lon="0.85961">
        <ele>696.09997559</ele>
        <time>2020-10-29T15:08:30Z</time>
      </trkpt>
      <trkpt lat="43.00064" lon="0.85956">
        <ele>697.2199707</ele>
        <time>2020-10-29T15:08:31Z</time>
      </trkpt>
      <trkpt lat="43.0006" lon="0.85952">
        <ele>696.59002686</ele>
        <time>2020-10-29T15:08:33Z</time>
      </trkpt>
      <trkpt lat="43.00057" lon="0.85947">
        <ele>696.90997314</ele>
        <time>2020-10-29T15:08:34Z</time>
      </trkpt>
      <trkpt lat="43.00054" lon="0.85945">
        <ele>697.22998047</ele>
        <time>2020-10-29T15:08:35Z</time>
      </trkpt>
      <trkpt lat="43.00052" lon="0.85942">
        <ele>697.76000977</ele>
        <time>2020-10-29T15:08:37Z</time>
      </trkpt>
      <trkpt lat="43.0005" lon="0.85939">
        <ele>698.64001465</ele>
        <time>2020-10-29T15:08:38Z</time>
      </trkpt>
      <trkpt lat="43.00048" lon="0.85935">
        <ele>699.02001953</ele>
        <time>2020-10-29T15:08:39Z</time>
      </trkpt>
      <trkpt lat="43.00045" lon="0.85931">
        <ele>699.20001221</ele>
        <time>2020-10-29T15:08:40Z</time>
      </trkpt>
      <trkpt lat="43.00042" lon="0.85927">
        <ele>698.55999756</ele>
        <time>2020-10-29T15:08:41Z</time>
      </trkpt>
      <trkpt lat="43.00041" lon="0.85925">
        <ele>699.20001221</ele>
        <time>2020-10-29T15:08:43Z</time>
      </trkpt>
      <trkpt lat="43.00038" lon="0.85921">
        <ele>699</ele>
        <time>2020-10-29T15:08:44Z</time>
      </trkpt>
      <trkpt lat="43.00036" lon="0.85919">
        <ele>699.09997559</ele>
        <time>2020-10-29T15:08:45Z</time>
      </trkpt>
      <trkpt lat="43.00033" lon="0.85914">
        <ele>698.89001465</ele>
        <time>2020-10-29T15:08:47Z</time>
      </trkpt>
      <trkpt lat="43.00031" lon="0.85911">
        <ele>698.45001221</ele>
        <time>2020-10-29T15:08:48Z</time>
      </trkpt>
      <trkpt lat="43.00029" lon="0.85907">
        <ele>698.40997314</ele>
        <time>2020-10-29T15:08:49Z</time>
      </trkpt>
      <trkpt lat="43.00027" lon="0.85904">
        <ele>698.67999268</ele>
        <time>2020-10-29T15:08:51Z</time>
      </trkpt>
      <trkpt lat="43.00023" lon="0.85898">
        <ele>700.76000977</ele>
        <time>2020-10-29T15:08:53Z</time>
      </trkpt>
      <trkpt lat="43.0002" lon="0.85892">
        <ele>699.7800293</ele>
        <time>2020-10-29T15:08:54Z</time>
      </trkpt>
      <trkpt lat="43.00017" lon="0.85888">
        <ele>700.32000732</ele>
        <time>2020-10-29T15:08:55Z</time>
      </trkpt>
      <trkpt lat="43.00015" lon="0.85885">
        <ele>700.15002441</ele>
        <time>2020-10-29T15:08:57Z</time>
      </trkpt>
      <trkpt lat="43.00013" lon="0.85882">
        <ele>700.15002441</ele>
        <time>2020-10-29T15:08:58Z</time>
      </trkpt>
      <trkpt lat="43.00009" lon="0.85877">
        <ele>698.80999756</ele>
        <time>2020-10-29T15:08:59Z</time>
      </trkpt>
      <trkpt lat="43.00007" lon="0.85873">
        <ele>698.40002441</ele>
        <time>2020-10-29T15:09:00Z</time>
      </trkpt>
      <trkpt lat="43.00004" lon="0.85869">
        <ele>698.09997559</ele>
        <time>2020-10-29T15:09:02Z</time>
      </trkpt>
      <trkpt lat="43.00001" lon="0.85863">
        <ele>697.15997314</ele>
        <time>2020-10-29T15:09:03Z</time>
      </trkpt>
      <trkpt lat="42.99999" lon="0.85859">
        <ele>697.40997314</ele>
        <time>2020-10-29T15:09:04Z</time>
      </trkpt>
      <trkpt lat="42.99997" lon="0.85852">
        <ele>697.21002197</ele>
        <time>2020-10-29T15:09:05Z</time>
      </trkpt>
      <trkpt lat="42.99994" lon="0.85846">
        <ele>697.73999023</ele>
        <time>2020-10-29T15:09:06Z</time>
      </trkpt>
      <trkpt lat="42.99989" lon="0.85835">
        <ele>697.40002441</ele>
        <time>2020-10-29T15:09:08Z</time>
      </trkpt>
      <trkpt lat="42.99987" lon="0.85831">
        <ele>694.9699707</ele>
        <time>2020-10-29T15:09:10Z</time>
      </trkpt>
      <trkpt lat="42.99984" lon="0.85826">
        <ele>694.9699707</ele>
        <time>2020-10-29T15:09:11Z</time>
      </trkpt>
      <trkpt lat="42.99978" lon="0.85819">
        <ele>695.08001709</ele>
        <time>2020-10-29T15:09:13Z</time>
      </trkpt>
      <trkpt lat="42.99974" lon="0.85814">
        <ele>695.05999756</ele>
        <time>2020-10-29T15:09:14Z</time>
      </trkpt>
      <trkpt lat="42.9997" lon="0.85809">
        <ele>694.53997803</ele>
        <time>2020-10-29T15:09:15Z</time>
      </trkpt>
      <trkpt lat="42.99967" lon="0.85805">
        <ele>695.34997559</ele>
        <time>2020-10-29T15:09:16Z</time>
      </trkpt>
      <trkpt lat="42.99965" lon="0.85802">
        <ele>696.04998779</ele>
        <time>2020-10-29T15:09:17Z</time>
      </trkpt>
      <trkpt lat="42.99964" lon="0.85798">
        <ele>695.75</ele>
        <time>2020-10-29T15:09:19Z</time>
      </trkpt>
      <trkpt lat="42.99962" lon="0.85792">
        <ele>694.97998047</ele>
        <time>2020-10-29T15:09:20Z</time>
      </trkpt>
      <trkpt lat="42.9996" lon="0.85787">
        <ele>693.14001465</ele>
        <time>2020-10-29T15:09:22Z</time>
      </trkpt>
      <trkpt lat="42.99958" lon="0.85783">
        <ele>694.45001221</ele>
        <time>2020-10-29T15:09:23Z</time>
      </trkpt>
      <trkpt lat="42.99956" lon="0.8578">
        <ele>694.38000488</ele>
        <time>2020-10-29T15:09:25Z</time>
      </trkpt>
      <trkpt lat="42.99955" lon="0.85778">
        <ele>694.38000488</ele>
        <time>2020-10-29T15:09:26Z</time>
      </trkpt>
      <trkpt lat="42.99955" lon="0.85776">
        <ele>695.15002441</ele>
        <time>2020-10-29T15:09:27Z</time>
      </trkpt>
      <trkpt lat="42.99954" lon="0.85771">
        <ele>696.47998047</ele>
        <time>2020-10-29T15:09:29Z</time>
      </trkpt>
      <trkpt lat="42.99952" lon="0.85767">
        <ele>696.47998047</ele>
        <time>2020-10-29T15:09:30Z</time>
      </trkpt>
      <trkpt lat="42.99951" lon="0.85765">
        <ele>696.47998047</ele>
        <time>2020-10-29T15:09:31Z</time>
      </trkpt>
      <trkpt lat="42.99951" lon="0.85764">
        <ele>696.20001221</ele>
        <time>2020-10-29T15:09:32Z</time>
      </trkpt>
      <trkpt lat="42.99951" lon="0.85763">
        <ele>696.0300293</ele>
        <time>2020-10-29T15:09:33Z</time>
      </trkpt>
      <trkpt lat="42.99951" lon="0.85762">
        <ele>696.85998535</ele>
        <time>2020-10-29T15:09:34Z</time>
      </trkpt>
      <trkpt lat="42.99951" lon="0.85761">
        <ele>697.08001709</ele>
        <time>2020-10-29T15:09:36Z</time>
      </trkpt>
      <trkpt lat="42.99952" lon="0.85759">
        <ele>697.17999268</ele>
        <time>2020-10-29T15:09:37Z</time>
      </trkpt>
      <trkpt lat="42.99954" lon="0.85756">
        <ele>697.09997559</ele>
        <time>2020-10-29T15:09:38Z</time>
      </trkpt>
      <trkpt lat="42.99956" lon="0.85759">
        <ele>696.88000488</ele>
        <time>2020-10-29T15:09:39Z</time>
      </trkpt>
      <trkpt lat="42.99958" lon="0.85763">
        <ele>697.38000488</ele>
        <time>2020-10-29T15:09:41Z</time>
      </trkpt>
      <trkpt lat="42.99962" lon="0.85768">
        <ele>697.34002686</ele>
        <time>2020-10-29T15:09:42Z</time>
      </trkpt>
      <trkpt lat="42.99967" lon="0.85774">
        <ele>697.14001465</ele>
        <time>2020-10-29T15:09:44Z</time>
      </trkpt>
      <trkpt lat="42.99974" lon="0.8578">
        <ele>697.08001709</ele>
        <time>2020-10-29T15:09:46Z</time>
      </trkpt>
      <trkpt lat="42.9998" lon="0.85784">
        <ele>697.11999512</ele>
        <time>2020-10-29T15:09:48Z</time>
      </trkpt>
      <trkpt lat="42.99983" lon="0.85787">
        <ele>698.13000488</ele>
        <time>2020-10-29T15:09:49Z</time>
      </trkpt>
      <trkpt lat="42.99989" lon="0.85792">
        <ele>697.83001709</ele>
        <time>2020-10-29T15:09:50Z</time>
      </trkpt>
      <trkpt lat="42.99993" lon="0.85794">
        <ele>698.10998535</ele>
        <time>2020-10-29T15:09:51Z</time>
      </trkpt>
      <trkpt lat="42.99997" lon="0.85797">
        <ele>698.11999512</ele>
        <time>2020-10-29T15:09:53Z</time>
      </trkpt>
      <trkpt lat="43.00005" lon="0.858">
        <ele>698.51000977</ele>
        <time>2020-10-29T15:09:55Z</time>
      </trkpt>
      <trkpt lat="43.0001" lon="0.85802">
        <ele>697.76000977</ele>
        <time>2020-10-29T15:09:56Z</time>
      </trkpt>
      <trkpt lat="43.00014" lon="0.85805">
        <ele>697.75</ele>
        <time>2020-10-29T15:09:57Z</time>
      </trkpt>
      <trkpt lat="43.00018" lon="0.85807">
        <ele>697.88000488</ele>
        <time>2020-10-29T15:09:58Z</time>
      </trkpt>
      <trkpt lat="43.00021" lon="0.85808">
        <ele>698.21002197</ele>
        <time>2020-10-29T15:09:59Z</time>
      </trkpt>
      <trkpt lat="43.00024" lon="0.85809">
        <ele>697.40002441</ele>
        <time>2020-10-29T15:10:01Z</time>
      </trkpt>
      <trkpt lat="43.00027" lon="0.8581">
        <ele>697.40002441</ele>
        <time>2020-10-29T15:10:02Z</time>
      </trkpt>
      <trkpt lat="43.00029" lon="0.85811">
        <ele>699.57000732</ele>
        <time>2020-10-29T15:10:03Z</time>
      </trkpt>
      <trkpt lat="43.00032" lon="0.85812">
        <ele>699.84002686</ele>
        <time>2020-10-29T15:10:04Z</time>
      </trkpt>
      <trkpt lat="43.00035" lon="0.85812">
        <ele>699.2800293</ele>
        <time>2020-10-29T15:10:06Z</time>
      </trkpt>
      <trkpt lat="43.00038" lon="0.85812">
        <ele>700.01000977</ele>
        <time>2020-10-29T15:10:07Z</time>
      </trkpt>
      <trkpt lat="43.00042" lon="0.85813">
        <ele>701.33001709</ele>
        <time>2020-10-29T15:10:09Z</time>
      </trkpt>
      <trkpt lat="43.00046" lon="0.85814">
        <ele>701.48999023</ele>
        <time>2020-10-29T15:10:10Z</time>
      </trkpt>
      <trkpt lat="43.00052" lon="0.85815">
        <ele>701.79998779</ele>
        <time>2020-10-29T15:10:11Z</time>
      </trkpt>
      <trkpt lat="43.00057" lon="0.85816">
        <ele>701.95001221</ele>
        <time>2020-10-29T15:10:12Z</time>
      </trkpt>
      <trkpt lat="43.00063" lon="0.85817">
        <ele>701.39001465</ele>
        <time>2020-10-29T15:10:14Z</time>
      </trkpt>
      <trkpt lat="43.00067" lon="0.85819">
        <ele>701.83001709</ele>
        <time>2020-10-29T15:10:15Z</time>
      </trkpt>
      <trkpt lat="43.00075" lon="0.85822">
        <ele>701.80999756</ele>
        <time>2020-10-29T15:10:17Z</time>
      </trkpt>
      <trkpt lat="43.00082" lon="0.85824">
        <ele>702.03997803</ele>
        <time>2020-10-29T15:10:18Z</time>
      </trkpt>
      <trkpt lat="43.00087" lon="0.85826">
        <ele>702.02001953</ele>
        <time>2020-10-29T15:10:20Z</time>
      </trkpt>
      <trkpt lat="43.00092" lon="0.8583">
        <ele>702.14001465</ele>
        <time>2020-10-29T15:10:21Z</time>
      </trkpt>
      <trkpt lat="43.00097" lon="0.85832">
        <ele>702.72998047</ele>
        <time>2020-10-29T15:10:23Z</time>
      </trkpt>
      <trkpt lat="43.00103" lon="0.85835">
        <ele>702.9699707</ele>
        <time>2020-10-29T15:10:24Z</time>
      </trkpt>
      <trkpt lat="43.00107" lon="0.85836">
        <ele>703.08001709</ele>
        <time>2020-10-29T15:10:26Z</time>
      </trkpt>
      <trkpt lat="43.00113" lon="0.85839">
        <ele>703.7800293</ele>
        <time>2020-10-29T15:10:27Z</time>
      </trkpt>
      <trkpt lat="43.00117" lon="0.85841">
        <ele>704.05999756</ele>
        <time>2020-10-29T15:10:29Z</time>
      </trkpt>
      <trkpt lat="43.0012" lon="0.85843">
        <ele>704.34997559</ele>
        <time>2020-10-29T15:10:30Z</time>
      </trkpt>
      <trkpt lat="43.00124" lon="0.85844">
        <ele>704.61999512</ele>
        <time>2020-10-29T15:10:31Z</time>
      </trkpt>
      <trkpt lat="43.00127" lon="0.85845">
        <ele>704.75</ele>
        <time>2020-10-29T15:10:32Z</time>
      </trkpt>
      <trkpt lat="43.00131" lon="0.85847">
        <ele>704.85998535</ele>
        <time>2020-10-29T15:10:33Z</time>
      </trkpt>
      <trkpt lat="43.00135" lon="0.85847">
        <ele>705.14001465</ele>
        <time>2020-10-29T15:10:34Z</time>
      </trkpt>
      <trkpt lat="43.00138" lon="0.85848">
        <ele>705.35998535</ele>
        <time>2020-10-29T15:10:35Z</time>
      </trkpt>
      <trkpt lat="43.00142" lon="0.85849">
        <ele>705.55999756</ele>
        <time>2020-10-29T15:10:37Z</time>
      </trkpt>
      <trkpt lat="43.00147" lon="0.85849">
        <ele>706.36999512</ele>
        <time>2020-10-29T15:10:39Z</time>
      </trkpt>
      <trkpt lat="43.0015" lon="0.85849">
        <ele>706.65997314</ele>
        <time>2020-10-29T15:10:40Z</time>
      </trkpt>
      <trkpt lat="43.00153" lon="0.85849">
        <ele>706.65997314</ele>
        <time>2020-10-29T15:10:41Z</time>
      </trkpt>
      <trkpt lat="43.00158" lon="0.85847">
        <ele>707.11999512</ele>
        <time>2020-10-29T15:10:42Z</time>
      </trkpt>
      <trkpt lat="43.00164" lon="0.85846">
        <ele>707.2199707</ele>
        <time>2020-10-29T15:10:44Z</time>
      </trkpt>
      <trkpt lat="43.00167" lon="0.85845">
        <ele>707.05999756</ele>
        <time>2020-10-29T15:10:46Z</time>
      </trkpt>
      <trkpt lat="43.00172" lon="0.85843">
        <ele>707.17999268</ele>
        <time>2020-10-29T15:10:47Z</time>
      </trkpt>
      <trkpt lat="43.00176" lon="0.85842">
        <ele>707.07000732</ele>
        <time>2020-10-29T15:10:48Z</time>
      </trkpt>
      <trkpt lat="43.0018" lon="0.85842">
        <ele>707.16998291</ele>
        <time>2020-10-29T15:10:50Z</time>
      </trkpt>
      <trkpt lat="43.00184" lon="0.85841">
        <ele>707.08001709</ele>
        <time>2020-10-29T15:10:51Z</time>
      </trkpt>
      <trkpt lat="43.00187" lon="0.85841">
        <ele>707.08001709</ele>
        <time>2020-10-29T15:10:52Z</time>
      </trkpt>
      <trkpt lat="43.0019" lon="0.85841">
        <ele>706.90997314</ele>
        <time>2020-10-29T15:10:53Z</time>
      </trkpt>
      <trkpt lat="43.00194" lon="0.85842">
        <ele>706.77001953</ele>
        <time>2020-10-29T15:10:55Z</time>
      </trkpt>
      <trkpt lat="43.00198" lon="0.85843">
        <ele>706.96002197</ele>
        <time>2020-10-29T15:10:56Z</time>
      </trkpt>
      <trkpt lat="43.00202" lon="0.85844">
        <ele>707.34002686</ele>
        <time>2020-10-29T15:10:58Z</time>
      </trkpt>
      <trkpt lat="43.00205" lon="0.85844">
        <ele>707.40002441</ele>
        <time>2020-10-29T15:10:59Z</time>
      </trkpt>
      <trkpt lat="43.00207" lon="0.85844">
        <ele>707.7199707</ele>
        <time>2020-10-29T15:11:00Z</time>
      </trkpt>
      <trkpt lat="43.00209" lon="0.85844">
        <ele>708.21002197</ele>
        <time>2020-10-29T15:11:02Z</time>
      </trkpt>
      <trkpt lat="43.00213" lon="0.85841">
        <ele>708.59002686</ele>
        <time>2020-10-29T15:11:03Z</time>
      </trkpt>
      <trkpt lat="43.00216" lon="0.8584">
        <ele>708.29998779</ele>
        <time>2020-10-29T15:11:04Z</time>
      </trkpt>
      <trkpt lat="43.00218" lon="0.85838">
        <ele>707.45001221</ele>
        <time>2020-10-29T15:11:05Z</time>
      </trkpt>
      <trkpt lat="43.00222" lon="0.85835">
        <ele>707.75</ele>
        <time>2020-10-29T15:11:07Z</time>
      </trkpt>
      <trkpt lat="43.00226" lon="0.85832">
        <ele>707.22998047</ele>
        <time>2020-10-29T15:11:08Z</time>
      </trkpt>
      <trkpt lat="43.00227" lon="0.85831">
        <ele>707.65997314</ele>
        <time>2020-10-29T15:11:09Z</time>
      </trkpt>
      <trkpt lat="43.00229" lon="0.8583">
        <ele>707.59002686</ele>
        <time>2020-10-29T15:11:10Z</time>
      </trkpt>
      <trkpt lat="43.00232" lon="0.8583">
        <ele>707.40997314</ele>
        <time>2020-10-29T15:11:12Z</time>
      </trkpt>
      <trkpt lat="43.00234" lon="0.8583">
        <ele>707.40997314</ele>
        <time>2020-10-29T15:11:13Z</time>
      </trkpt>
      <trkpt lat="43.00238" lon="0.85832">
        <ele>707.28997803</ele>
        <time>2020-10-29T15:11:14Z</time>
      </trkpt>
      <trkpt lat="43.00242" lon="0.85833">
        <ele>707.19000244</ele>
        <time>2020-10-29T15:11:15Z</time>
      </trkpt>
      <trkpt lat="43.00246" lon="0.85836">
        <ele>707.19000244</ele>
        <time>2020-10-29T15:11:17Z</time>
      </trkpt>
      <trkpt lat="43.00251" lon="0.8584">
        <ele>707.25</ele>
        <time>2020-10-29T15:11:18Z</time>
      </trkpt>
      <trkpt lat="43.00256" lon="0.85844">
        <ele>707.94000244</ele>
        <time>2020-10-29T15:11:19Z</time>
      </trkpt>
      <trkpt lat="43.00261" lon="0.85849">
        <ele>708.71002197</ele>
        <time>2020-10-29T15:11:21Z</time>
      </trkpt>
      <trkpt lat="43.00265" lon="0.85853">
        <ele>708.61999512</ele>
        <time>2020-10-29T15:11:22Z</time>
      </trkpt>
      <trkpt lat="43.00267" lon="0.85857">
        <ele>708.61999512</ele>
        <time>2020-10-29T15:11:23Z</time>
      </trkpt>
      <trkpt lat="43.00273" lon="0.85864">
        <ele>709.5300293</ele>
        <time>2020-10-29T15:11:24Z</time>
      </trkpt>
      <trkpt lat="43.00277" lon="0.85869">
        <ele>709.82000732</ele>
        <time>2020-10-29T15:11:25Z</time>
      </trkpt>
      <trkpt lat="43.00282" lon="0.85876">
        <ele>710.05999756</ele>
        <time>2020-10-29T15:11:27Z</time>
      </trkpt>
      <trkpt lat="43.00285" lon="0.85881">
        <ele>709.98999023</ele>
        <time>2020-10-29T15:11:28Z</time>
      </trkpt>
      <trkpt lat="43.00289" lon="0.85888">
        <ele>710.34002686</ele>
        <time>2020-10-29T15:11:29Z</time>
      </trkpt>
      <trkpt lat="43.00293" lon="0.85895">
        <ele>710.95001221</ele>
        <time>2020-10-29T15:11:30Z</time>
      </trkpt>
      <trkpt lat="43.00298" lon="0.85904">
        <ele>712.09002686</ele>
        <time>2020-10-29T15:11:32Z</time>
      </trkpt>
      <trkpt lat="43.00302" lon="0.85909">
        <ele>712.13000488</ele>
        <time>2020-10-29T15:11:34Z</time>
      </trkpt>
      <trkpt lat="43.00308" lon="0.85918">
        <ele>712.44000244</ele>
        <time>2020-10-29T15:11:35Z</time>
      </trkpt>
      <trkpt lat="43.00312" lon="0.85922">
        <ele>712.27001953</ele>
        <time>2020-10-29T15:11:37Z</time>
      </trkpt>
      <trkpt lat="43.00314" lon="0.85927">
        <ele>712.27001953</ele>
        <time>2020-10-29T15:11:38Z</time>
      </trkpt>
      <trkpt lat="43.00318" lon="0.85932">
        <ele>714.09997559</ele>
        <time>2020-10-29T15:11:39Z</time>
      </trkpt>
      <trkpt lat="43.0032" lon="0.85937">
        <ele>713.90997314</ele>
        <time>2020-10-29T15:11:40Z</time>
      </trkpt>
      <trkpt lat="43.00323" lon="0.85943">
        <ele>713.9699707</ele>
        <time>2020-10-29T15:11:41Z</time>
      </trkpt>
      <trkpt lat="43.00327" lon="0.85949">
        <ele>714.71002197</ele>
        <time>2020-10-29T15:11:43Z</time>
      </trkpt>
      <trkpt lat="43.00329" lon="0.85953">
        <ele>714.71002197</ele>
        <time>2020-10-29T15:11:44Z</time>
      </trkpt>
      <trkpt lat="43.00333" lon="0.85959">
        <ele>714.90002441</ele>
        <time>2020-10-29T15:11:45Z</time>
      </trkpt>
      <trkpt lat="43.00336" lon="0.85964">
        <ele>715.22998047</ele>
        <time>2020-10-29T15:11:46Z</time>
      </trkpt>
      <trkpt lat="43.0034" lon="0.85968">
        <ele>715.59997559</ele>
        <time>2020-10-29T15:11:47Z</time>
      </trkpt>
      <trkpt lat="43.00343" lon="0.85971">
        <ele>715.23999023</ele>
        <time>2020-10-29T15:11:49Z</time>
      </trkpt>
      <trkpt lat="43.00347" lon="0.85973">
        <ele>715.28997803</ele>
        <time>2020-10-29T15:11:50Z</time>
      </trkpt>
      <trkpt lat="43.00352" lon="0.85976">
        <ele>715.52001953</ele>
        <time>2020-10-29T15:11:51Z</time>
      </trkpt>
      <trkpt lat="43.00355" lon="0.85978">
        <ele>715.84002686</ele>
        <time>2020-10-29T15:11:52Z</time>
      </trkpt>
      <trkpt lat="43.00358" lon="0.8598">
        <ele>716.39001465</ele>
        <time>2020-10-29T15:11:53Z</time>
      </trkpt>
      <trkpt lat="43.0036" lon="0.85982">
        <ele>717.04998779</ele>
        <time>2020-10-29T15:11:55Z</time>
      </trkpt>
      <trkpt lat="43.00364" lon="0.85984">
        <ele>717.32000732</ele>
        <time>2020-10-29T15:11:56Z</time>
      </trkpt>
      <trkpt lat="43.00367" lon="0.85984">
        <ele>717.44000244</ele>
        <time>2020-10-29T15:11:57Z</time>
      </trkpt>
      <trkpt lat="43.00372" lon="0.85984">
        <ele>718.15997314</ele>
        <time>2020-10-29T15:11:59Z</time>
      </trkpt>
      <trkpt lat="43.00374" lon="0.85984">
        <ele>719.05999756</ele>
        <time>2020-10-29T15:12:01Z</time>
      </trkpt>
      <trkpt lat="43.00377" lon="0.85984">
        <ele>719.05999756</ele>
        <time>2020-10-29T15:12:02Z</time>
      </trkpt>
      <trkpt lat="43.0038" lon="0.85984">
        <ele>719.63000488</ele>
        <time>2020-10-29T15:12:03Z</time>
      </trkpt>
      <trkpt lat="43.00383" lon="0.85983">
        <ele>720</ele>
        <time>2020-10-29T15:12:04Z</time>
      </trkpt>
      <trkpt lat="43.00388" lon="0.85982">
        <ele>720.66998291</ele>
        <time>2020-10-29T15:12:06Z</time>
      </trkpt>
      <trkpt lat="43.00392" lon="0.85981">
        <ele>720.5300293</ele>
        <time>2020-10-29T15:12:07Z</time>
      </trkpt>
      <trkpt lat="43.00395" lon="0.85981">
        <ele>720.15997314</ele>
        <time>2020-10-29T15:12:08Z</time>
      </trkpt>
      <trkpt lat="43.004" lon="0.8598">
        <ele>720.34997559</ele>
        <time>2020-10-29T15:12:09Z</time>
      </trkpt>
      <trkpt lat="43.00405" lon="0.8598">
        <ele>720.34997559</ele>
        <time>2020-10-29T15:12:10Z</time>
      </trkpt>
      <trkpt lat="43.0041" lon="0.85979">
        <ele>720.09002686</ele>
        <time>2020-10-29T15:12:11Z</time>
      </trkpt>
      <trkpt lat="43.00414" lon="0.85979">
        <ele>720.76000977</ele>
        <time>2020-10-29T15:12:13Z</time>
      </trkpt>
      <trkpt lat="43.0042" lon="0.85981">
        <ele>720.95001221</ele>
        <time>2020-10-29T15:12:14Z</time>
      </trkpt>
      <trkpt lat="43.00421" lon="0.85985">
        <ele>721.19000244</ele>
        <time>2020-10-29T15:12:15Z</time>
      </trkpt>
      <trkpt lat="43.00423" lon="0.8599">
        <ele>721.61999512</ele>
        <time>2020-10-29T15:12:17Z</time>
      </trkpt>
      <trkpt lat="43.00423" lon="0.85995">
        <ele>721.7199707</ele>
        <time>2020-10-29T15:12:18Z</time>
      </trkpt>
      <trkpt lat="43.00424" lon="0.86002">
        <ele>721.70001221</ele>
        <time>2020-10-29T15:12:19Z</time>
      </trkpt>
      <trkpt lat="43.00424" lon="0.86011">
        <ele>721.21002197</ele>
        <time>2020-10-29T15:12:21Z</time>
      </trkpt>
      <trkpt lat="43.00423" lon="0.86019">
        <ele>721.45001221</ele>
        <time>2020-10-29T15:12:22Z</time>
      </trkpt>
      <trkpt lat="43.00423" lon="0.86025">
        <ele>721.51000977</ele>
        <time>2020-10-29T15:12:23Z</time>
      </trkpt>
      <trkpt lat="43.00422" lon="0.86033">
        <ele>721.44000244</ele>
        <time>2020-10-29T15:12:25Z</time>
      </trkpt>
      <trkpt lat="43.00421" lon="0.86042">
        <ele>721.15002441</ele>
        <time>2020-10-29T15:12:26Z</time>
      </trkpt>
      <trkpt lat="43.00422" lon="0.86052">
        <ele>721.02001953</ele>
        <time>2020-10-29T15:12:28Z</time>
      </trkpt>
      <trkpt lat="43.00423" lon="0.86064">
        <ele>721.15997314</ele>
        <time>2020-10-29T15:12:29Z</time>
      </trkpt>
      <trkpt lat="43.00424" lon="0.86073">
        <ele>720.55999756</ele>
        <time>2020-10-29T15:12:31Z</time>
      </trkpt>
      <trkpt lat="43.00425" lon="0.86084">
        <ele>720.36999512</ele>
        <time>2020-10-29T15:12:32Z</time>
      </trkpt>
      <trkpt lat="43.00426" lon="0.86095">
        <ele>720.10998535</ele>
        <time>2020-10-29T15:12:34Z</time>
      </trkpt>
      <trkpt lat="43.00426" lon="0.86103">
        <ele>720.10998535</ele>
        <time>2020-10-29T15:12:35Z</time>
      </trkpt>
      <trkpt lat="43.00427" lon="0.86115">
        <ele>720.44000244</ele>
        <time>2020-10-29T15:12:36Z</time>
      </trkpt>
      <trkpt lat="43.00427" lon="0.86125">
        <ele>718.9699707</ele>
        <time>2020-10-29T15:12:38Z</time>
      </trkpt>
      <trkpt lat="43.00427" lon="0.86132">
        <ele>719.67999268</ele>
        <time>2020-10-29T15:12:39Z</time>
      </trkpt>
      <trkpt lat="43.00426" lon="0.8614">
        <ele>720.0300293</ele>
        <time>2020-10-29T15:12:40Z</time>
      </trkpt>
      <trkpt lat="43.00426" lon="0.86151">
        <ele>720.16998291</ele>
        <time>2020-10-29T15:12:41Z</time>
      </trkpt>
      <trkpt lat="43.00426" lon="0.86159">
        <ele>720.07000732</ele>
        <time>2020-10-29T15:12:42Z</time>
      </trkpt>
      <trkpt lat="43.00427" lon="0.8617">
        <ele>719.42999268</ele>
        <time>2020-10-29T15:12:44Z</time>
      </trkpt>
      <trkpt lat="43.0043" lon="0.86179">
        <ele>719.34002686</ele>
        <time>2020-10-29T15:12:45Z</time>
      </trkpt>
      <trkpt lat="43.00433" lon="0.86187">
        <ele>719.09997559</ele>
        <time>2020-10-29T15:12:46Z</time>
      </trkpt>
      <trkpt lat="43.00436" lon="0.86194">
        <ele>717.89001465</ele>
        <time>2020-10-29T15:12:48Z</time>
      </trkpt>
      <trkpt lat="43.00442" lon="0.86203">
        <ele>718.48999023</ele>
        <time>2020-10-29T15:12:49Z</time>
      </trkpt>
      <trkpt lat="43.00447" lon="0.8621">
        <ele>717.95001221</ele>
        <time>2020-10-29T15:12:51Z</time>
      </trkpt>
      <trkpt lat="43.0045" lon="0.86214">
        <ele>717.95001221</ele>
        <time>2020-10-29T15:12:52Z</time>
      </trkpt>
      <trkpt lat="43.00456" lon="0.86219">
        <ele>718.39001465</ele>
        <time>2020-10-29T15:12:53Z</time>
      </trkpt>
      <trkpt lat="43.00459" lon="0.86224">
        <ele>718.35998535</ele>
        <time>2020-10-29T15:12:54Z</time>
      </trkpt>
      <trkpt lat="43.00463" lon="0.86229">
        <ele>719.05999756</ele>
        <time>2020-10-29T15:12:56Z</time>
      </trkpt>
      <trkpt lat="43.00468" lon="0.86236">
        <ele>719.20001221</ele>
        <time>2020-10-29T15:12:57Z</time>
      </trkpt>
      <trkpt lat="43.00472" lon="0.8624">
        <ele>719.09997559</ele>
        <time>2020-10-29T15:12:58Z</time>
      </trkpt>
      <trkpt lat="43.00475" lon="0.86244">
        <ele>718.73999023</ele>
        <time>2020-10-29T15:13:00Z</time>
      </trkpt>
      <trkpt lat="43.0048" lon="0.86248">
        <ele>718.94000244</ele>
        <time>2020-10-29T15:13:01Z</time>
      </trkpt>
      <trkpt lat="43.00485" lon="0.86253">
        <ele>718.98999023</ele>
        <time>2020-10-29T15:13:02Z</time>
      </trkpt>
      <trkpt lat="43.00489" lon="0.86256">
        <ele>718.83001709</ele>
        <time>2020-10-29T15:13:03Z</time>
      </trkpt>
      <trkpt lat="43.00492" lon="0.86259">
        <ele>719.05999756</ele>
        <time>2020-10-29T15:13:05Z</time>
      </trkpt>
      <trkpt lat="43.00495" lon="0.86261">
        <ele>719.05999756</ele>
        <time>2020-10-29T15:13:06Z</time>
      </trkpt>
      <trkpt lat="43.00498" lon="0.86263">
        <ele>719.27001953</ele>
        <time>2020-10-29T15:13:07Z</time>
      </trkpt>
      <trkpt lat="43.00503" lon="0.86264">
        <ele>719.15997314</ele>
        <time>2020-10-29T15:13:08Z</time>
      </trkpt>
      <trkpt lat="43.0051" lon="0.86263">
        <ele>719.11999512</ele>
        <time>2020-10-29T15:13:10Z</time>
      </trkpt>
      <trkpt lat="43.00514" lon="0.86263">
        <ele>719.60998535</ele>
        <time>2020-10-29T15:13:11Z</time>
      </trkpt>
      <trkpt lat="43.00519" lon="0.86261">
        <ele>719.17999268</ele>
        <time>2020-10-29T15:13:12Z</time>
      </trkpt>
      <trkpt lat="43.00524" lon="0.86259">
        <ele>718.85998535</ele>
        <time>2020-10-29T15:13:14Z</time>
      </trkpt>
      <trkpt lat="43.00527" lon="0.86257">
        <ele>718.98999023</ele>
        <time>2020-10-29T15:13:16Z</time>
      </trkpt>
      <trkpt lat="43.00529" lon="0.86256">
        <ele>718.01000977</ele>
        <time>2020-10-29T15:13:17Z</time>
      </trkpt>
      <trkpt lat="43.00533" lon="0.86256">
        <ele>717.02001953</ele>
        <time>2020-10-29T15:13:18Z</time>
      </trkpt>
      <trkpt lat="43.00536" lon="0.86256">
        <ele>717.04998779</ele>
        <time>2020-10-29T15:13:19Z</time>
      </trkpt>
      <trkpt lat="43.00539" lon="0.86256">
        <ele>717.20001221</ele>
        <time>2020-10-29T15:13:20Z</time>
      </trkpt>
      <trkpt lat="43.00544" lon="0.8626">
        <ele>716.61999512</ele>
        <time>2020-10-29T15:13:22Z</time>
      </trkpt>
      <trkpt lat="43.0055" lon="0.86264">
        <ele>715.61999512</ele>
        <time>2020-10-29T15:13:23Z</time>
      </trkpt>
      <trkpt lat="43.00554" lon="0.86267">
        <ele>716.03997803</ele>
        <time>2020-10-29T15:13:25Z</time>
      </trkpt>
      <trkpt lat="43.00559" lon="0.86271">
        <ele>715.22998047</ele>
        <time>2020-10-29T15:13:26Z</time>
      </trkpt>
      <trkpt lat="43.00563" lon="0.86273">
        <ele>714.96002197</ele>
        <time>2020-10-29T15:13:27Z</time>
      </trkpt>
      <trkpt lat="43.00567" lon="0.86275">
        <ele>714.2199707</ele>
        <time>2020-10-29T15:13:29Z</time>
      </trkpt>
      <trkpt lat="43.00572" lon="0.86278">
        <ele>714.38000488</ele>
        <time>2020-10-29T15:13:30Z</time>
      </trkpt>
      <trkpt lat="43.00578" lon="0.86281">
        <ele>714.30999756</ele>
        <time>2020-10-29T15:13:31Z</time>
      </trkpt>
      <trkpt lat="43.00583" lon="0.86282">
        <ele>714.79998779</ele>
        <time>2020-10-29T15:13:32Z</time>
      </trkpt>
      <trkpt lat="43.00589" lon="0.86283">
        <ele>715.09997559</ele>
        <time>2020-10-29T15:13:33Z</time>
      </trkpt>
      <trkpt lat="43.00595" lon="0.86284">
        <ele>715.04998779</ele>
        <time>2020-10-29T15:13:35Z</time>
      </trkpt>
      <trkpt lat="43.00603" lon="0.86286">
        <ele>714.66998291</ele>
        <time>2020-10-29T15:13:36Z</time>
      </trkpt>
      <trkpt lat="43.0061" lon="0.86288">
        <ele>714.65002441</ele>
        <time>2020-10-29T15:13:38Z</time>
      </trkpt>
      <trkpt lat="43.00619" lon="0.86293">
        <ele>713.77001953</ele>
        <time>2020-10-29T15:13:39Z</time>
      </trkpt>
      <trkpt lat="43.00625" lon="0.86297">
        <ele>714.07000732</ele>
        <time>2020-10-29T15:13:41Z</time>
      </trkpt>
      <trkpt lat="43.00631" lon="0.86302">
        <ele>713.75</ele>
        <time>2020-10-29T15:13:42Z</time>
      </trkpt>
      <trkpt lat="43.00637" lon="0.86307">
        <ele>713.15002441</ele>
        <time>2020-10-29T15:13:44Z</time>
      </trkpt>
      <trkpt lat="43.00652" lon="0.86321">
        <ele>713.04998779</ele>
        <time>2020-10-29T15:13:46Z</time>
      </trkpt>
      <trkpt lat="43.00656" lon="0.86325">
        <ele>711.85998535</ele>
        <time>2020-10-29T15:13:47Z</time>
      </trkpt>
      <trkpt lat="43.0066" lon="0.86324">
        <ele>711.42999268</ele>
        <time>2020-10-29T15:13:48Z</time>
      </trkpt>
      <trkpt lat="43.00666" lon="0.86325">
        <ele>711.33001709</ele>
        <time>2020-10-29T15:13:49Z</time>
      </trkpt>
      <trkpt lat="43.0067" lon="0.86326">
        <ele>711.40002441</ele>
        <time>2020-10-29T15:13:51Z</time>
      </trkpt>
      <trkpt lat="43.00674" lon="0.86326">
        <ele>711.05999756</ele>
        <time>2020-10-29T15:13:52Z</time>
      </trkpt>
      <trkpt lat="43.00677" lon="0.86324">
        <ele>710.66998291</ele>
        <time>2020-10-29T15:13:53Z</time>
      </trkpt>
      <trkpt lat="43.00682" lon="0.86321">
        <ele>710.84002686</ele>
        <time>2020-10-29T15:13:55Z</time>
      </trkpt>
      <trkpt lat="43.00686" lon="0.86318">
        <ele>711.57000732</ele>
        <time>2020-10-29T15:13:56Z</time>
      </trkpt>
      <trkpt lat="43.00689" lon="0.86313">
        <ele>712.19000244</ele>
        <time>2020-10-29T15:13:58Z</time>
      </trkpt>
      <trkpt lat="43.00693" lon="0.86308">
        <ele>712.89001465</ele>
        <time>2020-10-29T15:13:59Z</time>
      </trkpt>
      <trkpt lat="43.00696" lon="0.86303">
        <ele>712.79998779</ele>
        <time>2020-10-29T15:14:00Z</time>
      </trkpt>
      <trkpt lat="43.00698" lon="0.86299">
        <ele>713.04998779</ele>
        <time>2020-10-29T15:14:01Z</time>
      </trkpt>
      <trkpt lat="43.00699" lon="0.86295">
        <ele>713.10998535</ele>
        <time>2020-10-29T15:14:03Z</time>
      </trkpt>
      <trkpt lat="43.007" lon="0.86287">
        <ele>714.05999756</ele>
        <time>2020-10-29T15:14:05Z</time>
      </trkpt>
      <trkpt lat="43.007" lon="0.86281">
        <ele>714.5300293</ele>
        <time>2020-10-29T15:14:06Z</time>
      </trkpt>
      <trkpt lat="43.00701" lon="0.86275">
        <ele>715.13000488</ele>
        <time>2020-10-29T15:14:07Z</time>
      </trkpt>
      <trkpt lat="43.00701" lon="0.86268">
        <ele>715.47998047</ele>
        <time>2020-10-29T15:14:09Z</time>
      </trkpt>
      <trkpt lat="43.00701" lon="0.86261">
        <ele>715.79998779</ele>
        <time>2020-10-29T15:14:10Z</time>
      </trkpt>
      <trkpt lat="43.00702" lon="0.86252">
        <ele>718.19000244</ele>
        <time>2020-10-29T15:14:12Z</time>
      </trkpt>
      <trkpt lat="43.00703" lon="0.86241">
        <ele>718.15002441</ele>
        <time>2020-10-29T15:14:14Z</time>
      </trkpt>
      <trkpt lat="43.00704" lon="0.86235">
        <ele>718.15002441</ele>
        <time>2020-10-29T15:14:15Z</time>
      </trkpt>
      <trkpt lat="43.00706" lon="0.86226">
        <ele>718.9699707</ele>
        <time>2020-10-29T15:14:16Z</time>
      </trkpt>
      <trkpt lat="43.00709" lon="0.8622">
        <ele>719.72998047</ele>
        <time>2020-10-29T15:14:17Z</time>
      </trkpt>
      <trkpt lat="43.0071" lon="0.86215">
        <ele>720.11999512</ele>
        <time>2020-10-29T15:14:19Z</time>
      </trkpt>
      <trkpt lat="43.00713" lon="0.86207">
        <ele>719.7800293</ele>
        <time>2020-10-29T15:14:20Z</time>
      </trkpt>
      <trkpt lat="43.00714" lon="0.86202">
        <ele>720.17999268</ele>
        <time>2020-10-29T15:14:22Z</time>
      </trkpt>
      <trkpt lat="43.00717" lon="0.86194">
        <ele>719.71002197</ele>
        <time>2020-10-29T15:14:23Z</time>
      </trkpt>
      <trkpt lat="43.0072" lon="0.86189">
        <ele>721.59997559</ele>
        <time>2020-10-29T15:14:25Z</time>
      </trkpt>
      <trkpt lat="43.00723" lon="0.86184">
        <ele>721.27001953</ele>
        <time>2020-10-29T15:14:26Z</time>
      </trkpt>
      <trkpt lat="43.00725" lon="0.86179">
        <ele>721.4699707</ele>
        <time>2020-10-29T15:14:27Z</time>
      </trkpt>
      <trkpt lat="43.00727" lon="0.8617">
        <ele>722.29998779</ele>
        <time>2020-10-29T15:14:28Z</time>
      </trkpt>
      <trkpt lat="43.00729" lon="0.86163">
        <ele>721.95001221</ele>
        <time>2020-10-29T15:14:29Z</time>
      </trkpt>
      <trkpt lat="43.00731" lon="0.86157">
        <ele>721.2199707</ele>
        <time>2020-10-29T15:14:31Z</time>
      </trkpt>
      <trkpt lat="43.00735" lon="0.8615">
        <ele>722.22998047</ele>
        <time>2020-10-29T15:14:33Z</time>
      </trkpt>
      <trkpt lat="43.00737" lon="0.86145">
        <ele>722.20001221</ele>
        <time>2020-10-29T15:14:34Z</time>
      </trkpt>
      <trkpt lat="43.00739" lon="0.8614">
        <ele>721.60998535</ele>
        <time>2020-10-29T15:14:35Z</time>
      </trkpt>
      <trkpt lat="43.0074" lon="0.86136">
        <ele>722.26000977</ele>
        <time>2020-10-29T15:14:36Z</time>
      </trkpt>
      <trkpt lat="43.00742" lon="0.86131">
        <ele>722.57000732</ele>
        <time>2020-10-29T15:14:37Z</time>
      </trkpt>
      <trkpt lat="43.00742" lon="0.86126">
        <ele>721.4699707</ele>
        <time>2020-10-29T15:14:39Z</time>
      </trkpt>
      <trkpt lat="43.00742" lon="0.86118">
        <ele>721.03997803</ele>
        <time>2020-10-29T15:14:41Z</time>
      </trkpt>
      <trkpt lat="43.00745" lon="0.86112">
        <ele>724.48999023</ele>
        <time>2020-10-29T15:14:44Z</time>
      </trkpt>
      <trkpt lat="43.00748" lon="0.86114">
        <ele>723.92999268</ele>
        <time>2020-10-29T15:14:46Z</time>
      </trkpt>
      <trkpt lat="43.00749" lon="0.86118">
        <ele>723.95001221</ele>
        <time>2020-10-29T15:14:47Z</time>
      </trkpt>
      <trkpt lat="43.0075" lon="0.86122">
        <ele>723.84997559</ele>
        <time>2020-10-29T15:14:49Z</time>
      </trkpt>
      <trkpt lat="43.00752" lon="0.86128">
        <ele>723.09997559</ele>
        <time>2020-10-29T15:14:50Z</time>
      </trkpt>
      <trkpt lat="43.00753" lon="0.86132">
        <ele>722.59002686</ele>
        <time>2020-10-29T15:14:52Z</time>
      </trkpt>
      <trkpt lat="43.00755" lon="0.86137">
        <ele>722.33001709</ele>
        <time>2020-10-29T15:14:53Z</time>
      </trkpt>
      <trkpt lat="43.00767" lon="0.86156">
        <ele>723.23999023</ele>
        <time>2020-10-29T15:14:55Z</time>
      </trkpt>
      <trkpt lat="43.00769" lon="0.86162">
        <ele>723.65997314</ele>
        <time>2020-10-29T15:14:56Z</time>
      </trkpt>
      <trkpt lat="43.00771" lon="0.86163">
        <ele>723.35998535</ele>
        <time>2020-10-29T15:14:57Z</time>
      </trkpt>
      <trkpt lat="43.00774" lon="0.86166">
        <ele>722.97998047</ele>
        <time>2020-10-29T15:14:58Z</time>
      </trkpt>
      <trkpt lat="43.00778" lon="0.86174">
        <ele>723.09997559</ele>
        <time>2020-10-29T15:15:00Z</time>
      </trkpt>
      <trkpt lat="43.00783" lon="0.86183">
        <ele>723.77001953</ele>
        <time>2020-10-29T15:15:01Z</time>
      </trkpt>
      <trkpt lat="43.00787" lon="0.86191">
        <ele>723.86999512</ele>
        <time>2020-10-29T15:15:02Z</time>
      </trkpt>
      <trkpt lat="43.00791" lon="0.86198">
        <ele>724.09002686</ele>
        <time>2020-10-29T15:15:04Z</time>
      </trkpt>
      <trkpt lat="43.00796" lon="0.86208">
        <ele>724.48999023</ele>
        <time>2020-10-29T15:15:05Z</time>
      </trkpt>
      <trkpt lat="43.00801" lon="0.86216">
        <ele>725.28997803</ele>
        <time>2020-10-29T15:15:06Z</time>
      </trkpt>
      <trkpt lat="43.00805" lon="0.86223">
        <ele>726.19000244</ele>
        <time>2020-10-29T15:15:08Z</time>
      </trkpt>
      <trkpt lat="43.00811" lon="0.86234">
        <ele>726</ele>
        <time>2020-10-29T15:15:09Z</time>
      </trkpt>
      <trkpt lat="43.00819" lon="0.86249">
        <ele>726.34997559</ele>
        <time>2020-10-29T15:15:11Z</time>
      </trkpt>
      <trkpt lat="43.00823" lon="0.86254">
        <ele>726.34997559</ele>
        <time>2020-10-29T15:15:12Z</time>
      </trkpt>
      <trkpt lat="43.00828" lon="0.86259">
        <ele>727.0300293</ele>
        <time>2020-10-29T15:15:13Z</time>
      </trkpt>
      <trkpt lat="43.00832" lon="0.86264">
        <ele>726.2800293</ele>
        <time>2020-10-29T15:15:14Z</time>
      </trkpt>
      <trkpt lat="43.0084" lon="0.86274">
        <ele>727.01000977</ele>
        <time>2020-10-29T15:15:16Z</time>
      </trkpt>
      <trkpt lat="43.00843" lon="0.86278">
        <ele>727.32000732</ele>
        <time>2020-10-29T15:15:17Z</time>
      </trkpt>
      <trkpt lat="43.00847" lon="0.86282">
        <ele>727.32000732</ele>
        <time>2020-10-29T15:15:18Z</time>
      </trkpt>
      <trkpt lat="43.00853" lon="0.86286">
        <ele>727.84997559</ele>
        <time>2020-10-29T15:15:19Z</time>
      </trkpt>
      <trkpt lat="43.00858" lon="0.86289">
        <ele>728.16998291</ele>
        <time>2020-10-29T15:15:21Z</time>
      </trkpt>
      <trkpt lat="43.00865" lon="0.86293">
        <ele>728.9699707</ele>
        <time>2020-10-29T15:15:23Z</time>
      </trkpt>
      <trkpt lat="43.0087" lon="0.86294">
        <ele>729.25</ele>
        <time>2020-10-29T15:15:24Z</time>
      </trkpt>
      <trkpt lat="43.00874" lon="0.86295">
        <ele>729.57000732</ele>
        <time>2020-10-29T15:15:25Z</time>
      </trkpt>
      <trkpt lat="43.0088" lon="0.86295">
        <ele>729.63000488</ele>
        <time>2020-10-29T15:15:27Z</time>
      </trkpt>
      <trkpt lat="43.00884" lon="0.86293">
        <ele>730.15002441</ele>
        <time>2020-10-29T15:15:28Z</time>
      </trkpt>
      <trkpt lat="43.00889" lon="0.86292">
        <ele>730.30999756</ele>
        <time>2020-10-29T15:15:29Z</time>
      </trkpt>
      <trkpt lat="43.00895" lon="0.86289">
        <ele>729.32000732</ele>
        <time>2020-10-29T15:15:31Z</time>
      </trkpt>
      <trkpt lat="43.00899" lon="0.86287">
        <ele>728.9699707</ele>
        <time>2020-10-29T15:15:33Z</time>
      </trkpt>
      <trkpt lat="43.00902" lon="0.86283">
        <ele>728.86999512</ele>
        <time>2020-10-29T15:15:34Z</time>
      </trkpt>
      <trkpt lat="43.00904" lon="0.86278">
        <ele>728.7800293</ele>
        <time>2020-10-29T15:15:35Z</time>
      </trkpt>
      <trkpt lat="43.00908" lon="0.86275">
        <ele>729.13000488</ele>
        <time>2020-10-29T15:15:36Z</time>
      </trkpt>
      <trkpt lat="43.00911" lon="0.86271">
        <ele>729.21002197</ele>
        <time>2020-10-29T15:15:38Z</time>
      </trkpt>
      <trkpt lat="43.00914" lon="0.86267">
        <ele>729.40997314</ele>
        <time>2020-10-29T15:15:39Z</time>
      </trkpt>
      <trkpt lat="43.00917" lon="0.86261">
        <ele>729.82000732</ele>
        <time>2020-10-29T15:15:40Z</time>
      </trkpt>
      <trkpt lat="43.00919" lon="0.86257">
        <ele>730.23999023</ele>
        <time>2020-10-29T15:15:41Z</time>
      </trkpt>
      <trkpt lat="43.0092" lon="0.86253">
        <ele>730.90997314</ele>
        <time>2020-10-29T15:15:42Z</time>
      </trkpt>
      <trkpt lat="43.00923" lon="0.86247">
        <ele>731.13000488</ele>
        <time>2020-10-29T15:15:43Z</time>
      </trkpt>
      <trkpt lat="43.00925" lon="0.8624">
        <ele>731.53997803</ele>
        <time>2020-10-29T15:15:44Z</time>
      </trkpt>
      <trkpt lat="43.00925" lon="0.86234">
        <ele>732.82000732</ele>
        <time>2020-10-29T15:15:46Z</time>
      </trkpt>
      <trkpt lat="43.00925" lon="0.8623">
        <ele>733</ele>
        <time>2020-10-29T15:15:47Z</time>
      </trkpt>
      <trkpt lat="43.00926" lon="0.86226">
        <ele>733</ele>
        <time>2020-10-29T15:15:48Z</time>
      </trkpt>
      <trkpt lat="43.00927" lon="0.8622">
        <ele>731.20001221</ele>
        <time>2020-10-29T15:15:49Z</time>
      </trkpt>
      <trkpt lat="43.00928" lon="0.86216">
        <ele>731.54998779</ele>
        <time>2020-10-29T15:15:50Z</time>
      </trkpt>
      <trkpt lat="43.0093" lon="0.86213">
        <ele>732.02001953</ele>
        <time>2020-10-29T15:15:52Z</time>
      </trkpt>
      <trkpt lat="43.00934" lon="0.86209">
        <ele>733.84002686</ele>
        <time>2020-10-29T15:15:53Z</time>
      </trkpt>
      <trkpt lat="43.00938" lon="0.86209">
        <ele>734.02001953</ele>
        <time>2020-10-29T15:15:55Z</time>
      </trkpt>
      <trkpt lat="43.00942" lon="0.86209">
        <ele>734.72998047</ele>
        <time>2020-10-29T15:15:56Z</time>
      </trkpt>
      <trkpt lat="43.00945" lon="0.86208">
        <ele>734.46002197</ele>
        <time>2020-10-29T15:15:57Z</time>
      </trkpt>
      <trkpt lat="43.00948" lon="0.86208">
        <ele>734.34997559</ele>
        <time>2020-10-29T15:15:59Z</time>
      </trkpt>
      <trkpt lat="43.00954" lon="0.86207">
        <ele>734.38000488</ele>
        <time>2020-10-29T15:16:01Z</time>
      </trkpt>
      <trkpt lat="43.00959" lon="0.86206">
        <ele>734.26000977</ele>
        <time>2020-10-29T15:16:02Z</time>
      </trkpt>
      <trkpt lat="43.00965" lon="0.86206">
        <ele>734.52001953</ele>
        <time>2020-10-29T15:16:03Z</time>
      </trkpt>
      <trkpt lat="43.00971" lon="0.86205">
        <ele>734.70001221</ele>
        <time>2020-10-29T15:16:04Z</time>
      </trkpt>
      <trkpt lat="43.00976" lon="0.86204">
        <ele>734.71002197</ele>
        <time>2020-10-29T15:16:05Z</time>
      </trkpt>
      <trkpt lat="43.00982" lon="0.86204">
        <ele>734.58001709</ele>
        <time>2020-10-29T15:16:07Z</time>
      </trkpt>
      <trkpt lat="43.0099" lon="0.86204">
        <ele>734.85998535</ele>
        <time>2020-10-29T15:16:08Z</time>
      </trkpt>
      <trkpt lat="43.00995" lon="0.86204">
        <ele>734.35998535</ele>
        <time>2020-10-29T15:16:09Z</time>
      </trkpt>
      <trkpt lat="43.01" lon="0.86205">
        <ele>733.7199707</ele>
        <time>2020-10-29T15:16:11Z</time>
      </trkpt>
      <trkpt lat="43.01009" lon="0.86207">
        <ele>733.65002441</ele>
        <time>2020-10-29T15:16:12Z</time>
      </trkpt>
      <trkpt lat="43.01021" lon="0.8621">
        <ele>733.57000732</ele>
        <time>2020-10-29T15:16:14Z</time>
      </trkpt>
      <trkpt lat="43.01031" lon="0.86213">
        <ele>733.08001709</ele>
        <time>2020-10-29T15:16:16Z</time>
      </trkpt>
      <trkpt lat="43.01036" lon="0.86215">
        <ele>733.07000732</ele>
        <time>2020-10-29T15:16:17Z</time>
      </trkpt>
      <trkpt lat="43.01041" lon="0.86217">
        <ele>733.45001221</ele>
        <time>2020-10-29T15:16:18Z</time>
      </trkpt>
      <trkpt lat="43.01052" lon="0.86221">
        <ele>732.64001465</ele>
        <time>2020-10-29T15:16:20Z</time>
      </trkpt>
      <trkpt lat="43.0106" lon="0.86223">
        <ele>732.10998535</ele>
        <time>2020-10-29T15:16:21Z</time>
      </trkpt>
      <trkpt lat="43.01064" lon="0.86222">
        <ele>731.97998047</ele>
        <time>2020-10-29T15:16:22Z</time>
      </trkpt>
      <trkpt lat="43.01068" lon="0.86225">
        <ele>731.59997559</ele>
        <time>2020-10-29T15:16:23Z</time>
      </trkpt>
      <trkpt lat="43.01075" lon="0.86233">
        <ele>733.20001221</ele>
        <time>2020-10-29T15:16:25Z</time>
      </trkpt>
      <trkpt lat="43.01083" lon="0.86247">
        <ele>732.15002441</ele>
        <time>2020-10-29T15:16:27Z</time>
      </trkpt>
      <trkpt lat="43.01087" lon="0.86253">
        <ele>731.65997314</ele>
        <time>2020-10-29T15:16:28Z</time>
      </trkpt>
      <trkpt lat="43.01096" lon="0.86268">
        <ele>729.83001709</ele>
        <time>2020-10-29T15:16:30Z</time>
      </trkpt>
      <trkpt lat="43.01109" lon="0.86281">
        <ele>727.66998291</ele>
        <time>2020-10-29T15:16:32Z</time>
      </trkpt>
      <trkpt lat="43.01125" lon="0.86299">
        <ele>725.15997314</ele>
        <time>2020-10-29T15:16:34Z</time>
      </trkpt>
      <trkpt lat="43.01138" lon="0.86313">
        <ele>723.76000977</ele>
        <time>2020-10-29T15:16:36Z</time>
      </trkpt>
      <trkpt lat="43.01152" lon="0.86321">
        <ele>722.03997803</ele>
        <time>2020-10-29T15:16:38Z</time>
      </trkpt>
      <trkpt lat="43.01159" lon="0.86321">
        <ele>721.42999268</ele>
        <time>2020-10-29T15:16:39Z</time>
      </trkpt>
      <trkpt lat="43.01169" lon="0.86332">
        <ele>720.61999512</ele>
        <time>2020-10-29T15:16:41Z</time>
      </trkpt>
      <trkpt lat="43.01173" lon="0.86339">
        <ele>720.04998779</ele>
        <time>2020-10-29T15:16:43Z</time>
      </trkpt>
      <trkpt lat="43.01176" lon="0.86342">
        <ele>719.69000244</ele>
        <time>2020-10-29T15:16:44Z</time>
      </trkpt>
      <trkpt lat="43.01183" lon="0.86349">
        <ele>718.54998779</ele>
        <time>2020-10-29T15:16:46Z</time>
      </trkpt>
      <trkpt lat="43.01186" lon="0.86353">
        <ele>717.84002686</ele>
        <time>2020-10-29T15:16:47Z</time>
      </trkpt>
      <trkpt lat="43.0119" lon="0.86356">
        <ele>717.84002686</ele>
        <time>2020-10-29T15:16:48Z</time>
      </trkpt>
      <trkpt lat="43.01201" lon="0.86364">
        <ele>715.5</ele>
        <time>2020-10-29T15:16:50Z</time>
      </trkpt>
      <trkpt lat="43.01206" lon="0.86368">
        <ele>714.98999023</ele>
        <time>2020-10-29T15:16:51Z</time>
      </trkpt>
      <trkpt lat="43.01213" lon="0.86374">
        <ele>715.48999023</ele>
        <time>2020-10-29T15:16:52Z</time>
      </trkpt>
      <trkpt lat="43.0121" lon="0.86376">
        <ele>714.80999756</ele>
        <time>2020-10-29T15:16:54Z</time>
      </trkpt>
      <trkpt lat="43.01215" lon="0.86379">
        <ele>715.07000732</ele>
        <time>2020-10-29T15:16:55Z</time>
      </trkpt>
      <trkpt lat="43.01218" lon="0.86381">
        <ele>715.13000488</ele>
        <time>2020-10-29T15:16:56Z</time>
      </trkpt>
      <trkpt lat="43.01222" lon="0.86383">
        <ele>715</ele>
        <time>2020-10-29T15:16:57Z</time>
      </trkpt>
      <trkpt lat="43.01225" lon="0.86386">
        <ele>715</ele>
        <time>2020-10-29T15:16:59Z</time>
      </trkpt>
      <trkpt lat="43.01232" lon="0.86389">
        <ele>714.90997314</ele>
        <time>2020-10-29T15:17:00Z</time>
      </trkpt>
      <trkpt lat="43.01236" lon="0.86391">
        <ele>715.88000488</ele>
        <time>2020-10-29T15:17:02Z</time>
      </trkpt>
      <trkpt lat="43.01245" lon="0.86395">
        <ele>717.92999268</ele>
        <time>2020-10-29T15:17:41Z</time>
      </trkpt>
      <trkpt lat="43.01246" lon="0.86396">
        <ele>717.78997803</ele>
        <time>2020-10-29T15:17:42Z</time>
      </trkpt>
      <trkpt lat="43.01247" lon="0.86397">
        <ele>717.59997559</ele>
        <time>2020-10-29T15:17:43Z</time>
      </trkpt>
      <trkpt lat="43.01248" lon="0.86398">
        <ele>717.45001221</ele>
        <time>2020-10-29T15:17:45Z</time>
      </trkpt>
      <trkpt lat="43.0125" lon="0.864">
        <ele>717.69000244</ele>
        <time>2020-10-29T15:17:46Z</time>
      </trkpt>
      <trkpt lat="43.01252" lon="0.86401">
        <ele>717.69000244</ele>
        <time>2020-10-29T15:17:47Z</time>
      </trkpt>
      <trkpt lat="43.01255" lon="0.86403">
        <ele>717.26000977</ele>
        <time>2020-10-29T15:17:48Z</time>
      </trkpt>
      <trkpt lat="43.0126" lon="0.86404">
        <ele>717.33001709</ele>
        <time>2020-10-29T15:17:50Z</time>
      </trkpt>
      <trkpt lat="43.01263" lon="0.86404">
        <ele>717.13000488</ele>
        <time>2020-10-29T15:17:52Z</time>
      </trkpt>
      <trkpt lat="43.01268" lon="0.86405">
        <ele>716.92999268</ele>
        <time>2020-10-29T15:17:53Z</time>
      </trkpt>
      <trkpt lat="43.01272" lon="0.86405">
        <ele>716.95001221</ele>
        <time>2020-10-29T15:17:55Z</time>
      </trkpt>
      <trkpt lat="43.01277" lon="0.86404">
        <ele>717.28997803</ele>
        <time>2020-10-29T15:17:56Z</time>
      </trkpt>
      <trkpt lat="43.0128" lon="0.86403">
        <ele>717.20001221</ele>
        <time>2020-10-29T15:17:57Z</time>
      </trkpt>
      <trkpt lat="43.01284" lon="0.86401">
        <ele>717.40002441</ele>
        <time>2020-10-29T15:17:58Z</time>
      </trkpt>
      <trkpt lat="43.0129" lon="0.86399">
        <ele>717.85998535</ele>
        <time>2020-10-29T15:18:00Z</time>
      </trkpt>
      <trkpt lat="43.01294" lon="0.86397">
        <ele>717.90997314</ele>
        <time>2020-10-29T15:18:01Z</time>
      </trkpt>
      <trkpt lat="43.01298" lon="0.86396">
        <ele>717.80999756</ele>
        <time>2020-10-29T15:18:03Z</time>
      </trkpt>
      <trkpt lat="43.01304" lon="0.86394">
        <ele>718.22998047</ele>
        <time>2020-10-29T15:18:05Z</time>
      </trkpt>
      <trkpt lat="43.01306" lon="0.86392">
        <ele>718.22998047</ele>
        <time>2020-10-29T15:18:06Z</time>
      </trkpt>
      <trkpt lat="43.01311" lon="0.86389">
        <ele>718.38000488</ele>
        <time>2020-10-29T15:18:07Z</time>
      </trkpt>
      <trkpt lat="43.01315" lon="0.86386">
        <ele>718.29998779</ele>
        <time>2020-10-29T15:18:09Z</time>
      </trkpt>
      <trkpt lat="43.01317" lon="0.86385">
        <ele>718.41998291</ele>
        <time>2020-10-29T15:18:10Z</time>
      </trkpt>
      <trkpt lat="43.01319" lon="0.86383">
        <ele>718.11999512</ele>
        <time>2020-10-29T15:18:11Z</time>
      </trkpt>
      <trkpt lat="43.01321" lon="0.8638">
        <ele>718.33001709</ele>
        <time>2020-10-29T15:18:12Z</time>
      </trkpt>
      <trkpt lat="43.01323" lon="0.86377">
        <ele>718.51000977</ele>
        <time>2020-10-29T15:18:14Z</time>
      </trkpt>
      <trkpt lat="43.01327" lon="0.86373">
        <ele>717.89001465</ele>
        <time>2020-10-29T15:18:16Z</time>
      </trkpt>
      <trkpt lat="43.01329" lon="0.86369">
        <ele>718.29998779</ele>
        <time>2020-10-29T15:18:17Z</time>
      </trkpt>
      <trkpt lat="43.01331" lon="0.86366">
        <ele>718</ele>
        <time>2020-10-29T15:18:19Z</time>
      </trkpt>
      <trkpt lat="43.01333" lon="0.86362">
        <ele>717.77001953</ele>
        <time>2020-10-29T15:18:20Z</time>
      </trkpt>
      <trkpt lat="43.01334" lon="0.86359">
        <ele>716.88000488</ele>
        <time>2020-10-29T15:18:22Z</time>
      </trkpt>
      <trkpt lat="43.01334" lon="0.86355">
        <ele>717.65002441</ele>
        <time>2020-10-29T15:18:23Z</time>
      </trkpt>
      <trkpt lat="43.01335" lon="0.86352">
        <ele>717.90997314</ele>
        <time>2020-10-29T15:18:24Z</time>
      </trkpt>
      <trkpt lat="43.01335" lon="0.86351">
        <ele>718.27001953</ele>
        <time>2020-10-29T15:18:27Z</time>
      </trkpt>
      <trkpt lat="43.01334" lon="0.86352">
        <ele>718.59002686</ele>
        <time>2020-10-29T15:18:29Z</time>
      </trkpt>
      <trkpt lat="43.01339" lon="0.86347">
        <ele>719.33001709</ele>
        <time>2020-10-29T15:19:22Z</time>
      </trkpt>
      <trkpt lat="43.01339" lon="0.86346">
        <ele>719.25</ele>
        <time>2020-10-29T15:19:23Z</time>
      </trkpt>
      <trkpt lat="43.01339" lon="0.86345">
        <ele>719.10998535</ele>
        <time>2020-10-29T15:19:24Z</time>
      </trkpt>
      <trkpt lat="43.01339" lon="0.86344">
        <ele>718.45001221</ele>
        <time>2020-10-29T15:19:26Z</time>
      </trkpt>
      <trkpt lat="43.01339" lon="0.86344">
        <ele>718.45001221</ele>
        <time>2020-10-29T15:19:27Z</time>
      </trkpt>
      <trkpt lat="43.01339" lon="0.86343">
        <ele>717.91998291</ele>
        <time>2020-10-29T15:19:28Z</time>
      </trkpt>
      <trkpt lat="43.01339" lon="0.86342">
        <ele>717.36999512</ele>
        <time>2020-10-29T15:19:30Z</time>
      </trkpt>
      <trkpt lat="43.01339" lon="0.86342">
        <ele>717.36999512</ele>
        <time>2020-10-29T15:19:31Z</time>
      </trkpt>
      <trkpt lat="43.0134" lon="0.86339">
        <ele>716.32000732</ele>
        <time>2020-10-29T15:19:32Z</time>
      </trkpt>
      <trkpt lat="43.01341" lon="0.86338">
        <ele>715.76000977</ele>
        <time>2020-10-29T15:19:34Z</time>
      </trkpt>
      <trkpt lat="43.01342" lon="0.86337">
        <ele>715.35998535</ele>
        <time>2020-10-29T15:19:35Z</time>
      </trkpt>
      <trkpt lat="43.01343" lon="0.86336">
        <ele>714.94000244</ele>
        <time>2020-10-29T15:19:36Z</time>
      </trkpt>
      <trkpt lat="43.01344" lon="0.86334">
        <ele>714.67999268</ele>
        <time>2020-10-29T15:19:37Z</time>
      </trkpt>
      <trkpt lat="43.01345" lon="0.8633">
        <ele>713.90997314</ele>
        <time>2020-10-29T15:19:39Z</time>
      </trkpt>
      <trkpt lat="43.01346" lon="0.86328">
        <ele>713</ele>
        <time>2020-10-29T15:19:40Z</time>
      </trkpt>
      <trkpt lat="43.01348" lon="0.86325">
        <ele>712.4699707</ele>
        <time>2020-10-29T15:19:41Z</time>
      </trkpt>
      <trkpt lat="43.01351" lon="0.86322">
        <ele>711.21002197</ele>
        <time>2020-10-29T15:19:42Z</time>
      </trkpt>
      <trkpt lat="43.01354" lon="0.86317">
        <ele>710.52001953</ele>
        <time>2020-10-29T15:19:44Z</time>
      </trkpt>
      <trkpt lat="43.01356" lon="0.86314">
        <ele>709.85998535</ele>
        <time>2020-10-29T15:19:46Z</time>
      </trkpt>
      <trkpt lat="43.01359" lon="0.8631">
        <ele>709.14001465</ele>
        <time>2020-10-29T15:19:47Z</time>
      </trkpt>
      <trkpt lat="43.01363" lon="0.86305">
        <ele>709.02001953</ele>
        <time>2020-10-29T15:19:48Z</time>
      </trkpt>
      <trkpt lat="43.01364" lon="0.863">
        <ele>709.59002686</ele>
        <time>2020-10-29T15:19:50Z</time>
      </trkpt>
      <trkpt lat="43.01364" lon="0.86299">
        <ele>710.34002686</ele>
        <time>2020-10-29T15:19:51Z</time>
      </trkpt>
      <trkpt lat="43.01365" lon="0.86299">
        <ele>710.33001709</ele>
        <time>2020-10-29T15:19:52Z</time>
      </trkpt>
      <trkpt lat="43.01365" lon="0.86298">
        <ele>710.79998779</ele>
        <time>2020-10-29T15:19:53Z</time>
      </trkpt>
      <trkpt lat="43.01367" lon="0.86295">
        <ele>710.79998779</ele>
        <time>2020-10-29T15:19:54Z</time>
      </trkpt>
      <trkpt lat="43.01368" lon="0.86294">
        <ele>711.05999756</ele>
        <time>2020-10-29T15:19:56Z</time>
      </trkpt>
      <trkpt lat="43.0137" lon="0.86292">
        <ele>711.10998535</ele>
        <time>2020-10-29T15:19:57Z</time>
      </trkpt>
      <trkpt lat="43.01373" lon="0.86289">
        <ele>711.77001953</ele>
        <time>2020-10-29T15:19:59Z</time>
      </trkpt>
      <trkpt lat="43.01374" lon="0.86287">
        <ele>711.77001953</ele>
        <time>2020-10-29T15:20:00Z</time>
      </trkpt>
      <trkpt lat="43.01376" lon="0.86285">
        <ele>712.21002197</ele>
        <time>2020-10-29T15:20:01Z</time>
      </trkpt>
      <trkpt lat="43.01378" lon="0.86284">
        <ele>712.39001465</ele>
        <time>2020-10-29T15:20:02Z</time>
      </trkpt>
      <trkpt lat="43.01379" lon="0.86282">
        <ele>712.53997803</ele>
        <time>2020-10-29T15:20:03Z</time>
      </trkpt>
      <trkpt lat="43.01381" lon="0.86281">
        <ele>712.48999023</ele>
        <time>2020-10-29T15:20:05Z</time>
      </trkpt>
      <trkpt lat="43.01385" lon="0.86279">
        <ele>713.16998291</ele>
        <time>2020-10-29T15:20:07Z</time>
      </trkpt>
      <trkpt lat="43.01387" lon="0.86278">
        <ele>713.44000244</ele>
        <time>2020-10-29T15:20:08Z</time>
      </trkpt>
      <trkpt lat="43.01388" lon="0.86277">
        <ele>713.60998535</ele>
        <time>2020-10-29T15:20:09Z</time>
      </trkpt>
      <trkpt lat="43.01389" lon="0.86276">
        <ele>714.22998047</ele>
        <time>2020-10-29T15:20:11Z</time>
      </trkpt>
      <trkpt lat="43.01391" lon="0.86275">
        <ele>714.82000732</ele>
        <time>2020-10-29T15:20:12Z</time>
      </trkpt>
      <trkpt lat="43.01393" lon="0.86275">
        <ele>715.0300293</ele>
        <time>2020-10-29T15:20:13Z</time>
      </trkpt>
      <trkpt lat="43.01395" lon="0.86275">
        <ele>714.90002441</ele>
        <time>2020-10-29T15:20:15Z</time>
      </trkpt>
      <trkpt lat="43.01398" lon="0.86274">
        <ele>715.17999268</ele>
        <time>2020-10-29T15:20:16Z</time>
      </trkpt>
      <trkpt lat="43.014" lon="0.86274">
        <ele>716.44000244</ele>
        <time>2020-10-29T15:20:18Z</time>
      </trkpt>
      <trkpt lat="43.01402" lon="0.86275">
        <ele>716.40002441</ele>
        <time>2020-10-29T15:20:19Z</time>
      </trkpt>
      <trkpt lat="43.01404" lon="0.86274">
        <ele>716.53997803</ele>
        <time>2020-10-29T15:20:20Z</time>
      </trkpt>
      <trkpt lat="43.01406" lon="0.86273">
        <ele>715.84997559</ele>
        <time>2020-10-29T15:20:21Z</time>
      </trkpt>
      <trkpt lat="43.01408" lon="0.86273">
        <ele>716.39001465</ele>
        <time>2020-10-29T15:20:23Z</time>
      </trkpt>
      <trkpt lat="43.01409" lon="0.86272">
        <ele>717.59997559</ele>
        <time>2020-10-29T15:20:24Z</time>
      </trkpt>
      <trkpt lat="43.0141" lon="0.86271">
        <ele>717.58001709</ele>
        <time>2020-10-29T15:20:25Z</time>
      </trkpt>
      <trkpt lat="43.01411" lon="0.8627">
        <ele>717.58001709</ele>
        <time>2020-10-29T15:20:26Z</time>
      </trkpt>
      <trkpt lat="43.01412" lon="0.8627">
        <ele>717.36999512</ele>
        <time>2020-10-29T15:20:28Z</time>
      </trkpt>
      <trkpt lat="43.01414" lon="0.8627">
        <ele>718.13000488</ele>
        <time>2020-10-29T15:20:29Z</time>
      </trkpt>
      <trkpt lat="43.01416" lon="0.86271">
        <ele>718.58001709</ele>
        <time>2020-10-29T15:20:31Z</time>
      </trkpt>
      <trkpt lat="43.01421" lon="0.86272">
        <ele>718.58001709</ele>
        <time>2020-10-29T15:20:32Z</time>
      </trkpt>
      <trkpt lat="43.01424" lon="0.86274">
        <ele>718.46002197</ele>
        <time>2020-10-29T15:20:33Z</time>
      </trkpt>
      <trkpt lat="43.01426" lon="0.86275">
        <ele>718.51000977</ele>
        <time>2020-10-29T15:20:34Z</time>
      </trkpt>
      <trkpt lat="43.0143" lon="0.86277">
        <ele>718.40002441</ele>
        <time>2020-10-29T15:20:36Z</time>
      </trkpt>
      <trkpt lat="43.01432" lon="0.86279">
        <ele>718.89001465</ele>
        <time>2020-10-29T15:20:37Z</time>
      </trkpt>
      <trkpt lat="43.01435" lon="0.86279">
        <ele>718.7199707</ele>
        <time>2020-10-29T15:20:38Z</time>
      </trkpt>
      <trkpt lat="43.01437" lon="0.86279">
        <ele>719.96002197</ele>
        <time>2020-10-29T15:20:40Z</time>
      </trkpt>
      <trkpt lat="43.01439" lon="0.86279">
        <ele>720.25</ele>
        <time>2020-10-29T15:20:41Z</time>
      </trkpt>
      <trkpt lat="43.01441" lon="0.86279">
        <ele>720.58001709</ele>
        <time>2020-10-29T15:20:42Z</time>
      </trkpt>
      <trkpt lat="43.01445" lon="0.86277">
        <ele>720.59002686</ele>
        <time>2020-10-29T15:20:44Z</time>
      </trkpt>
      <trkpt lat="43.01447" lon="0.86276">
        <ele>720.5300293</ele>
        <time>2020-10-29T15:20:46Z</time>
      </trkpt>
      <trkpt lat="43.01452" lon="0.86274">
        <ele>720.83001709</ele>
        <time>2020-10-29T15:20:47Z</time>
      </trkpt>
      <trkpt lat="43.01454" lon="0.86272">
        <ele>720.77001953</ele>
        <time>2020-10-29T15:20:49Z</time>
      </trkpt>
      <trkpt lat="43.01457" lon="0.8627">
        <ele>720.60998535</ele>
        <time>2020-10-29T15:20:50Z</time>
      </trkpt>
      <trkpt lat="43.0146" lon="0.86267">
        <ele>721.32000732</ele>
        <time>2020-10-29T15:20:51Z</time>
      </trkpt>
      <trkpt lat="43.01462" lon="0.86264">
        <ele>721.90997314</ele>
        <time>2020-10-29T15:20:53Z</time>
      </trkpt>
      <trkpt lat="43.01466" lon="0.86259">
        <ele>722.51000977</ele>
        <time>2020-10-29T15:20:55Z</time>
      </trkpt>
      <trkpt lat="43.01469" lon="0.86255">
        <ele>723.44000244</ele>
        <time>2020-10-29T15:20:56Z</time>
      </trkpt>
      <trkpt lat="43.01474" lon="0.86249">
        <ele>723.27001953</ele>
        <time>2020-10-29T15:20:58Z</time>
      </trkpt>
      <trkpt lat="43.01482" lon="0.86241">
        <ele>722.80999756</ele>
        <time>2020-10-29T15:20:59Z</time>
      </trkpt>
      <trkpt lat="43.01485" lon="0.86238">
        <ele>723.16998291</ele>
        <time>2020-10-29T15:21:00Z</time>
      </trkpt>
      <trkpt lat="43.01487" lon="0.86235">
        <ele>723.7800293</ele>
        <time>2020-10-29T15:21:01Z</time>
      </trkpt>
      <trkpt lat="43.01488" lon="0.86234">
        <ele>724.09002686</ele>
        <time>2020-10-29T15:21:02Z</time>
      </trkpt>
      <trkpt lat="43.01489" lon="0.86231">
        <ele>724.10998535</ele>
        <time>2020-10-29T15:21:04Z</time>
      </trkpt>
      <trkpt lat="43.01491" lon="0.86226">
        <ele>725.65997314</ele>
        <time>2020-10-29T15:21:05Z</time>
      </trkpt>
      <trkpt lat="43.01494" lon="0.86224">
        <ele>726.23999023</ele>
        <time>2020-10-29T15:21:07Z</time>
      </trkpt>
      <trkpt lat="43.01496" lon="0.86224">
        <ele>727.7800293</ele>
        <time>2020-10-29T15:21:13Z</time>
      </trkpt>
      <trkpt lat="43.01497" lon="0.86222">
        <ele>727.97998047</ele>
        <time>2020-10-29T15:21:15Z</time>
      </trkpt>
      <trkpt lat="43.01499" lon="0.86218">
        <ele>728.88000488</ele>
        <time>2020-10-29T15:21:21Z</time>
      </trkpt>
      <trkpt lat="43.01499" lon="0.86218">
        <ele>728.95001221</ele>
        <time>2020-10-29T15:21:22Z</time>
      </trkpt>
      <trkpt lat="43.01499" lon="0.86216">
        <ele>729.5300293</ele>
        <time>2020-10-29T15:21:32Z</time>
      </trkpt>
      <trkpt lat="43.01499" lon="0.86215">
        <ele>729.61999512</ele>
        <time>2020-10-29T15:21:34Z</time>
      </trkpt>
      <trkpt lat="43.01499" lon="0.86213">
        <ele>729.60998535</ele>
        <time>2020-10-29T15:21:36Z</time>
      </trkpt>
      <trkpt lat="43.01501" lon="0.86209">
        <ele>729.82000732</ele>
        <time>2020-10-29T15:21:37Z</time>
      </trkpt>
      <trkpt lat="43.01504" lon="0.86203">
        <ele>729.55999756</ele>
        <time>2020-10-29T15:21:39Z</time>
      </trkpt>
      <trkpt lat="43.01506" lon="0.862">
        <ele>729.4699707</ele>
        <time>2020-10-29T15:21:40Z</time>
      </trkpt>
      <trkpt lat="43.01508" lon="0.86198">
        <ele>729.19000244</ele>
        <time>2020-10-29T15:21:41Z</time>
      </trkpt>
      <trkpt lat="43.01511" lon="0.86194">
        <ele>729.66998291</ele>
        <time>2020-10-29T15:21:43Z</time>
      </trkpt>
      <trkpt lat="43.01513" lon="0.8619">
        <ele>729.89001465</ele>
        <time>2020-10-29T15:21:45Z</time>
      </trkpt>
      <trkpt lat="43.0152" lon="0.86179">
        <ele>730.75</ele>
        <time>2020-10-29T15:21:46Z</time>
      </trkpt>
      <trkpt lat="43.01522" lon="0.86174">
        <ele>730.70001221</ele>
        <time>2020-10-29T15:21:48Z</time>
      </trkpt>
      <trkpt lat="43.01525" lon="0.86171">
        <ele>731.45001221</ele>
        <time>2020-10-29T15:21:49Z</time>
      </trkpt>
      <trkpt lat="43.01527" lon="0.86168">
        <ele>731.75</ele>
        <time>2020-10-29T15:21:51Z</time>
      </trkpt>
      <trkpt lat="43.01528" lon="0.86165">
        <ele>732.2800293</ele>
        <time>2020-10-29T15:21:52Z</time>
      </trkpt>
      <trkpt lat="43.0153" lon="0.8616">
        <ele>733.84997559</ele>
        <time>2020-10-29T15:21:53Z</time>
      </trkpt>
      <trkpt lat="43.01532" lon="0.86158">
        <ele>734.34002686</ele>
        <time>2020-10-29T15:21:54Z</time>
      </trkpt>
      <trkpt lat="43.01534" lon="0.86156">
        <ele>734.60998535</ele>
        <time>2020-10-29T15:21:56Z</time>
      </trkpt>
      <trkpt lat="43.01536" lon="0.86152">
        <ele>735.03997803</ele>
        <time>2020-10-29T15:21:57Z</time>
      </trkpt>
      <trkpt lat="43.01538" lon="0.86148">
        <ele>735.36999512</ele>
        <time>2020-10-29T15:21:58Z</time>
      </trkpt>
      <trkpt lat="43.0154" lon="0.86144">
        <ele>735.46002197</ele>
        <time>2020-10-29T15:22:00Z</time>
      </trkpt>
      <trkpt lat="43.01543" lon="0.8614">
        <ele>736.11999512</ele>
        <time>2020-10-29T15:22:01Z</time>
      </trkpt>
      <trkpt lat="43.01545" lon="0.86137">
        <ele>736.35998535</ele>
        <time>2020-10-29T15:22:02Z</time>
      </trkpt>
      <trkpt lat="43.01546" lon="0.86134">
        <ele>737.04998779</ele>
        <time>2020-10-29T15:22:04Z</time>
      </trkpt>
      <trkpt lat="43.01548" lon="0.86129">
        <ele>737.84997559</ele>
        <time>2020-10-29T15:22:05Z</time>
      </trkpt>
      <trkpt lat="43.0155" lon="0.86124">
        <ele>738.2199707</ele>
        <time>2020-10-29T15:22:06Z</time>
      </trkpt>
      <trkpt lat="43.01552" lon="0.8612">
        <ele>738.44000244</ele>
        <time>2020-10-29T15:22:07Z</time>
      </trkpt>
      <trkpt lat="43.01555" lon="0.86115">
        <ele>739.33001709</ele>
        <time>2020-10-29T15:22:09Z</time>
      </trkpt>
      <trkpt lat="43.01557" lon="0.86111">
        <ele>739.73999023</ele>
        <time>2020-10-29T15:22:10Z</time>
      </trkpt>
      <trkpt lat="43.01559" lon="0.86107">
        <ele>739.97998047</ele>
        <time>2020-10-29T15:22:11Z</time>
      </trkpt>
      <trkpt lat="43.0156" lon="0.86102">
        <ele>740.13000488</ele>
        <time>2020-10-29T15:22:13Z</time>
      </trkpt>
      <trkpt lat="43.01563" lon="0.86095">
        <ele>740.61999512</ele>
        <time>2020-10-29T15:22:14Z</time>
      </trkpt>
      <trkpt lat="43.01564" lon="0.86092">
        <ele>740.71002197</ele>
        <time>2020-10-29T15:22:15Z</time>
      </trkpt>
      <trkpt lat="43.01565" lon="0.86088">
        <ele>741.28997803</ele>
        <time>2020-10-29T15:22:17Z</time>
      </trkpt>
      <trkpt lat="43.01566" lon="0.86085">
        <ele>741.28997803</ele>
        <time>2020-10-29T15:22:18Z</time>
      </trkpt>
      <trkpt lat="43.01568" lon="0.86079">
        <ele>742.28997803</ele>
        <time>2020-10-29T15:22:19Z</time>
      </trkpt>
      <trkpt lat="43.01569" lon="0.86076">
        <ele>742.75</ele>
        <time>2020-10-29T15:22:21Z</time>
      </trkpt>
      <trkpt lat="43.0157" lon="0.8607">
        <ele>743.90002441</ele>
        <time>2020-10-29T15:22:22Z</time>
      </trkpt>
      <trkpt lat="43.01571" lon="0.86066">
        <ele>744.23999023</ele>
        <time>2020-10-29T15:22:23Z</time>
      </trkpt>
      <trkpt lat="43.01573" lon="0.86062">
        <ele>744.21002197</ele>
        <time>2020-10-29T15:22:25Z</time>
      </trkpt>
      <trkpt lat="43.01574" lon="0.86057">
        <ele>744.57000732</ele>
        <time>2020-10-29T15:22:27Z</time>
      </trkpt>
      <trkpt lat="43.01575" lon="0.86054">
        <ele>745.03997803</ele>
        <time>2020-10-29T15:22:28Z</time>
      </trkpt>
      <trkpt lat="43.01577" lon="0.8605">
        <ele>745.98999023</ele>
        <time>2020-10-29T15:22:29Z</time>
      </trkpt>
      <trkpt lat="43.01578" lon="0.86047">
        <ele>746.38000488</ele>
        <time>2020-10-29T15:22:30Z</time>
      </trkpt>
      <trkpt lat="43.0158" lon="0.86043">
        <ele>746.67999268</ele>
        <time>2020-10-29T15:22:31Z</time>
      </trkpt>
      <trkpt lat="43.01583" lon="0.86038">
        <ele>747.47998047</ele>
        <time>2020-10-29T15:22:33Z</time>
      </trkpt>
      <trkpt lat="43.01584" lon="0.86035">
        <ele>747.64001465</ele>
        <time>2020-10-29T15:22:34Z</time>
      </trkpt>
      <trkpt lat="43.01586" lon="0.86032">
        <ele>747.80999756</ele>
        <time>2020-10-29T15:22:35Z</time>
      </trkpt>
      <trkpt lat="43.01589" lon="0.86025">
        <ele>747.83001709</ele>
        <time>2020-10-29T15:22:37Z</time>
      </trkpt>
      <trkpt lat="43.0159" lon="0.86021">
        <ele>748.07000732</ele>
        <time>2020-10-29T15:22:39Z</time>
      </trkpt>
      <trkpt lat="43.01593" lon="0.86015">
        <ele>749.86999512</ele>
        <time>2020-10-29T15:22:41Z</time>
      </trkpt>
      <trkpt lat="43.01595" lon="0.86009">
        <ele>750.25</ele>
        <time>2020-10-29T15:22:42Z</time>
      </trkpt>
      <trkpt lat="43.01597" lon="0.86005">
        <ele>750.5</ele>
        <time>2020-10-29T15:22:43Z</time>
      </trkpt>
      <trkpt lat="43.01599" lon="0.86001">
        <ele>751.07000732</ele>
        <time>2020-10-29T15:22:44Z</time>
      </trkpt>
      <trkpt lat="43.01601" lon="0.85997">
        <ele>751.59002686</ele>
        <time>2020-10-29T15:22:45Z</time>
      </trkpt>
      <trkpt lat="43.01604" lon="0.85991">
        <ele>753.75</ele>
        <time>2020-10-29T15:22:47Z</time>
      </trkpt>
      <trkpt lat="43.01608" lon="0.85985">
        <ele>753.9699707</ele>
        <time>2020-10-29T15:22:49Z</time>
      </trkpt>
      <trkpt lat="43.01613" lon="0.85978">
        <ele>754.03997803</ele>
        <time>2020-10-29T15:22:50Z</time>
      </trkpt>
      <trkpt lat="43.01617" lon="0.85974">
        <ele>754.19000244</ele>
        <time>2020-10-29T15:22:51Z</time>
      </trkpt>
      <trkpt lat="43.01622" lon="0.8597">
        <ele>754.33001709</ele>
        <time>2020-10-29T15:22:53Z</time>
      </trkpt>
      <trkpt lat="43.01626" lon="0.85968">
        <ele>754.47998047</ele>
        <time>2020-10-29T15:22:54Z</time>
      </trkpt>
      <trkpt lat="43.0163" lon="0.85965">
        <ele>754.46002197</ele>
        <time>2020-10-29T15:22:56Z</time>
      </trkpt>
      <trkpt lat="43.01633" lon="0.85963">
        <ele>754.67999268</ele>
        <time>2020-10-29T15:22:57Z</time>
      </trkpt>
      <trkpt lat="43.01638" lon="0.8596">
        <ele>749.38000488</ele>
        <time>2020-10-29T15:22:58Z</time>
      </trkpt>
      <trkpt lat="43.01642" lon="0.85958">
        <ele>751.15002441</ele>
        <time>2020-10-29T15:23:00Z</time>
      </trkpt>
      <trkpt lat="43.01645" lon="0.85956">
        <ele>752.46002197</ele>
        <time>2020-10-29T15:23:01Z</time>
      </trkpt>
      <trkpt lat="43.01648" lon="0.85956">
        <ele>753.20001221</ele>
        <time>2020-10-29T15:23:02Z</time>
      </trkpt>
      <trkpt lat="43.01652" lon="0.85955">
        <ele>753.72998047</ele>
        <time>2020-10-29T15:23:04Z</time>
      </trkpt>
      <trkpt lat="43.01657" lon="0.85956">
        <ele>755.15997314</ele>
        <time>2020-10-29T15:23:05Z</time>
      </trkpt>
      <trkpt lat="43.0166" lon="0.85956">
        <ele>755.75</ele>
        <time>2020-10-29T15:23:06Z</time>
      </trkpt>
      <trkpt lat="43.01666" lon="0.85958">
        <ele>756.44000244</ele>
        <time>2020-10-29T15:23:08Z</time>
      </trkpt>
      <trkpt lat="43.01672" lon="0.8596">
        <ele>757.15002441</ele>
        <time>2020-10-29T15:23:09Z</time>
      </trkpt>
      <trkpt lat="43.01677" lon="0.85962">
        <ele>757.48999023</ele>
        <time>2020-10-29T15:23:10Z</time>
      </trkpt>
      <trkpt lat="43.01682" lon="0.85965">
        <ele>757.77001953</ele>
        <time>2020-10-29T15:23:11Z</time>
      </trkpt>
      <trkpt lat="43.01688" lon="0.85967">
        <ele>758.17999268</ele>
        <time>2020-10-29T15:23:13Z</time>
      </trkpt>
      <trkpt lat="43.01695" lon="0.85971">
        <ele>758.71002197</ele>
        <time>2020-10-29T15:23:14Z</time>
      </trkpt>
      <trkpt lat="43.01698" lon="0.85974">
        <ele>759.59002686</ele>
        <time>2020-10-29T15:23:16Z</time>
      </trkpt>
      <trkpt lat="43.01702" lon="0.85976">
        <ele>759.72998047</ele>
        <time>2020-10-29T15:23:17Z</time>
      </trkpt>
      <trkpt lat="43.01706" lon="0.8598">
        <ele>759.60998535</ele>
        <time>2020-10-29T15:23:18Z</time>
      </trkpt>
      <trkpt lat="43.01709" lon="0.85983">
        <ele>759.59002686</ele>
        <time>2020-10-29T15:23:19Z</time>
      </trkpt>
      <trkpt lat="43.01712" lon="0.85986">
        <ele>759.85998535</ele>
        <time>2020-10-29T15:23:21Z</time>
      </trkpt>
      <trkpt lat="43.01716" lon="0.85988">
        <ele>760</ele>
        <time>2020-10-29T15:23:22Z</time>
      </trkpt>
      <trkpt lat="43.01719" lon="0.85989">
        <ele>760.15997314</ele>
        <time>2020-10-29T15:23:23Z</time>
      </trkpt>
      <trkpt lat="43.01721" lon="0.85991">
        <ele>760.59997559</ele>
        <time>2020-10-29T15:23:24Z</time>
      </trkpt>
      <trkpt lat="43.01724" lon="0.85993">
        <ele>762.09997559</ele>
        <time>2020-10-29T15:23:26Z</time>
      </trkpt>
      <trkpt lat="43.01726" lon="0.85994">
        <ele>762.07000732</ele>
        <time>2020-10-29T15:23:27Z</time>
      </trkpt>
      <trkpt lat="43.01728" lon="0.85996">
        <ele>762.2199707</ele>
        <time>2020-10-29T15:23:28Z</time>
      </trkpt>
      <trkpt lat="43.01731" lon="0.85998">
        <ele>762.20001221</ele>
        <time>2020-10-29T15:23:30Z</time>
      </trkpt>
      <trkpt lat="43.01734" lon="0.86">
        <ele>760.7800293</ele>
        <time>2020-10-29T15:23:31Z</time>
      </trkpt>
      <trkpt lat="43.01736" lon="0.86002">
        <ele>761.39001465</ele>
        <time>2020-10-29T15:23:33Z</time>
      </trkpt>
      <trkpt lat="43.01739" lon="0.86003">
        <ele>761.75</ele>
        <time>2020-10-29T15:23:34Z</time>
      </trkpt>
      <trkpt lat="43.01741" lon="0.86005">
        <ele>761.94000244</ele>
        <time>2020-10-29T15:23:35Z</time>
      </trkpt>
      <trkpt lat="43.01742" lon="0.86006">
        <ele>762.40002441</ele>
        <time>2020-10-29T15:23:37Z</time>
      </trkpt>
      <trkpt lat="43.01744" lon="0.86008">
        <ele>762.59002686</ele>
        <time>2020-10-29T15:23:38Z</time>
      </trkpt>
      <trkpt lat="43.01746" lon="0.8601">
        <ele>762.7800293</ele>
        <time>2020-10-29T15:23:39Z</time>
      </trkpt>
      <trkpt lat="43.01749" lon="0.86011">
        <ele>763.78997803</ele>
        <time>2020-10-29T15:23:41Z</time>
      </trkpt>
      <trkpt lat="43.01751" lon="0.86013">
        <ele>764</ele>
        <time>2020-10-29T15:23:42Z</time>
      </trkpt>
      <trkpt lat="43.01754" lon="0.86014">
        <ele>765.34997559</ele>
        <time>2020-10-29T15:23:44Z</time>
      </trkpt>
      <trkpt lat="43.01757" lon="0.86017">
        <ele>765.76000977</ele>
        <time>2020-10-29T15:23:45Z</time>
      </trkpt>
      <trkpt lat="43.0176" lon="0.8602">
        <ele>766.60998535</ele>
        <time>2020-10-29T15:23:47Z</time>
      </trkpt>
      <trkpt lat="43.01765" lon="0.86025">
        <ele>766.48999023</ele>
        <time>2020-10-29T15:23:49Z</time>
      </trkpt>
      <trkpt lat="43.01769" lon="0.86028">
        <ele>766.28997803</ele>
        <time>2020-10-29T15:23:50Z</time>
      </trkpt>
      <trkpt lat="43.01771" lon="0.86031">
        <ele>766.19000244</ele>
        <time>2020-10-29T15:23:51Z</time>
      </trkpt>
      <trkpt lat="43.01773" lon="0.86034">
        <ele>766.17999268</ele>
        <time>2020-10-29T15:23:53Z</time>
      </trkpt>
      <trkpt lat="43.01774" lon="0.86036">
        <ele>766.15997314</ele>
        <time>2020-10-29T15:23:54Z</time>
      </trkpt>
      <trkpt lat="43.01776" lon="0.8604">
        <ele>766</ele>
        <time>2020-10-29T15:23:55Z</time>
      </trkpt>
      <trkpt lat="43.01777" lon="0.86042">
        <ele>765.83001709</ele>
        <time>2020-10-29T15:23:56Z</time>
      </trkpt>
      <trkpt lat="43.01779" lon="0.86045">
        <ele>765.30999756</ele>
        <time>2020-10-29T15:23:58Z</time>
      </trkpt>
      <trkpt lat="43.0178" lon="0.86048">
        <ele>765.30999756</ele>
        <time>2020-10-29T15:23:59Z</time>
      </trkpt>
      <trkpt lat="43.01782" lon="0.8605">
        <ele>764.9699707</ele>
        <time>2020-10-29T15:24:00Z</time>
      </trkpt>
      <trkpt lat="43.01784" lon="0.86054">
        <ele>764.65997314</ele>
        <time>2020-10-29T15:24:01Z</time>
      </trkpt>
      <trkpt lat="43.01787" lon="0.86058">
        <ele>765.61999512</ele>
        <time>2020-10-29T15:24:02Z</time>
      </trkpt>
      <trkpt lat="43.0179" lon="0.86063">
        <ele>767.51000977</ele>
        <time>2020-10-29T15:24:04Z</time>
      </trkpt>
      <trkpt lat="43.01795" lon="0.86069">
        <ele>767.35998535</ele>
        <time>2020-10-29T15:24:05Z</time>
      </trkpt>
      <trkpt lat="43.01799" lon="0.86073">
        <ele>767.52001953</ele>
        <time>2020-10-29T15:24:06Z</time>
      </trkpt>
      <trkpt lat="43.01804" lon="0.86079">
        <ele>767.52001953</ele>
        <time>2020-10-29T15:24:07Z</time>
      </trkpt>
      <trkpt lat="43.01811" lon="0.86087">
        <ele>768.7199707</ele>
        <time>2020-10-29T15:24:09Z</time>
      </trkpt>
      <trkpt lat="43.01816" lon="0.86095">
        <ele>768.60998535</ele>
        <time>2020-10-29T15:24:11Z</time>
      </trkpt>
      <trkpt lat="43.01821" lon="0.86103">
        <ele>769.64001465</ele>
        <time>2020-10-29T15:24:12Z</time>
      </trkpt>
      <trkpt lat="43.01825" lon="0.8611">
        <ele>769.70001221</ele>
        <time>2020-10-29T15:24:14Z</time>
      </trkpt>
      <trkpt lat="43.0183" lon="0.86119">
        <ele>769.5300293</ele>
        <time>2020-10-29T15:24:15Z</time>
      </trkpt>
      <trkpt lat="43.01832" lon="0.86124">
        <ele>769.59002686</ele>
        <time>2020-10-29T15:24:16Z</time>
      </trkpt>
      <trkpt lat="43.01836" lon="0.86131">
        <ele>770.02001953</ele>
        <time>2020-10-29T15:24:18Z</time>
      </trkpt>
      <trkpt lat="43.01838" lon="0.86139">
        <ele>769.94000244</ele>
        <time>2020-10-29T15:24:19Z</time>
      </trkpt>
      <trkpt lat="43.0184" lon="0.86144">
        <ele>770.28997803</ele>
        <time>2020-10-29T15:24:20Z</time>
      </trkpt>
      <trkpt lat="43.01842" lon="0.8615">
        <ele>770.23999023</ele>
        <time>2020-10-29T15:24:22Z</time>
      </trkpt>
      <trkpt lat="43.01843" lon="0.86156">
        <ele>770.15002441</ele>
        <time>2020-10-29T15:24:23Z</time>
      </trkpt>
      <trkpt lat="43.01845" lon="0.86162">
        <ele>771.75</ele>
        <time>2020-10-29T15:24:24Z</time>
      </trkpt>
      <trkpt lat="43.01848" lon="0.86169">
        <ele>771.21002197</ele>
        <time>2020-10-29T15:24:25Z</time>
      </trkpt>
      <trkpt lat="43.0185" lon="0.86178">
        <ele>771.14001465</ele>
        <time>2020-10-29T15:24:27Z</time>
      </trkpt>
      <trkpt lat="43.01858" lon="0.86199">
        <ele>770.01000977</ele>
        <time>2020-10-29T15:24:29Z</time>
      </trkpt>
      <trkpt lat="43.01868" lon="0.86215">
        <ele>766.40002441</ele>
        <time>2020-10-29T15:24:31Z</time>
      </trkpt>
      <trkpt lat="43.0188" lon="0.86232">
        <ele>765.23999023</ele>
        <time>2020-10-29T15:24:33Z</time>
      </trkpt>
      <trkpt lat="43.01886" lon="0.86242">
        <ele>763.92999268</ele>
        <time>2020-10-29T15:24:34Z</time>
      </trkpt>
      <trkpt lat="43.01891" lon="0.86252">
        <ele>763.32000732</ele>
        <time>2020-10-29T15:24:35Z</time>
      </trkpt>
      <trkpt lat="43.01892" lon="0.86277">
        <ele>762.22998047</ele>
        <time>2020-10-29T15:24:37Z</time>
      </trkpt>
      <trkpt lat="43.01885" lon="0.86302">
        <ele>760.78997803</ele>
        <time>2020-10-29T15:24:39Z</time>
      </trkpt>
      <trkpt lat="43.01881" lon="0.86325">
        <ele>759.60998535</ele>
        <time>2020-10-29T15:24:41Z</time>
      </trkpt>
      <trkpt lat="43.0188" lon="0.86336">
        <ele>758.98999023</ele>
        <time>2020-10-29T15:24:42Z</time>
      </trkpt>
      <trkpt lat="43.01881" lon="0.86359">
        <ele>758.20001221</ele>
        <time>2020-10-29T15:24:44Z</time>
      </trkpt>
      <trkpt lat="43.01884" lon="0.8637">
        <ele>757.28997803</ele>
        <time>2020-10-29T15:24:45Z</time>
      </trkpt>
      <trkpt lat="43.01893" lon="0.8639">
        <ele>755.95001221</ele>
        <time>2020-10-29T15:24:47Z</time>
      </trkpt>
      <trkpt lat="43.01899" lon="0.864">
        <ele>755.52001953</ele>
        <time>2020-10-29T15:24:48Z</time>
      </trkpt>
      <trkpt lat="43.01905" lon="0.86409">
        <ele>755.16998291</ele>
        <time>2020-10-29T15:24:49Z</time>
      </trkpt>
      <trkpt lat="43.01915" lon="0.86428">
        <ele>754.28997803</ele>
        <time>2020-10-29T15:24:51Z</time>
      </trkpt>
      <trkpt lat="43.01919" lon="0.86437">
        <ele>752.73999023</ele>
        <time>2020-10-29T15:24:52Z</time>
      </trkpt>
      <trkpt lat="43.01929" lon="0.86452">
        <ele>752.17999268</ele>
        <time>2020-10-29T15:24:54Z</time>
      </trkpt>
      <trkpt lat="43.01941" lon="0.86467">
        <ele>750.84002686</ele>
        <time>2020-10-29T15:24:56Z</time>
      </trkpt>
      <trkpt lat="43.01955" lon="0.86478">
        <ele>750.47998047</ele>
        <time>2020-10-29T15:24:58Z</time>
      </trkpt>
      <trkpt lat="43.01962" lon="0.86481">
        <ele>750.23999023</ele>
        <time>2020-10-29T15:24:59Z</time>
      </trkpt>
      <trkpt lat="43.01976" lon="0.86489">
        <ele>748.55999756</ele>
        <time>2020-10-29T15:25:01Z</time>
      </trkpt>
      <trkpt lat="43.01984" lon="0.86493">
        <ele>748.25</ele>
        <time>2020-10-29T15:25:02Z</time>
      </trkpt>
      <trkpt lat="43.02" lon="0.86499">
        <ele>746.0300293</ele>
        <time>2020-10-29T15:25:04Z</time>
      </trkpt>
      <trkpt lat="43.02009" lon="0.865">
        <ele>744.59002686</ele>
        <time>2020-10-29T15:25:05Z</time>
      </trkpt>
      <trkpt lat="43.02028" lon="0.86504">
        <ele>742.71002197</ele>
        <time>2020-10-29T15:25:07Z</time>
      </trkpt>
      <trkpt lat="43.02046" lon="0.86508">
        <ele>743.2199707</ele>
        <time>2020-10-29T15:25:09Z</time>
      </trkpt>
      <trkpt lat="43.02061" lon="0.86515">
        <ele>743.34997559</ele>
        <time>2020-10-29T15:25:11Z</time>
      </trkpt>
      <trkpt lat="43.02068" lon="0.86518">
        <ele>743.17999268</ele>
        <time>2020-10-29T15:25:12Z</time>
      </trkpt>
      <trkpt lat="43.02075" lon="0.8652">
        <ele>743.5300293</ele>
        <time>2020-10-29T15:25:13Z</time>
      </trkpt>
      <trkpt lat="43.02087" lon="0.86521">
        <ele>743.40002441</ele>
        <time>2020-10-29T15:25:15Z</time>
      </trkpt>
      <trkpt lat="43.02097" lon="0.86518">
        <ele>743.78997803</ele>
        <time>2020-10-29T15:25:17Z</time>
      </trkpt>
      <trkpt lat="43.02102" lon="0.86518">
        <ele>744.26000977</ele>
        <time>2020-10-29T15:25:18Z</time>
      </trkpt>
      <trkpt lat="43.0211" lon="0.86517">
        <ele>745.01000977</ele>
        <time>2020-10-29T15:25:20Z</time>
      </trkpt>
      <trkpt lat="43.02115" lon="0.86516">
        <ele>745.70001221</ele>
        <time>2020-10-29T15:25:22Z</time>
      </trkpt>
      <trkpt lat="43.02118" lon="0.86517">
        <ele>746.04998779</ele>
        <time>2020-10-29T15:25:23Z</time>
      </trkpt>
      <trkpt lat="43.02125" lon="0.86518">
        <ele>747.11999512</ele>
        <time>2020-10-29T15:25:25Z</time>
      </trkpt>
      <trkpt lat="43.02128" lon="0.86519">
        <ele>747.65002441</ele>
        <time>2020-10-29T15:25:26Z</time>
      </trkpt>
      <trkpt lat="43.02133" lon="0.8652">
        <ele>747.69000244</ele>
        <time>2020-10-29T15:25:27Z</time>
      </trkpt>
      <trkpt lat="43.02137" lon="0.86522">
        <ele>748.27001953</ele>
        <time>2020-10-29T15:25:28Z</time>
      </trkpt>
      <trkpt lat="43.0214" lon="0.86523">
        <ele>748.71002197</ele>
        <time>2020-10-29T15:25:30Z</time>
      </trkpt>
      <trkpt lat="43.02143" lon="0.86524">
        <ele>749.11999512</ele>
        <time>2020-10-29T15:25:31Z</time>
      </trkpt>
      <trkpt lat="43.02147" lon="0.86525">
        <ele>749.51000977</ele>
        <time>2020-10-29T15:25:32Z</time>
      </trkpt>
      <trkpt lat="43.0215" lon="0.86526">
        <ele>749.80999756</ele>
        <time>2020-10-29T15:25:34Z</time>
      </trkpt>
      <trkpt lat="43.02153" lon="0.86527">
        <ele>749.51000977</ele>
        <time>2020-10-29T15:25:35Z</time>
      </trkpt>
      <trkpt lat="43.02157" lon="0.86528">
        <ele>749.72998047</ele>
        <time>2020-10-29T15:25:36Z</time>
      </trkpt>
      <trkpt lat="43.02161" lon="0.86527">
        <ele>750.20001221</ele>
        <time>2020-10-29T15:25:37Z</time>
      </trkpt>
      <trkpt lat="43.02165" lon="0.86527">
        <ele>750.35998535</ele>
        <time>2020-10-29T15:25:39Z</time>
      </trkpt>
      <trkpt lat="43.02169" lon="0.86527">
        <ele>750.66998291</ele>
        <time>2020-10-29T15:25:40Z</time>
      </trkpt>
      <trkpt lat="43.02173" lon="0.86527">
        <ele>750.85998535</ele>
        <time>2020-10-29T15:25:41Z</time>
      </trkpt>
      <trkpt lat="43.02177" lon="0.86526">
        <ele>751.88000488</ele>
        <time>2020-10-29T15:25:43Z</time>
      </trkpt>
      <trkpt lat="43.02182" lon="0.86524">
        <ele>752.08001709</ele>
        <time>2020-10-29T15:25:44Z</time>
      </trkpt>
      <trkpt lat="43.02197" lon="0.86515">
        <ele>751.4699707</ele>
        <time>2020-10-29T15:25:46Z</time>
      </trkpt>
      <trkpt lat="43.02203" lon="0.86511">
        <ele>751.36999512</ele>
        <time>2020-10-29T15:25:47Z</time>
      </trkpt>
      <trkpt lat="43.02208" lon="0.86507">
        <ele>751.13000488</ele>
        <time>2020-10-29T15:25:48Z</time>
      </trkpt>
      <trkpt lat="43.02222" lon="0.86503">
        <ele>750.2199707</ele>
        <time>2020-10-29T15:25:50Z</time>
      </trkpt>
      <trkpt lat="43.02237" lon="0.86502">
        <ele>750.23999023</ele>
        <time>2020-10-29T15:25:52Z</time>
      </trkpt>
      <trkpt lat="43.02246" lon="0.86502">
        <ele>749.78997803</ele>
        <time>2020-10-29T15:25:53Z</time>
      </trkpt>
      <trkpt lat="43.0226" lon="0.86502">
        <ele>749.2800293</ele>
        <time>2020-10-29T15:25:55Z</time>
      </trkpt>
      <trkpt lat="43.02276" lon="0.86505">
        <ele>748.2199707</ele>
        <time>2020-10-29T15:25:57Z</time>
      </trkpt>
      <trkpt lat="43.02284" lon="0.86506">
        <ele>747.67999268</ele>
        <time>2020-10-29T15:25:58Z</time>
      </trkpt>
      <trkpt lat="43.02292" lon="0.86508">
        <ele>747.0300293</ele>
        <time>2020-10-29T15:25:59Z</time>
      </trkpt>
      <trkpt lat="43.02309" lon="0.86509">
        <ele>746.11999512</ele>
        <time>2020-10-29T15:26:01Z</time>
      </trkpt>
      <trkpt lat="43.02318" lon="0.8651">
        <ele>745.42999268</ele>
        <time>2020-10-29T15:26:02Z</time>
      </trkpt>
      <trkpt lat="43.02334" lon="0.86512">
        <ele>744.65997314</ele>
        <time>2020-10-29T15:26:04Z</time>
      </trkpt>
      <trkpt lat="43.02343" lon="0.86513">
        <ele>744.21002197</ele>
        <time>2020-10-29T15:26:05Z</time>
      </trkpt>
      <trkpt lat="43.0236" lon="0.86515">
        <ele>742.39001465</ele>
        <time>2020-10-29T15:26:07Z</time>
      </trkpt>
      <trkpt lat="43.02378" lon="0.86518">
        <ele>741.19000244</ele>
        <time>2020-10-29T15:26:09Z</time>
      </trkpt>
      <trkpt lat="43.02386" lon="0.8652">
        <ele>740.97998047</ele>
        <time>2020-10-29T15:26:10Z</time>
      </trkpt>
      <trkpt lat="43.02394" lon="0.86521">
        <ele>740.07000732</ele>
        <time>2020-10-29T15:26:11Z</time>
      </trkpt>
      <trkpt lat="43.02412" lon="0.86523">
        <ele>738.67999268</ele>
        <time>2020-10-29T15:26:13Z</time>
      </trkpt>
      <trkpt lat="43.02423" lon="0.86523">
        <ele>738.4699707</ele>
        <time>2020-10-29T15:26:14Z</time>
      </trkpt>
      <trkpt lat="43.02433" lon="0.86524">
        <ele>737.47998047</ele>
        <time>2020-10-29T15:26:15Z</time>
      </trkpt>
      <trkpt lat="43.02455" lon="0.86525">
        <ele>735.72998047</ele>
        <time>2020-10-29T15:26:17Z</time>
      </trkpt>
      <trkpt lat="43.02465" lon="0.86526">
        <ele>735.21002197</ele>
        <time>2020-10-29T15:26:18Z</time>
      </trkpt>
      <trkpt lat="43.02482" lon="0.86527">
        <ele>733.28997803</ele>
        <time>2020-10-29T15:26:20Z</time>
      </trkpt>
      <trkpt lat="43.02489" lon="0.86527">
        <ele>732.96002197</ele>
        <time>2020-10-29T15:26:21Z</time>
      </trkpt>
      <trkpt lat="43.02495" lon="0.86524">
        <ele>733</ele>
        <time>2020-10-29T15:26:23Z</time>
      </trkpt>
      <trkpt lat="43.02501" lon="0.86514">
        <ele>732.03997803</ele>
        <time>2020-10-29T15:26:25Z</time>
      </trkpt>
      <trkpt lat="43.02505" lon="0.86507">
        <ele>730.96002197</ele>
        <time>2020-10-29T15:26:26Z</time>
      </trkpt>
      <trkpt lat="43.02509" lon="0.86498">
        <ele>730.32000732</ele>
        <time>2020-10-29T15:26:27Z</time>
      </trkpt>
      <trkpt lat="43.02517" lon="0.86484">
        <ele>728.4699707</ele>
        <time>2020-10-29T15:26:29Z</time>
      </trkpt>
      <trkpt lat="43.02526" lon="0.86469">
        <ele>727.4699707</ele>
        <time>2020-10-29T15:26:31Z</time>
      </trkpt>
      <trkpt lat="43.02536" lon="0.86454">
        <ele>725.51000977</ele>
        <time>2020-10-29T15:26:33Z</time>
      </trkpt>
      <trkpt lat="43.0254" lon="0.86446">
        <ele>724.36999512</ele>
        <time>2020-10-29T15:26:34Z</time>
      </trkpt>
      <trkpt lat="43.02545" lon="0.86439">
        <ele>723.15002441</ele>
        <time>2020-10-29T15:26:35Z</time>
      </trkpt>
      <trkpt lat="43.02553" lon="0.86428">
        <ele>719.52001953</ele>
        <time>2020-10-29T15:26:37Z</time>
      </trkpt>
      <trkpt lat="43.02558" lon="0.86424">
        <ele>718.11999512</ele>
        <time>2020-10-29T15:26:38Z</time>
      </trkpt>
      <trkpt lat="43.02572" lon="0.86414">
        <ele>715.77001953</ele>
        <time>2020-10-29T15:26:40Z</time>
      </trkpt>
      <trkpt lat="43.02578" lon="0.8641">
        <ele>713.61999512</ele>
        <time>2020-10-29T15:26:41Z</time>
      </trkpt>
      <trkpt lat="43.02589" lon="0.86403">
        <ele>712.41998291</ele>
        <time>2020-10-29T15:26:43Z</time>
      </trkpt>
      <trkpt lat="43.02602" lon="0.86394">
        <ele>708.88000488</ele>
        <time>2020-10-29T15:26:45Z</time>
      </trkpt>
      <trkpt lat="43.02615" lon="0.86385">
        <ele>707.97998047</ele>
        <time>2020-10-29T15:26:47Z</time>
      </trkpt>
      <trkpt lat="43.0263" lon="0.86372">
        <ele>706.2800293</ele>
        <time>2020-10-29T15:26:49Z</time>
      </trkpt>
      <trkpt lat="43.02636" lon="0.86363">
        <ele>705.66998291</ele>
        <time>2020-10-29T15:26:50Z</time>
      </trkpt>
      <trkpt lat="43.02644" lon="0.86355">
        <ele>705.23999023</ele>
        <time>2020-10-29T15:26:51Z</time>
      </trkpt>
      <trkpt lat="43.02659" lon="0.86336">
        <ele>702.82000732</ele>
        <time>2020-10-29T15:26:53Z</time>
      </trkpt>
      <trkpt lat="43.02675" lon="0.86317">
        <ele>701.94000244</ele>
        <time>2020-10-29T15:26:55Z</time>
      </trkpt>
      <trkpt lat="43.0269" lon="0.86296">
        <ele>699.36999512</ele>
        <time>2020-10-29T15:26:57Z</time>
      </trkpt>
      <trkpt lat="43.02697" lon="0.86286">
        <ele>698.02001953</ele>
        <time>2020-10-29T15:26:58Z</time>
      </trkpt>
      <trkpt lat="43.02711" lon="0.86267">
        <ele>695.94000244</ele>
        <time>2020-10-29T15:27:00Z</time>
      </trkpt>
      <trkpt lat="43.02718" lon="0.86257">
        <ele>695.46002197</ele>
        <time>2020-10-29T15:27:01Z</time>
      </trkpt>
      <trkpt lat="43.02725" lon="0.86247">
        <ele>694.38000488</ele>
        <time>2020-10-29T15:27:02Z</time>
      </trkpt>
      <trkpt lat="43.0273" lon="0.86238">
        <ele>693.79998779</ele>
        <time>2020-10-29T15:27:03Z</time>
      </trkpt>
      <trkpt lat="43.02734" lon="0.86231">
        <ele>692.97998047</ele>
        <time>2020-10-29T15:27:04Z</time>
      </trkpt>
      <trkpt lat="43.02738" lon="0.86223">
        <ele>692.71002197</ele>
        <time>2020-10-29T15:27:05Z</time>
      </trkpt>
      <trkpt lat="43.02745" lon="0.86203">
        <ele>691.26000977</ele>
        <time>2020-10-29T15:27:07Z</time>
      </trkpt>
      <trkpt lat="43.02748" lon="0.86194">
        <ele>689.84002686</ele>
        <time>2020-10-29T15:27:08Z</time>
      </trkpt>
      <trkpt lat="43.02753" lon="0.86176">
        <ele>687.34997559</ele>
        <time>2020-10-29T15:27:10Z</time>
      </trkpt>
      <trkpt lat="43.02755" lon="0.86166">
        <ele>686.57000732</ele>
        <time>2020-10-29T15:27:11Z</time>
      </trkpt>
      <trkpt lat="43.02758" lon="0.86148">
        <ele>684.47998047</ele>
        <time>2020-10-29T15:27:13Z</time>
      </trkpt>
      <trkpt lat="43.02759" lon="0.86139">
        <ele>683.44000244</ele>
        <time>2020-10-29T15:27:14Z</time>
      </trkpt>
      <trkpt lat="43.02763" lon="0.86124">
        <ele>681.35998535</ele>
        <time>2020-10-29T15:27:16Z</time>
      </trkpt>
      <trkpt lat="43.02764" lon="0.86118">
        <ele>680.72998047</ele>
        <time>2020-10-29T15:27:17Z</time>
      </trkpt>
      <trkpt lat="43.02765" lon="0.86116">
        <ele>677.86999512</ele>
        <time>2020-10-29T15:27:19Z</time>
      </trkpt>
      <trkpt lat="43.02764" lon="0.86116">
        <ele>677.32000732</ele>
        <time>2020-10-29T15:27:20Z</time>
      </trkpt>
      <trkpt lat="43.02763" lon="0.86113">
        <ele>677.97998047</ele>
        <time>2020-10-29T15:27:22Z</time>
      </trkpt>
      <trkpt lat="43.0276" lon="0.86112">
        <ele>677.27001953</ele>
        <time>2020-10-29T15:27:23Z</time>
      </trkpt>
      <trkpt lat="43.02755" lon="0.86111">
        <ele>676.55999756</ele>
        <time>2020-10-29T15:27:25Z</time>
      </trkpt>
      <trkpt lat="43.02743" lon="0.86123">
        <ele>676.10998535</ele>
        <time>2020-10-29T15:27:27Z</time>
      </trkpt>
      <trkpt lat="43.02733" lon="0.86134">
        <ele>675.16998291</ele>
        <time>2020-10-29T15:27:29Z</time>
      </trkpt>
      <trkpt lat="43.02724" lon="0.86146">
        <ele>675.09997559</ele>
        <time>2020-10-29T15:27:31Z</time>
      </trkpt>
      <trkpt lat="43.02719" lon="0.86153">
        <ele>674.80999756</ele>
        <time>2020-10-29T15:27:32Z</time>
      </trkpt>
      <trkpt lat="43.02714" lon="0.8616">
        <ele>674.51000977</ele>
        <time>2020-10-29T15:27:33Z</time>
      </trkpt>
      <trkpt lat="43.02705" lon="0.86174">
        <ele>673.7800293</ele>
        <time>2020-10-29T15:27:35Z</time>
      </trkpt>
      <trkpt lat="43.027" lon="0.86181">
        <ele>674.20001221</ele>
        <time>2020-10-29T15:27:36Z</time>
      </trkpt>
      <trkpt lat="43.02691" lon="0.86192">
        <ele>673.88000488</ele>
        <time>2020-10-29T15:27:38Z</time>
      </trkpt>
      <trkpt lat="43.02685" lon="0.86198">
        <ele>673.90002441</ele>
        <time>2020-10-29T15:27:39Z</time>
      </trkpt>
      <trkpt lat="43.0268" lon="0.86203">
        <ele>674</ele>
        <time>2020-10-29T15:27:40Z</time>
      </trkpt>
      <trkpt lat="43.02675" lon="0.86209">
        <ele>673.80999756</ele>
        <time>2020-10-29T15:27:41Z</time>
      </trkpt>
      <trkpt lat="43.02664" lon="0.86218">
        <ele>673.34002686</ele>
        <time>2020-10-29T15:27:43Z</time>
      </trkpt>
      <trkpt lat="43.02653" lon="0.86225">
        <ele>673.5</ele>
        <time>2020-10-29T15:27:45Z</time>
      </trkpt>
      <trkpt lat="43.02641" lon="0.86232">
        <ele>673.30999756</ele>
        <time>2020-10-29T15:27:47Z</time>
      </trkpt>
      <trkpt lat="43.02636" lon="0.86235">
        <ele>673.11999512</ele>
        <time>2020-10-29T15:27:48Z</time>
      </trkpt>
      <trkpt lat="43.02625" lon="0.8624">
        <ele>671.32000732</ele>
        <time>2020-10-29T15:27:50Z</time>
      </trkpt>
      <trkpt lat="43.0262" lon="0.86242">
        <ele>671.70001221</ele>
        <time>2020-10-29T15:27:51Z</time>
      </trkpt>
      <trkpt lat="43.0261" lon="0.86245">
        <ele>671.09002686</ele>
        <time>2020-10-29T15:27:53Z</time>
      </trkpt>
      <trkpt lat="43.026" lon="0.86246">
        <ele>669.78997803</ele>
        <time>2020-10-29T15:27:55Z</time>
      </trkpt>
      <trkpt lat="43.02591" lon="0.86248">
        <ele>669.70001221</ele>
        <time>2020-10-29T15:27:57Z</time>
      </trkpt>
      <trkpt lat="43.02587" lon="0.86248">
        <ele>669.19000244</ele>
        <time>2020-10-29T15:27:58Z</time>
      </trkpt>
      <trkpt lat="43.02577" lon="0.86247">
        <ele>668.90002441</ele>
        <time>2020-10-29T15:28:00Z</time>
      </trkpt>
      <trkpt lat="43.02567" lon="0.86246">
        <ele>668.45001221</ele>
        <time>2020-10-29T15:28:02Z</time>
      </trkpt>
      <trkpt lat="43.0256" lon="0.86248">
        <ele>668.54998779</ele>
        <time>2020-10-29T15:28:03Z</time>
      </trkpt>
      <trkpt lat="43.02555" lon="0.86248">
        <ele>668.5</ele>
        <time>2020-10-29T15:28:05Z</time>
      </trkpt>
      <trkpt lat="43.02551" lon="0.86248">
        <ele>667.90997314</ele>
        <time>2020-10-29T15:28:06Z</time>
      </trkpt>
      <trkpt lat="43.02543" lon="0.86249">
        <ele>667.34002686</ele>
        <time>2020-10-29T15:28:07Z</time>
      </trkpt>
      <trkpt lat="43.02535" lon="0.86248">
        <ele>666.22998047</ele>
        <time>2020-10-29T15:28:09Z</time>
      </trkpt>
      <trkpt lat="43.02528" lon="0.86247">
        <ele>666</ele>
        <time>2020-10-29T15:28:11Z</time>
      </trkpt>
      <trkpt lat="43.02522" lon="0.86246">
        <ele>665.54998779</ele>
        <time>2020-10-29T15:28:12Z</time>
      </trkpt>
      <trkpt lat="43.02516" lon="0.86247">
        <ele>664.90997314</ele>
        <time>2020-10-29T15:28:13Z</time>
      </trkpt>
      <trkpt lat="43.02511" lon="0.86249">
        <ele>665.15002441</ele>
        <time>2020-10-29T15:28:15Z</time>
      </trkpt>
      <trkpt lat="43.02506" lon="0.8625">
        <ele>664.96002197</ele>
        <time>2020-10-29T15:28:16Z</time>
      </trkpt>
      <trkpt lat="43.02502" lon="0.86252">
        <ele>664.5</ele>
        <time>2020-10-29T15:28:18Z</time>
      </trkpt>
      <trkpt lat="43.02499" lon="0.86253">
        <ele>665.59997559</ele>
        <time>2020-10-29T15:28:19Z</time>
      </trkpt>
      <trkpt lat="43.02496" lon="0.86252">
        <ele>664.28997803</ele>
        <time>2020-10-29T15:28:20Z</time>
      </trkpt>
      <trkpt lat="43.02493" lon="0.8625">
        <ele>664.96002197</ele>
        <time>2020-10-29T15:28:22Z</time>
      </trkpt>
      <trkpt lat="43.02489" lon="0.86248">
        <ele>665.09997559</ele>
        <time>2020-10-29T15:28:23Z</time>
      </trkpt>
      <trkpt lat="43.02484" lon="0.86246">
        <ele>664.05999756</ele>
        <time>2020-10-29T15:28:25Z</time>
      </trkpt>
      <trkpt lat="43.02482" lon="0.86244">
        <ele>664.35998535</ele>
        <time>2020-10-29T15:28:26Z</time>
      </trkpt>
      <trkpt lat="43.0248" lon="0.86242">
        <ele>664.82000732</ele>
        <time>2020-10-29T15:28:27Z</time>
      </trkpt>
      <trkpt lat="43.02478" lon="0.8624">
        <ele>664.92999268</ele>
        <time>2020-10-29T15:28:29Z</time>
      </trkpt>
      <trkpt lat="43.02476" lon="0.86235">
        <ele>665.21002197</ele>
        <time>2020-10-29T15:28:30Z</time>
      </trkpt>
      <trkpt lat="43.02473" lon="0.86231">
        <ele>665.72998047</ele>
        <time>2020-10-29T15:28:32Z</time>
      </trkpt>
      <trkpt lat="43.02471" lon="0.86225">
        <ele>666.21002197</ele>
        <time>2020-10-29T15:28:33Z</time>
      </trkpt>
      <trkpt lat="43.02469" lon="0.86221">
        <ele>666.32000732</ele>
        <time>2020-10-29T15:28:35Z</time>
      </trkpt>
      <trkpt lat="43.02466" lon="0.86214">
        <ele>667.20001221</ele>
        <time>2020-10-29T15:28:36Z</time>
      </trkpt>
      <trkpt lat="43.02463" lon="0.86208">
        <ele>667.52001953</ele>
        <time>2020-10-29T15:28:38Z</time>
      </trkpt>
      <trkpt lat="43.02462" lon="0.86203">
        <ele>667.15997314</ele>
        <time>2020-10-29T15:28:39Z</time>
      </trkpt>
      <trkpt lat="43.0246" lon="0.86198">
        <ele>667.40997314</ele>
        <time>2020-10-29T15:28:40Z</time>
      </trkpt>
      <trkpt lat="43.02458" lon="0.86193">
        <ele>668.34997559</ele>
        <time>2020-10-29T15:28:42Z</time>
      </trkpt>
      <trkpt lat="43.02456" lon="0.86189">
        <ele>668.20001221</ele>
        <time>2020-10-29T15:28:43Z</time>
      </trkpt>
      <trkpt lat="43.02453" lon="0.86184">
        <ele>668.95001221</ele>
        <time>2020-10-29T15:28:44Z</time>
      </trkpt>
      <trkpt lat="43.0245" lon="0.86179">
        <ele>669.54998779</ele>
        <time>2020-10-29T15:28:45Z</time>
      </trkpt>
      <trkpt lat="43.02448" lon="0.86175">
        <ele>670</ele>
        <time>2020-10-29T15:28:46Z</time>
      </trkpt>
      <trkpt lat="43.02445" lon="0.86168">
        <ele>669.97998047</ele>
        <time>2020-10-29T15:28:48Z</time>
      </trkpt>
      <trkpt lat="43.02441" lon="0.86163">
        <ele>671.48999023</ele>
        <time>2020-10-29T15:28:49Z</time>
      </trkpt>
      <trkpt lat="43.02438" lon="0.86159">
        <ele>672.14001465</ele>
        <time>2020-10-29T15:28:50Z</time>
      </trkpt>
      <trkpt lat="43.02434" lon="0.86155">
        <ele>672.42999268</ele>
        <time>2020-10-29T15:28:51Z</time>
      </trkpt>
      <trkpt lat="43.02431" lon="0.86151">
        <ele>672.40002441</ele>
        <time>2020-10-29T15:28:53Z</time>
      </trkpt>
      <trkpt lat="43.02427" lon="0.86147">
        <ele>672.65002441</ele>
        <time>2020-10-29T15:28:55Z</time>
      </trkpt>
      <trkpt lat="43.02425" lon="0.86145">
        <ele>673.45001221</ele>
        <time>2020-10-29T15:28:56Z</time>
      </trkpt>
      <trkpt lat="43.02421" lon="0.86142">
        <ele>674.11999512</ele>
        <time>2020-10-29T15:28:57Z</time>
      </trkpt>
      <trkpt lat="43.02419" lon="0.8614">
        <ele>673.90997314</ele>
        <time>2020-10-29T15:28:58Z</time>
      </trkpt>
      <trkpt lat="43.02416" lon="0.86137">
        <ele>673.94000244</ele>
        <time>2020-10-29T15:28:59Z</time>
      </trkpt>
      <trkpt lat="43.02412" lon="0.86133">
        <ele>674.04998779</ele>
        <time>2020-10-29T15:29:01Z</time>
      </trkpt>
      <trkpt lat="43.02407" lon="0.86129">
        <ele>675.22998047</ele>
        <time>2020-10-29T15:29:02Z</time>
      </trkpt>
      <trkpt lat="43.02404" lon="0.86127">
        <ele>674.34002686</ele>
        <time>2020-10-29T15:29:04Z</time>
      </trkpt>
      <trkpt lat="43.02401" lon="0.86125">
        <ele>675.34997559</ele>
        <time>2020-10-29T15:29:05Z</time>
      </trkpt>
      <trkpt lat="43.02396" lon="0.86123">
        <ele>676.15002441</ele>
        <time>2020-10-29T15:29:06Z</time>
      </trkpt>
      <trkpt lat="43.02394" lon="0.86122">
        <ele>676.66998291</ele>
        <time>2020-10-29T15:29:07Z</time>
      </trkpt>
      <trkpt lat="43.0239" lon="0.86121">
        <ele>677.71002197</ele>
        <time>2020-10-29T15:29:08Z</time>
      </trkpt>
      <trkpt lat="43.02387" lon="0.8612">
        <ele>678.2199707</ele>
        <time>2020-10-29T15:29:10Z</time>
      </trkpt>
      <trkpt lat="43.02381" lon="0.86118">
        <ele>678.4699707</ele>
        <time>2020-10-29T15:29:11Z</time>
      </trkpt>
      <trkpt lat="43.02378" lon="0.86117">
        <ele>679.79998779</ele>
        <time>2020-10-29T15:29:13Z</time>
      </trkpt>
      <trkpt lat="43.02375" lon="0.86115">
        <ele>680.30999756</ele>
        <time>2020-10-29T15:29:14Z</time>
      </trkpt>
      <trkpt lat="43.02373" lon="0.86113">
        <ele>681</ele>
        <time>2020-10-29T15:29:15Z</time>
      </trkpt>
      <trkpt lat="43.02369" lon="0.86111">
        <ele>681.41998291</ele>
        <time>2020-10-29T15:29:17Z</time>
      </trkpt>
      <trkpt lat="43.02363" lon="0.86109">
        <ele>681.98999023</ele>
        <time>2020-10-29T15:29:18Z</time>
      </trkpt>
      <trkpt lat="43.02359" lon="0.86107">
        <ele>682.7800293</ele>
        <time>2020-10-29T15:29:20Z</time>
      </trkpt>
      <trkpt lat="43.02353" lon="0.86104">
        <ele>683.09002686</ele>
        <time>2020-10-29T15:29:21Z</time>
      </trkpt>
      <trkpt lat="43.0235" lon="0.86102">
        <ele>683.36999512</ele>
        <time>2020-10-29T15:29:22Z</time>
      </trkpt>
      <trkpt lat="43.02346" lon="0.86101">
        <ele>683.78997803</ele>
        <time>2020-10-29T15:29:23Z</time>
      </trkpt>
      <trkpt lat="43.02342" lon="0.86099">
        <ele>684.41998291</ele>
        <time>2020-10-29T15:29:25Z</time>
      </trkpt>
      <trkpt lat="43.02337" lon="0.86096">
        <ele>684.66998291</ele>
        <time>2020-10-29T15:29:27Z</time>
      </trkpt>
      <trkpt lat="43.02333" lon="0.86094">
        <ele>685.2199707</ele>
        <time>2020-10-29T15:29:28Z</time>
      </trkpt>
      <trkpt lat="43.02328" lon="0.86092">
        <ele>685.59997559</ele>
        <time>2020-10-29T15:29:29Z</time>
      </trkpt>
      <trkpt lat="43.02325" lon="0.8609">
        <ele>686</ele>
        <time>2020-10-29T15:29:30Z</time>
      </trkpt>
      <trkpt lat="43.02323" lon="0.8609">
        <ele>686.01000977</ele>
        <time>2020-10-29T15:29:32Z</time>
      </trkpt>
      <trkpt lat="43.02318" lon="0.86088">
        <ele>686.01000977</ele>
        <time>2020-10-29T15:29:33Z</time>
      </trkpt>
      <trkpt lat="43.02306" lon="0.86084">
        <ele>687.47998047</ele>
        <time>2020-10-29T15:29:34Z</time>
      </trkpt>
      <trkpt lat="43.02301" lon="0.86082">
        <ele>687.83001709</ele>
        <time>2020-10-29T15:29:35Z</time>
      </trkpt>
      <trkpt lat="43.02296" lon="0.86081">
        <ele>688.63000488</ele>
        <time>2020-10-29T15:29:37Z</time>
      </trkpt>
      <trkpt lat="43.02294" lon="0.86081">
        <ele>689.15002441</ele>
        <time>2020-10-29T15:29:38Z</time>
      </trkpt>
      <trkpt lat="43.0229" lon="0.86082">
        <ele>688.75</ele>
        <time>2020-10-29T15:29:39Z</time>
      </trkpt>
      <trkpt lat="43.02287" lon="0.86082">
        <ele>689.5</ele>
        <time>2020-10-29T15:29:41Z</time>
      </trkpt>
      <trkpt lat="43.02285" lon="0.86082">
        <ele>689.5</ele>
        <time>2020-10-29T15:29:42Z</time>
      </trkpt>
      <trkpt lat="43.02281" lon="0.86082">
        <ele>690.44000244</ele>
        <time>2020-10-29T15:29:44Z</time>
      </trkpt>
      <trkpt lat="43.02277" lon="0.86083">
        <ele>690.44000244</ele>
        <time>2020-10-29T15:29:45Z</time>
      </trkpt>
      <trkpt lat="43.02272" lon="0.86082">
        <ele>691.16998291</ele>
        <time>2020-10-29T15:29:46Z</time>
      </trkpt>
      <trkpt lat="43.02268" lon="0.86081">
        <ele>691.5300293</ele>
        <time>2020-10-29T15:29:47Z</time>
      </trkpt>
      <trkpt lat="43.02261" lon="0.86079">
        <ele>691.79998779</ele>
        <time>2020-10-29T15:29:49Z</time>
      </trkpt>
      <trkpt lat="43.02257" lon="0.86078">
        <ele>692.19000244</ele>
        <time>2020-10-29T15:29:50Z</time>
      </trkpt>
      <trkpt lat="43.0225" lon="0.86076">
        <ele>692.82000732</ele>
        <time>2020-10-29T15:29:51Z</time>
      </trkpt>
      <trkpt lat="43.02248" lon="0.86077">
        <ele>693.59002686</ele>
        <time>2020-10-29T15:29:53Z</time>
      </trkpt>
      <trkpt lat="43.02245" lon="0.86077">
        <ele>694.08001709</ele>
        <time>2020-10-29T15:29:54Z</time>
      </trkpt>
      <trkpt lat="43.02243" lon="0.86078">
        <ele>693.80999756</ele>
        <time>2020-10-29T15:29:55Z</time>
      </trkpt>
      <trkpt lat="43.02238" lon="0.86078">
        <ele>694.20001221</ele>
        <time>2020-10-29T15:29:57Z</time>
      </trkpt>
      <trkpt lat="43.02236" lon="0.86079">
        <ele>694.42999268</ele>
        <time>2020-10-29T15:29:59Z</time>
      </trkpt>
      <trkpt lat="43.02229" lon="0.86079">
        <ele>694.78997803</ele>
        <time>2020-10-29T15:30:00Z</time>
      </trkpt>
      <trkpt lat="43.02221" lon="0.86079">
        <ele>694.63000488</ele>
        <time>2020-10-29T15:30:02Z</time>
      </trkpt>
      <trkpt lat="43.02215" lon="0.86078">
        <ele>696.5300293</ele>
        <time>2020-10-29T15:30:03Z</time>
      </trkpt>
      <trkpt lat="43.02212" lon="0.86079">
        <ele>696.30999756</ele>
        <time>2020-10-29T15:30:05Z</time>
      </trkpt>
      <trkpt lat="43.02208" lon="0.86079">
        <ele>697.03997803</ele>
        <time>2020-10-29T15:30:06Z</time>
      </trkpt>
      <trkpt lat="43.02206" lon="0.86079">
        <ele>697.57000732</ele>
        <time>2020-10-29T15:30:08Z</time>
      </trkpt>
      <trkpt lat="43.02204" lon="0.8608">
        <ele>697.57000732</ele>
        <time>2020-10-29T15:30:09Z</time>
      </trkpt>
      <trkpt lat="43.02203" lon="0.8608">
        <ele>697.58001709</ele>
        <time>2020-10-29T15:30:11Z</time>
      </trkpt>
      <trkpt lat="43.02201" lon="0.86081">
        <ele>697.77001953</ele>
        <time>2020-10-29T15:30:12Z</time>
      </trkpt>
      <trkpt lat="43.02199" lon="0.86081">
        <ele>698.63000488</ele>
        <time>2020-10-29T15:30:13Z</time>
      </trkpt>
      <trkpt lat="43.02198" lon="0.86081">
        <ele>698.79998779</ele>
        <time>2020-10-29T15:30:14Z</time>
      </trkpt>
      <trkpt lat="43.02196" lon="0.86081">
        <ele>698.88000488</ele>
        <time>2020-10-29T15:30:15Z</time>
      </trkpt>
      <trkpt lat="43.02195" lon="0.86081">
        <ele>699.16998291</ele>
        <time>2020-10-29T15:30:16Z</time>
      </trkpt>
      <trkpt lat="43.02191" lon="0.86081">
        <ele>700.65002441</ele>
        <time>2020-10-29T15:30:18Z</time>
      </trkpt>
      <trkpt lat="43.02189" lon="0.86081">
        <ele>700.60998535</ele>
        <time>2020-10-29T15:30:20Z</time>
      </trkpt>
      <trkpt lat="43.02185" lon="0.8608">
        <ele>701.59002686</ele>
        <time>2020-10-29T15:30:21Z</time>
      </trkpt>
      <trkpt lat="43.02182" lon="0.8608">
        <ele>701.77001953</ele>
        <time>2020-10-29T15:30:22Z</time>
      </trkpt>
      <trkpt lat="43.02179" lon="0.8608">
        <ele>702.09002686</ele>
        <time>2020-10-29T15:30:23Z</time>
      </trkpt>
      <trkpt lat="43.02175" lon="0.8608">
        <ele>703.47998047</ele>
        <time>2020-10-29T15:30:25Z</time>
      </trkpt>
      <trkpt lat="43.02174" lon="0.8608">
        <ele>703.92999268</ele>
        <time>2020-10-29T15:30:26Z</time>
      </trkpt>
      <trkpt lat="43.02172" lon="0.8608">
        <ele>703.92999268</ele>
        <time>2020-10-29T15:30:27Z</time>
      </trkpt>
      <trkpt lat="43.02169" lon="0.8608">
        <ele>704.84002686</ele>
        <time>2020-10-29T15:30:28Z</time>
      </trkpt>
      <trkpt lat="43.02168" lon="0.86079">
        <ele>705.02001953</ele>
        <time>2020-10-29T15:30:30Z</time>
      </trkpt>
      <trkpt lat="43.02166" lon="0.86079">
        <ele>706.02001953</ele>
        <time>2020-10-29T15:30:31Z</time>
      </trkpt>
      <trkpt lat="43.02165" lon="0.86079">
        <ele>706.35998535</ele>
        <time>2020-10-29T15:30:33Z</time>
      </trkpt>
      <trkpt lat="43.02164" lon="0.86078">
        <ele>706.39001465</ele>
        <time>2020-10-29T15:30:34Z</time>
      </trkpt>
      <trkpt lat="43.02164" lon="0.86076">
        <ele>706.35998535</ele>
        <time>2020-10-29T15:30:35Z</time>
      </trkpt>
      <trkpt lat="43.02163" lon="0.86075">
        <ele>707.51000977</ele>
        <time>2020-10-29T15:30:37Z</time>
      </trkpt>
      <trkpt lat="43.02163" lon="0.86075">
        <ele>707.77001953</ele>
        <time>2020-10-29T15:30:38Z</time>
      </trkpt>
      <trkpt lat="43.02162" lon="0.86075">
        <ele>708.10998535</ele>
        <time>2020-10-29T15:30:39Z</time>
      </trkpt>
      <trkpt lat="43.02161" lon="0.86074">
        <ele>708.23999023</ele>
        <time>2020-10-29T15:30:40Z</time>
      </trkpt>
      <trkpt lat="43.02158" lon="0.8607">
        <ele>708.35998535</ele>
        <time>2020-10-29T15:30:42Z</time>
      </trkpt>
      <trkpt lat="43.02156" lon="0.86066">
        <ele>709</ele>
        <time>2020-10-29T15:30:43Z</time>
      </trkpt>
      <trkpt lat="43.02154" lon="0.8606">
        <ele>709.16998291</ele>
        <time>2020-10-29T15:30:44Z</time>
      </trkpt>
      <trkpt lat="43.02152" lon="0.86057">
        <ele>708.83001709</ele>
        <time>2020-10-29T15:30:45Z</time>
      </trkpt>
      <trkpt lat="43.02152" lon="0.86053">
        <ele>709.36999512</ele>
        <time>2020-10-29T15:30:46Z</time>
      </trkpt>
      <trkpt lat="43.02152" lon="0.86049">
        <ele>709.52001953</ele>
        <time>2020-10-29T15:30:48Z</time>
      </trkpt>
      <trkpt lat="43.02153" lon="0.86044">
        <ele>710</ele>
        <time>2020-10-29T15:30:50Z</time>
      </trkpt>
      <trkpt lat="43.02154" lon="0.8604">
        <ele>708.91998291</ele>
        <time>2020-10-29T15:30:51Z</time>
      </trkpt>
      <trkpt lat="43.02154" lon="0.86037">
        <ele>709.09002686</ele>
        <time>2020-10-29T15:30:52Z</time>
      </trkpt>
      <trkpt lat="43.02154" lon="0.86033">
        <ele>709.61999512</ele>
        <time>2020-10-29T15:30:53Z</time>
      </trkpt>
      <trkpt lat="43.02155" lon="0.8603">
        <ele>710.25</ele>
        <time>2020-10-29T15:30:55Z</time>
      </trkpt>
      <trkpt lat="43.02156" lon="0.86026">
        <ele>711.09002686</ele>
        <time>2020-10-29T15:30:56Z</time>
      </trkpt>
      <trkpt lat="43.02158" lon="0.86018">
        <ele>711.40997314</ele>
        <time>2020-10-29T15:30:57Z</time>
      </trkpt>
      <trkpt lat="43.02159" lon="0.86013">
        <ele>711.70001221</ele>
        <time>2020-10-29T15:30:58Z</time>
      </trkpt>
      <trkpt lat="43.02159" lon="0.86006">
        <ele>712.13000488</ele>
        <time>2020-10-29T15:31:00Z</time>
      </trkpt>
      <trkpt lat="43.0216" lon="0.86001">
        <ele>712.13000488</ele>
        <time>2020-10-29T15:31:01Z</time>
      </trkpt>
      <trkpt lat="43.02161" lon="0.85995">
        <ele>712.11999512</ele>
        <time>2020-10-29T15:31:02Z</time>
      </trkpt>
      <trkpt lat="43.02163" lon="0.85993">
        <ele>711.69000244</ele>
        <time>2020-10-29T15:31:03Z</time>
      </trkpt>
      <trkpt lat="43.02163" lon="0.85992">
        <ele>712.27001953</ele>
        <time>2020-10-29T15:31:04Z</time>
      </trkpt>
      <trkpt lat="43.02165" lon="0.85989">
        <ele>712.38000488</ele>
        <time>2020-10-29T15:31:05Z</time>
      </trkpt>
      <trkpt lat="43.02166" lon="0.85986">
        <ele>712.65002441</ele>
        <time>2020-10-29T15:31:06Z</time>
      </trkpt>
      <trkpt lat="43.02167" lon="0.85982">
        <ele>712.90997314</ele>
        <time>2020-10-29T15:31:07Z</time>
      </trkpt>
      <trkpt lat="43.02168" lon="0.85979">
        <ele>713.91998291</ele>
        <time>2020-10-29T15:31:09Z</time>
      </trkpt>
      <trkpt lat="43.0217" lon="0.85974">
        <ele>713.5</ele>
        <time>2020-10-29T15:31:10Z</time>
      </trkpt>
      <trkpt lat="43.0217" lon="0.85968">
        <ele>714.09997559</ele>
        <time>2020-10-29T15:31:12Z</time>
      </trkpt>
      <trkpt lat="43.0217" lon="0.85964">
        <ele>714.40997314</ele>
        <time>2020-10-29T15:31:13Z</time>
      </trkpt>
      <trkpt lat="43.02171" lon="0.85961">
        <ele>714.71002197</ele>
        <time>2020-10-29T15:31:15Z</time>
      </trkpt>
      <trkpt lat="43.02171" lon="0.85955">
        <ele>714.59997559</ele>
        <time>2020-10-29T15:31:16Z</time>
      </trkpt>
      <trkpt lat="43.0217" lon="0.85949">
        <ele>714.57000732</ele>
        <time>2020-10-29T15:31:17Z</time>
      </trkpt>
      <trkpt lat="43.0217" lon="0.85945">
        <ele>715.59997559</ele>
        <time>2020-10-29T15:31:18Z</time>
      </trkpt>
      <trkpt lat="43.02169" lon="0.8594">
        <ele>715.45001221</ele>
        <time>2020-10-29T15:31:20Z</time>
      </trkpt>
      <trkpt lat="43.02168" lon="0.85933">
        <ele>716.51000977</ele>
        <time>2020-10-29T15:31:21Z</time>
      </trkpt>
      <trkpt lat="43.02166" lon="0.85921">
        <ele>716.48999023</ele>
        <time>2020-10-29T15:31:22Z</time>
      </trkpt>
      <trkpt lat="43.02165" lon="0.85914">
        <ele>716.23999023</ele>
        <time>2020-10-29T15:31:24Z</time>
      </trkpt>
      <trkpt lat="43.02163" lon="0.85909">
        <ele>716.26000977</ele>
        <time>2020-10-29T15:31:26Z</time>
      </trkpt>
      <trkpt lat="43.02162" lon="0.85906">
        <ele>716.26000977</ele>
        <time>2020-10-29T15:31:27Z</time>
      </trkpt>
      <trkpt lat="43.0216" lon="0.85902">
        <ele>716.54998779</ele>
        <time>2020-10-29T15:31:28Z</time>
      </trkpt>
      <trkpt lat="43.02154" lon="0.85893">
        <ele>717.23999023</ele>
        <time>2020-10-29T15:31:30Z</time>
      </trkpt>
      <trkpt lat="43.02152" lon="0.85884">
        <ele>716.61999512</ele>
        <time>2020-10-29T15:31:31Z</time>
      </trkpt>
      <trkpt lat="43.02149" lon="0.85876">
        <ele>716.69000244</ele>
        <time>2020-10-29T15:31:33Z</time>
      </trkpt>
      <trkpt lat="43.02147" lon="0.85872">
        <ele>716.79998779</ele>
        <time>2020-10-29T15:31:34Z</time>
      </trkpt>
      <trkpt lat="43.02146" lon="0.85867">
        <ele>717.26000977</ele>
        <time>2020-10-29T15:31:35Z</time>
      </trkpt>
      <trkpt lat="43.02145" lon="0.8586">
        <ele>717.34002686</ele>
        <time>2020-10-29T15:31:36Z</time>
      </trkpt>
      <trkpt lat="43.02143" lon="0.85855">
        <ele>717.98999023</ele>
        <time>2020-10-29T15:31:37Z</time>
      </trkpt>
      <trkpt lat="43.02142" lon="0.8585">
        <ele>718.4699707</ele>
        <time>2020-10-29T15:31:39Z</time>
      </trkpt>
      <trkpt lat="43.02141" lon="0.85846">
        <ele>718.70001221</ele>
        <time>2020-10-29T15:31:40Z</time>
      </trkpt>
      <trkpt lat="43.0214" lon="0.85842">
        <ele>718.64001465</ele>
        <time>2020-10-29T15:31:41Z</time>
      </trkpt>
      <trkpt lat="43.02138" lon="0.85837">
        <ele>718.09002686</ele>
        <time>2020-10-29T15:31:42Z</time>
      </trkpt>
      <trkpt lat="43.02136" lon="0.85833">
        <ele>718.09997559</ele>
        <time>2020-10-29T15:31:43Z</time>
      </trkpt>
      <trkpt lat="43.02134" lon="0.85829">
        <ele>718.10998535</ele>
        <time>2020-10-29T15:31:44Z</time>
      </trkpt>
      <trkpt lat="43.02133" lon="0.85825">
        <ele>718.09997559</ele>
        <time>2020-10-29T15:31:45Z</time>
      </trkpt>
      <trkpt lat="43.02131" lon="0.85822">
        <ele>717.33001709</ele>
        <time>2020-10-29T15:31:47Z</time>
      </trkpt>
      <trkpt lat="43.02129" lon="0.85817">
        <ele>717.29998779</ele>
        <time>2020-10-29T15:31:48Z</time>
      </trkpt>
      <trkpt lat="43.02128" lon="0.85814">
        <ele>717.76000977</ele>
        <time>2020-10-29T15:31:49Z</time>
      </trkpt>
      <trkpt lat="43.02126" lon="0.8581">
        <ele>717.27001953</ele>
        <time>2020-10-29T15:31:51Z</time>
      </trkpt>
      <trkpt lat="43.02124" lon="0.85805">
        <ele>717.69000244</ele>
        <time>2020-10-29T15:31:52Z</time>
      </trkpt>
      <trkpt lat="43.02123" lon="0.85802">
        <ele>717.72998047</ele>
        <time>2020-10-29T15:31:53Z</time>
      </trkpt>
      <trkpt lat="43.02121" lon="0.85798">
        <ele>717.55999756</ele>
        <time>2020-10-29T15:31:55Z</time>
      </trkpt>
      <trkpt lat="43.0212" lon="0.85796">
        <ele>718.05999756</ele>
        <time>2020-10-29T15:31:56Z</time>
      </trkpt>
      <trkpt lat="43.02118" lon="0.85794">
        <ele>718.35998535</ele>
        <time>2020-10-29T15:31:58Z</time>
      </trkpt>
      <trkpt lat="43.02117" lon="0.85791">
        <ele>718.34002686</ele>
        <time>2020-10-29T15:31:59Z</time>
      </trkpt>
      <trkpt lat="43.02116" lon="0.85788">
        <ele>718.46002197</ele>
        <time>2020-10-29T15:32:01Z</time>
      </trkpt>
      <trkpt lat="43.02116" lon="0.85784">
        <ele>718.40002441</ele>
        <time>2020-10-29T15:32:02Z</time>
      </trkpt>
      <trkpt lat="43.02115" lon="0.85778">
        <ele>718.14001465</ele>
        <time>2020-10-29T15:32:04Z</time>
      </trkpt>
      <trkpt lat="43.02114" lon="0.85776">
        <ele>717.88000488</ele>
        <time>2020-10-29T15:32:05Z</time>
      </trkpt>
      <trkpt lat="43.02113" lon="0.85774">
        <ele>717.79998779</ele>
        <time>2020-10-29T15:32:06Z</time>
      </trkpt>
      <trkpt lat="43.02112" lon="0.85772">
        <ele>718.03997803</ele>
        <time>2020-10-29T15:32:07Z</time>
      </trkpt>
      <trkpt lat="43.02109" lon="0.85769">
        <ele>718.25</ele>
        <time>2020-10-29T15:32:09Z</time>
      </trkpt>
      <trkpt lat="43.02108" lon="0.85768">
        <ele>718.41998291</ele>
        <time>2020-10-29T15:32:10Z</time>
      </trkpt>
      <trkpt lat="43.02106" lon="0.85766">
        <ele>717.98999023</ele>
        <time>2020-10-29T15:32:12Z</time>
      </trkpt>
      <trkpt lat="43.02103" lon="0.85764">
        <ele>717.20001221</ele>
        <time>2020-10-29T15:32:14Z</time>
      </trkpt>
      <trkpt lat="43.021" lon="0.85762">
        <ele>716.95001221</ele>
        <time>2020-10-29T15:32:15Z</time>
      </trkpt>
      <trkpt lat="43.02099" lon="0.85761">
        <ele>717.59997559</ele>
        <time>2020-10-29T15:32:17Z</time>
      </trkpt>
      <trkpt lat="43.02093" lon="0.85756">
        <ele>717.65997314</ele>
        <time>2020-10-29T15:32:18Z</time>
      </trkpt>
      <trkpt lat="43.0209" lon="0.85751">
        <ele>717.63000488</ele>
        <time>2020-10-29T15:32:19Z</time>
      </trkpt>
      <trkpt lat="43.02087" lon="0.85748">
        <ele>717.35998535</ele>
        <time>2020-10-29T15:32:21Z</time>
      </trkpt>
      <trkpt lat="43.02085" lon="0.85746">
        <ele>717.35998535</ele>
        <time>2020-10-29T15:32:22Z</time>
      </trkpt>
      <trkpt lat="43.02083" lon="0.85744">
        <ele>717.15997314</ele>
        <time>2020-10-29T15:32:23Z</time>
      </trkpt>
      <trkpt lat="43.0208" lon="0.85741">
        <ele>716.96002197</ele>
        <time>2020-10-29T15:32:24Z</time>
      </trkpt>
      <trkpt lat="43.02078" lon="0.85739">
        <ele>717.71002197</ele>
        <time>2020-10-29T15:32:25Z</time>
      </trkpt>
      <trkpt lat="43.02077" lon="0.85737">
        <ele>717.41998291</ele>
        <time>2020-10-29T15:32:27Z</time>
      </trkpt>
      <trkpt lat="43.02074" lon="0.85733">
        <ele>716.84002686</ele>
        <time>2020-10-29T15:32:28Z</time>
      </trkpt>
      <trkpt lat="43.02073" lon="0.8573">
        <ele>716.10998535</ele>
        <time>2020-10-29T15:32:29Z</time>
      </trkpt>
      <trkpt lat="43.0207" lon="0.85727">
        <ele>716.52001953</ele>
        <time>2020-10-29T15:32:30Z</time>
      </trkpt>
      <trkpt lat="43.02068" lon="0.85724">
        <ele>715.98999023</ele>
        <time>2020-10-29T15:32:31Z</time>
      </trkpt>
      <trkpt lat="43.02067" lon="0.85722">
        <ele>716.21002197</ele>
        <time>2020-10-29T15:32:33Z</time>
      </trkpt>
      <trkpt lat="43.02063" lon="0.85719">
        <ele>716.9699707</ele>
        <time>2020-10-29T15:32:34Z</time>
      </trkpt>
      <trkpt lat="43.02061" lon="0.85716">
        <ele>716.48999023</ele>
        <time>2020-10-29T15:32:35Z</time>
      </trkpt>
      <trkpt lat="43.02058" lon="0.85711">
        <ele>716.08001709</ele>
        <time>2020-10-29T15:32:36Z</time>
      </trkpt>
      <trkpt lat="43.02058" lon="0.85707">
        <ele>716.19000244</ele>
        <time>2020-10-29T15:32:38Z</time>
      </trkpt>
      <trkpt lat="43.02057" lon="0.85704">
        <ele>715.96002197</ele>
        <time>2020-10-29T15:32:39Z</time>
      </trkpt>
      <trkpt lat="43.02056" lon="0.85699">
        <ele>715.53997803</ele>
        <time>2020-10-29T15:32:40Z</time>
      </trkpt>
      <trkpt lat="43.02054" lon="0.85694">
        <ele>715.34002686</ele>
        <time>2020-10-29T15:32:41Z</time>
      </trkpt>
      <trkpt lat="43.02052" lon="0.85688">
        <ele>715.51000977</ele>
        <time>2020-10-29T15:32:42Z</time>
      </trkpt>
      <trkpt lat="43.0205" lon="0.85684">
        <ele>715.27001953</ele>
        <time>2020-10-29T15:32:44Z</time>
      </trkpt>
      <trkpt lat="43.02049" lon="0.85681">
        <ele>714.97998047</ele>
        <time>2020-10-29T15:32:45Z</time>
      </trkpt>
      <trkpt lat="43.02048" lon="0.85677">
        <ele>714.91998291</ele>
        <time>2020-10-29T15:32:46Z</time>
      </trkpt>
      <trkpt lat="43.02047" lon="0.8567">
        <ele>714.55999756</ele>
        <time>2020-10-29T15:32:47Z</time>
      </trkpt>
      <trkpt lat="43.02046" lon="0.85664">
        <ele>712.02001953</ele>
        <time>2020-10-29T15:32:48Z</time>
      </trkpt>
      <trkpt lat="43.02046" lon="0.85659">
        <ele>712.11999512</ele>
        <time>2020-10-29T15:32:50Z</time>
      </trkpt>
      <trkpt lat="43.02044" lon="0.85651">
        <ele>712.07000732</ele>
        <time>2020-10-29T15:32:52Z</time>
      </trkpt>
      <trkpt lat="43.02043" lon="0.85644">
        <ele>711.57000732</ele>
        <time>2020-10-29T15:32:53Z</time>
      </trkpt>
      <trkpt lat="43.02042" lon="0.85638">
        <ele>710.57000732</ele>
        <time>2020-10-29T15:32:54Z</time>
      </trkpt>
      <trkpt lat="43.02039" lon="0.8562">
        <ele>709.76000977</ele>
        <time>2020-10-29T15:32:55Z</time>
      </trkpt>
      <trkpt lat="43.02037" lon="0.85605">
        <ele>709.55999756</ele>
        <time>2020-10-29T15:32:57Z</time>
      </trkpt>
      <trkpt lat="43.02035" lon="0.85597">
        <ele>709.14001465</ele>
        <time>2020-10-29T15:32:58Z</time>
      </trkpt>
      <trkpt lat="43.02033" lon="0.85591">
        <ele>708.83001709</ele>
        <time>2020-10-29T15:33:00Z</time>
      </trkpt>
      <trkpt lat="43.02031" lon="0.85586">
        <ele>708.51000977</ele>
        <time>2020-10-29T15:33:01Z</time>
      </trkpt>
      <trkpt lat="43.02027" lon="0.85575">
        <ele>708.0300293</ele>
        <time>2020-10-29T15:33:02Z</time>
      </trkpt>
      <trkpt lat="43.02025" lon="0.85564">
        <ele>707.5</ele>
        <time>2020-10-29T15:33:03Z</time>
      </trkpt>
      <trkpt lat="43.02022" lon="0.85553">
        <ele>707.98999023</ele>
        <time>2020-10-29T15:33:05Z</time>
      </trkpt>
      <trkpt lat="43.0202" lon="0.85544">
        <ele>707.98999023</ele>
        <time>2020-10-29T15:33:06Z</time>
      </trkpt>
      <trkpt lat="43.02017" lon="0.85527">
        <ele>706.9699707</ele>
        <time>2020-10-29T15:33:07Z</time>
      </trkpt>
      <trkpt lat="43.02015" lon="0.85514">
        <ele>706.52001953</ele>
        <time>2020-10-29T15:33:09Z</time>
      </trkpt>
      <trkpt lat="43.0201" lon="0.85496">
        <ele>707.05999756</ele>
        <time>2020-10-29T15:33:10Z</time>
      </trkpt>
      <trkpt lat="43.02008" lon="0.85486">
        <ele>706.85998535</ele>
        <time>2020-10-29T15:33:11Z</time>
      </trkpt>
      <trkpt lat="43.02006" lon="0.85476">
        <ele>706.69000244</ele>
        <time>2020-10-29T15:33:13Z</time>
      </trkpt>
      <trkpt lat="43.02004" lon="0.85467">
        <ele>706</ele>
        <time>2020-10-29T15:33:14Z</time>
      </trkpt>
      <trkpt lat="43.02002" lon="0.85455">
        <ele>706.66998291</ele>
        <time>2020-10-29T15:33:15Z</time>
      </trkpt>
      <trkpt lat="43.02001" lon="0.85446">
        <ele>706.41998291</ele>
        <time>2020-10-29T15:33:17Z</time>
      </trkpt>
      <trkpt lat="43.02" lon="0.85439">
        <ele>706.15002441</ele>
        <time>2020-10-29T15:33:18Z</time>
      </trkpt>
      <trkpt lat="43.02001" lon="0.85433">
        <ele>705.27001953</ele>
        <time>2020-10-29T15:33:19Z</time>
      </trkpt>
      <trkpt lat="43.02001" lon="0.85426">
        <ele>704.59997559</ele>
        <time>2020-10-29T15:33:20Z</time>
      </trkpt>
      <trkpt lat="43.02003" lon="0.85415">
        <ele>704.53997803</ele>
        <time>2020-10-29T15:33:22Z</time>
      </trkpt>
      <trkpt lat="43.02004" lon="0.85407">
        <ele>704.36999512</ele>
        <time>2020-10-29T15:33:23Z</time>
      </trkpt>
      <trkpt lat="43.02005" lon="0.85402">
        <ele>703.65002441</ele>
        <time>2020-10-29T15:33:24Z</time>
      </trkpt>
      <trkpt lat="43.02005" lon="0.85396">
        <ele>703.53997803</ele>
        <time>2020-10-29T15:33:26Z</time>
      </trkpt>
      <trkpt lat="43.02006" lon="0.8539">
        <ele>703.02001953</ele>
        <time>2020-10-29T15:33:27Z</time>
      </trkpt>
      <trkpt lat="43.02009" lon="0.85385">
        <ele>702.89001465</ele>
        <time>2020-10-29T15:33:29Z</time>
      </trkpt>
      <trkpt lat="43.0201" lon="0.85379">
        <ele>702.5</ele>
        <time>2020-10-29T15:33:30Z</time>
      </trkpt>
      <trkpt lat="43.02009" lon="0.85373">
        <ele>702.2199707</ele>
        <time>2020-10-29T15:33:32Z</time>
      </trkpt>
      <trkpt lat="43.02007" lon="0.85364">
        <ele>702.02001953</ele>
        <time>2020-10-29T15:33:33Z</time>
      </trkpt>
      <trkpt lat="43.02008" lon="0.8536">
        <ele>702.04998779</ele>
        <time>2020-10-29T15:33:35Z</time>
      </trkpt>
      <trkpt lat="43.02008" lon="0.85353">
        <ele>702.45001221</ele>
        <time>2020-10-29T15:33:36Z</time>
      </trkpt>
      <trkpt lat="43.02009" lon="0.85346">
        <ele>702.30999756</ele>
        <time>2020-10-29T15:33:37Z</time>
      </trkpt>
      <trkpt lat="43.02011" lon="0.85339">
        <ele>702.2800293</ele>
        <time>2020-10-29T15:33:39Z</time>
      </trkpt>
      <trkpt lat="43.02011" lon="0.8533">
        <ele>701.9699707</ele>
        <time>2020-10-29T15:33:40Z</time>
      </trkpt>
      <trkpt lat="43.02008" lon="0.85319">
        <ele>702.14001465</ele>
        <time>2020-10-29T15:33:42Z</time>
      </trkpt>
      <trkpt lat="43.02006" lon="0.85313">
        <ele>701.07000732</ele>
        <time>2020-10-29T15:33:43Z</time>
      </trkpt>
      <trkpt lat="43.02006" lon="0.85308">
        <ele>698.97998047</ele>
        <time>2020-10-29T15:33:44Z</time>
      </trkpt>
      <trkpt lat="43.02007" lon="0.85302">
        <ele>698.97998047</ele>
        <time>2020-10-29T15:33:45Z</time>
      </trkpt>
      <trkpt lat="43.02008" lon="0.85295">
        <ele>698.58001709</ele>
        <time>2020-10-29T15:33:46Z</time>
      </trkpt>
      <trkpt lat="43.02009" lon="0.8529">
        <ele>698.13000488</ele>
        <time>2020-10-29T15:33:48Z</time>
      </trkpt>
      <trkpt lat="43.0201" lon="0.85283">
        <ele>697.73999023</ele>
        <time>2020-10-29T15:33:49Z</time>
      </trkpt>
      <trkpt lat="43.02009" lon="0.85278">
        <ele>697.22998047</ele>
        <time>2020-10-29T15:33:51Z</time>
      </trkpt>
      <trkpt lat="43.02007" lon="0.85275">
        <ele>696.90002441</ele>
        <time>2020-10-29T15:33:52Z</time>
      </trkpt>
      <trkpt lat="43.02004" lon="0.85271">
        <ele>696.19000244</ele>
        <time>2020-10-29T15:33:54Z</time>
      </trkpt>
      <trkpt lat="43.02" lon="0.8527">
        <ele>696.02001953</ele>
        <time>2020-10-29T15:33:55Z</time>
      </trkpt>
      <trkpt lat="43.01991" lon="0.85267">
        <ele>693.13000488</ele>
        <time>2020-10-29T15:33:56Z</time>
      </trkpt>
      <trkpt lat="43.01987" lon="0.85265">
        <ele>692.32000732</ele>
        <time>2020-10-29T15:33:57Z</time>
      </trkpt>
      <trkpt lat="43.0198" lon="0.85262">
        <ele>690.55999756</ele>
        <time>2020-10-29T15:33:59Z</time>
      </trkpt>
      <trkpt lat="43.01975" lon="0.8526">
        <ele>688.63000488</ele>
        <time>2020-10-29T15:34:01Z</time>
      </trkpt>
      <trkpt lat="43.01969" lon="0.85258">
        <ele>688.07000732</ele>
        <time>2020-10-29T15:34:02Z</time>
      </trkpt>
      <trkpt lat="43.01965" lon="0.85256">
        <ele>687.71002197</ele>
        <time>2020-10-29T15:34:03Z</time>
      </trkpt>
      <trkpt lat="43.01958" lon="0.85254">
        <ele>687.23999023</ele>
        <time>2020-10-29T15:34:05Z</time>
      </trkpt>
      <trkpt lat="43.01953" lon="0.85253">
        <ele>687.23999023</ele>
        <time>2020-10-29T15:34:06Z</time>
      </trkpt>
      <trkpt lat="43.01947" lon="0.85251">
        <ele>684.04998779</ele>
        <time>2020-10-29T15:34:07Z</time>
      </trkpt>
      <trkpt lat="43.01942" lon="0.85247">
        <ele>683</ele>
        <time>2020-10-29T15:34:08Z</time>
      </trkpt>
      <trkpt lat="43.01938" lon="0.85243">
        <ele>681.77001953</ele>
        <time>2020-10-29T15:34:09Z</time>
      </trkpt>
      <trkpt lat="43.01937" lon="0.85238">
        <ele>679.69000244</ele>
        <time>2020-10-29T15:34:10Z</time>
      </trkpt>
      <trkpt lat="43.01935" lon="0.85232">
        <ele>678.78997803</ele>
        <time>2020-10-29T15:34:12Z</time>
      </trkpt>
      <trkpt lat="43.01933" lon="0.85226">
        <ele>678.27001953</ele>
        <time>2020-10-29T15:34:13Z</time>
      </trkpt>
      <trkpt lat="43.0193" lon="0.85221">
        <ele>677.52001953</ele>
        <time>2020-10-29T15:34:14Z</time>
      </trkpt>
      <trkpt lat="43.01927" lon="0.85215">
        <ele>676.84002686</ele>
        <time>2020-10-29T15:34:15Z</time>
      </trkpt>
      <trkpt lat="43.01926" lon="0.85211">
        <ele>676.27001953</ele>
        <time>2020-10-29T15:34:16Z</time>
      </trkpt>
      <trkpt lat="43.01924" lon="0.85208">
        <ele>675.5300293</ele>
        <time>2020-10-29T15:34:17Z</time>
      </trkpt>
      <trkpt lat="43.01921" lon="0.85203">
        <ele>675.38000488</ele>
        <time>2020-10-29T15:34:18Z</time>
      </trkpt>
      <trkpt lat="43.01918" lon="0.852">
        <ele>674.44000244</ele>
        <time>2020-10-29T15:34:20Z</time>
      </trkpt>
      <trkpt lat="43.01914" lon="0.85194">
        <ele>672.64001465</ele>
        <time>2020-10-29T15:34:21Z</time>
      </trkpt>
      <trkpt lat="43.0191" lon="0.85189">
        <ele>672.09002686</ele>
        <time>2020-10-29T15:34:22Z</time>
      </trkpt>
      <trkpt lat="43.01905" lon="0.85184">
        <ele>670.65997314</ele>
        <time>2020-10-29T15:34:24Z</time>
      </trkpt>
      <trkpt lat="43.01898" lon="0.85177">
        <ele>669.2800293</ele>
        <time>2020-10-29T15:34:26Z</time>
      </trkpt>
      <trkpt lat="43.01891" lon="0.85172">
        <ele>669.03997803</ele>
        <time>2020-10-29T15:34:27Z</time>
      </trkpt>
      <trkpt lat="43.01885" lon="0.85168">
        <ele>667.7199707</ele>
        <time>2020-10-29T15:34:28Z</time>
      </trkpt>
      <trkpt lat="43.01879" lon="0.85166">
        <ele>664.96002197</ele>
        <time>2020-10-29T15:34:30Z</time>
      </trkpt>
      <trkpt lat="43.01871" lon="0.8516">
        <ele>663.11999512</ele>
        <time>2020-10-29T15:34:31Z</time>
      </trkpt>
      <trkpt lat="43.01855" lon="0.85151">
        <ele>659.95001221</ele>
        <time>2020-10-29T15:34:33Z</time>
      </trkpt>
      <trkpt lat="43.01837" lon="0.85142">
        <ele>656.90002441</ele>
        <time>2020-10-29T15:34:35Z</time>
      </trkpt>
      <trkpt lat="43.0182" lon="0.85134">
        <ele>655.67999268</ele>
        <time>2020-10-29T15:34:37Z</time>
      </trkpt>
      <trkpt lat="43.01812" lon="0.85131">
        <ele>655.67999268</ele>
        <time>2020-10-29T15:34:38Z</time>
      </trkpt>
      <trkpt lat="43.01796" lon="0.85125">
        <ele>651.97998047</ele>
        <time>2020-10-29T15:34:40Z</time>
      </trkpt>
      <trkpt lat="43.01786" lon="0.85123">
        <ele>651.2800293</ele>
        <time>2020-10-29T15:34:41Z</time>
      </trkpt>
      <trkpt lat="43.01768" lon="0.85121">
        <ele>650.5300293</ele>
        <time>2020-10-29T15:34:43Z</time>
      </trkpt>
      <trkpt lat="43.01748" lon="0.85119">
        <ele>649.44000244</ele>
        <time>2020-10-29T15:34:45Z</time>
      </trkpt>
      <trkpt lat="43.0173" lon="0.85119">
        <ele>647.19000244</ele>
        <time>2020-10-29T15:34:47Z</time>
      </trkpt>
      <trkpt lat="43.01721" lon="0.85119">
        <ele>647.09997559</ele>
        <time>2020-10-29T15:34:48Z</time>
      </trkpt>
      <trkpt lat="43.01713" lon="0.8512">
        <ele>645.59997559</ele>
        <time>2020-10-29T15:34:49Z</time>
      </trkpt>
      <trkpt lat="43.01705" lon="0.85121">
        <ele>644.30999756</ele>
        <time>2020-10-29T15:34:50Z</time>
      </trkpt>
      <trkpt lat="43.01689" lon="0.85126">
        <ele>641.72998047</ele>
        <time>2020-10-29T15:34:52Z</time>
      </trkpt>
      <trkpt lat="43.01675" lon="0.8513">
        <ele>639.0300293</ele>
        <time>2020-10-29T15:34:54Z</time>
      </trkpt>
      <trkpt lat="43.01661" lon="0.8513">
        <ele>636.84997559</ele>
        <time>2020-10-29T15:34:56Z</time>
      </trkpt>
      <trkpt lat="43.01656" lon="0.85129">
        <ele>636.63000488</ele>
        <time>2020-10-29T15:34:57Z</time>
      </trkpt>
      <trkpt lat="43.01653" lon="0.85125">
        <ele>636.01000977</ele>
        <time>2020-10-29T15:34:58Z</time>
      </trkpt>
      <trkpt lat="43.01648" lon="0.85115">
        <ele>634.65997314</ele>
        <time>2020-10-29T15:35:00Z</time>
      </trkpt>
      <trkpt lat="43.01645" lon="0.85103">
        <ele>633.17999268</ele>
        <time>2020-10-29T15:35:02Z</time>
      </trkpt>
      <trkpt lat="43.01643" lon="0.85093">
        <ele>632.46002197</ele>
        <time>2020-10-29T15:35:04Z</time>
      </trkpt>
      <trkpt lat="43.01641" lon="0.8509">
        <ele>632.15997314</ele>
        <time>2020-10-29T15:35:05Z</time>
      </trkpt>
      <trkpt lat="43.0164" lon="0.85087">
        <ele>631.30999756</ele>
        <time>2020-10-29T15:35:06Z</time>
      </trkpt>
      <trkpt lat="43.0164" lon="0.85084">
        <ele>631.89001465</ele>
        <time>2020-10-29T15:35:07Z</time>
      </trkpt>
      <trkpt lat="43.01639" lon="0.85081">
        <ele>631.28997803</ele>
        <time>2020-10-29T15:35:08Z</time>
      </trkpt>
      <trkpt lat="43.01639" lon="0.85079">
        <ele>630.09997559</ele>
        <time>2020-10-29T15:35:10Z</time>
      </trkpt>
      <trkpt lat="43.01639" lon="0.85075">
        <ele>630.09002686</ele>
        <time>2020-10-29T15:35:11Z</time>
      </trkpt>
      <trkpt lat="43.01639" lon="0.85071">
        <ele>629.38000488</ele>
        <time>2020-10-29T15:35:12Z</time>
      </trkpt>
      <trkpt lat="43.01639" lon="0.85056">
        <ele>629.33001709</ele>
        <time>2020-10-29T15:35:14Z</time>
      </trkpt>
      <trkpt lat="43.01638" lon="0.85047">
        <ele>628.91998291</ele>
        <time>2020-10-29T15:35:15Z</time>
      </trkpt>
      <trkpt lat="43.01634" lon="0.85026">
        <ele>626.83001709</ele>
        <time>2020-10-29T15:35:17Z</time>
      </trkpt>
      <trkpt lat="43.01633" lon="0.85015">
        <ele>626.44000244</ele>
        <time>2020-10-29T15:35:18Z</time>
      </trkpt>
      <trkpt lat="43.01633" lon="0.85008">
        <ele>626.22998047</ele>
        <time>2020-10-29T15:35:19Z</time>
      </trkpt>
      <trkpt lat="43.01633" lon="0.84997">
        <ele>625.26000977</ele>
        <time>2020-10-29T15:35:20Z</time>
      </trkpt>
      <trkpt lat="43.01635" lon="0.84994">
        <ele>624.20001221</ele>
        <time>2020-10-29T15:35:21Z</time>
      </trkpt>
      <trkpt lat="43.01636" lon="0.84992">
        <ele>623.45001221</ele>
        <time>2020-10-29T15:35:22Z</time>
      </trkpt>
      <trkpt lat="43.01636" lon="0.84987">
        <ele>622.85998535</ele>
        <time>2020-10-29T15:35:23Z</time>
      </trkpt>
      <trkpt lat="43.01635" lon="0.84982">
        <ele>622.76000977</ele>
        <time>2020-10-29T15:35:24Z</time>
      </trkpt>
      <trkpt lat="43.01636" lon="0.84979">
        <ele>622.9699707</ele>
        <time>2020-10-29T15:35:25Z</time>
      </trkpt>
      <trkpt lat="43.01639" lon="0.8498">
        <ele>623.17999268</ele>
        <time>2020-10-29T15:35:27Z</time>
      </trkpt>
      <trkpt lat="43.01642" lon="0.84982">
        <ele>622.72998047</ele>
        <time>2020-10-29T15:35:28Z</time>
      </trkpt>
      <trkpt lat="43.01645" lon="0.84983">
        <ele>622.9699707</ele>
        <time>2020-10-29T15:35:29Z</time>
      </trkpt>
      <trkpt lat="43.01649" lon="0.84984">
        <ele>623.07000732</ele>
        <time>2020-10-29T15:35:31Z</time>
      </trkpt>
      <trkpt lat="43.01652" lon="0.84984">
        <ele>623.07000732</ele>
        <time>2020-10-29T15:35:32Z</time>
      </trkpt>
      <trkpt lat="43.01659" lon="0.84984">
        <ele>624.86999512</ele>
        <time>2020-10-29T15:35:34Z</time>
      </trkpt>
      <trkpt lat="43.01664" lon="0.84984">
        <ele>624.71002197</ele>
        <time>2020-10-29T15:35:35Z</time>
      </trkpt>
      <trkpt lat="43.01668" lon="0.84983">
        <ele>624.66998291</ele>
        <time>2020-10-29T15:35:36Z</time>
      </trkpt>
      <trkpt lat="43.01671" lon="0.84981">
        <ele>624.57000732</ele>
        <time>2020-10-29T15:35:38Z</time>
      </trkpt>
      <trkpt lat="43.01676" lon="0.84979">
        <ele>623.90997314</ele>
        <time>2020-10-29T15:35:39Z</time>
      </trkpt>
      <trkpt lat="43.0168" lon="0.84978">
        <ele>622.34002686</ele>
        <time>2020-10-29T15:35:40Z</time>
      </trkpt>
      <trkpt lat="43.01685" lon="0.84976">
        <ele>622.90997314</ele>
        <time>2020-10-29T15:35:42Z</time>
      </trkpt>
      <trkpt lat="43.01692" lon="0.84974">
        <ele>623.40997314</ele>
        <time>2020-10-29T15:35:43Z</time>
      </trkpt>
      <trkpt lat="43.01697" lon="0.84973">
        <ele>623.89001465</ele>
        <time>2020-10-29T15:35:44Z</time>
      </trkpt>
      <trkpt lat="43.01703" lon="0.84971">
        <ele>624.27001953</ele>
        <time>2020-10-29T15:35:46Z</time>
      </trkpt>
      <trkpt lat="43.01708" lon="0.8497">
        <ele>624.27001953</ele>
        <time>2020-10-29T15:35:47Z</time>
      </trkpt>
      <trkpt lat="43.01715" lon="0.84966">
        <ele>625.05999756</ele>
        <time>2020-10-29T15:35:48Z</time>
      </trkpt>
      <trkpt lat="43.01729" lon="0.84959">
        <ele>626.61999512</ele>
        <time>2020-10-29T15:35:50Z</time>
      </trkpt>
      <trkpt lat="43.01733" lon="0.84956">
        <ele>626.70001221</ele>
        <time>2020-10-29T15:35:51Z</time>
      </trkpt>
      <trkpt lat="43.01745" lon="0.84948">
        <ele>626.84002686</ele>
        <time>2020-10-29T15:35:53Z</time>
      </trkpt>
      <trkpt lat="43.01751" lon="0.84944">
        <ele>626.96002197</ele>
        <time>2020-10-29T15:35:54Z</time>
      </trkpt>
      <trkpt lat="43.01764" lon="0.84938">
        <ele>627.4699707</ele>
        <time>2020-10-29T15:35:56Z</time>
      </trkpt>
      <trkpt lat="43.01773" lon="0.84934">
        <ele>627.2199707</ele>
        <time>2020-10-29T15:35:58Z</time>
      </trkpt>
      <trkpt lat="43.01778" lon="0.84936">
        <ele>628.01000977</ele>
        <time>2020-10-29T15:35:59Z</time>
      </trkpt>
      <trkpt lat="43.01783" lon="0.84933">
        <ele>627.55999756</ele>
        <time>2020-10-29T15:36:01Z</time>
      </trkpt>
      <trkpt lat="43.01787" lon="0.84929">
        <ele>627.39001465</ele>
        <time>2020-10-29T15:36:02Z</time>
      </trkpt>
      <trkpt lat="43.0179" lon="0.84926">
        <ele>627.39001465</ele>
        <time>2020-10-29T15:36:03Z</time>
      </trkpt>
      <trkpt lat="43.01796" lon="0.84922">
        <ele>627.22998047</ele>
        <time>2020-10-29T15:36:04Z</time>
      </trkpt>
      <trkpt lat="43.018" lon="0.84919">
        <ele>625.44000244</ele>
        <time>2020-10-29T15:36:05Z</time>
      </trkpt>
      <trkpt lat="43.01804" lon="0.84914">
        <ele>626.02001953</ele>
        <time>2020-10-29T15:36:06Z</time>
      </trkpt>
      <trkpt lat="43.01807" lon="0.84911">
        <ele>626.76000977</ele>
        <time>2020-10-29T15:36:08Z</time>
      </trkpt>
      <trkpt lat="43.01811" lon="0.84909">
        <ele>626.72998047</ele>
        <time>2020-10-29T15:36:09Z</time>
      </trkpt>
      <trkpt lat="43.01816" lon="0.84906">
        <ele>626.53997803</ele>
        <time>2020-10-29T15:36:10Z</time>
      </trkpt>
      <trkpt lat="43.0182" lon="0.84904">
        <ele>626.5</ele>
        <time>2020-10-29T15:36:12Z</time>
      </trkpt>
      <trkpt lat="43.01824" lon="0.84901">
        <ele>626.84997559</ele>
        <time>2020-10-29T15:36:13Z</time>
      </trkpt>
      <trkpt lat="43.01828" lon="0.84897">
        <ele>627.40997314</ele>
        <time>2020-10-29T15:36:15Z</time>
      </trkpt>
      <trkpt lat="43.01832" lon="0.84893">
        <ele>627.29998779</ele>
        <time>2020-10-29T15:36:16Z</time>
      </trkpt>
      <trkpt lat="43.01835" lon="0.84889">
        <ele>627.38000488</ele>
        <time>2020-10-29T15:36:18Z</time>
      </trkpt>
      <trkpt lat="43.0184" lon="0.84884">
        <ele>627.29998779</ele>
        <time>2020-10-29T15:36:19Z</time>
      </trkpt>
      <trkpt lat="43.01843" lon="0.84881">
        <ele>627.79998779</ele>
        <time>2020-10-29T15:36:20Z</time>
      </trkpt>
      <trkpt lat="43.01846" lon="0.84877">
        <ele>628.40997314</ele>
        <time>2020-10-29T15:36:21Z</time>
      </trkpt>
      <trkpt lat="43.0185" lon="0.84874">
        <ele>628.21002197</ele>
        <time>2020-10-29T15:36:22Z</time>
      </trkpt>
      <trkpt lat="43.01855" lon="0.84868">
        <ele>627.13000488</ele>
        <time>2020-10-29T15:36:24Z</time>
      </trkpt>
      <trkpt lat="43.01862" lon="0.84861">
        <ele>627.34002686</ele>
        <time>2020-10-29T15:36:25Z</time>
      </trkpt>
      <trkpt lat="43.01867" lon="0.84858">
        <ele>627.03997803</ele>
        <time>2020-10-29T15:36:27Z</time>
      </trkpt>
      <trkpt lat="43.01874" lon="0.84849">
        <ele>627.29998779</ele>
        <time>2020-10-29T15:36:28Z</time>
      </trkpt>
      <trkpt lat="43.01887" lon="0.84836">
        <ele>627.76000977</ele>
        <time>2020-10-29T15:36:30Z</time>
      </trkpt>
      <trkpt lat="43.01895" lon="0.84826">
        <ele>626.85998535</ele>
        <time>2020-10-29T15:36:32Z</time>
      </trkpt>
      <trkpt lat="43.01908" lon="0.84812">
        <ele>627.0300293</ele>
        <time>2020-10-29T15:36:34Z</time>
      </trkpt>
      <trkpt lat="43.01913" lon="0.84805">
        <ele>627.13000488</ele>
        <time>2020-10-29T15:36:35Z</time>
      </trkpt>
      <trkpt lat="43.01918" lon="0.84799">
        <ele>626.59997559</ele>
        <time>2020-10-29T15:36:36Z</time>
      </trkpt>
      <trkpt lat="43.01924" lon="0.84793">
        <ele>626</ele>
        <time>2020-10-29T15:36:37Z</time>
      </trkpt>
      <trkpt lat="43.01931" lon="0.84787">
        <ele>625.82000732</ele>
        <time>2020-10-29T15:36:38Z</time>
      </trkpt>
      <trkpt lat="43.01937" lon="0.84788">
        <ele>625.9699707</ele>
        <time>2020-10-29T15:36:39Z</time>
      </trkpt>
      <trkpt lat="43.01942" lon="0.8479">
        <ele>625.26000977</ele>
        <time>2020-10-29T15:36:40Z</time>
      </trkpt>
      <trkpt lat="43.01954" lon="0.84778">
        <ele>626.63000488</ele>
        <time>2020-10-29T15:36:42Z</time>
      </trkpt>
      <trkpt lat="43.01962" lon="0.84773">
        <ele>625.35998535</ele>
        <time>2020-10-29T15:36:43Z</time>
      </trkpt>
      <trkpt lat="43.01975" lon="0.84759">
        <ele>624.86999512</ele>
        <time>2020-10-29T15:36:45Z</time>
      </trkpt>
      <trkpt lat="43.01988" lon="0.84742">
        <ele>623.35998535</ele>
        <time>2020-10-29T15:36:47Z</time>
      </trkpt>
      <trkpt lat="43.02" lon="0.84723">
        <ele>622.25</ele>
        <time>2020-10-29T15:36:49Z</time>
      </trkpt>
      <trkpt lat="43.02006" lon="0.84712">
        <ele>621.26000977</ele>
        <time>2020-10-29T15:36:50Z</time>
      </trkpt>
      <trkpt lat="43.02019" lon="0.84691">
        <ele>619.97998047</ele>
        <time>2020-10-29T15:36:52Z</time>
      </trkpt>
      <trkpt lat="43.02039" lon="0.8467">
        <ele>617.89001465</ele>
        <time>2020-10-29T15:36:54Z</time>
      </trkpt>
      <trkpt lat="43.02058" lon="0.84645">
        <ele>616.17999268</ele>
        <time>2020-10-29T15:36:56Z</time>
      </trkpt>
      <trkpt lat="43.02068" lon="0.84632">
        <ele>614.95001221</ele>
        <time>2020-10-29T15:36:57Z</time>
      </trkpt>
      <trkpt lat="43.02079" lon="0.8462">
        <ele>612.55999756</ele>
        <time>2020-10-29T15:36:58Z</time>
      </trkpt>
      <trkpt lat="43.02099" lon="0.84599">
        <ele>609.61999512</ele>
        <time>2020-10-29T15:37:00Z</time>
      </trkpt>
      <trkpt lat="43.02118" lon="0.84577">
        <ele>607.59997559</ele>
        <time>2020-10-29T15:37:02Z</time>
      </trkpt>
      <trkpt lat="43.02137" lon="0.84557">
        <ele>605.89001465</ele>
        <time>2020-10-29T15:37:04Z</time>
      </trkpt>
      <trkpt lat="43.02156" lon="0.84539">
        <ele>603.95001221</ele>
        <time>2020-10-29T15:37:06Z</time>
      </trkpt>
      <trkpt lat="43.02165" lon="0.8453">
        <ele>603.48999023</ele>
        <time>2020-10-29T15:37:07Z</time>
      </trkpt>
      <trkpt lat="43.02185" lon="0.84517">
        <ele>602.21002197</ele>
        <time>2020-10-29T15:37:09Z</time>
      </trkpt>
      <trkpt lat="43.02207" lon="0.84507">
        <ele>599.90002441</ele>
        <time>2020-10-29T15:37:11Z</time>
      </trkpt>
      <trkpt lat="43.02229" lon="0.84498">
        <ele>599.01000977</ele>
        <time>2020-10-29T15:37:13Z</time>
      </trkpt>
      <trkpt lat="43.0224" lon="0.84492">
        <ele>598.58001709</ele>
        <time>2020-10-29T15:37:14Z</time>
      </trkpt>
      <trkpt lat="43.02261" lon="0.84479">
        <ele>597.80999756</ele>
        <time>2020-10-29T15:37:16Z</time>
      </trkpt>
      <trkpt lat="43.02272" lon="0.84472">
        <ele>597.65002441</ele>
        <time>2020-10-29T15:37:17Z</time>
      </trkpt>
      <trkpt lat="43.02292" lon="0.84457">
        <ele>596.14001465</ele>
        <time>2020-10-29T15:37:19Z</time>
      </trkpt>
      <trkpt lat="43.02302" lon="0.84449">
        <ele>595.86999512</ele>
        <time>2020-10-29T15:37:20Z</time>
      </trkpt>
      <trkpt lat="43.02312" lon="0.84441">
        <ele>595.42999268</ele>
        <time>2020-10-29T15:37:21Z</time>
      </trkpt>
      <trkpt lat="43.02334" lon="0.84427">
        <ele>592.51000977</ele>
        <time>2020-10-29T15:37:23Z</time>
      </trkpt>
      <trkpt lat="43.02346" lon="0.8442">
        <ele>591.45001221</ele>
        <time>2020-10-29T15:37:24Z</time>
      </trkpt>
      <trkpt lat="43.02368" lon="0.84406">
        <ele>590.7199707</ele>
        <time>2020-10-29T15:37:26Z</time>
      </trkpt>
      <trkpt lat="43.0238" lon="0.84399">
        <ele>590.23999023</ele>
        <time>2020-10-29T15:37:27Z</time>
      </trkpt>
      <trkpt lat="43.02391" lon="0.84394">
        <ele>589.27001953</ele>
        <time>2020-10-29T15:37:28Z</time>
      </trkpt>
      <trkpt lat="43.02413" lon="0.84388">
        <ele>587.72998047</ele>
        <time>2020-10-29T15:37:30Z</time>
      </trkpt>
      <trkpt lat="43.02434" lon="0.84383">
        <ele>586.59002686</ele>
        <time>2020-10-29T15:37:32Z</time>
      </trkpt>
      <trkpt lat="43.02456" lon="0.8438">
        <ele>585.65002441</ele>
        <time>2020-10-29T15:37:34Z</time>
      </trkpt>
      <trkpt lat="43.02477" lon="0.84378">
        <ele>583.65002441</ele>
        <time>2020-10-29T15:37:36Z</time>
      </trkpt>
      <trkpt lat="43.02499" lon="0.84378">
        <ele>582.7199707</ele>
        <time>2020-10-29T15:37:38Z</time>
      </trkpt>
      <trkpt lat="43.0251" lon="0.84379">
        <ele>582.08001709</ele>
        <time>2020-10-29T15:37:39Z</time>
      </trkpt>
      <trkpt lat="43.02532" lon="0.84386">
        <ele>579.89001465</ele>
        <time>2020-10-29T15:37:41Z</time>
      </trkpt>
      <trkpt lat="43.02554" lon="0.84394">
        <ele>577.89001465</ele>
        <time>2020-10-29T15:37:43Z</time>
      </trkpt>
      <trkpt lat="43.02578" lon="0.84401">
        <ele>576.14001465</ele>
        <time>2020-10-29T15:37:45Z</time>
      </trkpt>
      <trkpt lat="43.02602" lon="0.84406">
        <ele>571.65002441</ele>
        <time>2020-10-29T15:37:47Z</time>
      </trkpt>
      <trkpt lat="43.02614" lon="0.84407">
        <ele>571.2199707</ele>
        <time>2020-10-29T15:37:48Z</time>
      </trkpt>
      <trkpt lat="43.02636" lon="0.84408">
        <ele>570.61999512</ele>
        <time>2020-10-29T15:37:50Z</time>
      </trkpt>
      <trkpt lat="43.02647" lon="0.8441">
        <ele>570.48999023</ele>
        <time>2020-10-29T15:37:51Z</time>
      </trkpt>
      <trkpt lat="43.02658" lon="0.84412">
        <ele>569.86999512</ele>
        <time>2020-10-29T15:37:52Z</time>
      </trkpt>
      <trkpt lat="43.02669" lon="0.84414">
        <ele>569.13000488</ele>
        <time>2020-10-29T15:37:53Z</time>
      </trkpt>
      <trkpt lat="43.0269" lon="0.84419">
        <ele>567.82000732</ele>
        <time>2020-10-29T15:37:55Z</time>
      </trkpt>
      <trkpt lat="43.02711" lon="0.84424">
        <ele>566.84997559</ele>
        <time>2020-10-29T15:37:57Z</time>
      </trkpt>
      <trkpt lat="43.02728" lon="0.84428">
        <ele>565.7199707</ele>
        <time>2020-10-29T15:37:59Z</time>
      </trkpt>
      <trkpt lat="43.02738" lon="0.84441">
        <ele>564.95001221</ele>
        <time>2020-10-29T15:38:01Z</time>
      </trkpt>
      <trkpt lat="43.02749" lon="0.84455">
        <ele>563.34997559</ele>
        <time>2020-10-29T15:38:03Z</time>
      </trkpt>
      <trkpt lat="43.02756" lon="0.84462">
        <ele>562.13000488</ele>
        <time>2020-10-29T15:38:04Z</time>
      </trkpt>
      <trkpt lat="43.02774" lon="0.84478">
        <ele>558.7199707</ele>
        <time>2020-10-29T15:38:06Z</time>
      </trkpt>
      <trkpt lat="43.02793" lon="0.84494">
        <ele>556.7199707</ele>
        <time>2020-10-29T15:38:08Z</time>
      </trkpt>
      <trkpt lat="43.02802" lon="0.84504">
        <ele>555.03997803</ele>
        <time>2020-10-29T15:38:09Z</time>
      </trkpt>
      <trkpt lat="43.02822" lon="0.84523">
        <ele>552.84002686</ele>
        <time>2020-10-29T15:38:11Z</time>
      </trkpt>
      <trkpt lat="43.0283" lon="0.84532">
        <ele>551.03997803</ele>
        <time>2020-10-29T15:38:12Z</time>
      </trkpt>
      <trkpt lat="43.02839" lon="0.84546">
        <ele>548.17999268</ele>
        <time>2020-10-29T15:38:14Z</time>
      </trkpt>
      <trkpt lat="43.0284" lon="0.84551">
        <ele>547.89001465</ele>
        <time>2020-10-29T15:38:15Z</time>
      </trkpt>
      <trkpt lat="43.02838" lon="0.84559">
        <ele>546.01000977</ele>
        <time>2020-10-29T15:38:16Z</time>
      </trkpt>
      <trkpt lat="43.02834" lon="0.84569">
        <ele>545.03997803</ele>
        <time>2020-10-29T15:38:17Z</time>
      </trkpt>
      <trkpt lat="43.02827" lon="0.84589">
        <ele>542.80999756</ele>
        <time>2020-10-29T15:38:19Z</time>
      </trkpt>
      <trkpt lat="43.02824" lon="0.84596">
        <ele>542.52001953</ele>
        <time>2020-10-29T15:38:20Z</time>
      </trkpt>
      <trkpt lat="43.02818" lon="0.84601">
        <ele>542.2800293</ele>
        <time>2020-10-29T15:38:22Z</time>
      </trkpt>
      <trkpt lat="43.02815" lon="0.84604">
        <ele>542.08001709</ele>
        <time>2020-10-29T15:38:24Z</time>
      </trkpt>
      <trkpt lat="43.02816" lon="0.84607">
        <ele>541.05999756</ele>
        <time>2020-10-29T15:38:25Z</time>
      </trkpt>
      <trkpt lat="43.02822" lon="0.84615">
        <ele>540.07000732</ele>
        <time>2020-10-29T15:38:27Z</time>
      </trkpt>
      <trkpt lat="43.02826" lon="0.8462">
        <ele>539.90002441</ele>
        <time>2020-10-29T15:38:29Z</time>
      </trkpt>
      <trkpt lat="43.02829" lon="0.84624">
        <ele>537.73999023</ele>
        <time>2020-10-29T15:38:30Z</time>
      </trkpt>
      <trkpt lat="43.02832" lon="0.84633">
        <ele>537.34997559</ele>
        <time>2020-10-29T15:38:32Z</time>
      </trkpt>
      <trkpt lat="43.02834" lon="0.84637">
        <ele>536.92999268</ele>
        <time>2020-10-29T15:38:33Z</time>
      </trkpt>
      <trkpt lat="43.02839" lon="0.84648">
        <ele>536.28997803</ele>
        <time>2020-10-29T15:38:35Z</time>
      </trkpt>
      <trkpt lat="43.02843" lon="0.84656">
        <ele>535.90002441</ele>
        <time>2020-10-29T15:38:37Z</time>
      </trkpt>
      <trkpt lat="43.02848" lon="0.84666">
        <ele>535.7199707</ele>
        <time>2020-10-29T15:38:39Z</time>
      </trkpt>
      <trkpt lat="43.0285" lon="0.8467">
        <ele>535.46002197</ele>
        <time>2020-10-29T15:38:40Z</time>
      </trkpt>
      <trkpt lat="43.02852" lon="0.8468">
        <ele>535.51000977</ele>
        <time>2020-10-29T15:38:42Z</time>
      </trkpt>
      <trkpt lat="43.02854" lon="0.84684">
        <ele>535.01000977</ele>
        <time>2020-10-29T15:38:43Z</time>
      </trkpt>
      <trkpt lat="43.02857" lon="0.84691">
        <ele>535.90002441</ele>
        <time>2020-10-29T15:38:45Z</time>
      </trkpt>
      <trkpt lat="43.02858" lon="0.84696">
        <ele>535.30999756</ele>
        <time>2020-10-29T15:38:47Z</time>
      </trkpt>
      <trkpt lat="43.02859" lon="0.84698">
        <ele>535.2800293</ele>
        <time>2020-10-29T15:38:49Z</time>
      </trkpt>
      <trkpt lat="43.0286" lon="0.84701">
        <ele>535.5300293</ele>
        <time>2020-10-29T15:38:50Z</time>
      </trkpt>
      <trkpt lat="43.02864" lon="0.8471">
        <ele>535.19000244</ele>
        <time>2020-10-29T15:38:52Z</time>
      </trkpt>
      <trkpt lat="43.02865" lon="0.84713">
        <ele>535.92999268</ele>
        <time>2020-10-29T15:38:53Z</time>
      </trkpt>
      <trkpt lat="43.02865" lon="0.84716">
        <ele>536.71002197</ele>
        <time>2020-10-29T15:38:54Z</time>
      </trkpt>
      <trkpt lat="43.02866" lon="0.84721">
        <ele>537.65997314</ele>
        <time>2020-10-29T15:38:55Z</time>
      </trkpt>
      <trkpt lat="43.02868" lon="0.84728">
        <ele>538.42999268</ele>
        <time>2020-10-29T15:38:57Z</time>
      </trkpt>
      <trkpt lat="43.02868" lon="0.84731">
        <ele>538.35998535</ele>
        <time>2020-10-29T15:38:58Z</time>
      </trkpt>
      <trkpt lat="43.0287" lon="0.84736">
        <ele>538.7800293</ele>
        <time>2020-10-29T15:39:00Z</time>
      </trkpt>
      <trkpt lat="43.02871" lon="0.8474">
        <ele>539.15997314</ele>
        <time>2020-10-29T15:39:01Z</time>
      </trkpt>
      <trkpt lat="43.02873" lon="0.84748">
        <ele>540.21002197</ele>
        <time>2020-10-29T15:39:03Z</time>
      </trkpt>
      <trkpt lat="43.02874" lon="0.84752">
        <ele>540.42999268</ele>
        <time>2020-10-29T15:39:04Z</time>
      </trkpt>
      <trkpt lat="43.02875" lon="0.84757">
        <ele>540.77001953</ele>
        <time>2020-10-29T15:39:05Z</time>
      </trkpt>
      <trkpt lat="43.02879" lon="0.84766">
        <ele>539.86999512</ele>
        <time>2020-10-29T15:39:07Z</time>
      </trkpt>
      <trkpt lat="43.02884" lon="0.84779">
        <ele>540.11999512</ele>
        <time>2020-10-29T15:39:09Z</time>
      </trkpt>
      <trkpt lat="43.02888" lon="0.84792">
        <ele>540.34997559</ele>
        <time>2020-10-29T15:39:11Z</time>
      </trkpt>
      <trkpt lat="43.0289" lon="0.84798">
        <ele>540.32000732</ele>
        <time>2020-10-29T15:39:12Z</time>
      </trkpt>
      <trkpt lat="43.02893" lon="0.8481">
        <ele>539.98999023</ele>
        <time>2020-10-29T15:39:14Z</time>
      </trkpt>
      <trkpt lat="43.02896" lon="0.84825">
        <ele>540.15997314</ele>
        <time>2020-10-29T15:39:16Z</time>
      </trkpt>
      <trkpt lat="43.02897" lon="0.84834">
        <ele>540.05999756</ele>
        <time>2020-10-29T15:39:17Z</time>
      </trkpt>
      <trkpt lat="43.029" lon="0.8485">
        <ele>540.5300293</ele>
        <time>2020-10-29T15:39:19Z</time>
      </trkpt>
      <trkpt lat="43.02901" lon="0.84858">
        <ele>540.08001709</ele>
        <time>2020-10-29T15:39:20Z</time>
      </trkpt>
      <trkpt lat="43.02903" lon="0.84873">
        <ele>540.15002441</ele>
        <time>2020-10-29T15:39:22Z</time>
      </trkpt>
      <trkpt lat="43.02904" lon="0.8488">
        <ele>539.88000488</ele>
        <time>2020-10-29T15:39:23Z</time>
      </trkpt>
      <trkpt lat="43.02905" lon="0.84887">
        <ele>539.19000244</ele>
        <time>2020-10-29T15:39:24Z</time>
      </trkpt>
      <trkpt lat="43.02906" lon="0.84895">
        <ele>538.97998047</ele>
        <time>2020-10-29T15:39:25Z</time>
      </trkpt>
      <trkpt lat="43.02907" lon="0.84903">
        <ele>538.77001953</ele>
        <time>2020-10-29T15:39:26Z</time>
      </trkpt>
      <trkpt lat="43.02909" lon="0.84916">
        <ele>539.33001709</ele>
        <time>2020-10-29T15:39:28Z</time>
      </trkpt>
      <trkpt lat="43.0291" lon="0.84921">
        <ele>540.04998779</ele>
        <time>2020-10-29T15:39:29Z</time>
      </trkpt>
      <trkpt lat="43.02913" lon="0.84933">
        <ele>541.84997559</ele>
        <time>2020-10-29T15:39:31Z</time>
      </trkpt>
      <trkpt lat="43.02914" lon="0.84937">
        <ele>541.94000244</ele>
        <time>2020-10-29T15:39:32Z</time>
      </trkpt>
      <trkpt lat="43.02916" lon="0.84944">
        <ele>540.98999023</ele>
        <time>2020-10-29T15:39:34Z</time>
      </trkpt>
      <trkpt lat="43.02917" lon="0.84947">
        <ele>541.5</ele>
        <time>2020-10-29T15:39:35Z</time>
      </trkpt>
      <trkpt lat="43.02919" lon="0.84957">
        <ele>540.69000244</ele>
        <time>2020-10-29T15:39:37Z</time>
      </trkpt>
      <trkpt lat="43.02922" lon="0.84966">
        <ele>540.77001953</ele>
        <time>2020-10-29T15:39:39Z</time>
      </trkpt>
      <trkpt lat="43.02924" lon="0.84975">
        <ele>541.5</ele>
        <time>2020-10-29T15:39:41Z</time>
      </trkpt>
      <trkpt lat="43.02927" lon="0.84988">
        <ele>540.33001709</ele>
        <time>2020-10-29T15:39:43Z</time>
      </trkpt>
      <trkpt lat="43.02928" lon="0.84994">
        <ele>541.04998779</ele>
        <time>2020-10-29T15:39:44Z</time>
      </trkpt>
      <trkpt lat="43.02929" lon="0.84998">
        <ele>541.27001953</ele>
        <time>2020-10-29T15:39:45Z</time>
      </trkpt>
      <trkpt lat="43.02929" lon="0.85001">
        <ele>541.19000244</ele>
        <time>2020-10-29T15:39:46Z</time>
      </trkpt>
      <trkpt lat="43.0293" lon="0.85007">
        <ele>541.04998779</ele>
        <time>2020-10-29T15:39:48Z</time>
      </trkpt>
      <trkpt lat="43.02931" lon="0.8501">
        <ele>541.04998779</ele>
        <time>2020-10-29T15:39:49Z</time>
      </trkpt>
      <trkpt lat="43.02932" lon="0.85013">
        <ele>541.66998291</ele>
        <time>2020-10-29T15:39:50Z</time>
      </trkpt>
      <trkpt lat="43.02932" lon="0.85016">
        <ele>541.64001465</ele>
        <time>2020-10-29T15:39:51Z</time>
      </trkpt>
      <trkpt lat="43.02932" lon="0.85017">
        <ele>541.75</ele>
        <time>2020-10-29T15:39:52Z</time>
      </trkpt>
      <trkpt lat="43.02932" lon="0.8502">
        <ele>541.83001709</ele>
        <time>2020-10-29T15:39:54Z</time>
      </trkpt>
      <trkpt lat="43.02933" lon="0.85026">
        <ele>542.28997803</ele>
        <time>2020-10-29T15:39:55Z</time>
      </trkpt>
      <trkpt lat="43.02934" lon="0.8503">
        <ele>542.02001953</ele>
        <time>2020-10-29T15:39:56Z</time>
      </trkpt>
      <trkpt lat="43.02934" lon="0.85034">
        <ele>542.39001465</ele>
        <time>2020-10-29T15:39:58Z</time>
      </trkpt>
      <trkpt lat="43.02935" lon="0.85039">
        <ele>542.84002686</ele>
        <time>2020-10-29T15:39:59Z</time>
      </trkpt>
      <trkpt lat="43.02937" lon="0.85042">
        <ele>542.75</ele>
        <time>2020-10-29T15:40:01Z</time>
      </trkpt>
      <trkpt lat="43.0294" lon="0.8505">
        <ele>543.46002197</ele>
        <time>2020-10-29T15:40:02Z</time>
      </trkpt>
      <trkpt lat="43.02943" lon="0.85058">
        <ele>543.61999512</ele>
        <time>2020-10-29T15:40:04Z</time>
      </trkpt>
      <trkpt lat="43.02944" lon="0.85062">
        <ele>543.64001465</ele>
        <time>2020-10-29T15:40:05Z</time>
      </trkpt>
      <trkpt lat="43.02945" lon="0.85065">
        <ele>543.89001465</ele>
        <time>2020-10-29T15:40:07Z</time>
      </trkpt>
      <trkpt lat="43.02947" lon="0.8507">
        <ele>544.19000244</ele>
        <time>2020-10-29T15:40:08Z</time>
      </trkpt>
      <trkpt lat="43.02949" lon="0.85076">
        <ele>544.59997559</ele>
        <time>2020-10-29T15:40:09Z</time>
      </trkpt>
      <trkpt lat="43.02951" lon="0.85084">
        <ele>544.22998047</ele>
        <time>2020-10-29T15:40:10Z</time>
      </trkpt>
      <trkpt lat="43.02952" lon="0.85089">
        <ele>544.26000977</ele>
        <time>2020-10-29T15:40:11Z</time>
      </trkpt>
      <trkpt lat="43.02953" lon="0.85096">
        <ele>543.71002197</ele>
        <time>2020-10-29T15:40:12Z</time>
      </trkpt>
      <trkpt lat="43.02954" lon="0.851">
        <ele>544.48999023</ele>
        <time>2020-10-29T15:40:14Z</time>
      </trkpt>
      <trkpt lat="43.02955" lon="0.85109">
        <ele>544.90997314</ele>
        <time>2020-10-29T15:40:15Z</time>
      </trkpt>
      <trkpt lat="43.02955" lon="0.85114">
        <ele>544.9699707</ele>
        <time>2020-10-29T15:40:17Z</time>
      </trkpt>
      <trkpt lat="43.02956" lon="0.85122">
        <ele>545.07000732</ele>
        <time>2020-10-29T15:40:18Z</time>
      </trkpt>
      <trkpt lat="43.02957" lon="0.85129">
        <ele>545.45001221</ele>
        <time>2020-10-29T15:40:20Z</time>
      </trkpt>
      <trkpt lat="43.02957" lon="0.85136">
        <ele>544.89001465</ele>
        <time>2020-10-29T15:40:22Z</time>
      </trkpt>
      <trkpt lat="43.02956" lon="0.85143">
        <ele>544.98999023</ele>
        <time>2020-10-29T15:40:23Z</time>
      </trkpt>
      <trkpt lat="43.02956" lon="0.85151">
        <ele>544.84997559</ele>
        <time>2020-10-29T15:40:24Z</time>
      </trkpt>
      <trkpt lat="43.02956" lon="0.85159">
        <ele>544.78997803</ele>
        <time>2020-10-29T15:40:26Z</time>
      </trkpt>
      <trkpt lat="43.02956" lon="0.85167">
        <ele>545.17999268</ele>
        <time>2020-10-29T15:40:27Z</time>
      </trkpt>
      <trkpt lat="43.02956" lon="0.85173">
        <ele>545.84002686</ele>
        <time>2020-10-29T15:40:29Z</time>
      </trkpt>
      <trkpt lat="43.02956" lon="0.85179">
        <ele>545.61999512</ele>
        <time>2020-10-29T15:40:30Z</time>
      </trkpt>
      <trkpt lat="43.02956" lon="0.85184">
        <ele>545.90002441</ele>
        <time>2020-10-29T15:40:31Z</time>
      </trkpt>
      <trkpt lat="43.02956" lon="0.85189">
        <ele>546.14001465</ele>
        <time>2020-10-29T15:40:33Z</time>
      </trkpt>
      <trkpt lat="43.02956" lon="0.85193">
        <ele>546.14001465</ele>
        <time>2020-10-29T15:40:34Z</time>
      </trkpt>
      <trkpt lat="43.02956" lon="0.85199">
        <ele>546.67999268</ele>
        <time>2020-10-29T15:40:35Z</time>
      </trkpt>
      <trkpt lat="43.02957" lon="0.85205">
        <ele>546.59997559</ele>
        <time>2020-10-29T15:40:37Z</time>
      </trkpt>
      <trkpt lat="43.02958" lon="0.85211">
        <ele>547.08001709</ele>
        <time>2020-10-29T15:40:38Z</time>
      </trkpt>
      <trkpt lat="43.02958" lon="0.85215">
        <ele>547.63000488</ele>
        <time>2020-10-29T15:40:39Z</time>
      </trkpt>
      <trkpt lat="43.02959" lon="0.85221">
        <ele>547.58001709</ele>
        <time>2020-10-29T15:40:40Z</time>
      </trkpt>
      <trkpt lat="43.02959" lon="0.85225">
        <ele>548.08001709</ele>
        <time>2020-10-29T15:40:42Z</time>
      </trkpt>
      <trkpt lat="43.02959" lon="0.85233">
        <ele>548.54998779</ele>
        <time>2020-10-29T15:40:44Z</time>
      </trkpt>
      <trkpt lat="43.0296" lon="0.85239">
        <ele>548.97998047</ele>
        <time>2020-10-29T15:40:45Z</time>
      </trkpt>
      <trkpt lat="43.02961" lon="0.85245">
        <ele>548.7800293</ele>
        <time>2020-10-29T15:40:47Z</time>
      </trkpt>
      <trkpt lat="43.02962" lon="0.85253">
        <ele>549.28997803</ele>
        <time>2020-10-29T15:40:48Z</time>
      </trkpt>
      <trkpt lat="43.02963" lon="0.85257">
        <ele>549.9699707</ele>
        <time>2020-10-29T15:40:50Z</time>
      </trkpt>
      <trkpt lat="43.02964" lon="0.85263">
        <ele>550.13000488</ele>
        <time>2020-10-29T15:40:51Z</time>
      </trkpt>
      <trkpt lat="43.02965" lon="0.85266">
        <ele>550.34002686</ele>
        <time>2020-10-29T15:40:52Z</time>
      </trkpt>
      <trkpt lat="43.02965" lon="0.8527">
        <ele>550.63000488</ele>
        <time>2020-10-29T15:40:53Z</time>
      </trkpt>
      <trkpt lat="43.02967" lon="0.85274">
        <ele>550.79998779</ele>
        <time>2020-10-29T15:40:55Z</time>
      </trkpt>
      <trkpt lat="43.02967" lon="0.85279">
        <ele>550.96002197</ele>
        <time>2020-10-29T15:40:56Z</time>
      </trkpt>
      <trkpt lat="43.02968" lon="0.85286">
        <ele>550.44000244</ele>
        <time>2020-10-29T15:40:59Z</time>
      </trkpt>
      <trkpt lat="43.02969" lon="0.85296">
        <ele>550.03997803</ele>
        <time>2020-10-29T15:41:01Z</time>
      </trkpt>
      <trkpt lat="43.0297" lon="0.853">
        <ele>549.85998535</ele>
        <time>2020-10-29T15:41:02Z</time>
      </trkpt>
      <trkpt lat="43.02969" lon="0.85305">
        <ele>548.7800293</ele>
        <time>2020-10-29T15:41:04Z</time>
      </trkpt>
      <trkpt lat="43.02969" lon="0.85311">
        <ele>549.16998291</ele>
        <time>2020-10-29T15:41:05Z</time>
      </trkpt>
      <trkpt lat="43.02968" lon="0.85317">
        <ele>550.4699707</ele>
        <time>2020-10-29T15:41:06Z</time>
      </trkpt>
      <trkpt lat="43.02967" lon="0.85322">
        <ele>549.51000977</ele>
        <time>2020-10-29T15:41:08Z</time>
      </trkpt>
      <trkpt lat="43.02965" lon="0.85328">
        <ele>549.53997803</ele>
        <time>2020-10-29T15:41:09Z</time>
      </trkpt>
      <trkpt lat="43.02963" lon="0.85334">
        <ele>549.88000488</ele>
        <time>2020-10-29T15:41:11Z</time>
      </trkpt>
      <trkpt lat="43.02962" lon="0.85341">
        <ele>550.48999023</ele>
        <time>2020-10-29T15:41:12Z</time>
      </trkpt>
      <trkpt lat="43.02961" lon="0.85346">
        <ele>550.73999023</ele>
        <time>2020-10-29T15:41:13Z</time>
      </trkpt>
      <trkpt lat="43.02959" lon="0.85354">
        <ele>551.64001465</ele>
        <time>2020-10-29T15:41:15Z</time>
      </trkpt>
      <trkpt lat="43.02957" lon="0.85359">
        <ele>551.79998779</ele>
        <time>2020-10-29T15:41:16Z</time>
      </trkpt>
      <trkpt lat="43.02955" lon="0.85365">
        <ele>552.34002686</ele>
        <time>2020-10-29T15:41:18Z</time>
      </trkpt>
      <trkpt lat="43.02953" lon="0.85371">
        <ele>552.53997803</ele>
        <time>2020-10-29T15:41:19Z</time>
      </trkpt>
      <trkpt lat="43.02951" lon="0.85375">
        <ele>552.79998779</ele>
        <time>2020-10-29T15:41:20Z</time>
      </trkpt>
      <trkpt lat="43.0295" lon="0.85379">
        <ele>552.86999512</ele>
        <time>2020-10-29T15:41:22Z</time>
      </trkpt>
      <trkpt lat="43.02948" lon="0.85383">
        <ele>552.96002197</ele>
        <time>2020-10-29T15:41:23Z</time>
      </trkpt>
      <trkpt lat="43.02945" lon="0.85386">
        <ele>553.23999023</ele>
        <time>2020-10-29T15:41:24Z</time>
      </trkpt>
      <trkpt lat="43.02942" lon="0.8539">
        <ele>553.2800293</ele>
        <time>2020-10-29T15:41:26Z</time>
      </trkpt>
      <trkpt lat="43.0294" lon="0.85393">
        <ele>553.61999512</ele>
        <time>2020-10-29T15:41:27Z</time>
      </trkpt>
      <trkpt lat="43.02938" lon="0.85396">
        <ele>553.54998779</ele>
        <time>2020-10-29T15:41:28Z</time>
      </trkpt>
      <trkpt lat="43.02935" lon="0.85399">
        <ele>553.89001465</ele>
        <time>2020-10-29T15:41:29Z</time>
      </trkpt>
      <trkpt lat="43.02933" lon="0.85402">
        <ele>554.05999756</ele>
        <time>2020-10-29T15:41:31Z</time>
      </trkpt>
      <trkpt lat="43.0293" lon="0.85406">
        <ele>554.52001953</ele>
        <time>2020-10-29T15:41:32Z</time>
      </trkpt>
      <trkpt lat="43.02928" lon="0.8541">
        <ele>554.86999512</ele>
        <time>2020-10-29T15:41:33Z</time>
      </trkpt>
      <trkpt lat="43.02926" lon="0.85414">
        <ele>555.63000488</ele>
        <time>2020-10-29T15:41:34Z</time>
      </trkpt>
      <trkpt lat="43.02924" lon="0.85417">
        <ele>555.70001221</ele>
        <time>2020-10-29T15:41:35Z</time>
      </trkpt>
      <trkpt lat="43.02922" lon="0.8542">
        <ele>556.07000732</ele>
        <time>2020-10-29T15:41:37Z</time>
      </trkpt>
      <trkpt lat="43.0292" lon="0.85425">
        <ele>556.46002197</ele>
        <time>2020-10-29T15:41:38Z</time>
      </trkpt>
      <trkpt lat="43.02918" lon="0.85431">
        <ele>557.30999756</ele>
        <time>2020-10-29T15:41:39Z</time>
      </trkpt>
      <trkpt lat="43.02915" lon="0.85438">
        <ele>558.55999756</ele>
        <time>2020-10-29T15:41:41Z</time>
      </trkpt>
      <trkpt lat="43.02913" lon="0.85442">
        <ele>558.09002686</ele>
        <time>2020-10-29T15:41:42Z</time>
      </trkpt>
      <trkpt lat="43.02911" lon="0.85446">
        <ele>558.51000977</ele>
        <time>2020-10-29T15:41:43Z</time>
      </trkpt>
      <trkpt lat="43.02907" lon="0.85452">
        <ele>558.02001953</ele>
        <time>2020-10-29T15:41:45Z</time>
      </trkpt>
      <trkpt lat="43.02904" lon="0.85458">
        <ele>558.21002197</ele>
        <time>2020-10-29T15:41:46Z</time>
      </trkpt>
      <trkpt lat="43.02902" lon="0.85462">
        <ele>558.41998291</ele>
        <time>2020-10-29T15:41:48Z</time>
      </trkpt>
      <trkpt lat="43.02899" lon="0.85469">
        <ele>558.30999756</ele>
        <time>2020-10-29T15:41:50Z</time>
      </trkpt>
      <trkpt lat="43.02896" lon="0.85472">
        <ele>558.34002686</ele>
        <time>2020-10-29T15:41:51Z</time>
      </trkpt>
      <trkpt lat="43.02893" lon="0.85475">
        <ele>557.61999512</ele>
        <time>2020-10-29T15:41:53Z</time>
      </trkpt>
      <trkpt lat="43.0289" lon="0.85477">
        <ele>557.76000977</ele>
        <time>2020-10-29T15:41:54Z</time>
      </trkpt>
      <trkpt lat="43.02887" lon="0.8548">
        <ele>557.83001709</ele>
        <time>2020-10-29T15:41:56Z</time>
      </trkpt>
      <trkpt lat="43.02886" lon="0.85483">
        <ele>556.48999023</ele>
        <time>2020-10-29T15:41:57Z</time>
      </trkpt>
      <trkpt lat="43.02883" lon="0.85486">
        <ele>556.53997803</ele>
        <time>2020-10-29T15:41:58Z</time>
      </trkpt>
      <trkpt lat="43.0288" lon="0.85488">
        <ele>556.79998779</ele>
        <time>2020-10-29T15:42:00Z</time>
      </trkpt>
      <trkpt lat="43.02878" lon="0.85492">
        <ele>557.69000244</ele>
        <time>2020-10-29T15:42:01Z</time>
      </trkpt>
      <trkpt lat="43.02876" lon="0.85494">
        <ele>558.19000244</ele>
        <time>2020-10-29T15:42:02Z</time>
      </trkpt>
      <trkpt lat="43.02874" lon="0.85498">
        <ele>558.15002441</ele>
        <time>2020-10-29T15:42:04Z</time>
      </trkpt>
      <trkpt lat="43.02871" lon="0.85503">
        <ele>558.48999023</ele>
        <time>2020-10-29T15:42:05Z</time>
      </trkpt>
      <trkpt lat="43.02868" lon="0.85506">
        <ele>558.53997803</ele>
        <time>2020-10-29T15:42:06Z</time>
      </trkpt>
      <trkpt lat="43.02866" lon="0.85509">
        <ele>558.55999756</ele>
        <time>2020-10-29T15:42:08Z</time>
      </trkpt>
      <trkpt lat="43.02864" lon="0.85513">
        <ele>558.73999023</ele>
        <time>2020-10-29T15:42:09Z</time>
      </trkpt>
      <trkpt lat="43.02861" lon="0.85517">
        <ele>558.94000244</ele>
        <time>2020-10-29T15:42:10Z</time>
      </trkpt>
      <trkpt lat="43.02859" lon="0.85521">
        <ele>558.7800293</ele>
        <time>2020-10-29T15:42:11Z</time>
      </trkpt>
      <trkpt lat="43.02856" lon="0.85524">
        <ele>558.61999512</ele>
        <time>2020-10-29T15:42:12Z</time>
      </trkpt>
      <trkpt lat="43.02854" lon="0.85528">
        <ele>558.34002686</ele>
        <time>2020-10-29T15:42:14Z</time>
      </trkpt>
      <trkpt lat="43.02849" lon="0.85533">
        <ele>557.65997314</ele>
        <time>2020-10-29T15:42:15Z</time>
      </trkpt>
      <trkpt lat="43.02847" lon="0.85538">
        <ele>557.23999023</ele>
        <time>2020-10-29T15:42:16Z</time>
      </trkpt>
      <trkpt lat="43.02844" lon="0.85545">
        <ele>557.10998535</ele>
        <time>2020-10-29T15:42:18Z</time>
      </trkpt>
      <trkpt lat="43.0284" lon="0.85554">
        <ele>557.03997803</ele>
        <time>2020-10-29T15:42:20Z</time>
      </trkpt>
      <trkpt lat="43.02836" lon="0.85563">
        <ele>556.47998047</ele>
        <time>2020-10-29T15:42:21Z</time>
      </trkpt>
      <trkpt lat="43.02836" lon="0.85567">
        <ele>555.64001465</ele>
        <time>2020-10-29T15:42:23Z</time>
      </trkpt>
      <trkpt lat="43.02838" lon="0.85572">
        <ele>555.89001465</ele>
        <time>2020-10-29T15:42:24Z</time>
      </trkpt>
      <trkpt lat="43.0284" lon="0.85577">
        <ele>556.29998779</ele>
        <time>2020-10-29T15:42:25Z</time>
      </trkpt>
      <trkpt lat="43.02841" lon="0.85581">
        <ele>556.46002197</ele>
        <time>2020-10-29T15:42:27Z</time>
      </trkpt>
      <trkpt lat="43.02843" lon="0.85585">
        <ele>556.20001221</ele>
        <time>2020-10-29T15:42:28Z</time>
      </trkpt>
      <trkpt lat="43.02844" lon="0.85588">
        <ele>556.20001221</ele>
        <time>2020-10-29T15:42:29Z</time>
      </trkpt>
      <trkpt lat="43.02845" lon="0.85591">
        <ele>556.82000732</ele>
        <time>2020-10-29T15:42:30Z</time>
      </trkpt>
      <trkpt lat="43.02847" lon="0.85599">
        <ele>557.03997803</ele>
        <time>2020-10-29T15:42:33Z</time>
      </trkpt>
      <trkpt lat="43.02847" lon="0.85601">
        <ele>557.09002686</ele>
        <time>2020-10-29T15:42:34Z</time>
      </trkpt>
      <trkpt lat="43.02847" lon="0.85602">
        <ele>557.15997314</ele>
        <time>2020-10-29T15:42:36Z</time>
      </trkpt>
      <trkpt lat="43.02849" lon="0.85604">
        <ele>556.90997314</ele>
        <time>2020-10-29T15:42:37Z</time>
      </trkpt>
      <trkpt lat="43.0285" lon="0.85605">
        <ele>557.52001953</ele>
        <time>2020-10-29T15:42:38Z</time>
      </trkpt>
      <trkpt lat="43.02851" lon="0.85608">
        <ele>557.69000244</ele>
        <time>2020-10-29T15:42:39Z</time>
      </trkpt>
      <trkpt lat="43.02851" lon="0.85614">
        <ele>558.25</ele>
        <time>2020-10-29T15:42:41Z</time>
      </trkpt>
      <trkpt lat="43.0285" lon="0.8562">
        <ele>558.65997314</ele>
        <time>2020-10-29T15:42:43Z</time>
      </trkpt>
      <trkpt lat="43.0285" lon="0.85625">
        <ele>558.90002441</ele>
        <time>2020-10-29T15:42:44Z</time>
      </trkpt>
      <trkpt lat="43.02849" lon="0.85628">
        <ele>559</ele>
        <time>2020-10-29T15:42:45Z</time>
      </trkpt>
      <trkpt lat="43.02849" lon="0.85631">
        <ele>558.98999023</ele>
        <time>2020-10-29T15:42:47Z</time>
      </trkpt>
      <trkpt lat="43.02848" lon="0.85634">
        <ele>558.98999023</ele>
        <time>2020-10-29T15:42:48Z</time>
      </trkpt>
      <trkpt lat="43.02846" lon="0.85638">
        <ele>559.38000488</ele>
        <time>2020-10-29T15:42:49Z</time>
      </trkpt>
      <trkpt lat="43.02844" lon="0.85642">
        <ele>560.21002197</ele>
        <time>2020-10-29T15:42:51Z</time>
      </trkpt>
      <trkpt lat="43.02841" lon="0.85647">
        <ele>560.02001953</ele>
        <time>2020-10-29T15:42:52Z</time>
      </trkpt>
      <trkpt lat="43.02839" lon="0.85651">
        <ele>560.42999268</ele>
        <time>2020-10-29T15:42:54Z</time>
      </trkpt>
      <trkpt lat="43.02837" lon="0.85656">
        <ele>561.5</ele>
        <time>2020-10-29T15:42:55Z</time>
      </trkpt>
      <trkpt lat="43.02836" lon="0.85659">
        <ele>562.2800293</ele>
        <time>2020-10-29T15:42:56Z</time>
      </trkpt>
      <trkpt lat="43.02833" lon="0.85662">
        <ele>563.2800293</ele>
        <time>2020-10-29T15:42:58Z</time>
      </trkpt>
      <trkpt lat="43.0283" lon="0.85665">
        <ele>563.47998047</ele>
        <time>2020-10-29T15:42:59Z</time>
      </trkpt>
      <trkpt lat="43.02828" lon="0.85668">
        <ele>563.71002197</ele>
        <time>2020-10-29T15:43:00Z</time>
      </trkpt>
      <trkpt lat="43.02825" lon="0.85672">
        <ele>563.97998047</ele>
        <time>2020-10-29T15:43:01Z</time>
      </trkpt>
      <trkpt lat="43.02822" lon="0.85676">
        <ele>564.7199707</ele>
        <time>2020-10-29T15:43:02Z</time>
      </trkpt>
      <trkpt lat="43.0282" lon="0.85678">
        <ele>564.96002197</ele>
        <time>2020-10-29T15:43:04Z</time>
      </trkpt>
      <trkpt lat="43.02818" lon="0.8568">
        <ele>565.19000244</ele>
        <time>2020-10-29T15:43:05Z</time>
      </trkpt>
      <trkpt lat="43.02816" lon="0.85682">
        <ele>565.9699707</ele>
        <time>2020-10-29T15:43:06Z</time>
      </trkpt>
      <trkpt lat="43.02815" lon="0.85684">
        <ele>567.42999268</ele>
        <time>2020-10-29T15:43:08Z</time>
      </trkpt>
      <trkpt lat="43.02814" lon="0.85688">
        <ele>567.4699707</ele>
        <time>2020-10-29T15:43:09Z</time>
      </trkpt>
      <trkpt lat="43.02812" lon="0.85691">
        <ele>567.9699707</ele>
        <time>2020-10-29T15:43:11Z</time>
      </trkpt>
      <trkpt lat="43.02809" lon="0.85695">
        <ele>568.40997314</ele>
        <time>2020-10-29T15:43:13Z</time>
      </trkpt>
      <trkpt lat="43.02806" lon="0.85699">
        <ele>569.2800293</ele>
        <time>2020-10-29T15:43:14Z</time>
      </trkpt>
      <trkpt lat="43.02804" lon="0.85702">
        <ele>570.73999023</ele>
        <time>2020-10-29T15:43:16Z</time>
      </trkpt>
      <trkpt lat="43.02802" lon="0.85706">
        <ele>571.02001953</ele>
        <time>2020-10-29T15:43:17Z</time>
      </trkpt>
      <trkpt lat="43.02798" lon="0.85712">
        <ele>571.9699707</ele>
        <time>2020-10-29T15:43:19Z</time>
      </trkpt>
      <trkpt lat="43.02796" lon="0.85716">
        <ele>572.39001465</ele>
        <time>2020-10-29T15:43:20Z</time>
      </trkpt>
      <trkpt lat="43.02794" lon="0.8572">
        <ele>573.04998779</ele>
        <time>2020-10-29T15:43:21Z</time>
      </trkpt>
      <trkpt lat="43.02791" lon="0.85725">
        <ele>573.33001709</ele>
        <time>2020-10-29T15:43:22Z</time>
      </trkpt>
      <trkpt lat="43.02789" lon="0.85729">
        <ele>573.96002197</ele>
        <time>2020-10-29T15:43:24Z</time>
      </trkpt>
      <trkpt lat="43.02787" lon="0.85733">
        <ele>573.91998291</ele>
        <time>2020-10-29T15:43:25Z</time>
      </trkpt>
      <trkpt lat="43.02785" lon="0.85735">
        <ele>575.02001953</ele>
        <time>2020-10-29T15:43:26Z</time>
      </trkpt>
      <trkpt lat="43.02783" lon="0.85737">
        <ele>575.38000488</ele>
        <time>2020-10-29T15:43:28Z</time>
      </trkpt>
      <trkpt lat="43.02782" lon="0.85739">
        <ele>575.86999512</ele>
        <time>2020-10-29T15:43:29Z</time>
      </trkpt>
      <trkpt lat="43.02778" lon="0.85742">
        <ele>576.16998291</ele>
        <time>2020-10-29T15:43:31Z</time>
      </trkpt>
      <trkpt lat="43.02775" lon="0.85746">
        <ele>576.45001221</ele>
        <time>2020-10-29T15:43:33Z</time>
      </trkpt>
      <trkpt lat="43.02772" lon="0.85751">
        <ele>577.44000244</ele>
        <time>2020-10-29T15:43:34Z</time>
      </trkpt>
      <trkpt lat="43.0277" lon="0.85754">
        <ele>577.80999756</ele>
        <time>2020-10-29T15:43:35Z</time>
      </trkpt>
      <trkpt lat="43.02768" lon="0.85757">
        <ele>578.98999023</ele>
        <time>2020-10-29T15:43:37Z</time>
      </trkpt>
      <trkpt lat="43.02765" lon="0.85762">
        <ele>579.04998779</ele>
        <time>2020-10-29T15:43:38Z</time>
      </trkpt>
      <trkpt lat="43.02764" lon="0.85766">
        <ele>580.21002197</ele>
        <time>2020-10-29T15:43:40Z</time>
      </trkpt>
      <trkpt lat="43.02762" lon="0.85768">
        <ele>580.21002197</ele>
        <time>2020-10-29T15:43:41Z</time>
      </trkpt>
      <trkpt lat="43.02761" lon="0.85771">
        <ele>580.78997803</ele>
        <time>2020-10-29T15:43:42Z</time>
      </trkpt>
      <trkpt lat="43.02759" lon="0.85775">
        <ele>580.77001953</ele>
        <time>2020-10-29T15:43:43Z</time>
      </trkpt>
      <trkpt lat="43.02757" lon="0.85778">
        <ele>581.38000488</ele>
        <time>2020-10-29T15:43:44Z</time>
      </trkpt>
      <trkpt lat="43.02754" lon="0.85782">
        <ele>582.03997803</ele>
        <time>2020-10-29T15:43:46Z</time>
      </trkpt>
      <trkpt lat="43.02752" lon="0.85785">
        <ele>582.02001953</ele>
        <time>2020-10-29T15:43:47Z</time>
      </trkpt>
      <trkpt lat="43.0275" lon="0.85788">
        <ele>583.04998779</ele>
        <time>2020-10-29T15:43:49Z</time>
      </trkpt>
      <trkpt lat="43.02747" lon="0.8579">
        <ele>583.11999512</ele>
        <time>2020-10-29T15:43:50Z</time>
      </trkpt>
      <trkpt lat="43.02744" lon="0.85793">
        <ele>583.15002441</ele>
        <time>2020-10-29T15:43:51Z</time>
      </trkpt>
      <trkpt lat="43.02741" lon="0.85796">
        <ele>583.88000488</ele>
        <time>2020-10-29T15:43:53Z</time>
      </trkpt>
      <trkpt lat="43.0274" lon="0.85798">
        <ele>583.84997559</ele>
        <time>2020-10-29T15:43:54Z</time>
      </trkpt>
      <trkpt lat="43.02738" lon="0.858">
        <ele>584.22998047</ele>
        <time>2020-10-29T15:43:56Z</time>
      </trkpt>
      <trkpt lat="43.02734" lon="0.85802">
        <ele>584.75</ele>
        <time>2020-10-29T15:43:57Z</time>
      </trkpt>
      <trkpt lat="43.02732" lon="0.85804">
        <ele>585.20001221</ele>
        <time>2020-10-29T15:43:58Z</time>
      </trkpt>
      <trkpt lat="43.02731" lon="0.85806">
        <ele>586.13000488</ele>
        <time>2020-10-29T15:44:00Z</time>
      </trkpt>
      <trkpt lat="43.02728" lon="0.85808">
        <ele>586.52001953</ele>
        <time>2020-10-29T15:44:01Z</time>
      </trkpt>
      <trkpt lat="43.02724" lon="0.8581">
        <ele>587.07000732</ele>
        <time>2020-10-29T15:44:03Z</time>
      </trkpt>
      <trkpt lat="43.02722" lon="0.85812">
        <ele>587.44000244</ele>
        <time>2020-10-29T15:44:05Z</time>
      </trkpt>
      <trkpt lat="43.0272" lon="0.85813">
        <ele>587.44000244</ele>
        <time>2020-10-29T15:44:06Z</time>
      </trkpt>
      <trkpt lat="43.02717" lon="0.85817">
        <ele>588</ele>
        <time>2020-10-29T15:44:07Z</time>
      </trkpt>
      <trkpt lat="43.02715" lon="0.85819">
        <ele>588.03997803</ele>
        <time>2020-10-29T15:44:09Z</time>
      </trkpt>
      <trkpt lat="43.02709" lon="0.85826">
        <ele>588.41998291</ele>
        <time>2020-10-29T15:44:10Z</time>
      </trkpt>
      <trkpt lat="43.02707" lon="0.85829">
        <ele>588.47998047</ele>
        <time>2020-10-29T15:44:12Z</time>
      </trkpt>
      <trkpt lat="43.02703" lon="0.85832">
        <ele>588.94000244</ele>
        <time>2020-10-29T15:44:13Z</time>
      </trkpt>
      <trkpt lat="43.02702" lon="0.85834">
        <ele>589.46002197</ele>
        <time>2020-10-29T15:44:14Z</time>
      </trkpt>
      <trkpt lat="43.02699" lon="0.85836">
        <ele>590.35998535</ele>
        <time>2020-10-29T15:44:16Z</time>
      </trkpt>
      <trkpt lat="43.02696" lon="0.85839">
        <ele>591.19000244</ele>
        <time>2020-10-29T15:44:17Z</time>
      </trkpt>
      <trkpt lat="43.02693" lon="0.85842">
        <ele>591.48999023</ele>
        <time>2020-10-29T15:44:19Z</time>
      </trkpt>
      <trkpt lat="43.02688" lon="0.85847">
        <ele>592.02001953</ele>
        <time>2020-10-29T15:44:21Z</time>
      </trkpt>
      <trkpt lat="43.02683" lon="0.85852">
        <ele>592.89001465</ele>
        <time>2020-10-29T15:44:22Z</time>
      </trkpt>
      <trkpt lat="43.0268" lon="0.85856">
        <ele>593.52001953</ele>
        <time>2020-10-29T15:44:24Z</time>
      </trkpt>
      <trkpt lat="43.02677" lon="0.85859">
        <ele>594.07000732</ele>
        <time>2020-10-29T15:44:25Z</time>
      </trkpt>
      <trkpt lat="43.02674" lon="0.85863">
        <ele>594.40997314</ele>
        <time>2020-10-29T15:44:26Z</time>
      </trkpt>
      <trkpt lat="43.02669" lon="0.85869">
        <ele>599.5</ele>
        <time>2020-10-29T15:44:28Z</time>
      </trkpt>
      <trkpt lat="43.02667" lon="0.85873">
        <ele>599.63000488</ele>
        <time>2020-10-29T15:44:29Z</time>
      </trkpt>
      <trkpt lat="43.02665" lon="0.85877">
        <ele>599.59002686</ele>
        <time>2020-10-29T15:44:30Z</time>
      </trkpt>
      <trkpt lat="43.02663" lon="0.85882">
        <ele>599.13000488</ele>
        <time>2020-10-29T15:44:31Z</time>
      </trkpt>
      <trkpt lat="43.02661" lon="0.85886">
        <ele>598.75</ele>
        <time>2020-10-29T15:44:33Z</time>
      </trkpt>
      <trkpt lat="43.02658" lon="0.85892">
        <ele>598.80999756</ele>
        <time>2020-10-29T15:44:34Z</time>
      </trkpt>
      <trkpt lat="43.02656" lon="0.85895">
        <ele>598.65997314</ele>
        <time>2020-10-29T15:44:35Z</time>
      </trkpt>
      <trkpt lat="43.02654" lon="0.85899">
        <ele>599.41998291</ele>
        <time>2020-10-29T15:44:37Z</time>
      </trkpt>
      <trkpt lat="43.0265" lon="0.85903">
        <ele>599.70001221</ele>
        <time>2020-10-29T15:44:38Z</time>
      </trkpt>
      <trkpt lat="43.02648" lon="0.85906">
        <ele>600.46002197</ele>
        <time>2020-10-29T15:44:40Z</time>
      </trkpt>
      <trkpt lat="43.02646" lon="0.85908">
        <ele>600.84997559</ele>
        <time>2020-10-29T15:44:41Z</time>
      </trkpt>
      <trkpt lat="43.02644" lon="0.85911">
        <ele>601.09002686</ele>
        <time>2020-10-29T15:44:42Z</time>
      </trkpt>
      <trkpt lat="43.02642" lon="0.85914">
        <ele>601.41998291</ele>
        <time>2020-10-29T15:44:43Z</time>
      </trkpt>
      <trkpt lat="43.02639" lon="0.85918">
        <ele>602.11999512</ele>
        <time>2020-10-29T15:44:45Z</time>
      </trkpt>
      <trkpt lat="43.02637" lon="0.8592">
        <ele>602.69000244</ele>
        <time>2020-10-29T15:44:46Z</time>
      </trkpt>
      <trkpt lat="43.02635" lon="0.85924">
        <ele>602.94000244</ele>
        <time>2020-10-29T15:44:47Z</time>
      </trkpt>
      <trkpt lat="43.02633" lon="0.85926">
        <ele>603.46002197</ele>
        <time>2020-10-29T15:44:49Z</time>
      </trkpt>
      <trkpt lat="43.02631" lon="0.85929">
        <ele>603.51000977</ele>
        <time>2020-10-29T15:44:50Z</time>
      </trkpt>
      <trkpt lat="43.02629" lon="0.85931">
        <ele>603.72998047</ele>
        <time>2020-10-29T15:44:51Z</time>
      </trkpt>
      <trkpt lat="43.02628" lon="0.85933">
        <ele>604.54998779</ele>
        <time>2020-10-29T15:44:52Z</time>
      </trkpt>
      <trkpt lat="43.02626" lon="0.85935">
        <ele>605.64001465</ele>
        <time>2020-10-29T15:44:54Z</time>
      </trkpt>
      <trkpt lat="43.02625" lon="0.85937">
        <ele>605.64001465</ele>
        <time>2020-10-29T15:44:55Z</time>
      </trkpt>
      <trkpt lat="43.02622" lon="0.85941">
        <ele>606.58001709</ele>
        <time>2020-10-29T15:44:56Z</time>
      </trkpt>
      <trkpt lat="43.02621" lon="0.85943">
        <ele>607.38000488</ele>
        <time>2020-10-29T15:44:57Z</time>
      </trkpt>
      <trkpt lat="43.02618" lon="0.85947">
        <ele>608.52001953</ele>
        <time>2020-10-29T15:44:59Z</time>
      </trkpt>
      <trkpt lat="43.02616" lon="0.8595">
        <ele>608.69000244</ele>
        <time>2020-10-29T15:45:00Z</time>
      </trkpt>
      <trkpt lat="43.02614" lon="0.85952">
        <ele>609.14001465</ele>
        <time>2020-10-29T15:45:02Z</time>
      </trkpt>
      <trkpt lat="43.02613" lon="0.85954">
        <ele>609.14001465</ele>
        <time>2020-10-29T15:45:03Z</time>
      </trkpt>
      <trkpt lat="43.0261" lon="0.85955">
        <ele>610.04998779</ele>
        <time>2020-10-29T15:45:04Z</time>
      </trkpt>
      <trkpt lat="43.02608" lon="0.85956">
        <ele>610.35998535</ele>
        <time>2020-10-29T15:45:05Z</time>
      </trkpt>
      <trkpt lat="43.02606" lon="0.85957">
        <ele>610.9699707</ele>
        <time>2020-10-29T15:45:06Z</time>
      </trkpt>
      <trkpt lat="43.02603" lon="0.85959">
        <ele>612.10998535</ele>
        <time>2020-10-29T15:45:08Z</time>
      </trkpt>
      <trkpt lat="43.02602" lon="0.8596">
        <ele>612.70001221</ele>
        <time>2020-10-29T15:45:09Z</time>
      </trkpt>
      <trkpt lat="43.02601" lon="0.85961">
        <ele>613.59997559</ele>
        <time>2020-10-29T15:45:11Z</time>
      </trkpt>
      <trkpt lat="43.02599" lon="0.85963">
        <ele>614.52001953</ele>
        <time>2020-10-29T15:45:12Z</time>
      </trkpt>
      <trkpt lat="43.02596" lon="0.85965">
        <ele>614.7800293</ele>
        <time>2020-10-29T15:45:14Z</time>
      </trkpt>
      <trkpt lat="43.02593" lon="0.85967">
        <ele>614.94000244</ele>
        <time>2020-10-29T15:45:16Z</time>
      </trkpt>
      <trkpt lat="43.02592" lon="0.85968">
        <ele>615.23999023</ele>
        <time>2020-10-29T15:45:17Z</time>
      </trkpt>
      <trkpt lat="43.0259" lon="0.85969">
        <ele>615.90002441</ele>
        <time>2020-10-29T15:45:18Z</time>
      </trkpt>
      <trkpt lat="43.02588" lon="0.8597">
        <ele>616.78997803</ele>
        <time>2020-10-29T15:45:19Z</time>
      </trkpt>
      <trkpt lat="43.02585" lon="0.85972">
        <ele>617.53997803</ele>
        <time>2020-10-29T15:45:21Z</time>
      </trkpt>
      <trkpt lat="43.02583" lon="0.85974">
        <ele>619.25</ele>
        <time>2020-10-29T15:45:22Z</time>
      </trkpt>
      <trkpt lat="43.02581" lon="0.85975">
        <ele>619.83001709</ele>
        <time>2020-10-29T15:45:24Z</time>
      </trkpt>
      <trkpt lat="43.02579" lon="0.85977">
        <ele>619.7800293</ele>
        <time>2020-10-29T15:45:25Z</time>
      </trkpt>
      <trkpt lat="43.02576" lon="0.85978">
        <ele>619.9699707</ele>
        <time>2020-10-29T15:45:26Z</time>
      </trkpt>
      <trkpt lat="43.02574" lon="0.85979">
        <ele>620.60998535</ele>
        <time>2020-10-29T15:45:28Z</time>
      </trkpt>
      <trkpt lat="43.02571" lon="0.85982">
        <ele>621.9699707</ele>
        <time>2020-10-29T15:45:30Z</time>
      </trkpt>
      <trkpt lat="43.02568" lon="0.85983">
        <ele>622.47998047</ele>
        <time>2020-10-29T15:45:31Z</time>
      </trkpt>
      <trkpt lat="43.02565" lon="0.85985">
        <ele>623</ele>
        <time>2020-10-29T15:45:32Z</time>
      </trkpt>
      <trkpt lat="43.02563" lon="0.85987">
        <ele>624.14001465</ele>
        <time>2020-10-29T15:45:34Z</time>
      </trkpt>
      <trkpt lat="43.02561" lon="0.8599">
        <ele>624.26000977</ele>
        <time>2020-10-29T15:45:35Z</time>
      </trkpt>
      <trkpt lat="43.02559" lon="0.85993">
        <ele>625.08001709</ele>
        <time>2020-10-29T15:45:37Z</time>
      </trkpt>
      <trkpt lat="43.02556" lon="0.85997">
        <ele>625.41998291</ele>
        <time>2020-10-29T15:45:38Z</time>
      </trkpt>
      <trkpt lat="43.02553" lon="0.86001">
        <ele>625.7199707</ele>
        <time>2020-10-29T15:45:40Z</time>
      </trkpt>
      <trkpt lat="43.02551" lon="0.86004">
        <ele>625.94000244</ele>
        <time>2020-10-29T15:45:41Z</time>
      </trkpt>
      <trkpt lat="43.02549" lon="0.86007">
        <ele>626.42999268</ele>
        <time>2020-10-29T15:45:42Z</time>
      </trkpt>
      <trkpt lat="43.02547" lon="0.86009">
        <ele>626.9699707</ele>
        <time>2020-10-29T15:45:43Z</time>
      </trkpt>
      <trkpt lat="43.02545" lon="0.86014">
        <ele>627.86999512</ele>
        <time>2020-10-29T15:45:45Z</time>
      </trkpt>
      <trkpt lat="43.02543" lon="0.86017">
        <ele>628.79998779</ele>
        <time>2020-10-29T15:45:47Z</time>
      </trkpt>
      <trkpt lat="43.02542" lon="0.86021">
        <ele>630.60998535</ele>
        <time>2020-10-29T15:45:49Z</time>
      </trkpt>
      <trkpt lat="43.02542" lon="0.86025">
        <ele>631.08001709</ele>
        <time>2020-10-29T15:45:51Z</time>
      </trkpt>
      <trkpt lat="43.02543" lon="0.86028">
        <ele>631.15997314</ele>
        <time>2020-10-29T15:45:52Z</time>
      </trkpt>
      <trkpt lat="43.02545" lon="0.86029">
        <ele>631.53997803</ele>
        <time>2020-10-29T15:45:54Z</time>
      </trkpt>
      <trkpt lat="43.02546" lon="0.86029">
        <ele>631.70001221</ele>
        <time>2020-10-29T15:45:55Z</time>
      </trkpt>
      <trkpt lat="43.02548" lon="0.8603">
        <ele>631.94000244</ele>
        <time>2020-10-29T15:45:56Z</time>
      </trkpt>
      <trkpt lat="43.0255" lon="0.8603">
        <ele>632.22998047</ele>
        <time>2020-10-29T15:45:57Z</time>
      </trkpt>
      <trkpt lat="43.02552" lon="0.86031">
        <ele>632.80999756</ele>
        <time>2020-10-29T15:45:59Z</time>
      </trkpt>
      <trkpt lat="43.02554" lon="0.86031">
        <ele>632.90002441</ele>
        <time>2020-10-29T15:46:00Z</time>
      </trkpt>
      <trkpt lat="43.02556" lon="0.86031">
        <ele>633.08001709</ele>
        <time>2020-10-29T15:46:02Z</time>
      </trkpt>
      <trkpt lat="43.02558" lon="0.86033">
        <ele>633.63000488</ele>
        <time>2020-10-29T15:46:03Z</time>
      </trkpt>
      <trkpt lat="43.0256" lon="0.86034">
        <ele>634.09002686</ele>
        <time>2020-10-29T15:46:04Z</time>
      </trkpt>
      <trkpt lat="43.02562" lon="0.86035">
        <ele>634.4699707</ele>
        <time>2020-10-29T15:46:06Z</time>
      </trkpt>
      <trkpt lat="43.02563" lon="0.86037">
        <ele>634.4699707</ele>
        <time>2020-10-29T15:46:07Z</time>
      </trkpt>
      <trkpt lat="43.02566" lon="0.8604">
        <ele>635.41998291</ele>
        <time>2020-10-29T15:46:08Z</time>
      </trkpt>
      <trkpt lat="43.0257" lon="0.86044">
        <ele>636.40997314</ele>
        <time>2020-10-29T15:46:10Z</time>
      </trkpt>
      <trkpt lat="43.02572" lon="0.86046">
        <ele>637.34002686</ele>
        <time>2020-10-29T15:46:12Z</time>
      </trkpt>
      <trkpt lat="43.02574" lon="0.86049">
        <ele>637.40997314</ele>
        <time>2020-10-29T15:46:13Z</time>
      </trkpt>
      <trkpt lat="43.02576" lon="0.86051">
        <ele>637.69000244</ele>
        <time>2020-10-29T15:46:15Z</time>
      </trkpt>
      <trkpt lat="43.02578" lon="0.86053">
        <ele>637.69000244</ele>
        <time>2020-10-29T15:46:16Z</time>
      </trkpt>
      <trkpt lat="43.02581" lon="0.86057">
        <ele>638.29998779</ele>
        <time>2020-10-29T15:46:17Z</time>
      </trkpt>
      <trkpt lat="43.02583" lon="0.86059">
        <ele>638.41998291</ele>
        <time>2020-10-29T15:46:18Z</time>
      </trkpt>
      <trkpt lat="43.02585" lon="0.86061">
        <ele>638.98999023</ele>
        <time>2020-10-29T15:46:20Z</time>
      </trkpt>
      <trkpt lat="43.02587" lon="0.86064">
        <ele>639.65002441</ele>
        <time>2020-10-29T15:46:21Z</time>
      </trkpt>
      <trkpt lat="43.02589" lon="0.86067">
        <ele>640.27001953</ele>
        <time>2020-10-29T15:46:22Z</time>
      </trkpt>
      <trkpt lat="43.02591" lon="0.8607">
        <ele>640.36999512</ele>
        <time>2020-10-29T15:46:23Z</time>
      </trkpt>
      <trkpt lat="43.02594" lon="0.86073">
        <ele>640.28997803</ele>
        <time>2020-10-29T15:46:24Z</time>
      </trkpt>
      <trkpt lat="43.02596" lon="0.86076">
        <ele>640.54998779</ele>
        <time>2020-10-29T15:46:25Z</time>
      </trkpt>
      <trkpt lat="43.02598" lon="0.86079">
        <ele>641.58001709</ele>
        <time>2020-10-29T15:46:27Z</time>
      </trkpt>
      <trkpt lat="43.02601" lon="0.86082">
        <ele>641.7199707</ele>
        <time>2020-10-29T15:46:28Z</time>
      </trkpt>
      <trkpt lat="43.02603" lon="0.86085">
        <ele>641.94000244</ele>
        <time>2020-10-29T15:46:30Z</time>
      </trkpt>
      <trkpt lat="43.02606" lon="0.8609">
        <ele>642.25</ele>
        <time>2020-10-29T15:46:32Z</time>
      </trkpt>
      <trkpt lat="43.02609" lon="0.86093">
        <ele>642.84002686</ele>
        <time>2020-10-29T15:46:33Z</time>
      </trkpt>
      <trkpt lat="43.0261" lon="0.86096">
        <ele>642.80999756</ele>
        <time>2020-10-29T15:46:34Z</time>
      </trkpt>
      <trkpt lat="43.02612" lon="0.86099">
        <ele>643.23999023</ele>
        <time>2020-10-29T15:46:35Z</time>
      </trkpt>
      <trkpt lat="43.02614" lon="0.86102">
        <ele>643.58001709</ele>
        <time>2020-10-29T15:46:37Z</time>
      </trkpt>
      <trkpt lat="43.02617" lon="0.86106">
        <ele>644.32000732</ele>
        <time>2020-10-29T15:46:38Z</time>
      </trkpt>
      <trkpt lat="43.02621" lon="0.86107">
        <ele>646.04998779</ele>
        <time>2020-10-29T15:46:40Z</time>
      </trkpt>
      <trkpt lat="43.02625" lon="0.86108">
        <ele>646.47998047</ele>
        <time>2020-10-29T15:46:41Z</time>
      </trkpt>
      <trkpt lat="43.02628" lon="0.86109">
        <ele>646.65997314</ele>
        <time>2020-10-29T15:46:42Z</time>
      </trkpt>
      <trkpt lat="43.02631" lon="0.8611">
        <ele>646.77001953</ele>
        <time>2020-10-29T15:46:44Z</time>
      </trkpt>
      <trkpt lat="43.02633" lon="0.8611">
        <ele>646.57000732</ele>
        <time>2020-10-29T15:46:45Z</time>
      </trkpt>
      <trkpt lat="43.02637" lon="0.8611">
        <ele>646.52001953</ele>
        <time>2020-10-29T15:46:46Z</time>
      </trkpt>
      <trkpt lat="43.0264" lon="0.8611">
        <ele>646.64001465</ele>
        <time>2020-10-29T15:46:47Z</time>
      </trkpt>
      <trkpt lat="43.02643" lon="0.86111">
        <ele>647.07000732</ele>
        <time>2020-10-29T15:46:49Z</time>
      </trkpt>
      <trkpt lat="43.02647" lon="0.8611">
        <ele>647.72998047</ele>
        <time>2020-10-29T15:46:50Z</time>
      </trkpt>
      <trkpt lat="43.0265" lon="0.86109">
        <ele>648.79998779</ele>
        <time>2020-10-29T15:46:52Z</time>
      </trkpt>
      <trkpt lat="43.02652" lon="0.86108">
        <ele>649.07000732</ele>
        <time>2020-10-29T15:46:53Z</time>
      </trkpt>
      <trkpt lat="43.02656" lon="0.86106">
        <ele>649.57000732</ele>
        <time>2020-10-29T15:46:55Z</time>
      </trkpt>
      <trkpt lat="43.0266" lon="0.861">
        <ele>649.65997314</ele>
        <time>2020-10-29T15:46:56Z</time>
      </trkpt>
      <trkpt lat="43.02662" lon="0.86098">
        <ele>650.39001465</ele>
        <time>2020-10-29T15:46:58Z</time>
      </trkpt>
      <trkpt lat="43.02665" lon="0.86094">
        <ele>650.84002686</ele>
        <time>2020-10-29T15:46:59Z</time>
      </trkpt>
      <trkpt lat="43.02669" lon="0.86092">
        <ele>651.30999756</ele>
        <time>2020-10-29T15:47:00Z</time>
      </trkpt>
      <trkpt lat="43.02673" lon="0.86088">
        <ele>651.5300293</ele>
        <time>2020-10-29T15:47:02Z</time>
      </trkpt>
      <trkpt lat="43.02677" lon="0.86086">
        <ele>651.83001709</ele>
        <time>2020-10-29T15:47:04Z</time>
      </trkpt>
      <trkpt lat="43.02682" lon="0.86083">
        <ele>653.29998779</ele>
        <time>2020-10-29T15:47:06Z</time>
      </trkpt>
      <trkpt lat="43.02686" lon="0.8608">
        <ele>653.84997559</ele>
        <time>2020-10-29T15:47:07Z</time>
      </trkpt>
      <trkpt lat="43.02689" lon="0.86079">
        <ele>654.70001221</ele>
        <time>2020-10-29T15:47:09Z</time>
      </trkpt>
      <trkpt lat="43.02693" lon="0.86078">
        <ele>654.84002686</ele>
        <time>2020-10-29T15:47:10Z</time>
      </trkpt>
      <trkpt lat="43.02696" lon="0.86077">
        <ele>655.20001221</ele>
        <time>2020-10-29T15:47:12Z</time>
      </trkpt>
      <trkpt lat="43.027" lon="0.86076">
        <ele>656.61999512</ele>
        <time>2020-10-29T15:47:13Z</time>
      </trkpt>
      <trkpt lat="43.02704" lon="0.86075">
        <ele>656.84002686</ele>
        <time>2020-10-29T15:47:14Z</time>
      </trkpt>
      <trkpt lat="43.02707" lon="0.86074">
        <ele>657.26000977</ele>
        <time>2020-10-29T15:47:15Z</time>
      </trkpt>
      <trkpt lat="43.0271" lon="0.86073">
        <ele>657.73999023</ele>
        <time>2020-10-29T15:47:17Z</time>
      </trkpt>
      <trkpt lat="43.02713" lon="0.86072">
        <ele>658.21002197</ele>
        <time>2020-10-29T15:47:18Z</time>
      </trkpt>
      <trkpt lat="43.02717" lon="0.8607">
        <ele>659.35998535</ele>
        <time>2020-10-29T15:47:19Z</time>
      </trkpt>
      <trkpt lat="43.0272" lon="0.86068">
        <ele>659.46002197</ele>
        <time>2020-10-29T15:47:21Z</time>
      </trkpt>
      <trkpt lat="43.02723" lon="0.86067">
        <ele>659.60998535</ele>
        <time>2020-10-29T15:47:22Z</time>
      </trkpt>
      <trkpt lat="43.02727" lon="0.86065">
        <ele>660.71002197</ele>
        <time>2020-10-29T15:47:23Z</time>
      </trkpt>
      <trkpt lat="43.0273" lon="0.86064">
        <ele>661.07000732</ele>
        <time>2020-10-29T15:47:25Z</time>
      </trkpt>
      <trkpt lat="43.02733" lon="0.86063">
        <ele>661.28997803</ele>
        <time>2020-10-29T15:47:26Z</time>
      </trkpt>
      <trkpt lat="43.02736" lon="0.86061">
        <ele>661.65002441</ele>
        <time>2020-10-29T15:47:27Z</time>
      </trkpt>
      <trkpt lat="43.0274" lon="0.86061">
        <ele>662.34002686</ele>
        <time>2020-10-29T15:47:28Z</time>
      </trkpt>
      <trkpt lat="43.02742" lon="0.8606">
        <ele>662.77001953</ele>
        <time>2020-10-29T15:47:29Z</time>
      </trkpt>
      <trkpt lat="43.02744" lon="0.86059">
        <ele>663.96002197</ele>
        <time>2020-10-29T15:47:31Z</time>
      </trkpt>
      <trkpt lat="43.02749" lon="0.86058">
        <ele>664.66998291</ele>
        <time>2020-10-29T15:47:33Z</time>
      </trkpt>
      <trkpt lat="43.02751" lon="0.86058">
        <ele>664.96002197</ele>
        <time>2020-10-29T15:47:34Z</time>
      </trkpt>
      <trkpt lat="43.02755" lon="0.86057">
        <ele>665.46002197</ele>
        <time>2020-10-29T15:47:35Z</time>
      </trkpt>
      <trkpt lat="43.02759" lon="0.86057">
        <ele>666.14001465</ele>
        <time>2020-10-29T15:47:37Z</time>
      </trkpt>
      <trkpt lat="43.02761" lon="0.86058">
        <ele>666.64001465</ele>
        <time>2020-10-29T15:47:39Z</time>
      </trkpt>
      <trkpt lat="43.02772" lon="0.86063">
        <ele>670.90002441</ele>
        <time>2020-10-29T15:48:13Z</time>
      </trkpt>
      <trkpt lat="43.02772" lon="0.86065">
        <ele>670.96002197</ele>
        <time>2020-10-29T15:48:14Z</time>
      </trkpt>
      <trkpt lat="43.02772" lon="0.86067">
        <ele>671.09997559</ele>
        <time>2020-10-29T15:48:15Z</time>
      </trkpt>
      <trkpt lat="43.02772" lon="0.8607">
        <ele>671.09002686</ele>
        <time>2020-10-29T15:48:16Z</time>
      </trkpt>
      <trkpt lat="43.02772" lon="0.86075">
        <ele>670.89001465</ele>
        <time>2020-10-29T15:48:17Z</time>
      </trkpt>
      <trkpt lat="43.02772" lon="0.86078">
        <ele>671.51000977</ele>
        <time>2020-10-29T15:48:19Z</time>
      </trkpt>
      <trkpt lat="43.02773" lon="0.86083">
        <ele>671.52001953</ele>
        <time>2020-10-29T15:48:20Z</time>
      </trkpt>
      <trkpt lat="43.02773" lon="0.86087">
        <ele>671.58001709</ele>
        <time>2020-10-29T15:48:21Z</time>
      </trkpt>
      <trkpt lat="43.02773" lon="0.8609">
        <ele>671.05999756</ele>
        <time>2020-10-29T15:48:23Z</time>
      </trkpt>
      <trkpt lat="43.02773" lon="0.86094">
        <ele>673.21002197</ele>
        <time>2020-10-29T15:48:24Z</time>
      </trkpt>
      <trkpt lat="43.02773" lon="0.86098">
        <ele>673.47998047</ele>
        <time>2020-10-29T15:48:25Z</time>
      </trkpt>
      <trkpt lat="43.02772" lon="0.86103">
        <ele>673.7800293</ele>
        <time>2020-10-29T15:48:26Z</time>
      </trkpt>
      <trkpt lat="43.02772" lon="0.86109">
        <ele>674.05999756</ele>
        <time>2020-10-29T15:48:28Z</time>
      </trkpt>
      <trkpt lat="43.02771" lon="0.86114">
        <ele>674.34997559</ele>
        <time>2020-10-29T15:48:29Z</time>
      </trkpt>
      <trkpt lat="43.0277" lon="0.8612">
        <ele>674.71002197</ele>
        <time>2020-10-29T15:48:31Z</time>
      </trkpt>
      <trkpt lat="43.02769" lon="0.86127">
        <ele>675.14001465</ele>
        <time>2020-10-29T15:48:33Z</time>
      </trkpt>
      <trkpt lat="43.02769" lon="0.86131">
        <ele>675.96002197</ele>
        <time>2020-10-29T15:48:34Z</time>
      </trkpt>
      <trkpt lat="43.02769" lon="0.86135">
        <ele>675.53997803</ele>
        <time>2020-10-29T15:48:35Z</time>
      </trkpt>
      <trkpt lat="43.0277" lon="0.86139">
        <ele>675.91998291</ele>
        <time>2020-10-29T15:48:36Z</time>
      </trkpt>
      <trkpt lat="43.0277" lon="0.86143">
        <ele>677.34997559</ele>
        <time>2020-10-29T15:48:38Z</time>
      </trkpt>
      <trkpt lat="43.02771" lon="0.86147">
        <ele>677.90002441</ele>
        <time>2020-10-29T15:48:39Z</time>
      </trkpt>
      <trkpt lat="43.02771" lon="0.8615">
        <ele>678.40997314</ele>
        <time>2020-10-29T15:48:40Z</time>
      </trkpt>
      <trkpt lat="43.02771" lon="0.86155">
        <ele>678.71002197</ele>
        <time>2020-10-29T15:48:42Z</time>
      </trkpt>
      <trkpt lat="43.02771" lon="0.86161">
        <ele>679.20001221</ele>
        <time>2020-10-29T15:48:43Z</time>
      </trkpt>
      <trkpt lat="43.02772" lon="0.86165">
        <ele>679.53997803</ele>
        <time>2020-10-29T15:48:44Z</time>
      </trkpt>
      <trkpt lat="43.02773" lon="0.8617">
        <ele>680.90997314</ele>
        <time>2020-10-29T15:48:46Z</time>
      </trkpt>
      <trkpt lat="43.02774" lon="0.86175">
        <ele>681.44000244</ele>
        <time>2020-10-29T15:48:47Z</time>
      </trkpt>
      <trkpt lat="43.02775" lon="0.86179">
        <ele>681.70001221</ele>
        <time>2020-10-29T15:48:49Z</time>
      </trkpt>
      <trkpt lat="43.02777" lon="0.86185">
        <ele>682.59997559</ele>
        <time>2020-10-29T15:48:50Z</time>
      </trkpt>
      <trkpt lat="43.02779" lon="0.86189">
        <ele>683.28997803</ele>
        <time>2020-10-29T15:48:51Z</time>
      </trkpt>
      <trkpt lat="43.0278" lon="0.86192">
        <ele>684.84002686</ele>
        <time>2020-10-29T15:48:53Z</time>
      </trkpt>
      <trkpt lat="43.02782" lon="0.86198">
        <ele>685.08001709</ele>
        <time>2020-10-29T15:48:54Z</time>
      </trkpt>
      <trkpt lat="43.02783" lon="0.86201">
        <ele>685.40002441</ele>
        <time>2020-10-29T15:48:55Z</time>
      </trkpt>
      <trkpt lat="43.02785" lon="0.86206">
        <ele>685.47998047</ele>
        <time>2020-10-29T15:48:57Z</time>
      </trkpt>
      <trkpt lat="43.02786" lon="0.86209">
        <ele>685.47998047</ele>
        <time>2020-10-29T15:48:58Z</time>
      </trkpt>
      <trkpt lat="43.02788" lon="0.86215">
        <ele>686.65002441</ele>
        <time>2020-10-29T15:48:59Z</time>
      </trkpt>
      <trkpt lat="43.02789" lon="0.8622">
        <ele>687.19000244</ele>
        <time>2020-10-29T15:49:01Z</time>
      </trkpt>
      <trkpt lat="43.0279" lon="0.86223">
        <ele>687.80999756</ele>
        <time>2020-10-29T15:49:02Z</time>
      </trkpt>
      <trkpt lat="43.02791" lon="0.86229">
        <ele>688.41998291</ele>
        <time>2020-10-29T15:49:03Z</time>
      </trkpt>
      <trkpt lat="43.02792" lon="0.86233">
        <ele>689.08001709</ele>
        <time>2020-10-29T15:49:05Z</time>
      </trkpt>
      <trkpt lat="43.02792" lon="0.86237">
        <ele>689.08001709</ele>
        <time>2020-10-29T15:49:06Z</time>
      </trkpt>
      <trkpt lat="43.02792" lon="0.86244">
        <ele>689.73999023</ele>
        <time>2020-10-29T15:49:07Z</time>
      </trkpt>
      <trkpt lat="43.02792" lon="0.86247">
        <ele>690.60998535</ele>
        <time>2020-10-29T15:49:09Z</time>
      </trkpt>
      <trkpt lat="43.02792" lon="0.8625">
        <ele>690.60998535</ele>
        <time>2020-10-29T15:49:10Z</time>
      </trkpt>
      <trkpt lat="43.02791" lon="0.86255">
        <ele>691.47998047</ele>
        <time>2020-10-29T15:49:11Z</time>
      </trkpt>
      <trkpt lat="43.02791" lon="0.86259">
        <ele>691.88000488</ele>
        <time>2020-10-29T15:49:12Z</time>
      </trkpt>
      <trkpt lat="43.02791" lon="0.86262">
        <ele>692.46002197</ele>
        <time>2020-10-29T15:49:13Z</time>
      </trkpt>
      <trkpt lat="43.02791" lon="0.86266">
        <ele>692.79998779</ele>
        <time>2020-10-29T15:49:15Z</time>
      </trkpt>
      <trkpt lat="43.02791" lon="0.8627">
        <ele>693.16998291</ele>
        <time>2020-10-29T15:49:16Z</time>
      </trkpt>
      <trkpt lat="43.02791" lon="0.86273">
        <ele>693.59002686</ele>
        <time>2020-10-29T15:49:17Z</time>
      </trkpt>
      <trkpt lat="43.0279" lon="0.86277">
        <ele>694.72998047</ele>
        <time>2020-10-29T15:49:18Z</time>
      </trkpt>
      <trkpt lat="43.0279" lon="0.86281">
        <ele>694.94000244</ele>
        <time>2020-10-29T15:49:19Z</time>
      </trkpt>
      <trkpt lat="43.0279" lon="0.86285">
        <ele>694.90997314</ele>
        <time>2020-10-29T15:49:21Z</time>
      </trkpt>
      <trkpt lat="43.0279" lon="0.86289">
        <ele>696.14001465</ele>
        <time>2020-10-29T15:49:22Z</time>
      </trkpt>
      <trkpt lat="43.0279" lon="0.86294">
        <ele>696.71002197</ele>
        <time>2020-10-29T15:49:23Z</time>
      </trkpt>
      <trkpt lat="43.0279" lon="0.863">
        <ele>698.0300293</ele>
        <time>2020-10-29T15:49:25Z</time>
      </trkpt>
      <trkpt lat="43.02789" lon="0.86305">
        <ele>698.5</ele>
        <time>2020-10-29T15:49:27Z</time>
      </trkpt>
      <trkpt lat="43.02789" lon="0.86311">
        <ele>699.40002441</ele>
        <time>2020-10-29T15:49:28Z</time>
      </trkpt>
      <trkpt lat="43.02789" lon="0.86316">
        <ele>699.84002686</ele>
        <time>2020-10-29T15:49:30Z</time>
      </trkpt>
      <trkpt lat="43.02789" lon="0.86322">
        <ele>699.84002686</ele>
        <time>2020-10-29T15:49:31Z</time>
      </trkpt>
      <trkpt lat="43.02789" lon="0.86326">
        <ele>700.78997803</ele>
        <time>2020-10-29T15:49:33Z</time>
      </trkpt>
      <trkpt lat="43.0279" lon="0.8633">
        <ele>700.84997559</ele>
        <time>2020-10-29T15:49:34Z</time>
      </trkpt>
      <trkpt lat="43.0279" lon="0.86333">
        <ele>700.84997559</ele>
        <time>2020-10-29T15:49:35Z</time>
      </trkpt>
      <trkpt lat="43.02792" lon="0.86338">
        <ele>701.03997803</ele>
        <time>2020-10-29T15:49:36Z</time>
      </trkpt>
      <trkpt lat="43.02794" lon="0.86342">
        <ele>701.9699707</ele>
        <time>2020-10-29T15:49:38Z</time>
      </trkpt>
      <trkpt lat="43.02796" lon="0.86348">
        <ele>702.47998047</ele>
        <time>2020-10-29T15:49:39Z</time>
      </trkpt>
      <trkpt lat="43.02796" lon="0.86355">
        <ele>702.34002686</ele>
        <time>2020-10-29T15:49:40Z</time>
      </trkpt>
      <trkpt lat="43.02797" lon="0.86363">
        <ele>702.67999268</ele>
        <time>2020-10-29T15:49:42Z</time>
      </trkpt>
      <trkpt lat="43.02796" lon="0.86368">
        <ele>702.90002441</ele>
        <time>2020-10-29T15:49:43Z</time>
      </trkpt>
      <trkpt lat="43.02796" lon="0.86374">
        <ele>703.14001465</ele>
        <time>2020-10-29T15:49:45Z</time>
      </trkpt>
      <trkpt lat="43.02796" lon="0.86381">
        <ele>703.34997559</ele>
        <time>2020-10-29T15:49:46Z</time>
      </trkpt>
      <trkpt lat="43.02795" lon="0.86386">
        <ele>703.35998535</ele>
        <time>2020-10-29T15:49:47Z</time>
      </trkpt>
      <trkpt lat="43.02794" lon="0.86392">
        <ele>702.54998779</ele>
        <time>2020-10-29T15:49:49Z</time>
      </trkpt>
      <trkpt lat="43.02794" lon="0.86398">
        <ele>702.28997803</ele>
        <time>2020-10-29T15:49:50Z</time>
      </trkpt>
      <trkpt lat="43.02792" lon="0.86407">
        <ele>701.55999756</ele>
        <time>2020-10-29T15:49:51Z</time>
      </trkpt>
      <trkpt lat="43.0279" lon="0.86415">
        <ele>703.39001465</ele>
        <time>2020-10-29T15:49:53Z</time>
      </trkpt>
      <trkpt lat="43.02789" lon="0.86421">
        <ele>702.82000732</ele>
        <time>2020-10-29T15:49:55Z</time>
      </trkpt>
      <trkpt lat="43.02788" lon="0.86426">
        <ele>702.48999023</ele>
        <time>2020-10-29T15:49:56Z</time>
      </trkpt>
      <trkpt lat="43.02786" lon="0.86434">
        <ele>702.5</ele>
        <time>2020-10-29T15:49:57Z</time>
      </trkpt>
      <trkpt lat="43.02784" lon="0.86439">
        <ele>703.47998047</ele>
        <time>2020-10-29T15:49:58Z</time>
      </trkpt>
      <trkpt lat="43.02782" lon="0.86445">
        <ele>703.88000488</ele>
        <time>2020-10-29T15:50:00Z</time>
      </trkpt>
      <trkpt lat="43.02779" lon="0.86451">
        <ele>704.34002686</ele>
        <time>2020-10-29T15:50:01Z</time>
      </trkpt>
      <trkpt lat="43.02776" lon="0.86457">
        <ele>704.69000244</ele>
        <time>2020-10-29T15:50:03Z</time>
      </trkpt>
      <trkpt lat="43.02773" lon="0.86465">
        <ele>705.2800293</ele>
        <time>2020-10-29T15:50:04Z</time>
      </trkpt>
      <trkpt lat="43.02772" lon="0.86469">
        <ele>705.32000732</ele>
        <time>2020-10-29T15:50:06Z</time>
      </trkpt>
      <trkpt lat="43.0277" lon="0.86474">
        <ele>705.9699707</ele>
        <time>2020-10-29T15:50:07Z</time>
      </trkpt>
      <trkpt lat="43.02768" lon="0.86479">
        <ele>706.7199707</ele>
        <time>2020-10-29T15:50:08Z</time>
      </trkpt>
      <trkpt lat="43.02766" lon="0.86484">
        <ele>706.80999756</ele>
        <time>2020-10-29T15:50:09Z</time>
      </trkpt>
      <trkpt lat="43.02765" lon="0.86489">
        <ele>707.11999512</ele>
        <time>2020-10-29T15:50:11Z</time>
      </trkpt>
      <trkpt lat="43.02764" lon="0.86501">
        <ele>707.21002197</ele>
        <time>2020-10-29T15:50:13Z</time>
      </trkpt>
      <trkpt lat="43.02765" lon="0.86511">
        <ele>707.59997559</ele>
        <time>2020-10-29T15:50:14Z</time>
      </trkpt>
      <trkpt lat="43.02765" lon="0.86515">
        <ele>707.54998779</ele>
        <time>2020-10-29T15:50:15Z</time>
      </trkpt>
      <trkpt lat="43.02764" lon="0.8652">
        <ele>707.32000732</ele>
        <time>2020-10-29T15:50:16Z</time>
      </trkpt>
      <trkpt lat="43.02764" lon="0.86524">
        <ele>707.13000488</ele>
        <time>2020-10-29T15:50:18Z</time>
      </trkpt>
      <trkpt lat="43.02764" lon="0.86531">
        <ele>708.55999756</ele>
        <time>2020-10-29T15:50:19Z</time>
      </trkpt>
      <trkpt lat="43.02765" lon="0.86536">
        <ele>709.05999756</ele>
        <time>2020-10-29T15:50:21Z</time>
      </trkpt>
      <trkpt lat="43.02766" lon="0.86542">
        <ele>709.15997314</ele>
        <time>2020-10-29T15:50:22Z</time>
      </trkpt>
      <trkpt lat="43.02766" lon="0.86546">
        <ele>709.39001465</ele>
        <time>2020-10-29T15:50:23Z</time>
      </trkpt>
      <trkpt lat="43.02767" lon="0.86551">
        <ele>710.17999268</ele>
        <time>2020-10-29T15:50:25Z</time>
      </trkpt>
      <trkpt lat="43.02768" lon="0.86555">
        <ele>711.30999756</ele>
        <time>2020-10-29T15:50:26Z</time>
      </trkpt>
      <trkpt lat="43.02769" lon="0.8656">
        <ele>712.44000244</ele>
        <time>2020-10-29T15:50:27Z</time>
      </trkpt>
      <trkpt lat="43.02769" lon="0.86566">
        <ele>712.92999268</ele>
        <time>2020-10-29T15:50:28Z</time>
      </trkpt>
      <trkpt lat="43.0277" lon="0.86571">
        <ele>713.28997803</ele>
        <time>2020-10-29T15:50:29Z</time>
      </trkpt>
      <trkpt lat="43.0277" lon="0.86574">
        <ele>714.34002686</ele>
        <time>2020-10-29T15:50:31Z</time>
      </trkpt>
      <trkpt lat="43.02771" lon="0.86578">
        <ele>714.34002686</ele>
        <time>2020-10-29T15:50:32Z</time>
      </trkpt>
      <trkpt lat="43.02772" lon="0.86582">
        <ele>714.95001221</ele>
        <time>2020-10-29T15:50:33Z</time>
      </trkpt>
      <trkpt lat="43.02772" lon="0.86587">
        <ele>715.07000732</ele>
        <time>2020-10-29T15:50:34Z</time>
      </trkpt>
      <trkpt lat="43.02773" lon="0.86591">
        <ele>715.10998535</ele>
        <time>2020-10-29T15:50:36Z</time>
      </trkpt>
      <trkpt lat="43.02774" lon="0.86594">
        <ele>715.10998535</ele>
        <time>2020-10-29T15:50:37Z</time>
      </trkpt>
      <trkpt lat="43.02775" lon="0.86599">
        <ele>715.65002441</ele>
        <time>2020-10-29T15:50:38Z</time>
      </trkpt>
      <trkpt lat="43.02775" lon="0.86602">
        <ele>716.13000488</ele>
        <time>2020-10-29T15:50:39Z</time>
      </trkpt>
      <trkpt lat="43.02775" lon="0.86606">
        <ele>716.64001465</ele>
        <time>2020-10-29T15:50:40Z</time>
      </trkpt>
      <trkpt lat="43.02776" lon="0.86608">
        <ele>717.34997559</ele>
        <time>2020-10-29T15:50:42Z</time>
      </trkpt>
      <trkpt lat="43.02777" lon="0.86612">
        <ele>719.13000488</ele>
        <time>2020-10-29T15:50:43Z</time>
      </trkpt>
      <trkpt lat="43.02778" lon="0.86616">
        <ele>719.67999268</ele>
        <time>2020-10-29T15:50:45Z</time>
      </trkpt>
      <trkpt lat="43.02778" lon="0.86619">
        <ele>719.67999268</ele>
        <time>2020-10-29T15:50:46Z</time>
      </trkpt>
      <trkpt lat="43.02779" lon="0.86623">
        <ele>719.95001221</ele>
        <time>2020-10-29T15:50:47Z</time>
      </trkpt>
      <trkpt lat="43.02779" lon="0.86626">
        <ele>720.16998291</ele>
        <time>2020-10-29T15:50:48Z</time>
      </trkpt>
      <trkpt lat="43.02779" lon="0.86629">
        <ele>719.95001221</ele>
        <time>2020-10-29T15:50:50Z</time>
      </trkpt>
      <trkpt lat="43.02779" lon="0.86631">
        <ele>720.09002686</ele>
        <time>2020-10-29T15:50:51Z</time>
      </trkpt>
      <trkpt lat="43.0278" lon="0.86635">
        <ele>720.5300293</ele>
        <time>2020-10-29T15:50:52Z</time>
      </trkpt>
      <trkpt lat="43.02781" lon="0.86639">
        <ele>720.77001953</ele>
        <time>2020-10-29T15:50:53Z</time>
      </trkpt>
      <trkpt lat="43.02782" lon="0.86643">
        <ele>720.57000732</ele>
        <time>2020-10-29T15:50:55Z</time>
      </trkpt>
      <trkpt lat="43.02784" lon="0.86648">
        <ele>720.66998291</ele>
        <time>2020-10-29T15:50:56Z</time>
      </trkpt>
      <trkpt lat="43.02786" lon="0.86653">
        <ele>720.73999023</ele>
        <time>2020-10-29T15:50:57Z</time>
      </trkpt>
      <trkpt lat="43.02788" lon="0.8666">
        <ele>720.7800293</ele>
        <time>2020-10-29T15:50:59Z</time>
      </trkpt>
      <trkpt lat="43.02791" lon="0.86671">
        <ele>721.0300293</ele>
        <time>2020-10-29T15:51:00Z</time>
      </trkpt>
      <trkpt lat="43.02793" lon="0.86679">
        <ele>719.90997314</ele>
        <time>2020-10-29T15:51:02Z</time>
      </trkpt>
      <trkpt lat="43.02798" lon="0.86695">
        <ele>720.40997314</ele>
        <time>2020-10-29T15:51:06Z</time>
      </trkpt>
      <trkpt lat="43.02798" lon="0.86699">
        <ele>721.10998535</ele>
        <time>2020-10-29T15:51:08Z</time>
      </trkpt>
      <trkpt lat="43.02799" lon="0.86706">
        <ele>722.35998535</ele>
        <time>2020-10-29T15:51:14Z</time>
      </trkpt>
      <trkpt lat="43.028" lon="0.86706">
        <ele>722.4699707</ele>
        <time>2020-10-29T15:51:15Z</time>
      </trkpt>
      <trkpt lat="43.02801" lon="0.86708">
        <ele>722.77001953</ele>
        <time>2020-10-29T15:51:17Z</time>
      </trkpt>
      <trkpt lat="43.02801" lon="0.86709">
        <ele>722.77001953</ele>
        <time>2020-10-29T15:51:18Z</time>
      </trkpt>
      <trkpt lat="43.02801" lon="0.86712">
        <ele>722.90997314</ele>
        <time>2020-10-29T15:51:20Z</time>
      </trkpt>
      <trkpt lat="43.02801" lon="0.86716">
        <ele>722.91998291</ele>
        <time>2020-10-29T15:51:23Z</time>
      </trkpt>
      <trkpt lat="43.02802" lon="0.86719">
        <ele>723.09997559</ele>
        <time>2020-10-29T15:51:24Z</time>
      </trkpt>
      <trkpt lat="43.02802" lon="0.86722">
        <ele>723.04998779</ele>
        <time>2020-10-29T15:51:25Z</time>
      </trkpt>
      <trkpt lat="43.02803" lon="0.86726">
        <ele>722.96002197</ele>
        <time>2020-10-29T15:51:27Z</time>
      </trkpt>
      <trkpt lat="43.02804" lon="0.86729">
        <ele>722.69000244</ele>
        <time>2020-10-29T15:51:28Z</time>
      </trkpt>
      <trkpt lat="43.02804" lon="0.86733">
        <ele>722.40997314</ele>
        <time>2020-10-29T15:51:29Z</time>
      </trkpt>
      <trkpt lat="43.02805" lon="0.86737">
        <ele>722.03997803</ele>
        <time>2020-10-29T15:51:30Z</time>
      </trkpt>
      <trkpt lat="43.02806" lon="0.86741">
        <ele>721.63000488</ele>
        <time>2020-10-29T15:51:32Z</time>
      </trkpt>
      <trkpt lat="43.02807" lon="0.86749">
        <ele>721.84002686</ele>
        <time>2020-10-29T15:51:33Z</time>
      </trkpt>
      <trkpt lat="43.02808" lon="0.86753">
        <ele>721.58001709</ele>
        <time>2020-10-29T15:51:35Z</time>
      </trkpt>
      <trkpt lat="43.02808" lon="0.86761">
        <ele>721.53997803</ele>
        <time>2020-10-29T15:51:36Z</time>
      </trkpt>
      <trkpt lat="43.02808" lon="0.86766">
        <ele>721.07000732</ele>
        <time>2020-10-29T15:51:37Z</time>
      </trkpt>
      <trkpt lat="43.02808" lon="0.86769">
        <ele>720.76000977</ele>
        <time>2020-10-29T15:51:39Z</time>
      </trkpt>
      <trkpt lat="43.02809" lon="0.86775">
        <ele>720.86999512</ele>
        <time>2020-10-29T15:51:41Z</time>
      </trkpt>
      <trkpt lat="43.0281" lon="0.8678">
        <ele>720.54998779</ele>
        <time>2020-10-29T15:51:42Z</time>
      </trkpt>
      <trkpt lat="43.0281" lon="0.86785">
        <ele>720.40002441</ele>
        <time>2020-10-29T15:51:43Z</time>
      </trkpt>
      <trkpt lat="43.0281" lon="0.86789">
        <ele>720.2199707</ele>
        <time>2020-10-29T15:51:44Z</time>
      </trkpt>
      <trkpt lat="43.02811" lon="0.86793">
        <ele>720.44000244</ele>
        <time>2020-10-29T15:51:45Z</time>
      </trkpt>
      <trkpt lat="43.02812" lon="0.86797">
        <ele>720.97998047</ele>
        <time>2020-10-29T15:51:47Z</time>
      </trkpt>
      <trkpt lat="43.02812" lon="0.86803">
        <ele>720.84997559</ele>
        <time>2020-10-29T15:51:48Z</time>
      </trkpt>
      <trkpt lat="43.02813" lon="0.86807">
        <ele>720.64001465</ele>
        <time>2020-10-29T15:51:49Z</time>
      </trkpt>
      <trkpt lat="43.02814" lon="0.86811">
        <ele>720.64001465</ele>
        <time>2020-10-29T15:51:50Z</time>
      </trkpt>
      <trkpt lat="43.02815" lon="0.86816">
        <ele>720.82000732</ele>
        <time>2020-10-29T15:51:52Z</time>
      </trkpt>
      <trkpt lat="43.02815" lon="0.86821">
        <ele>720.82000732</ele>
        <time>2020-10-29T15:51:53Z</time>
      </trkpt>
      <trkpt lat="43.02818" lon="0.86829">
        <ele>720.2199707</ele>
        <time>2020-10-29T15:51:55Z</time>
      </trkpt>
      <trkpt lat="43.02821" lon="0.86837">
        <ele>719.44000244</ele>
        <time>2020-10-29T15:51:56Z</time>
      </trkpt>
      <trkpt lat="43.02823" lon="0.86843">
        <ele>719.26000977</ele>
        <time>2020-10-29T15:51:58Z</time>
      </trkpt>
      <trkpt lat="43.02826" lon="0.86848">
        <ele>719.15002441</ele>
        <time>2020-10-29T15:51:59Z</time>
      </trkpt>
      <trkpt lat="43.02828" lon="0.86854">
        <ele>719.95001221</ele>
        <time>2020-10-29T15:52:00Z</time>
      </trkpt>
      <trkpt lat="43.02829" lon="0.86859">
        <ele>720.2199707</ele>
        <time>2020-10-29T15:52:02Z</time>
      </trkpt>
      <trkpt lat="43.02831" lon="0.86867">
        <ele>720.72998047</ele>
        <time>2020-10-29T15:52:03Z</time>
      </trkpt>
      <trkpt lat="43.02832" lon="0.86874">
        <ele>720.92999268</ele>
        <time>2020-10-29T15:52:05Z</time>
      </trkpt>
      <trkpt lat="43.02834" lon="0.86883">
        <ele>720.46002197</ele>
        <time>2020-10-29T15:52:06Z</time>
      </trkpt>
      <trkpt lat="43.02835" lon="0.86888">
        <ele>720.85998535</ele>
        <time>2020-10-29T15:52:08Z</time>
      </trkpt>
      <trkpt lat="43.02836" lon="0.86893">
        <ele>721.35998535</ele>
        <time>2020-10-29T15:52:09Z</time>
      </trkpt>
      <trkpt lat="43.02838" lon="0.86902">
        <ele>721.52001953</ele>
        <time>2020-10-29T15:52:11Z</time>
      </trkpt>
      <trkpt lat="43.0284" lon="0.86908">
        <ele>722.30999756</ele>
        <time>2020-10-29T15:52:12Z</time>
      </trkpt>
      <trkpt lat="43.02842" lon="0.86914">
        <ele>721.54998779</ele>
        <time>2020-10-29T15:52:13Z</time>
      </trkpt>
      <trkpt lat="43.02845" lon="0.86921">
        <ele>721.17999268</ele>
        <time>2020-10-29T15:52:14Z</time>
      </trkpt>
      <trkpt lat="43.02846" lon="0.86927">
        <ele>721.73999023</ele>
        <time>2020-10-29T15:52:16Z</time>
      </trkpt>
      <trkpt lat="43.02847" lon="0.86935">
        <ele>721.30999756</ele>
        <time>2020-10-29T15:52:17Z</time>
      </trkpt>
      <trkpt lat="43.02847" lon="0.8694">
        <ele>722.25</ele>
        <time>2020-10-29T15:52:19Z</time>
      </trkpt>
      <trkpt lat="43.02848" lon="0.86945">
        <ele>721.59997559</ele>
        <time>2020-10-29T15:52:20Z</time>
      </trkpt>
      <trkpt lat="43.02851" lon="0.86954">
        <ele>721.19000244</ele>
        <time>2020-10-29T15:52:21Z</time>
      </trkpt>
      <trkpt lat="43.02854" lon="0.86963">
        <ele>721.9699707</ele>
        <time>2020-10-29T15:52:23Z</time>
      </trkpt>
      <trkpt lat="43.02856" lon="0.8697">
        <ele>721.09002686</ele>
        <time>2020-10-29T15:52:24Z</time>
      </trkpt>
      <trkpt lat="43.02857" lon="0.86979">
        <ele>721.10998535</ele>
        <time>2020-10-29T15:52:26Z</time>
      </trkpt>
      <trkpt lat="43.02856" lon="0.86987">
        <ele>721.83001709</ele>
        <time>2020-10-29T15:52:27Z</time>
      </trkpt>
      <trkpt lat="43.02856" lon="0.86995">
        <ele>722.03997803</ele>
        <time>2020-10-29T15:52:28Z</time>
      </trkpt>
      <trkpt lat="43.02855" lon="0.87001">
        <ele>720.15002441</ele>
        <time>2020-10-29T15:52:30Z</time>
      </trkpt>
      <trkpt lat="43.02856" lon="0.87005">
        <ele>719.69000244</ele>
        <time>2020-10-29T15:52:31Z</time>
      </trkpt>
      <trkpt lat="43.02858" lon="0.87015">
        <ele>718.97998047</ele>
        <time>2020-10-29T15:52:33Z</time>
      </trkpt>
      <trkpt lat="43.02861" lon="0.87027">
        <ele>717.58001709</ele>
        <time>2020-10-29T15:52:35Z</time>
      </trkpt>
      <trkpt lat="43.02862" lon="0.87055">
        <ele>714.90002441</ele>
        <time>2020-10-29T15:52:37Z</time>
      </trkpt>
      <trkpt lat="43.02859" lon="0.87075">
        <ele>711.32000732</ele>
        <time>2020-10-29T15:52:39Z</time>
      </trkpt>
      <trkpt lat="43.02857" lon="0.87088">
        <ele>709.61999512</ele>
        <time>2020-10-29T15:52:40Z</time>
      </trkpt>
      <trkpt lat="43.02853" lon="0.87111">
        <ele>708.07000732</ele>
        <time>2020-10-29T15:52:42Z</time>
      </trkpt>
      <trkpt lat="43.02851" lon="0.8712">
        <ele>708.14001465</ele>
        <time>2020-10-29T15:52:43Z</time>
      </trkpt>
      <trkpt lat="43.02849" lon="0.87127">
        <ele>707.04998779</ele>
        <time>2020-10-29T15:52:44Z</time>
      </trkpt>
      <trkpt lat="43.02846" lon="0.87135">
        <ele>706.38000488</ele>
        <time>2020-10-29T15:52:45Z</time>
      </trkpt>
      <trkpt lat="43.02844" lon="0.87143">
        <ele>705.51000977</ele>
        <time>2020-10-29T15:52:47Z</time>
      </trkpt>
      <trkpt lat="43.02845" lon="0.87149">
        <ele>704.88000488</ele>
        <time>2020-10-29T15:52:48Z</time>
      </trkpt>
      <trkpt lat="43.02846" lon="0.87163">
        <ele>703.35998535</ele>
        <time>2020-10-29T15:52:50Z</time>
      </trkpt>
      <trkpt lat="43.02847" lon="0.8717">
        <ele>703.20001221</ele>
        <time>2020-10-29T15:52:51Z</time>
      </trkpt>
      <trkpt lat="43.02847" lon="0.87178">
        <ele>703.08001709</ele>
        <time>2020-10-29T15:52:52Z</time>
      </trkpt>
      <trkpt lat="43.02847" lon="0.87187">
        <ele>702.71002197</ele>
        <time>2020-10-29T15:52:53Z</time>
      </trkpt>
      <trkpt lat="43.02844" lon="0.87203">
        <ele>702.38000488</ele>
        <time>2020-10-29T15:52:55Z</time>
      </trkpt>
      <trkpt lat="43.02844" lon="0.8722">
        <ele>701.23999023</ele>
        <time>2020-10-29T15:52:57Z</time>
      </trkpt>
      <trkpt lat="43.02845" lon="0.87231">
        <ele>700.67999268</ele>
        <time>2020-10-29T15:52:58Z</time>
      </trkpt>
      <trkpt lat="43.02847" lon="0.87248">
        <ele>697.39001465</ele>
        <time>2020-10-29T15:53:00Z</time>
      </trkpt>
      <trkpt lat="43.02846" lon="0.87265">
        <ele>697.01000977</ele>
        <time>2020-10-29T15:53:02Z</time>
      </trkpt>
      <trkpt lat="43.02845" lon="0.87273">
        <ele>696.5</ele>
        <time>2020-10-29T15:53:03Z</time>
      </trkpt>
      <trkpt lat="43.02846" lon="0.87281">
        <ele>696.27001953</ele>
        <time>2020-10-29T15:53:05Z</time>
      </trkpt>
      <trkpt lat="43.02846" lon="0.87284">
        <ele>694.59002686</ele>
        <time>2020-10-29T15:53:06Z</time>
      </trkpt>
      <trkpt lat="43.02847" lon="0.87287">
        <ele>694.15997314</ele>
        <time>2020-10-29T15:53:07Z</time>
      </trkpt>
      <trkpt lat="43.02847" lon="0.87295">
        <ele>693.15002441</ele>
        <time>2020-10-29T15:53:09Z</time>
      </trkpt>
      <trkpt lat="43.02847" lon="0.87297">
        <ele>692.39001465</ele>
        <time>2020-10-29T15:53:10Z</time>
      </trkpt>
      <trkpt lat="43.02848" lon="0.87315">
        <ele>687.85998535</ele>
        <time>2020-10-29T15:53:12Z</time>
      </trkpt>
      <trkpt lat="43.02847" lon="0.87324">
        <ele>688.35998535</ele>
        <time>2020-10-29T15:53:13Z</time>
      </trkpt>
      <trkpt lat="43.02846" lon="0.87335">
        <ele>689.07000732</ele>
        <time>2020-10-29T15:53:14Z</time>
      </trkpt>
      <trkpt lat="43.02847" lon="0.87339">
        <ele>688.34997559</ele>
        <time>2020-10-29T15:53:16Z</time>
      </trkpt>
      <trkpt lat="43.02845" lon="0.87344">
        <ele>687.84002686</ele>
        <time>2020-10-29T15:53:17Z</time>
      </trkpt>
      <trkpt lat="43.02842" lon="0.87349">
        <ele>688.39001465</ele>
        <time>2020-10-29T15:53:19Z</time>
      </trkpt>
      <trkpt lat="43.0284" lon="0.87354">
        <ele>687.69000244</ele>
        <time>2020-10-29T15:53:20Z</time>
      </trkpt>
      <trkpt lat="43.0284" lon="0.87357">
        <ele>686.45001221</ele>
        <time>2020-10-29T15:53:22Z</time>
      </trkpt>
      <trkpt lat="43.0284" lon="0.87361">
        <ele>686.45001221</ele>
        <time>2020-10-29T15:53:23Z</time>
      </trkpt>
      <trkpt lat="43.02841" lon="0.87365">
        <ele>686.29998779</ele>
        <time>2020-10-29T15:53:24Z</time>
      </trkpt>
      <trkpt lat="43.02842" lon="0.87376">
        <ele>685.29998779</ele>
        <time>2020-10-29T15:53:25Z</time>
      </trkpt>
      <trkpt lat="43.02845" lon="0.87386">
        <ele>684.21002197</ele>
        <time>2020-10-29T15:53:28Z</time>
      </trkpt>
      <trkpt lat="43.02846" lon="0.87391">
        <ele>685</ele>
        <time>2020-10-29T15:53:29Z</time>
      </trkpt>
      <trkpt lat="43.02848" lon="0.87394">
        <ele>684.79998779</ele>
        <time>2020-10-29T15:53:30Z</time>
      </trkpt>
      <trkpt lat="43.0285" lon="0.87396">
        <ele>683.52001953</ele>
        <time>2020-10-29T15:53:31Z</time>
      </trkpt>
      <trkpt lat="43.02851" lon="0.87399">
        <ele>682.19000244</ele>
        <time>2020-10-29T15:53:33Z</time>
      </trkpt>
      <trkpt lat="43.02852" lon="0.87405">
        <ele>680.42999268</ele>
        <time>2020-10-29T15:53:35Z</time>
      </trkpt>
      <trkpt lat="43.02853" lon="0.87411">
        <ele>679.61999512</ele>
        <time>2020-10-29T15:53:36Z</time>
      </trkpt>
      <trkpt lat="43.02856" lon="0.87407">
        <ele>676.51000977</ele>
        <time>2020-10-29T15:53:38Z</time>
      </trkpt>
      <trkpt lat="43.02855" lon="0.87407">
        <ele>674.92999268</ele>
        <time>2020-10-29T15:53:39Z</time>
      </trkpt>
      <trkpt lat="43.02851" lon="0.87402">
        <ele>673.94000244</ele>
        <time>2020-10-29T15:53:41Z</time>
      </trkpt>
      <trkpt lat="43.02857" lon="0.87393">
        <ele>670.55999756</ele>
        <time>2020-10-29T15:53:42Z</time>
      </trkpt>
      <trkpt lat="43.02857" lon="0.87393">
        <ele>669.15002441</ele>
        <time>2020-10-29T15:53:43Z</time>
      </trkpt>
      <trkpt lat="43.02855" lon="0.87398">
        <ele>668.15002441</ele>
        <time>2020-10-29T15:53:44Z</time>
      </trkpt>
      <trkpt lat="43.02854" lon="0.874">
        <ele>667.36999512</ele>
        <time>2020-10-29T15:53:45Z</time>
      </trkpt>
      <trkpt lat="43.02853" lon="0.87401">
        <ele>666.30999756</ele>
        <time>2020-10-29T15:53:47Z</time>
      </trkpt>
      <trkpt lat="43.02852" lon="0.87399">
        <ele>664.29998779</ele>
        <time>2020-10-29T15:53:49Z</time>
      </trkpt>
      <trkpt lat="43.02855" lon="0.87399">
        <ele>664.29998779</ele>
        <time>2020-10-29T15:53:50Z</time>
      </trkpt>
      <trkpt lat="43.0286" lon="0.87411">
        <ele>659.67999268</ele>
        <time>2020-10-29T15:53:52Z</time>
      </trkpt>
      <trkpt lat="43.0287" lon="0.87424">
        <ele>657.16998291</ele>
        <time>2020-10-29T15:53:54Z</time>
      </trkpt>
      <trkpt lat="43.0288" lon="0.87437">
        <ele>656.20001221</ele>
        <time>2020-10-29T15:53:56Z</time>
      </trkpt>
      <trkpt lat="43.02886" lon="0.87446">
        <ele>655.25</ele>
        <time>2020-10-29T15:53:57Z</time>
      </trkpt>
      <trkpt lat="43.0289" lon="0.87456">
        <ele>654.45001221</ele>
        <time>2020-10-29T15:53:58Z</time>
      </trkpt>
      <trkpt lat="43.02897" lon="0.87473">
        <ele>652.16998291</ele>
        <time>2020-10-29T15:54:00Z</time>
      </trkpt>
      <trkpt lat="43.029" lon="0.87481">
        <ele>651.21002197</ele>
        <time>2020-10-29T15:54:01Z</time>
      </trkpt>
      <trkpt lat="43.02907" lon="0.87489">
        <ele>648.58001709</ele>
        <time>2020-10-29T15:54:03Z</time>
      </trkpt>
      <trkpt lat="43.02908" lon="0.87488">
        <ele>649.58001709</ele>
        <time>2020-10-29T15:54:05Z</time>
      </trkpt>
      <trkpt lat="43.02909" lon="0.87488">
        <ele>650.36999512</ele>
        <time>2020-10-29T15:54:07Z</time>
      </trkpt>
      <trkpt lat="43.02908" lon="0.87485">
        <ele>650.10998535</ele>
        <time>2020-10-29T15:54:08Z</time>
      </trkpt>
      <trkpt lat="43.02908" lon="0.87483">
        <ele>649.5300293</ele>
        <time>2020-10-29T15:54:09Z</time>
      </trkpt>
      <trkpt lat="43.02908" lon="0.87482">
        <ele>648.59002686</ele>
        <time>2020-10-29T15:54:11Z</time>
      </trkpt>
      <trkpt lat="43.02908" lon="0.8748">
        <ele>648.21002197</ele>
        <time>2020-10-29T15:54:12Z</time>
      </trkpt>
      <trkpt lat="43.02908" lon="0.87479">
        <ele>648.05999756</ele>
        <time>2020-10-29T15:54:13Z</time>
      </trkpt>
      <trkpt lat="43.02907" lon="0.87476">
        <ele>647.4699707</ele>
        <time>2020-10-29T15:54:15Z</time>
      </trkpt>
      <trkpt lat="43.02906" lon="0.87474">
        <ele>646.59997559</ele>
        <time>2020-10-29T15:54:16Z</time>
      </trkpt>
      <trkpt lat="43.02906" lon="0.87474">
        <ele>646.61999512</ele>
        <time>2020-10-29T15:54:18Z</time>
      </trkpt>
      <trkpt lat="43.02906" lon="0.87476">
        <ele>646.40997314</ele>
        <time>2020-10-29T15:54:19Z</time>
      </trkpt>
      <trkpt lat="43.02906" lon="0.87477">
        <ele>645.86999512</ele>
        <time>2020-10-29T15:54:20Z</time>
      </trkpt>
      <trkpt lat="43.02905" lon="0.87483">
        <ele>646.0300293</ele>
        <time>2020-10-29T15:54:23Z</time>
      </trkpt>
      <trkpt lat="43.02905" lon="0.87484">
        <ele>645.85998535</ele>
        <time>2020-10-29T15:54:25Z</time>
      </trkpt>
      <trkpt lat="43.02905" lon="0.87484">
        <ele>645.61999512</ele>
        <time>2020-10-29T15:54:26Z</time>
      </trkpt>
      <trkpt lat="43.02903" lon="0.87488">
        <ele>645.59997559</ele>
        <time>2020-10-29T15:54:29Z</time>
      </trkpt>
      <trkpt lat="43.02905" lon="0.87488">
        <ele>645.44000244</ele>
        <time>2020-10-29T15:54:30Z</time>
      </trkpt>
      <trkpt lat="43.02908" lon="0.87487">
        <ele>645.42999268</ele>
        <time>2020-10-29T15:54:32Z</time>
      </trkpt>
      <trkpt lat="43.02915" lon="0.87482">
        <ele>645.04998779</ele>
        <time>2020-10-29T15:54:34Z</time>
      </trkpt>
      <trkpt lat="43.02924" lon="0.87473">
        <ele>644.79998779</ele>
        <time>2020-10-29T15:54:40Z</time>
      </trkpt>
      <trkpt lat="43.02923" lon="0.87472">
        <ele>644.73999023</ele>
        <time>2020-10-29T15:54:42Z</time>
      </trkpt>
      <trkpt lat="43.02922" lon="0.87472">
        <ele>644.77001953</ele>
        <time>2020-10-29T15:54:43Z</time>
      </trkpt>
      <trkpt lat="43.02922" lon="0.87473">
        <ele>644.16998291</ele>
        <time>2020-10-29T15:54:44Z</time>
      </trkpt>
      <trkpt lat="43.02924" lon="0.87475">
        <ele>644.89001465</ele>
        <time>2020-10-29T15:54:46Z</time>
      </trkpt>
      <trkpt lat="43.02923" lon="0.87477">
        <ele>644.27001953</ele>
        <time>2020-10-29T15:54:47Z</time>
      </trkpt>
      <trkpt lat="43.02924" lon="0.87478">
        <ele>643.46002197</ele>
        <time>2020-10-29T15:54:49Z</time>
      </trkpt>
      <trkpt lat="43.02924" lon="0.87478">
        <ele>643.5</ele>
        <time>2020-10-29T15:54:50Z</time>
      </trkpt>
      <trkpt lat="43.02925" lon="0.87478">
        <ele>644.08001709</ele>
        <time>2020-10-29T15:54:51Z</time>
      </trkpt>
      <trkpt lat="43.02927" lon="0.8748">
        <ele>643.78997803</ele>
        <time>2020-10-29T15:54:53Z</time>
      </trkpt>
      <trkpt lat="43.02929" lon="0.87479">
        <ele>643.59997559</ele>
        <time>2020-10-29T15:54:54Z</time>
      </trkpt>
      <trkpt lat="43.02929" lon="0.87477">
        <ele>644.20001221</ele>
        <time>2020-10-29T15:54:56Z</time>
      </trkpt>
      <trkpt lat="43.0293" lon="0.87476">
        <ele>644.01000977</ele>
        <time>2020-10-29T15:54:57Z</time>
      </trkpt>
      <trkpt lat="43.02933" lon="0.87476">
        <ele>643.86999512</ele>
        <time>2020-10-29T15:54:58Z</time>
      </trkpt>
      <trkpt lat="43.02933" lon="0.87476">
        <ele>643.90997314</ele>
        <time>2020-10-29T15:55:00Z</time>
      </trkpt>
      <trkpt lat="43.02933" lon="0.87477">
        <ele>643.94000244</ele>
        <time>2020-10-29T15:55:01Z</time>
      </trkpt>
      <trkpt lat="43.02934" lon="0.87476">
        <ele>644.54998779</ele>
        <time>2020-10-29T15:55:02Z</time>
      </trkpt>
      <trkpt lat="43.02935" lon="0.87475">
        <ele>644.72998047</ele>
        <time>2020-10-29T15:55:04Z</time>
      </trkpt>
      <trkpt lat="43.02936" lon="0.87474">
        <ele>645.38000488</ele>
        <time>2020-10-29T15:55:06Z</time>
      </trkpt>
      <trkpt lat="43.02937" lon="0.87473">
        <ele>644.61999512</ele>
        <time>2020-10-29T15:55:07Z</time>
      </trkpt>
      <trkpt lat="43.02939" lon="0.87472">
        <ele>644.65997314</ele>
        <time>2020-10-29T15:55:09Z</time>
      </trkpt>
      <trkpt lat="43.02943" lon="0.87469">
        <ele>643.90997314</ele>
        <time>2020-10-29T15:55:10Z</time>
      </trkpt>
      <trkpt lat="43.02946" lon="0.87467">
        <ele>644.48999023</ele>
        <time>2020-10-29T15:55:12Z</time>
      </trkpt>
      <trkpt lat="43.02949" lon="0.87465">
        <ele>643.5</ele>
        <time>2020-10-29T15:55:13Z</time>
      </trkpt>
      <trkpt lat="43.02951" lon="0.87464">
        <ele>643.34002686</ele>
        <time>2020-10-29T15:55:14Z</time>
      </trkpt>
      <trkpt lat="43.02953" lon="0.87462">
        <ele>644.02001953</ele>
        <time>2020-10-29T15:55:16Z</time>
      </trkpt>
      <trkpt lat="43.02957" lon="0.87459">
        <ele>643.88000488</ele>
        <time>2020-10-29T15:55:17Z</time>
      </trkpt>
      <trkpt lat="43.02962" lon="0.87456">
        <ele>643.95001221</ele>
        <time>2020-10-29T15:55:18Z</time>
      </trkpt>
      <trkpt lat="43.02967" lon="0.87453">
        <ele>643.7199707</ele>
        <time>2020-10-29T15:55:19Z</time>
      </trkpt>
      <trkpt lat="43.02975" lon="0.87448">
        <ele>644.02001953</ele>
        <time>2020-10-29T15:55:20Z</time>
      </trkpt>
      <trkpt lat="43.02982" lon="0.87442">
        <ele>643.79998779</ele>
        <time>2020-10-29T15:55:21Z</time>
      </trkpt>
      <trkpt lat="43.02991" lon="0.87435">
        <ele>643.65997314</ele>
        <time>2020-10-29T15:55:23Z</time>
      </trkpt>
      <trkpt lat="43.02995" lon="0.8743">
        <ele>642.09997559</ele>
        <time>2020-10-29T15:55:24Z</time>
      </trkpt>
      <trkpt lat="43.03" lon="0.87423">
        <ele>640.84997559</ele>
        <time>2020-10-29T15:55:25Z</time>
      </trkpt>
      <trkpt lat="43.03005" lon="0.87416">
        <ele>640.77001953</ele>
        <time>2020-10-29T15:55:26Z</time>
      </trkpt>
      <trkpt lat="43.0302" lon="0.87401">
        <ele>639.16998291</ele>
        <time>2020-10-29T15:55:28Z</time>
      </trkpt>
      <trkpt lat="43.03028" lon="0.87393">
        <ele>638.01000977</ele>
        <time>2020-10-29T15:55:29Z</time>
      </trkpt>
      <trkpt lat="43.03047" lon="0.87379">
        <ele>638.27001953</ele>
        <time>2020-10-29T15:55:31Z</time>
      </trkpt>
      <trkpt lat="43.03066" lon="0.87369">
        <ele>635.84997559</ele>
        <time>2020-10-29T15:55:33Z</time>
      </trkpt>
      <trkpt lat="43.03077" lon="0.87366">
        <ele>636.41998291</ele>
        <time>2020-10-29T15:55:34Z</time>
      </trkpt>
      <trkpt lat="43.03099" lon="0.87363">
        <ele>634.66998291</ele>
        <time>2020-10-29T15:55:36Z</time>
      </trkpt>
      <trkpt lat="43.03112" lon="0.87361">
        <ele>632.75</ele>
        <time>2020-10-29T15:55:37Z</time>
      </trkpt>
      <trkpt lat="43.03133" lon="0.87364">
        <ele>630.82000732</ele>
        <time>2020-10-29T15:55:39Z</time>
      </trkpt>
      <trkpt lat="43.03151" lon="0.8737">
        <ele>630.46002197</ele>
        <time>2020-10-29T15:55:41Z</time>
      </trkpt>
      <trkpt lat="43.03162" lon="0.87372">
        <ele>631.63000488</ele>
        <time>2020-10-29T15:55:42Z</time>
      </trkpt>
      <trkpt lat="43.03173" lon="0.87375">
        <ele>631.88000488</ele>
        <time>2020-10-29T15:55:43Z</time>
      </trkpt>
      <trkpt lat="43.03192" lon="0.87381">
        <ele>630.35998535</ele>
        <time>2020-10-29T15:55:45Z</time>
      </trkpt>
      <trkpt lat="43.032" lon="0.87385">
        <ele>630.09002686</ele>
        <time>2020-10-29T15:55:46Z</time>
      </trkpt>
      <trkpt lat="43.03208" lon="0.87389">
        <ele>629.94000244</ele>
        <time>2020-10-29T15:55:47Z</time>
      </trkpt>
      <trkpt lat="43.0322" lon="0.87392">
        <ele>629.89001465</ele>
        <time>2020-10-29T15:55:48Z</time>
      </trkpt>
      <trkpt lat="43.03245" lon="0.87398">
        <ele>630.25</ele>
        <time>2020-10-29T15:55:50Z</time>
      </trkpt>
      <trkpt lat="43.03252" lon="0.87402">
        <ele>629.57000732</ele>
        <time>2020-10-29T15:55:51Z</time>
      </trkpt>
      <trkpt lat="43.03266" lon="0.87412">
        <ele>629.60998535</ele>
        <time>2020-10-29T15:55:53Z</time>
      </trkpt>
      <trkpt lat="43.0328" lon="0.87419">
        <ele>629.14001465</ele>
        <time>2020-10-29T15:55:55Z</time>
      </trkpt>
      <trkpt lat="43.03288" lon="0.87423">
        <ele>627.83001709</ele>
        <time>2020-10-29T15:55:56Z</time>
      </trkpt>
      <trkpt lat="43.03307" lon="0.87426">
        <ele>627.17999268</ele>
        <time>2020-10-29T15:55:58Z</time>
      </trkpt>
      <trkpt lat="43.03317" lon="0.87425">
        <ele>626.9699707</ele>
        <time>2020-10-29T15:55:59Z</time>
      </trkpt>
      <trkpt lat="43.03337" lon="0.87423">
        <ele>624.60998535</ele>
        <time>2020-10-29T15:56:01Z</time>
      </trkpt>
      <trkpt lat="43.03345" lon="0.87422">
        <ele>624.34002686</ele>
        <time>2020-10-29T15:56:02Z</time>
      </trkpt>
      <trkpt lat="43.03351" lon="0.87422">
        <ele>623.59002686</ele>
        <time>2020-10-29T15:56:03Z</time>
      </trkpt>
      <trkpt lat="43.03361" lon="0.87424">
        <ele>622.03997803</ele>
        <time>2020-10-29T15:56:05Z</time>
      </trkpt>
      <trkpt lat="43.03371" lon="0.87433">
        <ele>619.4699707</ele>
        <time>2020-10-29T15:56:07Z</time>
      </trkpt>
      <trkpt lat="43.03375" lon="0.8744">
        <ele>618.5300293</ele>
        <time>2020-10-29T15:56:08Z</time>
      </trkpt>
      <trkpt lat="43.03383" lon="0.87453">
        <ele>616.77001953</ele>
        <time>2020-10-29T15:56:10Z</time>
      </trkpt>
      <trkpt lat="43.03386" lon="0.87459">
        <ele>616.39001465</ele>
        <time>2020-10-29T15:56:11Z</time>
      </trkpt>
      <trkpt lat="43.03387" lon="0.87461">
        <ele>614.7199707</ele>
        <time>2020-10-29T15:56:13Z</time>
      </trkpt>
      <trkpt lat="43.03387" lon="0.8746">
        <ele>614.27001953</ele>
        <time>2020-10-29T15:56:14Z</time>
      </trkpt>
      <trkpt lat="43.03393" lon="0.87458">
        <ele>611.82000732</ele>
        <time>2020-10-29T15:56:16Z</time>
      </trkpt>
      <trkpt lat="43.03401" lon="0.87446">
        <ele>611.55999756</ele>
        <time>2020-10-29T15:56:18Z</time>
      </trkpt>
      <trkpt lat="43.03411" lon="0.87435">
        <ele>609.44000244</ele>
        <time>2020-10-29T15:56:20Z</time>
      </trkpt>
      <trkpt lat="43.03427" lon="0.87427">
        <ele>607.26000977</ele>
        <time>2020-10-29T15:56:22Z</time>
      </trkpt>
      <trkpt lat="43.03443" lon="0.87415">
        <ele>605.71002197</ele>
        <time>2020-10-29T15:56:24Z</time>
      </trkpt>
      <trkpt lat="43.03458" lon="0.87406">
        <ele>603.22998047</ele>
        <time>2020-10-29T15:56:26Z</time>
      </trkpt>
      <trkpt lat="43.03467" lon="0.87401">
        <ele>602.71002197</ele>
        <time>2020-10-29T15:56:27Z</time>
      </trkpt>
      <trkpt lat="43.03484" lon="0.87394">
        <ele>598.33001709</ele>
        <time>2020-10-29T15:56:29Z</time>
      </trkpt>
      <trkpt lat="43.03491" lon="0.87392">
        <ele>599.21002197</ele>
        <time>2020-10-29T15:56:30Z</time>
      </trkpt>
      <trkpt lat="43.03504" lon="0.8739">
        <ele>598.65997314</ele>
        <time>2020-10-29T15:56:32Z</time>
      </trkpt>
      <trkpt lat="43.03511" lon="0.87389">
        <ele>598.5</ele>
        <time>2020-10-29T15:56:33Z</time>
      </trkpt>
      <trkpt lat="43.03521" lon="0.87383">
        <ele>598.36999512</ele>
        <time>2020-10-29T15:56:35Z</time>
      </trkpt>
      <trkpt lat="43.03538" lon="0.87369">
        <ele>597.09002686</ele>
        <time>2020-10-29T15:56:37Z</time>
      </trkpt>
      <trkpt lat="43.03545" lon="0.87364">
        <ele>597.72998047</ele>
        <time>2020-10-29T15:56:39Z</time>
      </trkpt>
      <trkpt lat="43.03544" lon="0.87363">
        <ele>597.72998047</ele>
        <time>2020-10-29T15:56:40Z</time>
      </trkpt>
      <trkpt lat="43.03547" lon="0.87357">
        <ele>598.41998291</ele>
        <time>2020-10-29T15:56:41Z</time>
      </trkpt>
      <trkpt lat="43.03551" lon="0.87352">
        <ele>597.88000488</ele>
        <time>2020-10-29T15:56:42Z</time>
      </trkpt>
      <trkpt lat="43.03554" lon="0.8735">
        <ele>597.78997803</ele>
        <time>2020-10-29T15:56:44Z</time>
      </trkpt>
      <trkpt lat="43.03557" lon="0.87348">
        <ele>596.22998047</ele>
        <time>2020-10-29T15:56:45Z</time>
      </trkpt>
      <trkpt lat="43.03561" lon="0.87346">
        <ele>596.05999756</ele>
        <time>2020-10-29T15:56:46Z</time>
      </trkpt>
      <trkpt lat="43.03567" lon="0.87343">
        <ele>596.41998291</ele>
        <time>2020-10-29T15:56:47Z</time>
      </trkpt>
      <trkpt lat="43.03572" lon="0.8734">
        <ele>596.55999756</ele>
        <time>2020-10-29T15:56:49Z</time>
      </trkpt>
      <trkpt lat="43.03576" lon="0.87338">
        <ele>597.84002686</ele>
        <time>2020-10-29T15:56:50Z</time>
      </trkpt>
      <trkpt lat="43.0358" lon="0.87335">
        <ele>598.07000732</ele>
        <time>2020-10-29T15:56:51Z</time>
      </trkpt>
      <trkpt lat="43.03587" lon="0.87329">
        <ele>597.90997314</ele>
        <time>2020-10-29T15:56:53Z</time>
      </trkpt>
      <trkpt lat="43.0359" lon="0.87326">
        <ele>596.5300293</ele>
        <time>2020-10-29T15:56:54Z</time>
      </trkpt>
      <trkpt lat="43.03597" lon="0.87323">
        <ele>597.19000244</ele>
        <time>2020-10-29T15:56:56Z</time>
      </trkpt>
      <trkpt lat="43.03602" lon="0.87321">
        <ele>596.4699707</ele>
        <time>2020-10-29T15:56:57Z</time>
      </trkpt>
      <trkpt lat="43.03603" lon="0.8732">
        <ele>596.26000977</ele>
        <time>2020-10-29T15:56:58Z</time>
      </trkpt>
      <trkpt lat="43.03605" lon="0.87318">
        <ele>596.53997803</ele>
        <time>2020-10-29T15:56:59Z</time>
      </trkpt>
      <trkpt lat="43.03609" lon="0.87314">
        <ele>597.5300293</ele>
        <time>2020-10-29T15:57:01Z</time>
      </trkpt>
      <trkpt lat="43.03614" lon="0.8731">
        <ele>597.64001465</ele>
        <time>2020-10-29T15:57:02Z</time>
      </trkpt>
      <trkpt lat="43.03617" lon="0.87305">
        <ele>598.01000977</ele>
        <time>2020-10-29T15:57:03Z</time>
      </trkpt>
      <trkpt lat="43.0362" lon="0.873">
        <ele>597.70001221</ele>
        <time>2020-10-29T15:57:04Z</time>
      </trkpt>
      <trkpt lat="43.03624" lon="0.87295">
        <ele>599.26000977</ele>
        <time>2020-10-29T15:57:06Z</time>
      </trkpt>
      <trkpt lat="43.0363" lon="0.87289">
        <ele>599.71002197</ele>
        <time>2020-10-29T15:57:07Z</time>
      </trkpt>
      <trkpt lat="43.03636" lon="0.87284">
        <ele>600.90002441</ele>
        <time>2020-10-29T15:57:08Z</time>
      </trkpt>
      <trkpt lat="43.03645" lon="0.87278">
        <ele>601.77001953</ele>
        <time>2020-10-29T15:57:10Z</time>
      </trkpt>
      <trkpt lat="43.03657" lon="0.8727">
        <ele>603.17999268</ele>
        <time>2020-10-29T15:57:11Z</time>
      </trkpt>
      <trkpt lat="43.03662" lon="0.87266">
        <ele>604.21002197</ele>
        <time>2020-10-29T15:57:13Z</time>
      </trkpt>
      <trkpt lat="43.03665" lon="0.87262">
        <ele>604.21002197</ele>
        <time>2020-10-29T15:57:14Z</time>
      </trkpt>
      <trkpt lat="43.03668" lon="0.87256">
        <ele>603.9699707</ele>
        <time>2020-10-29T15:57:15Z</time>
      </trkpt>
      <trkpt lat="43.03668" lon="0.87252">
        <ele>604.46002197</ele>
        <time>2020-10-29T15:57:16Z</time>
      </trkpt>
      <trkpt lat="43.03668" lon="0.87248">
        <ele>604.7199707</ele>
        <time>2020-10-29T15:57:18Z</time>
      </trkpt>
      <trkpt lat="43.03667" lon="0.87243">
        <ele>605.51000977</ele>
        <time>2020-10-29T15:57:20Z</time>
      </trkpt>
      <trkpt lat="43.03665" lon="0.8724">
        <ele>605.03997803</ele>
        <time>2020-10-29T15:57:21Z</time>
      </trkpt>
      <trkpt lat="43.03663" lon="0.87238">
        <ele>604.90997314</ele>
        <time>2020-10-29T15:57:22Z</time>
      </trkpt>
      <trkpt lat="43.03662" lon="0.87237">
        <ele>604.40002441</ele>
        <time>2020-10-29T15:57:23Z</time>
      </trkpt>
      <trkpt lat="43.0366" lon="0.87237">
        <ele>604.44000244</ele>
        <time>2020-10-29T15:57:24Z</time>
      </trkpt>
      <trkpt lat="43.03659" lon="0.87237">
        <ele>605.69000244</ele>
        <time>2020-10-29T15:57:26Z</time>
      </trkpt>
      <trkpt lat="43.03656" lon="0.87239">
        <ele>605.20001221</ele>
        <time>2020-10-29T15:57:27Z</time>
      </trkpt>
      <trkpt lat="43.03654" lon="0.8724">
        <ele>605.16998291</ele>
        <time>2020-10-29T15:57:29Z</time>
      </trkpt>
      <trkpt lat="43.03653" lon="0.87241">
        <ele>605.16998291</ele>
        <time>2020-10-29T15:57:30Z</time>
      </trkpt>
      <trkpt lat="43.0365" lon="0.87243">
        <ele>604.85998535</ele>
        <time>2020-10-29T15:57:31Z</time>
      </trkpt>
      <trkpt lat="43.03648" lon="0.87244">
        <ele>604.61999512</ele>
        <time>2020-10-29T15:57:32Z</time>
      </trkpt>
      <trkpt lat="43.03646" lon="0.87245">
        <ele>603.91998291</ele>
        <time>2020-10-29T15:57:33Z</time>
      </trkpt>
      <trkpt lat="43.03644" lon="0.87247">
        <ele>604.09002686</ele>
        <time>2020-10-29T15:57:35Z</time>
      </trkpt>
      <trkpt lat="43.03641" lon="0.8725">
        <ele>603.09997559</ele>
        <time>2020-10-29T15:57:36Z</time>
      </trkpt>
      <trkpt lat="43.03638" lon="0.87252">
        <ele>603.0300293</ele>
        <time>2020-10-29T15:57:37Z</time>
      </trkpt>
      <trkpt lat="43.03635" lon="0.87255">
        <ele>603.03997803</ele>
        <time>2020-10-29T15:57:39Z</time>
      </trkpt>
      <trkpt lat="43.03628" lon="0.87257">
        <ele>602.90002441</ele>
        <time>2020-10-29T15:57:41Z</time>
      </trkpt>
      <trkpt lat="43.03626" lon="0.87258">
        <ele>602.90002441</ele>
        <time>2020-10-29T15:57:42Z</time>
      </trkpt>
      <trkpt lat="43.03623" lon="0.87258">
        <ele>603.41998291</ele>
        <time>2020-10-29T15:57:43Z</time>
      </trkpt>
      <trkpt lat="43.03621" lon="0.87256">
        <ele>602.79998779</ele>
        <time>2020-10-29T15:57:45Z</time>
      </trkpt>
      <trkpt lat="43.03618" lon="0.87254">
        <ele>602.70001221</ele>
        <time>2020-10-29T15:57:46Z</time>
      </trkpt>
      <trkpt lat="43.03616" lon="0.87253">
        <ele>602.2800293</ele>
        <time>2020-10-29T15:57:48Z</time>
      </trkpt>
      <trkpt lat="43.03613" lon="0.8725">
        <ele>602.08001709</ele>
        <time>2020-10-29T15:57:49Z</time>
      </trkpt>
      <trkpt lat="43.03612" lon="0.87247">
        <ele>601.92999268</ele>
        <time>2020-10-29T15:57:50Z</time>
      </trkpt>
      <trkpt lat="43.0361" lon="0.87244">
        <ele>601.70001221</ele>
        <time>2020-10-29T15:57:52Z</time>
      </trkpt>
      <trkpt lat="43.03608" lon="0.87238">
        <ele>600.65997314</ele>
        <time>2020-10-29T15:57:53Z</time>
      </trkpt>
      <trkpt lat="43.03606" lon="0.87234">
        <ele>599.80999756</ele>
        <time>2020-10-29T15:57:54Z</time>
      </trkpt>
      <trkpt lat="43.03605" lon="0.87227">
        <ele>597.76000977</ele>
        <time>2020-10-29T15:57:56Z</time>
      </trkpt>
      <trkpt lat="43.03604" lon="0.87222">
        <ele>596.90002441</ele>
        <time>2020-10-29T15:57:57Z</time>
      </trkpt>
      <trkpt lat="43.03604" lon="0.87216">
        <ele>595.78997803</ele>
        <time>2020-10-29T15:57:58Z</time>
      </trkpt>
      <trkpt lat="43.03604" lon="0.87211">
        <ele>592.26000977</ele>
        <time>2020-10-29T15:58:00Z</time>
      </trkpt>
      <trkpt lat="43.03605" lon="0.87203">
        <ele>591.15002441</ele>
        <time>2020-10-29T15:58:01Z</time>
      </trkpt>
      <trkpt lat="43.03607" lon="0.87196">
        <ele>590.09997559</ele>
        <time>2020-10-29T15:58:03Z</time>
      </trkpt>
      <trkpt lat="43.03609" lon="0.8719">
        <ele>586.34002686</ele>
        <time>2020-10-29T15:58:04Z</time>
      </trkpt>
      <trkpt lat="43.0361" lon="0.87185">
        <ele>584.66998291</ele>
        <time>2020-10-29T15:58:05Z</time>
      </trkpt>
      <trkpt lat="43.03614" lon="0.87172">
        <ele>583.03997803</ele>
        <time>2020-10-29T15:58:07Z</time>
      </trkpt>
      <trkpt lat="43.03617" lon="0.87163">
        <ele>582.09002686</ele>
        <time>2020-10-29T15:58:08Z</time>
      </trkpt>
      <trkpt lat="43.03627" lon="0.87145">
        <ele>580.40997314</ele>
        <time>2020-10-29T15:58:10Z</time>
      </trkpt>
      <trkpt lat="43.03638" lon="0.87133">
        <ele>576.84997559</ele>
        <time>2020-10-29T15:58:12Z</time>
      </trkpt>
      <trkpt lat="43.03651" lon="0.8712">
        <ele>575.66998291</ele>
        <time>2020-10-29T15:58:14Z</time>
      </trkpt>
      <trkpt lat="43.03662" lon="0.87102">
        <ele>573.17999268</ele>
        <time>2020-10-29T15:58:16Z</time>
      </trkpt>
      <trkpt lat="43.0367" lon="0.87083">
        <ele>571.17999268</ele>
        <time>2020-10-29T15:58:18Z</time>
      </trkpt>
      <trkpt lat="43.0368" lon="0.87065">
        <ele>570.15997314</ele>
        <time>2020-10-29T15:58:20Z</time>
      </trkpt>
      <trkpt lat="43.0369" lon="0.87048">
        <ele>569.95001221</ele>
        <time>2020-10-29T15:58:22Z</time>
      </trkpt>
      <trkpt lat="43.03695" lon="0.87041">
        <ele>568.95001221</ele>
        <time>2020-10-29T15:58:23Z</time>
      </trkpt>
      <trkpt lat="43.037" lon="0.87033">
        <ele>569.21002197</ele>
        <time>2020-10-29T15:58:24Z</time>
      </trkpt>
      <trkpt lat="43.03706" lon="0.87018">
        <ele>569.10998535</ele>
        <time>2020-10-29T15:58:26Z</time>
      </trkpt>
      <trkpt lat="43.03713" lon="0.87004">
        <ele>569.14001465</ele>
        <time>2020-10-29T15:58:28Z</time>
      </trkpt>
      <trkpt lat="43.03716" lon="0.86997">
        <ele>568.76000977</ele>
        <time>2020-10-29T15:58:29Z</time>
      </trkpt>
      <trkpt lat="43.03722" lon="0.86986">
        <ele>568.39001465</ele>
        <time>2020-10-29T15:58:31Z</time>
      </trkpt>
      <trkpt lat="43.03729" lon="0.86972">
        <ele>567.79998779</ele>
        <time>2020-10-29T15:58:33Z</time>
      </trkpt>
      <trkpt lat="43.03733" lon="0.86965">
        <ele>568.09002686</ele>
        <time>2020-10-29T15:58:34Z</time>
      </trkpt>
      <trkpt lat="43.03739" lon="0.86958">
        <ele>569.11999512</ele>
        <time>2020-10-29T15:58:35Z</time>
      </trkpt>
      <trkpt lat="43.03743" lon="0.86952">
        <ele>568.40002441</ele>
        <time>2020-10-29T15:58:36Z</time>
      </trkpt>
      <trkpt lat="43.0375" lon="0.86938">
        <ele>567.35998535</ele>
        <time>2020-10-29T15:58:38Z</time>
      </trkpt>
      <trkpt lat="43.03753" lon="0.86933">
        <ele>567.15002441</ele>
        <time>2020-10-29T15:58:39Z</time>
      </trkpt>
      <trkpt lat="43.03758" lon="0.86922">
        <ele>567.59002686</ele>
        <time>2020-10-29T15:58:41Z</time>
      </trkpt>
      <trkpt lat="43.03761" lon="0.86915">
        <ele>566.2800293</ele>
        <time>2020-10-29T15:58:42Z</time>
      </trkpt>
      <trkpt lat="43.03764" lon="0.8691">
        <ele>567.27001953</ele>
        <time>2020-10-29T15:58:43Z</time>
      </trkpt>
      <trkpt lat="43.03767" lon="0.86905">
        <ele>567.29998779</ele>
        <time>2020-10-29T15:58:44Z</time>
      </trkpt>
      <trkpt lat="43.0377" lon="0.869">
        <ele>568.32000732</ele>
        <time>2020-10-29T15:58:46Z</time>
      </trkpt>
      <trkpt lat="43.03775" lon="0.86893">
        <ele>568.44000244</ele>
        <time>2020-10-29T15:58:47Z</time>
      </trkpt>
      <trkpt lat="43.03777" lon="0.86887">
        <ele>567.83001709</ele>
        <time>2020-10-29T15:58:48Z</time>
      </trkpt>
      <trkpt lat="43.0378" lon="0.8688">
        <ele>567.90002441</ele>
        <time>2020-10-29T15:58:49Z</time>
      </trkpt>
      <trkpt lat="43.03783" lon="0.86875">
        <ele>568.32000732</ele>
        <time>2020-10-29T15:58:51Z</time>
      </trkpt>
      <trkpt lat="43.03785" lon="0.8687">
        <ele>568.16998291</ele>
        <time>2020-10-29T15:58:52Z</time>
      </trkpt>
      <trkpt lat="43.03787" lon="0.86865">
        <ele>568.16998291</ele>
        <time>2020-10-29T15:58:53Z</time>
      </trkpt>
      <trkpt lat="43.03793" lon="0.86859">
        <ele>568.42999268</ele>
        <time>2020-10-29T15:58:54Z</time>
      </trkpt>
      <trkpt lat="43.03797" lon="0.86852">
        <ele>569.11999512</ele>
        <time>2020-10-29T15:58:56Z</time>
      </trkpt>
      <trkpt lat="43.03802" lon="0.86849">
        <ele>568.52001953</ele>
        <time>2020-10-29T15:58:58Z</time>
      </trkpt>
      <trkpt lat="43.03806" lon="0.86845">
        <ele>568.80999756</ele>
        <time>2020-10-29T15:58:59Z</time>
      </trkpt>
      <trkpt lat="43.03808" lon="0.86841">
        <ele>569.23999023</ele>
        <time>2020-10-29T15:59:00Z</time>
      </trkpt>
      <trkpt lat="43.03811" lon="0.86832">
        <ele>569.7800293</ele>
        <time>2020-10-29T15:59:02Z</time>
      </trkpt>
      <trkpt lat="43.03815" lon="0.86808">
        <ele>569.19000244</ele>
        <time>2020-10-29T15:59:04Z</time>
      </trkpt>
      <trkpt lat="43.03817" lon="0.86797">
        <ele>569.46002197</ele>
        <time>2020-10-29T15:59:05Z</time>
      </trkpt>
      <trkpt lat="43.03818" lon="0.86774">
        <ele>567.26000977</ele>
        <time>2020-10-29T15:59:07Z</time>
      </trkpt>
      <trkpt lat="43.03823" lon="0.86733">
        <ele>564.5</ele>
        <time>2020-10-29T15:59:10Z</time>
      </trkpt>
      <trkpt lat="43.03825" lon="0.86725">
        <ele>563.73999023</ele>
        <time>2020-10-29T15:59:11Z</time>
      </trkpt>
      <trkpt lat="43.03822" lon="0.86709">
        <ele>559.72998047</ele>
        <time>2020-10-29T15:59:13Z</time>
      </trkpt>
      <trkpt lat="43.03819" lon="0.86707">
        <ele>558.30999756</ele>
        <time>2020-10-29T15:59:14Z</time>
      </trkpt>
      <trkpt lat="43.03816" lon="0.86702">
        <ele>558.09002686</ele>
        <time>2020-10-29T15:59:16Z</time>
      </trkpt>
      <trkpt lat="43.03813" lon="0.86693">
        <ele>556.90002441</ele>
        <time>2020-10-29T15:59:17Z</time>
      </trkpt>
      <trkpt lat="43.03814" lon="0.86688">
        <ele>555.73999023</ele>
        <time>2020-10-29T15:59:18Z</time>
      </trkpt>
      <trkpt lat="43.03817" lon="0.86683">
        <ele>555.89001465</ele>
        <time>2020-10-29T15:59:20Z</time>
      </trkpt>
      <trkpt lat="43.03819" lon="0.86675">
        <ele>554.22998047</ele>
        <time>2020-10-29T15:59:21Z</time>
      </trkpt>
      <trkpt lat="43.03826" lon="0.86662">
        <ele>550.53997803</ele>
        <time>2020-10-29T15:59:23Z</time>
      </trkpt>
      <trkpt lat="43.03835" lon="0.86652">
        <ele>548.5</ele>
        <time>2020-10-29T15:59:25Z</time>
      </trkpt>
      <trkpt lat="43.03846" lon="0.86643">
        <ele>544.88000488</ele>
        <time>2020-10-29T15:59:27Z</time>
      </trkpt>
      <trkpt lat="43.03859" lon="0.86633">
        <ele>541.21002197</ele>
        <time>2020-10-29T15:59:29Z</time>
      </trkpt>
      <trkpt lat="43.03868" lon="0.86628">
        <ele>547.01000977</ele>
        <time>2020-10-29T15:59:30Z</time>
      </trkpt>
      <trkpt lat="43.03881" lon="0.86612">
        <ele>541.97998047</ele>
        <time>2020-10-29T15:59:32Z</time>
      </trkpt>
      <trkpt lat="43.03888" lon="0.86602">
        <ele>538.84002686</ele>
        <time>2020-10-29T15:59:34Z</time>
      </trkpt>
      <trkpt lat="43.03888" lon="0.866">
        <ele>537.75</ele>
        <time>2020-10-29T15:59:36Z</time>
      </trkpt>
      <trkpt lat="43.03886" lon="0.86588">
        <ele>536.53997803</ele>
        <time>2020-10-29T15:59:43Z</time>
      </trkpt>
      <trkpt lat="43.03885" lon="0.86583">
        <ele>535.57000732</ele>
        <time>2020-10-29T15:59:45Z</time>
      </trkpt>
      <trkpt lat="43.03883" lon="0.86579">
        <ele>533.53997803</ele>
        <time>2020-10-29T15:59:46Z</time>
      </trkpt>
      <trkpt lat="43.03879" lon="0.86576">
        <ele>532.14001465</ele>
        <time>2020-10-29T15:59:48Z</time>
      </trkpt>
      <trkpt lat="43.03875" lon="0.86572">
        <ele>531.19000244</ele>
        <time>2020-10-29T15:59:49Z</time>
      </trkpt>
      <trkpt lat="43.03858" lon="0.8656">
        <ele>528.75</ele>
        <time>2020-10-29T15:59:51Z</time>
      </trkpt>
      <trkpt lat="43.0385" lon="0.86556">
        <ele>527.9699707</ele>
        <time>2020-10-29T15:59:53Z</time>
      </trkpt>
      <trkpt lat="43.03847" lon="0.8655">
        <ele>522.65002441</ele>
        <time>2020-10-29T15:59:54Z</time>
      </trkpt>
      <trkpt lat="43.03844" lon="0.86547">
        <ele>521.29998779</ele>
        <time>2020-10-29T15:59:56Z</time>
      </trkpt>
      <trkpt lat="43.03842" lon="0.86545">
        <ele>519.11999512</ele>
        <time>2020-10-29T15:59:57Z</time>
      </trkpt>
      <trkpt lat="43.0384" lon="0.86543">
        <ele>517.05999756</ele>
        <time>2020-10-29T15:59:58Z</time>
      </trkpt>
      <trkpt lat="43.03836" lon="0.8654">
        <ele>522.79998779</ele>
        <time>2020-10-29T15:59:59Z</time>
      </trkpt>
      <trkpt lat="43.03835" lon="0.86539">
        <ele>518.29998779</ele>
        <time>2020-10-29T16:00:01Z</time>
      </trkpt>
      <trkpt lat="43.03833" lon="0.86538">
        <ele>519.44000244</ele>
        <time>2020-10-29T16:00:02Z</time>
      </trkpt>
      <trkpt lat="43.03831" lon="0.86537">
        <ele>519.44000244</ele>
        <time>2020-10-29T16:00:03Z</time>
      </trkpt>
      <trkpt lat="43.03829" lon="0.86536">
        <ele>519.44000244</ele>
        <time>2020-10-29T16:00:05Z</time>
      </trkpt>
      <trkpt lat="43.03806" lon="0.86534">
        <ele>511.55999756</ele>
        <time>2020-10-29T16:00:08Z</time>
      </trkpt>
      <trkpt lat="43.03776" lon="0.86536">
        <ele>506.92001343</ele>
        <time>2020-10-29T16:00:12Z</time>
      </trkpt>
      <trkpt lat="43.03746" lon="0.86529">
        <ele>501.19000244</ele>
        <time>2020-10-29T16:00:15Z</time>
      </trkpt>
      <trkpt lat="43.0373" lon="0.86525">
        <ele>500.57998657</ele>
        <time>2020-10-29T16:00:16Z</time>
      </trkpt>
      <trkpt lat="43.03706" lon="0.86515">
        <ele>499.51998901</ele>
        <time>2020-10-29T16:00:18Z</time>
      </trkpt>
      <trkpt lat="43.03684" lon="0.8651">
        <ele>498.51000977</ele>
        <time>2020-10-29T16:00:19Z</time>
      </trkpt>
      <trkpt lat="43.03664" lon="0.86498">
        <ele>498.89001465</ele>
        <time>2020-10-29T16:00:21Z</time>
      </trkpt>
      <trkpt lat="43.03654" lon="0.86492">
        <ele>498.47000122</ele>
        <time>2020-10-29T16:00:22Z</time>
      </trkpt>
      <trkpt lat="43.03652" lon="0.86478">
        <ele>498.42001343</ele>
        <time>2020-10-29T16:00:24Z</time>
      </trkpt>
      <trkpt lat="43.03654" lon="0.86471">
        <ele>498.54998779</ele>
        <time>2020-10-29T16:00:25Z</time>
      </trkpt>
      <trkpt lat="43.03658" lon="0.86468">
        <ele>498.26998901</ele>
        <time>2020-10-29T16:00:26Z</time>
      </trkpt>
      <trkpt lat="43.03662" lon="0.86466">
        <ele>498.1499939</ele>
        <time>2020-10-29T16:00:27Z</time>
      </trkpt>
      <trkpt lat="43.03668" lon="0.86463">
        <ele>497.89001465</ele>
        <time>2020-10-29T16:00:29Z</time>
      </trkpt>
      <trkpt lat="43.03674" lon="0.8645">
        <ele>498.48001099</ele>
        <time>2020-10-29T16:00:31Z</time>
      </trkpt>
      <trkpt lat="43.03682" lon="0.86442">
        <ele>499.22000122</ele>
        <time>2020-10-29T16:00:33Z</time>
      </trkpt>
      <trkpt lat="43.03694" lon="0.86435">
        <ele>500.45001221</ele>
        <time>2020-10-29T16:00:35Z</time>
      </trkpt>
      <trkpt lat="43.037" lon="0.86431">
        <ele>499.41000366</ele>
        <time>2020-10-29T16:00:36Z</time>
      </trkpt>
      <trkpt lat="43.03706" lon="0.86425">
        <ele>499.51000977</ele>
        <time>2020-10-29T16:00:37Z</time>
      </trkpt>
      <trkpt lat="43.03711" lon="0.86419">
        <ele>499.44000244</ele>
        <time>2020-10-29T16:00:38Z</time>
      </trkpt>
      <trkpt lat="43.03717" lon="0.86413">
        <ele>498.6000061</ele>
        <time>2020-10-29T16:00:39Z</time>
      </trkpt>
      <trkpt lat="43.0373" lon="0.86401">
        <ele>498.5</ele>
        <time>2020-10-29T16:00:41Z</time>
      </trkpt>
      <trkpt lat="43.03736" lon="0.86396">
        <ele>498.54000854</ele>
        <time>2020-10-29T16:00:42Z</time>
      </trkpt>
      <trkpt lat="43.03748" lon="0.86389">
        <ele>498.16000366</ele>
        <time>2020-10-29T16:00:44Z</time>
      </trkpt>
      <trkpt lat="43.0376" lon="0.86385">
        <ele>498.07000732</ele>
        <time>2020-10-29T16:00:46Z</time>
      </trkpt>
      <trkpt lat="43.03765" lon="0.86383">
        <ele>497.61999512</ele>
        <time>2020-10-29T16:00:47Z</time>
      </trkpt>
      <trkpt lat="43.03777" lon="0.86379">
        <ele>498.39001465</ele>
        <time>2020-10-29T16:00:49Z</time>
      </trkpt>
      <trkpt lat="43.0379" lon="0.86375">
        <ele>497.69000244</ele>
        <time>2020-10-29T16:00:51Z</time>
      </trkpt>
      <trkpt lat="43.03796" lon="0.86371">
        <ele>497.35998535</ele>
        <time>2020-10-29T16:00:52Z</time>
      </trkpt>
      <trkpt lat="43.0381" lon="0.86363">
        <ele>497.13000488</ele>
        <time>2020-10-29T16:00:54Z</time>
      </trkpt>
      <trkpt lat="43.03821" lon="0.86353">
        <ele>496.6000061</ele>
        <time>2020-10-29T16:00:56Z</time>
      </trkpt>
      <trkpt lat="43.03826" lon="0.86348">
        <ele>496.75</ele>
        <time>2020-10-29T16:00:57Z</time>
      </trkpt>
      <trkpt lat="43.03832" lon="0.86344">
        <ele>496.61999512</ele>
        <time>2020-10-29T16:00:58Z</time>
      </trkpt>
      <trkpt lat="43.03842" lon="0.86333">
        <ele>495.95999146</ele>
        <time>2020-10-29T16:01:00Z</time>
      </trkpt>
      <trkpt lat="43.0385" lon="0.86318">
        <ele>495.8500061</ele>
        <time>2020-10-29T16:01:02Z</time>
      </trkpt>
      <trkpt lat="43.03853" lon="0.8631">
        <ele>495.80999756</ele>
        <time>2020-10-29T16:01:03Z</time>
      </trkpt>
      <trkpt lat="43.03858" lon="0.86294">
        <ele>495.91000366</ele>
        <time>2020-10-29T16:01:05Z</time>
      </trkpt>
      <trkpt lat="43.0386" lon="0.86287">
        <ele>495.14001465</ele>
        <time>2020-10-29T16:01:06Z</time>
      </trkpt>
      <trkpt lat="43.03865" lon="0.86271">
        <ele>495.14001465</ele>
        <time>2020-10-29T16:01:08Z</time>
      </trkpt>
      <trkpt lat="43.03868" lon="0.86263">
        <ele>495.45999146</ele>
        <time>2020-10-29T16:01:09Z</time>
      </trkpt>
      <trkpt lat="43.03875" lon="0.86248">
        <ele>495.54000854</ele>
        <time>2020-10-29T16:01:11Z</time>
      </trkpt>
      <trkpt lat="43.03879" lon="0.86241">
        <ele>495.57000732</ele>
        <time>2020-10-29T16:01:12Z</time>
      </trkpt>
      <trkpt lat="43.03883" lon="0.86236">
        <ele>495.48999023</ele>
        <time>2020-10-29T16:01:13Z</time>
      </trkpt>
      <trkpt lat="43.03888" lon="0.86231">
        <ele>495.76998901</ele>
        <time>2020-10-29T16:01:14Z</time>
      </trkpt>
      <trkpt lat="43.03898" lon="0.86224">
        <ele>496.3500061</ele>
        <time>2020-10-29T16:01:16Z</time>
      </trkpt>
      <trkpt lat="43.03907" lon="0.86218">
        <ele>496.22000122</ele>
        <time>2020-10-29T16:01:18Z</time>
      </trkpt>
      <trkpt lat="43.03912" lon="0.86214">
        <ele>496.25</ele>
        <time>2020-10-29T16:01:19Z</time>
      </trkpt>
      <trkpt lat="43.03917" lon="0.8621">
        <ele>496.3999939</ele>
        <time>2020-10-29T16:01:20Z</time>
      </trkpt>
      <trkpt lat="43.03922" lon="0.86206">
        <ele>496.45999146</ele>
        <time>2020-10-29T16:01:21Z</time>
      </trkpt>
      <trkpt lat="43.03932" lon="0.86196">
        <ele>495.5</ele>
        <time>2020-10-29T16:01:23Z</time>
      </trkpt>
      <trkpt lat="43.03941" lon="0.86182">
        <ele>495.07998657</ele>
        <time>2020-10-29T16:01:25Z</time>
      </trkpt>
      <trkpt lat="43.03946" lon="0.86175">
        <ele>494.85998535</ele>
        <time>2020-10-29T16:01:26Z</time>
      </trkpt>
      <trkpt lat="43.0395" lon="0.86167">
        <ele>494.66000366</ele>
        <time>2020-10-29T16:01:27Z</time>
      </trkpt>
      <trkpt lat="43.03958" lon="0.86152">
        <ele>494.23001099</ele>
        <time>2020-10-29T16:01:29Z</time>
      </trkpt>
      <trkpt lat="43.03965" lon="0.86138">
        <ele>494.20999146</ele>
        <time>2020-10-29T16:01:31Z</time>
      </trkpt>
      <trkpt lat="43.03972" lon="0.86124">
        <ele>494.20999146</ele>
        <time>2020-10-29T16:01:33Z</time>
      </trkpt>
      <trkpt lat="43.03979" lon="0.86109">
        <ele>494.20999146</ele>
        <time>2020-10-29T16:01:35Z</time>
      </trkpt>
      <trkpt lat="43.03987" lon="0.86095">
        <ele>494.1000061</ele>
        <time>2020-10-29T16:01:37Z</time>
      </trkpt>
      <trkpt lat="43.03994" lon="0.8608">
        <ele>494.20001221</ele>
        <time>2020-10-29T16:01:39Z</time>
      </trkpt>
      <trkpt lat="43.04001" lon="0.86066">
        <ele>493.16000366</ele>
        <time>2020-10-29T16:01:41Z</time>
      </trkpt>
      <trkpt lat="43.04008" lon="0.86053">
        <ele>492.94000244</ele>
        <time>2020-10-29T16:01:43Z</time>
      </trkpt>
      <trkpt lat="43.04011" lon="0.86047">
        <ele>492.92001343</ele>
        <time>2020-10-29T16:01:44Z</time>
      </trkpt>
      <trkpt lat="43.04018" lon="0.86036">
        <ele>492.51000977</ele>
        <time>2020-10-29T16:01:46Z</time>
      </trkpt>
      <trkpt lat="43.04025" lon="0.86026">
        <ele>491.51000977</ele>
        <time>2020-10-29T16:01:48Z</time>
      </trkpt>
      <trkpt lat="43.04029" lon="0.86021">
        <ele>491.58999634</ele>
        <time>2020-10-29T16:01:49Z</time>
      </trkpt>
      <trkpt lat="43.04031" lon="0.86014">
        <ele>491.98001099</ele>
        <time>2020-10-29T16:01:50Z</time>
      </trkpt>
      <trkpt lat="43.04035" lon="0.86001">
        <ele>491.66000366</ele>
        <time>2020-10-29T16:01:52Z</time>
      </trkpt>
      <trkpt lat="43.04039" lon="0.85984">
        <ele>491.02999878</ele>
        <time>2020-10-29T16:01:54Z</time>
      </trkpt>
      <trkpt lat="43.04043" lon="0.85966">
        <ele>489.22000122</ele>
        <time>2020-10-29T16:01:56Z</time>
      </trkpt>
      <trkpt lat="43.04045" lon="0.85957">
        <ele>488.85998535</ele>
        <time>2020-10-29T16:01:57Z</time>
      </trkpt>
      <trkpt lat="43.04048" lon="0.85948">
        <ele>487.41000366</ele>
        <time>2020-10-29T16:01:58Z</time>
      </trkpt>
      <trkpt lat="43.04053" lon="0.85928">
        <ele>486.33999634</ele>
        <time>2020-10-29T16:02:00Z</time>
      </trkpt>
      <trkpt lat="43.04055" lon="0.85916">
        <ele>485.1000061</ele>
        <time>2020-10-29T16:02:01Z</time>
      </trkpt>
      <trkpt lat="43.04057" lon="0.85893">
        <ele>485.3500061</ele>
        <time>2020-10-29T16:02:03Z</time>
      </trkpt>
      <trkpt lat="43.04055" lon="0.8587">
        <ele>483.70999146</ele>
        <time>2020-10-29T16:02:05Z</time>
      </trkpt>
      <trkpt lat="43.04051" lon="0.85847">
        <ele>483.79000854</ele>
        <time>2020-10-29T16:02:07Z</time>
      </trkpt>
      <trkpt lat="43.0405" lon="0.85826">
        <ele>483.8999939</ele>
        <time>2020-10-29T16:02:09Z</time>
      </trkpt>
      <trkpt lat="43.04054" lon="0.85818">
        <ele>484.11999512</ele>
        <time>2020-10-29T16:02:10Z</time>
      </trkpt>
      <trkpt lat="43.04063" lon="0.85801">
        <ele>484.13000488</ele>
        <time>2020-10-29T16:02:12Z</time>
      </trkpt>
      <trkpt lat="43.04074" lon="0.85784">
        <ele>483.85998535</ele>
        <time>2020-10-29T16:02:14Z</time>
      </trkpt>
      <trkpt lat="43.04086" lon="0.85772">
        <ele>483.67001343</ele>
        <time>2020-10-29T16:02:16Z</time>
      </trkpt>
      <trkpt lat="43.04091" lon="0.85767">
        <ele>483.80999756</ele>
        <time>2020-10-29T16:02:17Z</time>
      </trkpt>
      <trkpt lat="43.04096" lon="0.85762">
        <ele>484.29000854</ele>
        <time>2020-10-29T16:02:18Z</time>
      </trkpt>
      <trkpt lat="43.04103" lon="0.85755">
        <ele>484.75</ele>
        <time>2020-10-29T16:02:20Z</time>
      </trkpt>
      <trkpt lat="43.04109" lon="0.85749">
        <ele>484.55999756</ele>
        <time>2020-10-29T16:02:22Z</time>
      </trkpt>
      <trkpt lat="43.04117" lon="0.85742">
        <ele>485.54998779</ele>
        <time>2020-10-29T16:02:24Z</time>
      </trkpt>
      <trkpt lat="43.04126" lon="0.85733">
        <ele>485.32998657</ele>
        <time>2020-10-29T16:02:26Z</time>
      </trkpt>
      <trkpt lat="43.04131" lon="0.85729">
        <ele>485.38000488</ele>
        <time>2020-10-29T16:02:27Z</time>
      </trkpt>
      <trkpt lat="43.0414" lon="0.8572">
        <ele>487.3999939</ele>
        <time>2020-10-29T16:02:29Z</time>
      </trkpt>
      <trkpt lat="43.04146" lon="0.85715">
        <ele>487.95001221</ele>
        <time>2020-10-29T16:02:30Z</time>
      </trkpt>
      <trkpt lat="43.04151" lon="0.85713">
        <ele>488.48001099</ele>
        <time>2020-10-29T16:02:32Z</time>
      </trkpt>
      <trkpt lat="43.04156" lon="0.85718">
        <ele>488.3500061</ele>
        <time>2020-10-29T16:02:34Z</time>
      </trkpt>
      <trkpt lat="43.04159" lon="0.85723">
        <ele>488.3500061</ele>
        <time>2020-10-29T16:02:35Z</time>
      </trkpt>
      <trkpt lat="43.0417" lon="0.85735">
        <ele>487.98001099</ele>
        <time>2020-10-29T16:02:37Z</time>
      </trkpt>
      <trkpt lat="43.04175" lon="0.8574">
        <ele>488.14001465</ele>
        <time>2020-10-29T16:02:38Z</time>
      </trkpt>
      <trkpt lat="43.04179" lon="0.85745">
        <ele>488.29000854</ele>
        <time>2020-10-29T16:02:39Z</time>
      </trkpt>
      <trkpt lat="43.04188" lon="0.85756">
        <ele>488.48999023</ele>
        <time>2020-10-29T16:02:41Z</time>
      </trkpt>
      <trkpt lat="43.04193" lon="0.85761">
        <ele>488.41000366</ele>
        <time>2020-10-29T16:02:42Z</time>
      </trkpt>
      <trkpt lat="43.04197" lon="0.85766">
        <ele>488.6000061</ele>
        <time>2020-10-29T16:02:43Z</time>
      </trkpt>
      <trkpt lat="43.04205" lon="0.85776">
        <ele>489.16000366</ele>
        <time>2020-10-29T16:02:45Z</time>
      </trkpt>
      <trkpt lat="43.04213" lon="0.85787">
        <ele>489.26998901</ele>
        <time>2020-10-29T16:02:47Z</time>
      </trkpt>
      <trkpt lat="43.04219" lon="0.85801">
        <ele>489.41000366</ele>
        <time>2020-10-29T16:02:49Z</time>
      </trkpt>
      <trkpt lat="43.04222" lon="0.85808">
        <ele>489.52999878</ele>
        <time>2020-10-29T16:02:50Z</time>
      </trkpt>
      <trkpt lat="43.04227" lon="0.85822">
        <ele>489.91000366</ele>
        <time>2020-10-29T16:02:52Z</time>
      </trkpt>
      <trkpt lat="43.04232" lon="0.85836">
        <ele>488.10998535</ele>
        <time>2020-10-29T16:02:54Z</time>
      </trkpt>
      <trkpt lat="43.04235" lon="0.85843">
        <ele>488.26000977</ele>
        <time>2020-10-29T16:02:55Z</time>
      </trkpt>
      <trkpt lat="43.04238" lon="0.85851">
        <ele>488.17999268</ele>
        <time>2020-10-29T16:02:56Z</time>
      </trkpt>
      <trkpt lat="43.04242" lon="0.85859">
        <ele>488.54000854</ele>
        <time>2020-10-29T16:02:57Z</time>
      </trkpt>
      <trkpt lat="43.0425" lon="0.85872">
        <ele>488.57000732</ele>
        <time>2020-10-29T16:02:59Z</time>
      </trkpt>
      <trkpt lat="43.04258" lon="0.85885">
        <ele>488.51000977</ele>
        <time>2020-10-29T16:03:01Z</time>
      </trkpt>
      <trkpt lat="43.04266" lon="0.85898">
        <ele>488.60998535</ele>
        <time>2020-10-29T16:03:03Z</time>
      </trkpt>
      <trkpt lat="43.04271" lon="0.85912">
        <ele>488.66000366</ele>
        <time>2020-10-29T16:03:05Z</time>
      </trkpt>
      <trkpt lat="43.04274" lon="0.85929">
        <ele>489.27999878</ele>
        <time>2020-10-29T16:03:07Z</time>
      </trkpt>
      <trkpt lat="43.04274" lon="0.85947">
        <ele>488.73001099</ele>
        <time>2020-10-29T16:03:09Z</time>
      </trkpt>
      <trkpt lat="43.04273" lon="0.85956">
        <ele>488.51998901</ele>
        <time>2020-10-29T16:03:10Z</time>
      </trkpt>
      <trkpt lat="43.04273" lon="0.85965">
        <ele>488.16000366</ele>
        <time>2020-10-29T16:03:11Z</time>
      </trkpt>
      <trkpt lat="43.04276" lon="0.85982">
        <ele>487.57000732</ele>
        <time>2020-10-29T16:03:13Z</time>
      </trkpt>
      <trkpt lat="43.0428" lon="0.8599">
        <ele>487.29998779</ele>
        <time>2020-10-29T16:03:14Z</time>
      </trkpt>
      <trkpt lat="43.04285" lon="0.85997">
        <ele>487.14001465</ele>
        <time>2020-10-29T16:03:15Z</time>
      </trkpt>
      <trkpt lat="43.0429" lon="0.86002">
        <ele>486.8999939</ele>
        <time>2020-10-29T16:03:16Z</time>
      </trkpt>
      <trkpt lat="43.04296" lon="0.86007">
        <ele>486.69000244</ele>
        <time>2020-10-29T16:03:17Z</time>
      </trkpt>
      <trkpt lat="43.04307" lon="0.86016">
        <ele>486.30999756</ele>
        <time>2020-10-29T16:03:19Z</time>
      </trkpt>
      <trkpt lat="43.04313" lon="0.8602">
        <ele>487.1499939</ele>
        <time>2020-10-29T16:03:20Z</time>
      </trkpt>
      <trkpt lat="43.0432" lon="0.86025">
        <ele>486.95001221</ele>
        <time>2020-10-29T16:03:21Z</time>
      </trkpt>
      <trkpt lat="43.04331" lon="0.86034">
        <ele>486.60998535</ele>
        <time>2020-10-29T16:03:23Z</time>
      </trkpt>
      <trkpt lat="43.04341" lon="0.86044">
        <ele>486.23999023</ele>
        <time>2020-10-29T16:03:25Z</time>
      </trkpt>
      <trkpt lat="43.04351" lon="0.86053">
        <ele>486.26000977</ele>
        <time>2020-10-29T16:03:27Z</time>
      </trkpt>
      <trkpt lat="43.04356" lon="0.86058">
        <ele>486.33999634</ele>
        <time>2020-10-29T16:03:28Z</time>
      </trkpt>
      <trkpt lat="43.04365" lon="0.86069">
        <ele>486.17999268</ele>
        <time>2020-10-29T16:03:30Z</time>
      </trkpt>
      <trkpt lat="43.04373" lon="0.86079">
        <ele>484.48999023</ele>
        <time>2020-10-29T16:03:32Z</time>
      </trkpt>
      <trkpt lat="43.04383" lon="0.86085">
        <ele>485.07998657</ele>
        <time>2020-10-29T16:03:34Z</time>
      </trkpt>
      <trkpt lat="43.04391" lon="0.86089">
        <ele>485.3999939</ele>
        <time>2020-10-29T16:03:36Z</time>
      </trkpt>
      <trkpt lat="43.04396" lon="0.86089">
        <ele>485.55999756</ele>
        <time>2020-10-29T16:03:37Z</time>
      </trkpt>
      <trkpt lat="43.04409" lon="0.86088">
        <ele>484.8500061</ele>
        <time>2020-10-29T16:03:39Z</time>
      </trkpt>
      <trkpt lat="43.04416" lon="0.86086">
        <ele>483.95001221</ele>
        <time>2020-10-29T16:03:40Z</time>
      </trkpt>
      <trkpt lat="43.04424" lon="0.86085">
        <ele>483.26000977</ele>
        <time>2020-10-29T16:03:41Z</time>
      </trkpt>
      <trkpt lat="43.04441" lon="0.86085">
        <ele>482.70999146</ele>
        <time>2020-10-29T16:03:43Z</time>
      </trkpt>
      <trkpt lat="43.04456" lon="0.86093">
        <ele>482.54000854</ele>
        <time>2020-10-29T16:03:45Z</time>
      </trkpt>
      <trkpt lat="43.04468" lon="0.86107">
        <ele>482.23001099</ele>
        <time>2020-10-29T16:03:47Z</time>
      </trkpt>
      <trkpt lat="43.04478" lon="0.8612">
        <ele>482.17001343</ele>
        <time>2020-10-29T16:03:49Z</time>
      </trkpt>
      <trkpt lat="43.04483" lon="0.86125">
        <ele>482.29000854</ele>
        <time>2020-10-29T16:03:50Z</time>
      </trkpt>
      <trkpt lat="43.04489" lon="0.8613">
        <ele>482.70999146</ele>
        <time>2020-10-29T16:03:51Z</time>
      </trkpt>
      <trkpt lat="43.04501" lon="0.86137">
        <ele>482.45001221</ele>
        <time>2020-10-29T16:03:53Z</time>
      </trkpt>
      <trkpt lat="43.04513" lon="0.86143">
        <ele>482.29000854</ele>
        <time>2020-10-29T16:03:55Z</time>
      </trkpt>
      <trkpt lat="43.0452" lon="0.86146">
        <ele>481.98999023</ele>
        <time>2020-10-29T16:03:56Z</time>
      </trkpt>
      <trkpt lat="43.04526" lon="0.86149">
        <ele>481.80999756</ele>
        <time>2020-10-29T16:03:57Z</time>
      </trkpt>
      <trkpt lat="43.04532" lon="0.86152">
        <ele>481.69000244</ele>
        <time>2020-10-29T16:03:58Z</time>
      </trkpt>
      <trkpt lat="43.04545" lon="0.86158">
        <ele>481.45999146</ele>
        <time>2020-10-29T16:04:00Z</time>
      </trkpt>
      <trkpt lat="43.04551" lon="0.86161">
        <ele>481.45001221</ele>
        <time>2020-10-29T16:04:01Z</time>
      </trkpt>
      <trkpt lat="43.04563" lon="0.86167">
        <ele>481.01998901</ele>
        <time>2020-10-29T16:04:03Z</time>
      </trkpt>
      <trkpt lat="43.04575" lon="0.86168">
        <ele>480.77999878</ele>
        <time>2020-10-29T16:04:05Z</time>
      </trkpt>
      <trkpt lat="43.04586" lon="0.86172">
        <ele>480.17999268</ele>
        <time>2020-10-29T16:04:07Z</time>
      </trkpt>
      <trkpt lat="43.04591" lon="0.86181">
        <ele>480</ele>
        <time>2020-10-29T16:04:08Z</time>
      </trkpt>
      <trkpt lat="43.04595" lon="0.86191">
        <ele>479.70999146</ele>
        <time>2020-10-29T16:04:09Z</time>
      </trkpt>
      <trkpt lat="43.04598" lon="0.86201">
        <ele>479.27999878</ele>
        <time>2020-10-29T16:04:10Z</time>
      </trkpt>
      <trkpt lat="43.04604" lon="0.86221">
        <ele>478.69000244</ele>
        <time>2020-10-29T16:04:12Z</time>
      </trkpt>
      <trkpt lat="43.04611" lon="0.86241">
        <ele>477.73001099</ele>
        <time>2020-10-29T16:04:14Z</time>
      </trkpt>
      <trkpt lat="43.04617" lon="0.86262">
        <ele>476.73999023</ele>
        <time>2020-10-29T16:04:16Z</time>
      </trkpt>
      <trkpt lat="43.0462" lon="0.86273">
        <ele>476.3500061</ele>
        <time>2020-10-29T16:04:17Z</time>
      </trkpt>
      <trkpt lat="43.04627" lon="0.86293">
        <ele>475.30999756</ele>
        <time>2020-10-29T16:04:19Z</time>
      </trkpt>
      <trkpt lat="43.0463" lon="0.86304">
        <ele>475.07998657</ele>
        <time>2020-10-29T16:04:20Z</time>
      </trkpt>
      <trkpt lat="43.04634" lon="0.86314">
        <ele>475.1499939</ele>
        <time>2020-10-29T16:04:21Z</time>
      </trkpt>
      <trkpt lat="43.04643" lon="0.86335">
        <ele>474.70001221</ele>
        <time>2020-10-29T16:04:23Z</time>
      </trkpt>
      <trkpt lat="43.04647" lon="0.86345">
        <ele>473.98001099</ele>
        <time>2020-10-29T16:04:24Z</time>
      </trkpt>
      <trkpt lat="43.04651" lon="0.86355">
        <ele>473.52999878</ele>
        <time>2020-10-29T16:04:25Z</time>
      </trkpt>
      <trkpt lat="43.04656" lon="0.86365">
        <ele>472.70999146</ele>
        <time>2020-10-29T16:04:26Z</time>
      </trkpt>
      <trkpt lat="43.04664" lon="0.86385">
        <ele>472.48999023</ele>
        <time>2020-10-29T16:04:28Z</time>
      </trkpt>
      <trkpt lat="43.04669" lon="0.86396">
        <ele>471.45001221</ele>
        <time>2020-10-29T16:04:29Z</time>
      </trkpt>
      <trkpt lat="43.04674" lon="0.86407">
        <ele>471</ele>
        <time>2020-10-29T16:04:30Z</time>
      </trkpt>
      <trkpt lat="43.04679" lon="0.86417">
        <ele>470.55999756</ele>
        <time>2020-10-29T16:04:31Z</time>
      </trkpt>
      <trkpt lat="43.0469" lon="0.86437">
        <ele>470.10998535</ele>
        <time>2020-10-29T16:04:33Z</time>
      </trkpt>
      <trkpt lat="43.04701" lon="0.86456">
        <ele>469.67001343</ele>
        <time>2020-10-29T16:04:35Z</time>
      </trkpt>
      <trkpt lat="43.04707" lon="0.86464">
        <ele>469.45001221</ele>
        <time>2020-10-29T16:04:36Z</time>
      </trkpt>
      <trkpt lat="43.04713" lon="0.86472">
        <ele>469.32998657</ele>
        <time>2020-10-29T16:04:37Z</time>
      </trkpt>
      <trkpt lat="43.04725" lon="0.86486">
        <ele>468.98999023</ele>
        <time>2020-10-29T16:04:39Z</time>
      </trkpt>
      <trkpt lat="43.04731" lon="0.86493">
        <ele>468.92001343</ele>
        <time>2020-10-29T16:04:40Z</time>
      </trkpt>
      <trkpt lat="43.04737" lon="0.86499">
        <ele>469.10998535</ele>
        <time>2020-10-29T16:04:41Z</time>
      </trkpt>
      <trkpt lat="43.04743" lon="0.86505">
        <ele>469.30999756</ele>
        <time>2020-10-29T16:04:42Z</time>
      </trkpt>
      <trkpt lat="43.04755" lon="0.86516">
        <ele>469.98001099</ele>
        <time>2020-10-29T16:04:44Z</time>
      </trkpt>
      <trkpt lat="43.0476" lon="0.86521">
        <ele>469.79998779</ele>
        <time>2020-10-29T16:04:45Z</time>
      </trkpt>
      <trkpt lat="43.04766" lon="0.86526">
        <ele>469.82998657</ele>
        <time>2020-10-29T16:04:46Z</time>
      </trkpt>
      <trkpt lat="43.04771" lon="0.8653">
        <ele>469.89001465</ele>
        <time>2020-10-29T16:04:47Z</time>
      </trkpt>
      <trkpt lat="43.04777" lon="0.86535">
        <ele>470.04000854</ele>
        <time>2020-10-29T16:04:48Z</time>
      </trkpt>
      <trkpt lat="43.04787" lon="0.86543">
        <ele>470.10998535</ele>
        <time>2020-10-29T16:04:50Z</time>
      </trkpt>
      <trkpt lat="43.04799" lon="0.86551">
        <ele>470.33999634</ele>
        <time>2020-10-29T16:04:52Z</time>
      </trkpt>
      <trkpt lat="43.04809" lon="0.8656">
        <ele>470.67001343</ele>
        <time>2020-10-29T16:04:54Z</time>
      </trkpt>
      <trkpt lat="43.04819" lon="0.86568">
        <ele>470.82000732</ele>
        <time>2020-10-29T16:04:56Z</time>
      </trkpt>
      <trkpt lat="43.04829" lon="0.86577">
        <ele>471.29000854</ele>
        <time>2020-10-29T16:04:58Z</time>
      </trkpt>
      <trkpt lat="43.04839" lon="0.86584">
        <ele>471.6499939</ele>
        <time>2020-10-29T16:05:00Z</time>
      </trkpt>
      <trkpt lat="43.04848" lon="0.86592">
        <ele>472.05999756</ele>
        <time>2020-10-29T16:05:02Z</time>
      </trkpt>
      <trkpt lat="43.04853" lon="0.86597">
        <ele>472.30999756</ele>
        <time>2020-10-29T16:05:03Z</time>
      </trkpt>
      <trkpt lat="43.04857" lon="0.86601">
        <ele>472.32000732</ele>
        <time>2020-10-29T16:05:04Z</time>
      </trkpt>
      <trkpt lat="43.04862" lon="0.86606">
        <ele>472.47000122</ele>
        <time>2020-10-29T16:05:05Z</time>
      </trkpt>
      <trkpt lat="43.0487" lon="0.86614">
        <ele>472.44000244</ele>
        <time>2020-10-29T16:05:07Z</time>
      </trkpt>
      <trkpt lat="43.04874" lon="0.86619">
        <ele>472.61999512</ele>
        <time>2020-10-29T16:05:08Z</time>
      </trkpt>
      <trkpt lat="43.04883" lon="0.86628">
        <ele>473</ele>
        <time>2020-10-29T16:05:10Z</time>
      </trkpt>
      <trkpt lat="43.0489" lon="0.86638">
        <ele>473.35998535</ele>
        <time>2020-10-29T16:05:12Z</time>
      </trkpt>
      <trkpt lat="43.04894" lon="0.86643">
        <ele>473.42999268</ele>
        <time>2020-10-29T16:05:13Z</time>
      </trkpt>
      <trkpt lat="43.04901" lon="0.86653">
        <ele>474.04998779</ele>
        <time>2020-10-29T16:05:15Z</time>
      </trkpt>
      <trkpt lat="43.04905" lon="0.86658">
        <ele>474.08999634</ele>
        <time>2020-10-29T16:05:16Z</time>
      </trkpt>
      <trkpt lat="43.04911" lon="0.86668">
        <ele>474.26000977</ele>
        <time>2020-10-29T16:05:18Z</time>
      </trkpt>
      <trkpt lat="43.04914" lon="0.86673">
        <ele>474.57000732</ele>
        <time>2020-10-29T16:05:19Z</time>
      </trkpt>
      <trkpt lat="43.0492" lon="0.86685">
        <ele>474.94000244</ele>
        <time>2020-10-29T16:05:21Z</time>
      </trkpt>
      <trkpt lat="43.04923" lon="0.86691">
        <ele>475.13000488</ele>
        <time>2020-10-29T16:05:22Z</time>
      </trkpt>
      <trkpt lat="43.04929" lon="0.86702">
        <ele>475.20999146</ele>
        <time>2020-10-29T16:05:24Z</time>
      </trkpt>
      <trkpt lat="43.04932" lon="0.86707">
        <ele>475.39001465</ele>
        <time>2020-10-29T16:05:25Z</time>
      </trkpt>
      <trkpt lat="43.04935" lon="0.86713">
        <ele>475.6499939</ele>
        <time>2020-10-29T16:05:26Z</time>
      </trkpt>
      <trkpt lat="43.0494" lon="0.86725">
        <ele>476.01998901</ele>
        <time>2020-10-29T16:05:28Z</time>
      </trkpt>
      <trkpt lat="43.04946" lon="0.86737">
        <ele>476.29000854</ele>
        <time>2020-10-29T16:05:30Z</time>
      </trkpt>
      <trkpt lat="43.04951" lon="0.86749">
        <ele>476.58999634</ele>
        <time>2020-10-29T16:05:32Z</time>
      </trkpt>
      <trkpt lat="43.04957" lon="0.86761">
        <ele>476.85998535</ele>
        <time>2020-10-29T16:05:34Z</time>
      </trkpt>
      <trkpt lat="43.04962" lon="0.86773">
        <ele>477.3500061</ele>
        <time>2020-10-29T16:05:36Z</time>
      </trkpt>
      <trkpt lat="43.04965" lon="0.86779">
        <ele>477.48999023</ele>
        <time>2020-10-29T16:05:37Z</time>
      </trkpt>
      <trkpt lat="43.04968" lon="0.86786">
        <ele>477.55999756</ele>
        <time>2020-10-29T16:05:38Z</time>
      </trkpt>
      <trkpt lat="43.04974" lon="0.86797">
        <ele>477.97000122</ele>
        <time>2020-10-29T16:05:40Z</time>
      </trkpt>
      <trkpt lat="43.04979" lon="0.86809">
        <ele>478.32998657</ele>
        <time>2020-10-29T16:05:42Z</time>
      </trkpt>
      <trkpt lat="43.04981" lon="0.86815">
        <ele>478.63000488</ele>
        <time>2020-10-29T16:05:43Z</time>
      </trkpt>
      <trkpt lat="43.04984" lon="0.86821">
        <ele>478.73001099</ele>
        <time>2020-10-29T16:05:44Z</time>
      </trkpt>
      <trkpt lat="43.04986" lon="0.86826">
        <ele>478.95001221</ele>
        <time>2020-10-29T16:05:45Z</time>
      </trkpt>
      <trkpt lat="43.0499" lon="0.86837">
        <ele>479.42001343</ele>
        <time>2020-10-29T16:05:47Z</time>
      </trkpt>
      <trkpt lat="43.04992" lon="0.86843">
        <ele>479.41000366</ele>
        <time>2020-10-29T16:05:48Z</time>
      </trkpt>
      <trkpt lat="43.04994" lon="0.86849">
        <ele>479.51000977</ele>
        <time>2020-10-29T16:05:49Z</time>
      </trkpt>
      <trkpt lat="43.04997" lon="0.8686">
        <ele>479.76998901</ele>
        <time>2020-10-29T16:05:51Z</time>
      </trkpt>
      <trkpt lat="43.04999" lon="0.86866">
        <ele>479.92001343</ele>
        <time>2020-10-29T16:05:52Z</time>
      </trkpt>
      <trkpt lat="43.05003" lon="0.86879">
        <ele>480.32000732</ele>
        <time>2020-10-29T16:05:54Z</time>
      </trkpt>
      <trkpt lat="43.05004" lon="0.86885">
        <ele>480.45001221</ele>
        <time>2020-10-29T16:05:55Z</time>
      </trkpt>
      <trkpt lat="43.05009" lon="0.86897">
        <ele>480.77999878</ele>
        <time>2020-10-29T16:05:57Z</time>
      </trkpt>
      <trkpt lat="43.05012" lon="0.86908">
        <ele>480.86999512</ele>
        <time>2020-10-29T16:05:59Z</time>
      </trkpt>
      <trkpt lat="43.05016" lon="0.8692">
        <ele>480.91000366</ele>
        <time>2020-10-29T16:06:01Z</time>
      </trkpt>
      <trkpt lat="43.05018" lon="0.86929">
        <ele>481.45999146</ele>
        <time>2020-10-29T16:06:03Z</time>
      </trkpt>
      <trkpt lat="43.05019" lon="0.86932">
        <ele>481.66000366</ele>
        <time>2020-10-29T16:06:04Z</time>
      </trkpt>
      <trkpt lat="43.05024" lon="0.86938">
        <ele>482.01998901</ele>
        <time>2020-10-29T16:06:06Z</time>
      </trkpt>
      <trkpt lat="43.0503" lon="0.86935">
        <ele>482.73999023</ele>
        <time>2020-10-29T16:06:08Z</time>
      </trkpt>
      <trkpt lat="43.05032" lon="0.86933">
        <ele>482.86999512</ele>
        <time>2020-10-29T16:06:09Z</time>
      </trkpt>
      <trkpt lat="43.05033" lon="0.86929">
        <ele>483.07998657</ele>
        <time>2020-10-29T16:06:10Z</time>
      </trkpt>
      <trkpt lat="43.05032" lon="0.86922">
        <ele>483.01998901</ele>
        <time>2020-10-29T16:06:11Z</time>
      </trkpt>
      <trkpt lat="43.05031" lon="0.86907">
        <ele>483.57998657</ele>
        <time>2020-10-29T16:06:13Z</time>
      </trkpt>
      <trkpt lat="43.05032" lon="0.86899">
        <ele>483.67001343</ele>
        <time>2020-10-29T16:06:14Z</time>
      </trkpt>
      <trkpt lat="43.05034" lon="0.86884">
        <ele>484.04000854</ele>
        <time>2020-10-29T16:06:16Z</time>
      </trkpt>
      <trkpt lat="43.05037" lon="0.86869">
        <ele>484.44000244</ele>
        <time>2020-10-29T16:06:18Z</time>
      </trkpt>
      <trkpt lat="43.05041" lon="0.86854">
        <ele>484.76998901</ele>
        <time>2020-10-29T16:06:20Z</time>
      </trkpt>
      <trkpt lat="43.05043" lon="0.86847">
        <ele>485.02999878</ele>
        <time>2020-10-29T16:06:21Z</time>
      </trkpt>
      <trkpt lat="43.05045" lon="0.8684">
        <ele>485.17999268</ele>
        <time>2020-10-29T16:06:22Z</time>
      </trkpt>
      <trkpt lat="43.05051" lon="0.86826">
        <ele>485.45001221</ele>
        <time>2020-10-29T16:06:24Z</time>
      </trkpt>
      <trkpt lat="43.05057" lon="0.86813">
        <ele>485.73999023</ele>
        <time>2020-10-29T16:06:26Z</time>
      </trkpt>
      <trkpt lat="43.05062" lon="0.868">
        <ele>485.83999634</ele>
        <time>2020-10-29T16:06:28Z</time>
      </trkpt>
      <trkpt lat="43.05064" lon="0.86793">
        <ele>485.94000244</ele>
        <time>2020-10-29T16:06:29Z</time>
      </trkpt>
      <trkpt lat="43.05066" lon="0.86785">
        <ele>486.20999146</ele>
        <time>2020-10-29T16:06:30Z</time>
      </trkpt>
      <trkpt lat="43.05068" lon="0.86778">
        <ele>486.41000366</ele>
        <time>2020-10-29T16:06:31Z</time>
      </trkpt>
      <trkpt lat="43.0507" lon="0.86765">
        <ele>486.83999634</ele>
        <time>2020-10-29T16:06:33Z</time>
      </trkpt>
      <trkpt lat="43.05072" lon="0.86759">
        <ele>487.04998779</ele>
        <time>2020-10-29T16:06:34Z</time>
      </trkpt>
      <trkpt lat="43.05073" lon="0.86751">
        <ele>487.27999878</ele>
        <time>2020-10-29T16:06:35Z</time>
      </trkpt>
      <trkpt lat="43.05076" lon="0.86735">
        <ele>487.64001465</ele>
        <time>2020-10-29T16:06:37Z</time>
      </trkpt>
      <trkpt lat="43.05078" lon="0.86727">
        <ele>487.76000977</ele>
        <time>2020-10-29T16:06:38Z</time>
      </trkpt>
      <trkpt lat="43.0508" lon="0.86711">
        <ele>487.92999268</ele>
        <time>2020-10-29T16:06:40Z</time>
      </trkpt>
      <trkpt lat="43.05082" lon="0.86704">
        <ele>487.92999268</ele>
        <time>2020-10-29T16:06:41Z</time>
      </trkpt>
      <trkpt lat="43.05084" lon="0.86688">
        <ele>488.29000854</ele>
        <time>2020-10-29T16:06:43Z</time>
      </trkpt>
      <trkpt lat="43.05085" lon="0.8668">
        <ele>488.41000366</ele>
        <time>2020-10-29T16:06:44Z</time>
      </trkpt>
      <trkpt lat="43.05086" lon="0.86672">
        <ele>488.47000122</ele>
        <time>2020-10-29T16:06:45Z</time>
      </trkpt>
      <trkpt lat="43.05088" lon="0.86665">
        <ele>488.63000488</ele>
        <time>2020-10-29T16:06:46Z</time>
      </trkpt>
      <trkpt lat="43.0509" lon="0.86649">
        <ele>488.85998535</ele>
        <time>2020-10-29T16:06:48Z</time>
      </trkpt>
      <trkpt lat="43.05092" lon="0.86642">
        <ele>488.92999268</ele>
        <time>2020-10-29T16:06:49Z</time>
      </trkpt>
      <trkpt lat="43.05095" lon="0.86626">
        <ele>489.10998535</ele>
        <time>2020-10-29T16:06:51Z</time>
      </trkpt>
      <trkpt lat="43.05098" lon="0.8661">
        <ele>489.26998901</ele>
        <time>2020-10-29T16:06:53Z</time>
      </trkpt>
      <trkpt lat="43.051" lon="0.86603">
        <ele>489.5</ele>
        <time>2020-10-29T16:06:54Z</time>
      </trkpt>
      <trkpt lat="43.05101" lon="0.86595">
        <ele>489.51998901</ele>
        <time>2020-10-29T16:06:55Z</time>
      </trkpt>
      <trkpt lat="43.05103" lon="0.86587">
        <ele>489.52999878</ele>
        <time>2020-10-29T16:06:56Z</time>
      </trkpt>
      <trkpt lat="43.05106" lon="0.86571">
        <ele>489.82000732</ele>
        <time>2020-10-29T16:06:58Z</time>
      </trkpt>
      <trkpt lat="43.0511" lon="0.86556">
        <ele>489.98999023</ele>
        <time>2020-10-29T16:07:00Z</time>
      </trkpt>
      <trkpt lat="43.05113" lon="0.8654">
        <ele>489.88000488</ele>
        <time>2020-10-29T16:07:02Z</time>
      </trkpt>
      <trkpt lat="43.05117" lon="0.86525">
        <ele>489.72000122</ele>
        <time>2020-10-29T16:07:04Z</time>
      </trkpt>
      <trkpt lat="43.05121" lon="0.86509">
        <ele>489.67999268</ele>
        <time>2020-10-29T16:07:06Z</time>
      </trkpt>
      <trkpt lat="43.05125" lon="0.86494">
        <ele>489.57998657</ele>
        <time>2020-10-29T16:07:08Z</time>
      </trkpt>
      <trkpt lat="43.05127" lon="0.86486">
        <ele>489.5</ele>
        <time>2020-10-29T16:07:09Z</time>
      </trkpt>
      <trkpt lat="43.05129" lon="0.86478">
        <ele>489.48999023</ele>
        <time>2020-10-29T16:07:10Z</time>
      </trkpt>
      <trkpt lat="43.05134" lon="0.86462">
        <ele>489.39001465</ele>
        <time>2020-10-29T16:07:12Z</time>
      </trkpt>
      <trkpt lat="43.05138" lon="0.86446">
        <ele>489.22000122</ele>
        <time>2020-10-29T16:07:14Z</time>
      </trkpt>
      <trkpt lat="43.0514" lon="0.86438">
        <ele>489.1000061</ele>
        <time>2020-10-29T16:07:15Z</time>
      </trkpt>
      <trkpt lat="43.05145" lon="0.86423">
        <ele>489.1000061</ele>
        <time>2020-10-29T16:07:17Z</time>
      </trkpt>
      <trkpt lat="43.05147" lon="0.86415">
        <ele>489.04000854</ele>
        <time>2020-10-29T16:07:18Z</time>
      </trkpt>
      <trkpt lat="43.05152" lon="0.86399">
        <ele>488.95001221</ele>
        <time>2020-10-29T16:07:20Z</time>
      </trkpt>
      <trkpt lat="43.05157" lon="0.86384">
        <ele>488.98999023</ele>
        <time>2020-10-29T16:07:22Z</time>
      </trkpt>
      <trkpt lat="43.05163" lon="0.86369">
        <ele>488.73001099</ele>
        <time>2020-10-29T16:07:24Z</time>
      </trkpt>
      <trkpt lat="43.05169" lon="0.86353">
        <ele>488.42001343</ele>
        <time>2020-10-29T16:07:26Z</time>
      </trkpt>
      <trkpt lat="43.05174" lon="0.86337">
        <ele>488.22000122</ele>
        <time>2020-10-29T16:07:28Z</time>
      </trkpt>
      <trkpt lat="43.05177" lon="0.86329">
        <ele>488.11999512</ele>
        <time>2020-10-29T16:07:29Z</time>
      </trkpt>
      <trkpt lat="43.05179" lon="0.86321">
        <ele>487.82998657</ele>
        <time>2020-10-29T16:07:30Z</time>
      </trkpt>
      <trkpt lat="43.05184" lon="0.86304">
        <ele>487.60998535</ele>
        <time>2020-10-29T16:07:32Z</time>
      </trkpt>
      <trkpt lat="43.05186" lon="0.86296">
        <ele>487.41000366</ele>
        <time>2020-10-29T16:07:33Z</time>
      </trkpt>
      <trkpt lat="43.05188" lon="0.86287">
        <ele>487.36999512</ele>
        <time>2020-10-29T16:07:34Z</time>
      </trkpt>
      <trkpt lat="43.05191" lon="0.86269">
        <ele>487.51998901</ele>
        <time>2020-10-29T16:07:36Z</time>
      </trkpt>
      <trkpt lat="43.05192" lon="0.86251">
        <ele>487.3500061</ele>
        <time>2020-10-29T16:07:38Z</time>
      </trkpt>
      <trkpt lat="43.05192" lon="0.86242">
        <ele>487.26000977</ele>
        <time>2020-10-29T16:07:39Z</time>
      </trkpt>
      <trkpt lat="43.05191" lon="0.86225">
        <ele>486.95999146</ele>
        <time>2020-10-29T16:07:41Z</time>
      </trkpt>
      <trkpt lat="43.05191" lon="0.86207">
        <ele>487.16000366</ele>
        <time>2020-10-29T16:07:43Z</time>
      </trkpt>
      <trkpt lat="43.05191" lon="0.8619">
        <ele>487.1499939</ele>
        <time>2020-10-29T16:07:45Z</time>
      </trkpt>
      <trkpt lat="43.05191" lon="0.86173">
        <ele>487.07000732</ele>
        <time>2020-10-29T16:07:47Z</time>
      </trkpt>
      <trkpt lat="43.05191" lon="0.86165">
        <ele>487</ele>
        <time>2020-10-29T16:07:48Z</time>
      </trkpt>
      <trkpt lat="43.05191" lon="0.86149">
        <ele>487.19000244</ele>
        <time>2020-10-29T16:07:50Z</time>
      </trkpt>
      <trkpt lat="43.05191" lon="0.86133">
        <ele>487.29998779</ele>
        <time>2020-10-29T16:07:52Z</time>
      </trkpt>
      <trkpt lat="43.05192" lon="0.86118">
        <ele>487.42999268</ele>
        <time>2020-10-29T16:07:54Z</time>
      </trkpt>
      <trkpt lat="43.05194" lon="0.86103">
        <ele>487.54998779</ele>
        <time>2020-10-29T16:07:56Z</time>
      </trkpt>
      <trkpt lat="43.05195" lon="0.86095">
        <ele>487.76998901</ele>
        <time>2020-10-29T16:07:57Z</time>
      </trkpt>
      <trkpt lat="43.05198" lon="0.86079">
        <ele>488.01998901</ele>
        <time>2020-10-29T16:07:59Z</time>
      </trkpt>
      <trkpt lat="43.052" lon="0.86064">
        <ele>488.27999878</ele>
        <time>2020-10-29T16:08:01Z</time>
      </trkpt>
      <trkpt lat="43.05202" lon="0.86048">
        <ele>488.51998901</ele>
        <time>2020-10-29T16:08:03Z</time>
      </trkpt>
      <trkpt lat="43.05202" lon="0.8604">
        <ele>488.63000488</ele>
        <time>2020-10-29T16:08:04Z</time>
      </trkpt>
      <trkpt lat="43.05203" lon="0.86024">
        <ele>488.70001221</ele>
        <time>2020-10-29T16:08:06Z</time>
      </trkpt>
      <trkpt lat="43.05202" lon="0.86015">
        <ele>488.72000122</ele>
        <time>2020-10-29T16:08:07Z</time>
      </trkpt>
      <trkpt lat="43.05201" lon="0.85999">
        <ele>488.77999878</ele>
        <time>2020-10-29T16:08:09Z</time>
      </trkpt>
      <trkpt lat="43.052" lon="0.8599">
        <ele>488.79000854</ele>
        <time>2020-10-29T16:08:10Z</time>
      </trkpt>
      <trkpt lat="43.05199" lon="0.85982">
        <ele>488.76998901</ele>
        <time>2020-10-29T16:08:11Z</time>
      </trkpt>
      <trkpt lat="43.05198" lon="0.85974">
        <ele>488.48001099</ele>
        <time>2020-10-29T16:08:12Z</time>
      </trkpt>
      <trkpt lat="43.05195" lon="0.85957">
        <ele>488.39001465</ele>
        <time>2020-10-29T16:08:14Z</time>
      </trkpt>
      <trkpt lat="43.05194" lon="0.85949">
        <ele>488.27999878</ele>
        <time>2020-10-29T16:08:15Z</time>
      </trkpt>
      <trkpt lat="43.05191" lon="0.85932">
        <ele>488.25</ele>
        <time>2020-10-29T16:08:17Z</time>
      </trkpt>
      <trkpt lat="43.05189" lon="0.85915">
        <ele>488.22000122</ele>
        <time>2020-10-29T16:08:19Z</time>
      </trkpt>
      <trkpt lat="43.05188" lon="0.85907">
        <ele>488.19000244</ele>
        <time>2020-10-29T16:08:20Z</time>
      </trkpt>
      <trkpt lat="43.05187" lon="0.85898">
        <ele>488.10998535</ele>
        <time>2020-10-29T16:08:21Z</time>
      </trkpt>
      <trkpt lat="43.05185" lon="0.8589">
        <ele>488.23999023</ele>
        <time>2020-10-29T16:08:22Z</time>
      </trkpt>
      <trkpt lat="43.05184" lon="0.85881">
        <ele>488.27999878</ele>
        <time>2020-10-29T16:08:23Z</time>
      </trkpt>
      <trkpt lat="43.05181" lon="0.85865">
        <ele>487.85998535</ele>
        <time>2020-10-29T16:08:25Z</time>
      </trkpt>
      <trkpt lat="43.05178" lon="0.85848">
        <ele>487.70001221</ele>
        <time>2020-10-29T16:08:27Z</time>
      </trkpt>
      <trkpt lat="43.05174" lon="0.85831">
        <ele>487.66000366</ele>
        <time>2020-10-29T16:08:29Z</time>
      </trkpt>
      <trkpt lat="43.05172" lon="0.85822">
        <ele>488.47000122</ele>
        <time>2020-10-29T16:08:30Z</time>
      </trkpt>
      <trkpt lat="43.05171" lon="0.85814">
        <ele>487.89001465</ele>
        <time>2020-10-29T16:08:31Z</time>
      </trkpt>
      <trkpt lat="43.05167" lon="0.85798">
        <ele>487.70999146</ele>
        <time>2020-10-29T16:08:33Z</time>
      </trkpt>
      <trkpt lat="43.05165" lon="0.85789">
        <ele>487.76998901</ele>
        <time>2020-10-29T16:08:34Z</time>
      </trkpt>
      <trkpt lat="43.05163" lon="0.85781">
        <ele>487.54000854</ele>
        <time>2020-10-29T16:08:35Z</time>
      </trkpt>
      <trkpt lat="43.05159" lon="0.85765">
        <ele>487.41000366</ele>
        <time>2020-10-29T16:08:37Z</time>
      </trkpt>
      <trkpt lat="43.05157" lon="0.85757">
        <ele>487.44000244</ele>
        <time>2020-10-29T16:08:38Z</time>
      </trkpt>
      <trkpt lat="43.05152" lon="0.85741">
        <ele>487.52999878</ele>
        <time>2020-10-29T16:08:40Z</time>
      </trkpt>
      <trkpt lat="43.0515" lon="0.85734">
        <ele>487.42999268</ele>
        <time>2020-10-29T16:08:41Z</time>
      </trkpt>
      <trkpt lat="43.05147" lon="0.85726">
        <ele>487.27999878</ele>
        <time>2020-10-29T16:08:42Z</time>
      </trkpt>
      <trkpt lat="43.05143" lon="0.85711">
        <ele>487.33999634</ele>
        <time>2020-10-29T16:08:44Z</time>
      </trkpt>
      <trkpt lat="43.05141" lon="0.85704">
        <ele>487.51998901</ele>
        <time>2020-10-29T16:08:45Z</time>
      </trkpt>
      <trkpt lat="43.05138" lon="0.85696">
        <ele>487.58999634</ele>
        <time>2020-10-29T16:08:46Z</time>
      </trkpt>
      <trkpt lat="43.05136" lon="0.85689">
        <ele>487.79000854</ele>
        <time>2020-10-29T16:08:47Z</time>
      </trkpt>
      <trkpt lat="43.05134" lon="0.85681">
        <ele>487.67999268</ele>
        <time>2020-10-29T16:08:48Z</time>
      </trkpt>
      <trkpt lat="43.0513" lon="0.85667">
        <ele>488.36999512</ele>
        <time>2020-10-29T16:08:50Z</time>
      </trkpt>
      <trkpt lat="43.05125" lon="0.85652">
        <ele>488.67001343</ele>
        <time>2020-10-29T16:08:52Z</time>
      </trkpt>
      <trkpt lat="43.05122" lon="0.85638">
        <ele>488.94000244</ele>
        <time>2020-10-29T16:08:54Z</time>
      </trkpt>
      <trkpt lat="43.05119" lon="0.85623">
        <ele>489.35998535</ele>
        <time>2020-10-29T16:08:56Z</time>
      </trkpt>
      <trkpt lat="43.05118" lon="0.85616">
        <ele>489.64001465</ele>
        <time>2020-10-29T16:08:57Z</time>
      </trkpt>
      <trkpt lat="43.05117" lon="0.85608">
        <ele>490.22000122</ele>
        <time>2020-10-29T16:08:58Z</time>
      </trkpt>
      <trkpt lat="43.05115" lon="0.85601">
        <ele>490.48999023</ele>
        <time>2020-10-29T16:08:59Z</time>
      </trkpt>
      <trkpt lat="43.05114" lon="0.85586">
        <ele>490.92999268</ele>
        <time>2020-10-29T16:09:01Z</time>
      </trkpt>
      <trkpt lat="43.05113" lon="0.85578">
        <ele>491.08999634</ele>
        <time>2020-10-29T16:09:02Z</time>
      </trkpt>
      <trkpt lat="43.05112" lon="0.8557">
        <ele>491.07000732</ele>
        <time>2020-10-29T16:09:03Z</time>
      </trkpt>
      <trkpt lat="43.0511" lon="0.85556">
        <ele>491.41000366</ele>
        <time>2020-10-29T16:09:05Z</time>
      </trkpt>
      <trkpt lat="43.05107" lon="0.85543">
        <ele>491.54000854</ele>
        <time>2020-10-29T16:09:07Z</time>
      </trkpt>
      <trkpt lat="43.05098" lon="0.85536">
        <ele>491.30999756</ele>
        <time>2020-10-29T16:09:09Z</time>
      </trkpt>
      <trkpt lat="43.05087" lon="0.85535">
        <ele>490.98001099</ele>
        <time>2020-10-29T16:09:11Z</time>
      </trkpt>
      <trkpt lat="43.0508" lon="0.85534">
        <ele>490.73001099</ele>
        <time>2020-10-29T16:09:12Z</time>
      </trkpt>
      <trkpt lat="43.05067" lon="0.85531">
        <ele>490.13000488</ele>
        <time>2020-10-29T16:09:14Z</time>
      </trkpt>
      <trkpt lat="43.05061" lon="0.8553">
        <ele>489.76000977</ele>
        <time>2020-10-29T16:09:15Z</time>
      </trkpt>
      <trkpt lat="43.05048" lon="0.85529">
        <ele>489.60998535</ele>
        <time>2020-10-29T16:09:17Z</time>
      </trkpt>
      <trkpt lat="43.05042" lon="0.85529">
        <ele>489.32998657</ele>
        <time>2020-10-29T16:09:18Z</time>
      </trkpt>
      <trkpt lat="43.05035" lon="0.85529">
        <ele>489.47000122</ele>
        <time>2020-10-29T16:09:19Z</time>
      </trkpt>
      <trkpt lat="43.05024" lon="0.85528">
        <ele>491</ele>
        <time>2020-10-29T16:09:21Z</time>
      </trkpt>
      <trkpt lat="43.05018" lon="0.85528">
        <ele>490.51000977</ele>
        <time>2020-10-29T16:09:22Z</time>
      </trkpt>
      <trkpt lat="43.05012" lon="0.85528">
        <ele>490.92999268</ele>
        <time>2020-10-29T16:09:23Z</time>
      </trkpt>
      <trkpt lat="43.05" lon="0.85526">
        <ele>491.16000366</ele>
        <time>2020-10-29T16:09:25Z</time>
      </trkpt>
      <trkpt lat="43.0499" lon="0.85525">
        <ele>491.05999756</ele>
        <time>2020-10-29T16:09:27Z</time>
      </trkpt>
      <trkpt lat="43.04984" lon="0.85524">
        <ele>491.29998779</ele>
        <time>2020-10-29T16:09:28Z</time>
      </trkpt>
      <trkpt lat="43.04973" lon="0.85523">
        <ele>491.17999268</ele>
        <time>2020-10-29T16:09:30Z</time>
      </trkpt>
      <trkpt lat="43.04961" lon="0.85522">
        <ele>491.17001343</ele>
        <time>2020-10-29T16:09:32Z</time>
      </trkpt>
      <trkpt lat="43.04955" lon="0.85522">
        <ele>490.94000244</ele>
        <time>2020-10-29T16:09:33Z</time>
      </trkpt>
      <trkpt lat="43.04942" lon="0.85523">
        <ele>490.6499939</ele>
        <time>2020-10-29T16:09:35Z</time>
      </trkpt>
      <trkpt lat="43.04935" lon="0.85524">
        <ele>490.20001221</ele>
        <time>2020-10-29T16:09:36Z</time>
      </trkpt>
      <trkpt lat="43.0492" lon="0.85525">
        <ele>489.52999878</ele>
        <time>2020-10-29T16:09:38Z</time>
      </trkpt>
      <trkpt lat="43.04906" lon="0.85526">
        <ele>488.83999634</ele>
        <time>2020-10-29T16:09:40Z</time>
      </trkpt>
      <trkpt lat="43.04898" lon="0.85526">
        <ele>488.52999878</ele>
        <time>2020-10-29T16:09:41Z</time>
      </trkpt>
      <trkpt lat="43.04891" lon="0.85526">
        <ele>488.38000488</ele>
        <time>2020-10-29T16:09:42Z</time>
      </trkpt>
      <trkpt lat="43.04876" lon="0.85528">
        <ele>487.8999939</ele>
        <time>2020-10-29T16:09:44Z</time>
      </trkpt>
      <trkpt lat="43.04861" lon="0.85526">
        <ele>487.54998779</ele>
        <time>2020-10-29T16:09:46Z</time>
      </trkpt>
      <trkpt lat="43.04854" lon="0.85524">
        <ele>487.32998657</ele>
        <time>2020-10-29T16:09:47Z</time>
      </trkpt>
      <trkpt lat="43.04839" lon="0.85519">
        <ele>486.72000122</ele>
        <time>2020-10-29T16:09:49Z</time>
      </trkpt>
      <trkpt lat="43.04832" lon="0.85517">
        <ele>486.5</ele>
        <time>2020-10-29T16:09:50Z</time>
      </trkpt>
      <trkpt lat="43.04817" lon="0.85511">
        <ele>485.98001099</ele>
        <time>2020-10-29T16:09:52Z</time>
      </trkpt>
      <trkpt lat="43.0481" lon="0.85508">
        <ele>485.83999634</ele>
        <time>2020-10-29T16:09:53Z</time>
      </trkpt>
      <trkpt lat="43.04795" lon="0.85504">
        <ele>485.32000732</ele>
        <time>2020-10-29T16:09:55Z</time>
      </trkpt>
      <trkpt lat="43.04788" lon="0.85501">
        <ele>485.26998901</ele>
        <time>2020-10-29T16:09:56Z</time>
      </trkpt>
      <trkpt lat="43.04774" lon="0.85495">
        <ele>485.29000854</ele>
        <time>2020-10-29T16:09:58Z</time>
      </trkpt>
      <trkpt lat="43.04761" lon="0.85487">
        <ele>485.01998901</ele>
        <time>2020-10-29T16:10:00Z</time>
      </trkpt>
      <trkpt lat="43.04748" lon="0.85479">
        <ele>484.73999023</ele>
        <time>2020-10-29T16:10:02Z</time>
      </trkpt>
      <trkpt lat="43.04741" lon="0.85476">
        <ele>484.67999268</ele>
        <time>2020-10-29T16:10:03Z</time>
      </trkpt>
      <trkpt lat="43.04735" lon="0.85472">
        <ele>484.89001465</ele>
        <time>2020-10-29T16:10:04Z</time>
      </trkpt>
      <trkpt lat="43.04722" lon="0.85465">
        <ele>484.66000366</ele>
        <time>2020-10-29T16:10:06Z</time>
      </trkpt>
      <trkpt lat="43.04716" lon="0.85462">
        <ele>484.39001465</ele>
        <time>2020-10-29T16:10:07Z</time>
      </trkpt>
      <trkpt lat="43.04704" lon="0.85451">
        <ele>484.29998779</ele>
        <time>2020-10-29T16:10:09Z</time>
      </trkpt>
      <trkpt lat="43.04695" lon="0.85437">
        <ele>484.5</ele>
        <time>2020-10-29T16:10:11Z</time>
      </trkpt>
      <trkpt lat="43.04686" lon="0.85422">
        <ele>484.41000366</ele>
        <time>2020-10-29T16:10:13Z</time>
      </trkpt>
      <trkpt lat="43.04682" lon="0.85415">
        <ele>484.51998901</ele>
        <time>2020-10-29T16:10:14Z</time>
      </trkpt>
      <trkpt lat="43.04677" lon="0.85408">
        <ele>484.51000977</ele>
        <time>2020-10-29T16:10:15Z</time>
      </trkpt>
      <trkpt lat="43.04666" lon="0.85397">
        <ele>484.20999146</ele>
        <time>2020-10-29T16:10:17Z</time>
      </trkpt>
      <trkpt lat="43.0466" lon="0.85392">
        <ele>484.02999878</ele>
        <time>2020-10-29T16:10:18Z</time>
      </trkpt>
      <trkpt lat="43.04651" lon="0.85383">
        <ele>484.16000366</ele>
        <time>2020-10-29T16:10:20Z</time>
      </trkpt>
      <trkpt lat="43.0465" lon="0.85373">
        <ele>483.91000366</ele>
        <time>2020-10-29T16:10:22Z</time>
      </trkpt>
      <trkpt lat="43.04655" lon="0.85362">
        <ele>484.20001221</ele>
        <time>2020-10-29T16:10:24Z</time>
      </trkpt>
      <trkpt lat="43.04658" lon="0.85356">
        <ele>484.45001221</ele>
        <time>2020-10-29T16:10:25Z</time>
      </trkpt>
      <trkpt lat="43.04662" lon="0.85342">
        <ele>484.73999023</ele>
        <time>2020-10-29T16:10:27Z</time>
      </trkpt>
      <trkpt lat="43.04666" lon="0.85329">
        <ele>485.35998535</ele>
        <time>2020-10-29T16:10:29Z</time>
      </trkpt>
      <trkpt lat="43.04671" lon="0.85317">
        <ele>486.22000122</ele>
        <time>2020-10-29T16:10:31Z</time>
      </trkpt>
      <trkpt lat="43.04674" lon="0.85312">
        <ele>486.45999146</ele>
        <time>2020-10-29T16:10:32Z</time>
      </trkpt>
      <trkpt lat="43.0468" lon="0.85303">
        <ele>487.17001343</ele>
        <time>2020-10-29T16:10:34Z</time>
      </trkpt>
      <trkpt lat="43.04684" lon="0.85299">
        <ele>487.42999268</ele>
        <time>2020-10-29T16:10:35Z</time>
      </trkpt>
      <trkpt lat="43.04688" lon="0.85295">
        <ele>487.82000732</ele>
        <time>2020-10-29T16:10:36Z</time>
      </trkpt>
      <trkpt lat="43.04696" lon="0.85288">
        <ele>488.79998779</ele>
        <time>2020-10-29T16:10:38Z</time>
      </trkpt>
      <trkpt lat="43.04699" lon="0.85286">
        <ele>489.04998779</ele>
        <time>2020-10-29T16:10:39Z</time>
      </trkpt>
      <trkpt lat="43.04706" lon="0.85279">
        <ele>489.83999634</ele>
        <time>2020-10-29T16:10:41Z</time>
      </trkpt>
      <trkpt lat="43.04709" lon="0.85276">
        <ele>490.19000244</ele>
        <time>2020-10-29T16:10:42Z</time>
      </trkpt>
      <trkpt lat="43.04713" lon="0.85273">
        <ele>490.5</ele>
        <time>2020-10-29T16:10:43Z</time>
      </trkpt>
      <trkpt lat="43.04716" lon="0.8527">
        <ele>490.69000244</ele>
        <time>2020-10-29T16:10:44Z</time>
      </trkpt>
      <trkpt lat="43.0472" lon="0.85265">
        <ele>490.61999512</ele>
        <time>2020-10-29T16:10:45Z</time>
      </trkpt>
      <trkpt lat="43.04725" lon="0.85261">
        <ele>490.72000122</ele>
        <time>2020-10-29T16:10:46Z</time>
      </trkpt>
      <trkpt lat="43.04733" lon="0.85253">
        <ele>491.61999512</ele>
        <time>2020-10-29T16:10:49Z</time>
      </trkpt>
      <trkpt lat="43.04737" lon="0.8525">
        <ele>492.3500061</ele>
        <time>2020-10-29T16:10:50Z</time>
      </trkpt>
      <trkpt lat="43.0474" lon="0.85246">
        <ele>492.51000977</ele>
        <time>2020-10-29T16:10:51Z</time>
      </trkpt>
      <trkpt lat="43.04744" lon="0.85242">
        <ele>493.14001465</ele>
        <time>2020-10-29T16:10:52Z</time>
      </trkpt>
      <trkpt lat="43.04749" lon="0.85237">
        <ele>493.63000488</ele>
        <time>2020-10-29T16:10:53Z</time>
      </trkpt>
      <trkpt lat="43.04754" lon="0.85231">
        <ele>494.32000732</ele>
        <time>2020-10-29T16:10:54Z</time>
      </trkpt>
      <trkpt lat="43.04757" lon="0.85225">
        <ele>494.57998657</ele>
        <time>2020-10-29T16:10:56Z</time>
      </trkpt>
      <trkpt lat="43.04759" lon="0.85218">
        <ele>495.10998535</ele>
        <time>2020-10-29T16:10:57Z</time>
      </trkpt>
      <trkpt lat="43.04761" lon="0.85212">
        <ele>495.69000244</ele>
        <time>2020-10-29T16:10:58Z</time>
      </trkpt>
      <trkpt lat="43.04762" lon="0.85204">
        <ele>495.97000122</ele>
        <time>2020-10-29T16:11:00Z</time>
      </trkpt>
      <trkpt lat="43.04763" lon="0.85194">
        <ele>496.05999756</ele>
        <time>2020-10-29T16:11:01Z</time>
      </trkpt>
      <trkpt lat="43.04762" lon="0.85183">
        <ele>496.27999878</ele>
        <time>2020-10-29T16:11:03Z</time>
      </trkpt>
      <trkpt lat="43.04761" lon="0.85176">
        <ele>496.27999878</ele>
        <time>2020-10-29T16:11:04Z</time>
      </trkpt>
      <trkpt lat="43.0476" lon="0.85168">
        <ele>496.26000977</ele>
        <time>2020-10-29T16:11:05Z</time>
      </trkpt>
      <trkpt lat="43.04759" lon="0.85151">
        <ele>496.32998657</ele>
        <time>2020-10-29T16:11:07Z</time>
      </trkpt>
      <trkpt lat="43.04762" lon="0.85137">
        <ele>497.29998779</ele>
        <time>2020-10-29T16:11:09Z</time>
      </trkpt>
      <trkpt lat="43.04764" lon="0.85131">
        <ele>497.45999146</ele>
        <time>2020-10-29T16:11:10Z</time>
      </trkpt>
      <trkpt lat="43.04765" lon="0.85126">
        <ele>497.3500061</ele>
        <time>2020-10-29T16:11:11Z</time>
      </trkpt>
      <trkpt lat="43.04768" lon="0.85124">
        <ele>497.64001465</ele>
        <time>2020-10-29T16:11:12Z</time>
      </trkpt>
      <trkpt lat="43.04771" lon="0.85122">
        <ele>497.80999756</ele>
        <time>2020-10-29T16:11:13Z</time>
      </trkpt>
      <trkpt lat="43.04775" lon="0.85121">
        <ele>497.88000488</ele>
        <time>2020-10-29T16:11:15Z</time>
      </trkpt>
      <trkpt lat="43.04782" lon="0.85117">
        <ele>498.57000732</ele>
        <time>2020-10-29T16:11:17Z</time>
      </trkpt>
      <trkpt lat="43.04786" lon="0.85114">
        <ele>499.11999512</ele>
        <time>2020-10-29T16:11:18Z</time>
      </trkpt>
      <trkpt lat="43.0479" lon="0.8511">
        <ele>499.77999878</ele>
        <time>2020-10-29T16:11:20Z</time>
      </trkpt>
      <trkpt lat="43.04794" lon="0.85107">
        <ele>500.39001465</ele>
        <time>2020-10-29T16:11:21Z</time>
      </trkpt>
      <trkpt lat="43.04797" lon="0.85105">
        <ele>500.86999512</ele>
        <time>2020-10-29T16:11:22Z</time>
      </trkpt>
      <trkpt lat="43.04801" lon="0.85104">
        <ele>501.60998535</ele>
        <time>2020-10-29T16:11:23Z</time>
      </trkpt>
      <trkpt lat="43.04806" lon="0.85104">
        <ele>502.30999756</ele>
        <time>2020-10-29T16:11:25Z</time>
      </trkpt>
      <trkpt lat="43.04811" lon="0.85105">
        <ele>503.02999878</ele>
        <time>2020-10-29T16:11:26Z</time>
      </trkpt>
      <trkpt lat="43.04815" lon="0.85105">
        <ele>503.89001465</ele>
        <time>2020-10-29T16:11:27Z</time>
      </trkpt>
      <trkpt lat="43.04818" lon="0.85105">
        <ele>505.23001099</ele>
        <time>2020-10-29T16:11:29Z</time>
      </trkpt>
      <trkpt lat="43.04821" lon="0.85105">
        <ele>505.23001099</ele>
        <time>2020-10-29T16:11:30Z</time>
      </trkpt>
      <trkpt lat="43.04825" lon="0.85104">
        <ele>505.67999268</ele>
        <time>2020-10-29T16:11:31Z</time>
      </trkpt>
      <trkpt lat="43.04828" lon="0.85103">
        <ele>506.91000366</ele>
        <time>2020-10-29T16:11:32Z</time>
      </trkpt>
      <trkpt lat="43.04831" lon="0.85101">
        <ele>507.51000977</ele>
        <time>2020-10-29T16:11:33Z</time>
      </trkpt>
      <trkpt lat="43.04835" lon="0.85098">
        <ele>508.92999268</ele>
        <time>2020-10-29T16:11:35Z</time>
      </trkpt>
      <trkpt lat="43.04839" lon="0.85096">
        <ele>509.05999756</ele>
        <time>2020-10-29T16:11:36Z</time>
      </trkpt>
      <trkpt lat="43.04844" lon="0.85092">
        <ele>510.79998779</ele>
        <time>2020-10-29T16:11:38Z</time>
      </trkpt>
      <trkpt lat="43.0485" lon="0.85089">
        <ele>511.3999939</ele>
        <time>2020-10-29T16:11:39Z</time>
      </trkpt>
      <trkpt lat="43.04854" lon="0.85087">
        <ele>512.0300293</ele>
        <time>2020-10-29T16:11:41Z</time>
      </trkpt>
      <trkpt lat="43.04859" lon="0.85084">
        <ele>512.76000977</ele>
        <time>2020-10-29T16:11:42Z</time>
      </trkpt>
      <trkpt lat="43.04863" lon="0.85082">
        <ele>513.27001953</ele>
        <time>2020-10-29T16:11:43Z</time>
      </trkpt>
      <trkpt lat="43.04866" lon="0.85079">
        <ele>513.7800293</ele>
        <time>2020-10-29T16:11:45Z</time>
      </trkpt>
      <trkpt lat="43.04871" lon="0.85075">
        <ele>514.63000488</ele>
        <time>2020-10-29T16:11:46Z</time>
      </trkpt>
      <trkpt lat="43.04874" lon="0.85073">
        <ele>515.2800293</ele>
        <time>2020-10-29T16:11:48Z</time>
      </trkpt>
      <trkpt lat="43.04878" lon="0.8507">
        <ele>515.61999512</ele>
        <time>2020-10-29T16:11:49Z</time>
      </trkpt>
      <trkpt lat="43.04882" lon="0.85068">
        <ele>516.03997803</ele>
        <time>2020-10-29T16:11:50Z</time>
      </trkpt>
      <trkpt lat="43.04886" lon="0.85065">
        <ele>517.22998047</ele>
        <time>2020-10-29T16:11:52Z</time>
      </trkpt>
      <trkpt lat="43.0489" lon="0.85061">
        <ele>517.84002686</ele>
        <time>2020-10-29T16:11:53Z</time>
      </trkpt>
      <trkpt lat="43.04894" lon="0.85058">
        <ele>518.34997559</ele>
        <time>2020-10-29T16:11:54Z</time>
      </trkpt>
      <trkpt lat="43.04899" lon="0.85054">
        <ele>518.70001221</ele>
        <time>2020-10-29T16:11:55Z</time>
      </trkpt>
      <trkpt lat="43.04903" lon="0.85051">
        <ele>518.89001465</ele>
        <time>2020-10-29T16:11:56Z</time>
      </trkpt>
      <trkpt lat="43.04907" lon="0.85048">
        <ele>519.26000977</ele>
        <time>2020-10-29T16:11:57Z</time>
      </trkpt>
      <trkpt lat="43.04911" lon="0.85044">
        <ele>519.23999023</ele>
        <time>2020-10-29T16:11:58Z</time>
      </trkpt>
      <trkpt lat="43.04915" lon="0.85041">
        <ele>519.26000977</ele>
        <time>2020-10-29T16:12:00Z</time>
      </trkpt>
      <trkpt lat="43.04921" lon="0.85035">
        <ele>519.29998779</ele>
        <time>2020-10-29T16:12:01Z</time>
      </trkpt>
      <trkpt lat="43.04924" lon="0.85031">
        <ele>519.60998535</ele>
        <time>2020-10-29T16:12:03Z</time>
      </trkpt>
      <trkpt lat="43.04926" lon="0.85022">
        <ele>520.34002686</ele>
        <time>2020-10-29T16:12:05Z</time>
      </trkpt>
      <trkpt lat="43.04926" lon="0.85017">
        <ele>520.34002686</ele>
        <time>2020-10-29T16:12:06Z</time>
      </trkpt>
      <trkpt lat="43.04923" lon="0.85007">
        <ele>520.83001709</ele>
        <time>2020-10-29T16:12:07Z</time>
      </trkpt>
      <trkpt lat="43.04919" lon="0.85">
        <ele>521.47998047</ele>
        <time>2020-10-29T16:12:09Z</time>
      </trkpt>
      <trkpt lat="43.04917" lon="0.84994">
        <ele>521.7199707</ele>
        <time>2020-10-29T16:12:10Z</time>
      </trkpt>
      <trkpt lat="43.04915" lon="0.84987">
        <ele>522.02001953</ele>
        <time>2020-10-29T16:12:11Z</time>
      </trkpt>
      <trkpt lat="43.04911" lon="0.84975">
        <ele>522.70001221</ele>
        <time>2020-10-29T16:12:13Z</time>
      </trkpt>
      <trkpt lat="43.04907" lon="0.84962">
        <ele>522.86999512</ele>
        <time>2020-10-29T16:12:15Z</time>
      </trkpt>
      <trkpt lat="43.04904" lon="0.84956">
        <ele>523.02001953</ele>
        <time>2020-10-29T16:12:16Z</time>
      </trkpt>
      <trkpt lat="43.04898" lon="0.84943">
        <ele>523.15997314</ele>
        <time>2020-10-29T16:12:18Z</time>
      </trkpt>
      <trkpt lat="43.04895" lon="0.84936">
        <ele>523.34997559</ele>
        <time>2020-10-29T16:12:19Z</time>
      </trkpt>
      <trkpt lat="43.04892" lon="0.8493">
        <ele>523.29998779</ele>
        <time>2020-10-29T16:12:20Z</time>
      </trkpt>
      <trkpt lat="43.04885" lon="0.84916">
        <ele>523.11999512</ele>
        <time>2020-10-29T16:12:22Z</time>
      </trkpt>
      <trkpt lat="43.04882" lon="0.8491">
        <ele>523.21002197</ele>
        <time>2020-10-29T16:12:23Z</time>
      </trkpt>
      <trkpt lat="43.04876" lon="0.84897">
        <ele>523.13000488</ele>
        <time>2020-10-29T16:12:25Z</time>
      </trkpt>
      <trkpt lat="43.04872" lon="0.84891">
        <ele>523.01000977</ele>
        <time>2020-10-29T16:12:26Z</time>
      </trkpt>
      <trkpt lat="43.04866" lon="0.84877">
        <ele>522.03997803</ele>
        <time>2020-10-29T16:12:28Z</time>
      </trkpt>
      <trkpt lat="43.04862" lon="0.8487">
        <ele>522.08001709</ele>
        <time>2020-10-29T16:12:29Z</time>
      </trkpt>
      <trkpt lat="43.04855" lon="0.84857">
        <ele>522.20001221</ele>
        <time>2020-10-29T16:12:31Z</time>
      </trkpt>
      <trkpt lat="43.04848" lon="0.84844">
        <ele>522.40002441</ele>
        <time>2020-10-29T16:12:33Z</time>
      </trkpt>
      <trkpt lat="43.04844" lon="0.84837">
        <ele>522.46002197</ele>
        <time>2020-10-29T16:12:34Z</time>
      </trkpt>
      <trkpt lat="43.04841" lon="0.8483">
        <ele>522.60998535</ele>
        <time>2020-10-29T16:12:35Z</time>
      </trkpt>
      <trkpt lat="43.04835" lon="0.84816">
        <ele>522.41998291</ele>
        <time>2020-10-29T16:12:37Z</time>
      </trkpt>
      <trkpt lat="43.04828" lon="0.84802">
        <ele>523.27001953</ele>
        <time>2020-10-29T16:12:39Z</time>
      </trkpt>
      <trkpt lat="43.04822" lon="0.84788">
        <ele>523.35998535</ele>
        <time>2020-10-29T16:12:41Z</time>
      </trkpt>
      <trkpt lat="43.04818" lon="0.84781">
        <ele>523.26000977</ele>
        <time>2020-10-29T16:12:42Z</time>
      </trkpt>
      <trkpt lat="43.04812" lon="0.84769">
        <ele>523.80999756</ele>
        <time>2020-10-29T16:12:44Z</time>
      </trkpt>
      <trkpt lat="43.04806" lon="0.84756">
        <ele>524.69000244</ele>
        <time>2020-10-29T16:12:46Z</time>
      </trkpt>
      <trkpt lat="43.04802" lon="0.84749">
        <ele>524.95001221</ele>
        <time>2020-10-29T16:12:47Z</time>
      </trkpt>
      <trkpt lat="43.04795" lon="0.84737">
        <ele>525.47998047</ele>
        <time>2020-10-29T16:12:49Z</time>
      </trkpt>
      <trkpt lat="43.04792" lon="0.8473">
        <ele>525.76000977</ele>
        <time>2020-10-29T16:12:50Z</time>
      </trkpt>
      <trkpt lat="43.04786" lon="0.84718">
        <ele>526.03997803</ele>
        <time>2020-10-29T16:12:52Z</time>
      </trkpt>
      <trkpt lat="43.0478" lon="0.84706">
        <ele>526.69000244</ele>
        <time>2020-10-29T16:12:54Z</time>
      </trkpt>
      <trkpt lat="43.04778" lon="0.847">
        <ele>526.78997803</ele>
        <time>2020-10-29T16:12:55Z</time>
      </trkpt>
      <trkpt lat="43.0477" lon="0.84687">
        <ele>525.88000488</ele>
        <time>2020-10-29T16:12:57Z</time>
      </trkpt>
      <trkpt lat="43.04767" lon="0.84681">
        <ele>526.19000244</ele>
        <time>2020-10-29T16:12:58Z</time>
      </trkpt>
      <trkpt lat="43.0476" lon="0.84668">
        <ele>526.80999756</ele>
        <time>2020-10-29T16:13:00Z</time>
      </trkpt>
      <trkpt lat="43.04756" lon="0.84661">
        <ele>527.13000488</ele>
        <time>2020-10-29T16:13:01Z</time>
      </trkpt>
      <trkpt lat="43.04753" lon="0.84655">
        <ele>527.28997803</ele>
        <time>2020-10-29T16:13:02Z</time>
      </trkpt>
      <trkpt lat="43.04745" lon="0.84642">
        <ele>527.67999268</ele>
        <time>2020-10-29T16:13:04Z</time>
      </trkpt>
      <trkpt lat="43.04742" lon="0.84636">
        <ele>527.78997803</ele>
        <time>2020-10-29T16:13:05Z</time>
      </trkpt>
      <trkpt lat="43.04738" lon="0.84629">
        <ele>527.90997314</ele>
        <time>2020-10-29T16:13:06Z</time>
      </trkpt>
      <trkpt lat="43.04731" lon="0.84617">
        <ele>528.10998535</ele>
        <time>2020-10-29T16:13:08Z</time>
      </trkpt>
      <trkpt lat="43.04727" lon="0.8461">
        <ele>527.90997314</ele>
        <time>2020-10-29T16:13:09Z</time>
      </trkpt>
      <trkpt lat="43.04719" lon="0.84599">
        <ele>528.52001953</ele>
        <time>2020-10-29T16:13:11Z</time>
      </trkpt>
      <trkpt lat="43.0471" lon="0.84588">
        <ele>528.75</ele>
        <time>2020-10-29T16:13:13Z</time>
      </trkpt>
      <trkpt lat="43.04706" lon="0.84583">
        <ele>528.7800293</ele>
        <time>2020-10-29T16:13:14Z</time>
      </trkpt>
      <trkpt lat="43.04696" lon="0.84572">
        <ele>528.83001709</ele>
        <time>2020-10-29T16:13:16Z</time>
      </trkpt>
      <trkpt lat="43.04691" lon="0.84566">
        <ele>528.90002441</ele>
        <time>2020-10-29T16:13:17Z</time>
      </trkpt>
      <trkpt lat="43.04682" lon="0.84555">
        <ele>528.92999268</ele>
        <time>2020-10-29T16:13:19Z</time>
      </trkpt>
      <trkpt lat="43.04677" lon="0.84549">
        <ele>529.02001953</ele>
        <time>2020-10-29T16:13:20Z</time>
      </trkpt>
      <trkpt lat="43.04673" lon="0.84544">
        <ele>529.10998535</ele>
        <time>2020-10-29T16:13:21Z</time>
      </trkpt>
      <trkpt lat="43.04663" lon="0.84533">
        <ele>529.09002686</ele>
        <time>2020-10-29T16:13:23Z</time>
      </trkpt>
      <trkpt lat="43.04659" lon="0.84527">
        <ele>529.20001221</ele>
        <time>2020-10-29T16:13:24Z</time>
      </trkpt>
      <trkpt lat="43.0465" lon="0.84516">
        <ele>529.2199707</ele>
        <time>2020-10-29T16:13:26Z</time>
      </trkpt>
      <trkpt lat="43.04645" lon="0.8451">
        <ele>529.35998535</ele>
        <time>2020-10-29T16:13:27Z</time>
      </trkpt>
      <trkpt lat="43.04637" lon="0.84499">
        <ele>529.55999756</ele>
        <time>2020-10-29T16:13:29Z</time>
      </trkpt>
      <trkpt lat="43.04632" lon="0.84494">
        <ele>529.72998047</ele>
        <time>2020-10-29T16:13:30Z</time>
      </trkpt>
      <trkpt lat="43.04623" lon="0.84483">
        <ele>529.91998291</ele>
        <time>2020-10-29T16:13:32Z</time>
      </trkpt>
      <trkpt lat="43.04614" lon="0.84473">
        <ele>530.20001221</ele>
        <time>2020-10-29T16:13:34Z</time>
      </trkpt>
      <trkpt lat="43.0461" lon="0.84467">
        <ele>530.41998291</ele>
        <time>2020-10-29T16:13:35Z</time>
      </trkpt>
      <trkpt lat="43.04601" lon="0.84457">
        <ele>530.69000244</ele>
        <time>2020-10-29T16:13:37Z</time>
      </trkpt>
      <trkpt lat="43.04597" lon="0.84452">
        <ele>530.85998535</ele>
        <time>2020-10-29T16:13:38Z</time>
      </trkpt>
      <trkpt lat="43.04588" lon="0.84441">
        <ele>531.27001953</ele>
        <time>2020-10-29T16:13:40Z</time>
      </trkpt>
      <trkpt lat="43.0458" lon="0.8443">
        <ele>531.7199707</ele>
        <time>2020-10-29T16:13:42Z</time>
      </trkpt>
      <trkpt lat="43.04576" lon="0.84425">
        <ele>531.92999268</ele>
        <time>2020-10-29T16:13:43Z</time>
      </trkpt>
      <trkpt lat="43.04568" lon="0.84414">
        <ele>532.46002197</ele>
        <time>2020-10-29T16:13:45Z</time>
      </trkpt>
      <trkpt lat="43.04564" lon="0.84408">
        <ele>532.59002686</ele>
        <time>2020-10-29T16:13:46Z</time>
      </trkpt>
      <trkpt lat="43.04555" lon="0.84398">
        <ele>533.60998535</ele>
        <time>2020-10-29T16:13:48Z</time>
      </trkpt>
      <trkpt lat="43.0455" lon="0.84392">
        <ele>533.59002686</ele>
        <time>2020-10-29T16:13:49Z</time>
      </trkpt>
      <trkpt lat="43.04542" lon="0.8438">
        <ele>533.97998047</ele>
        <time>2020-10-29T16:13:51Z</time>
      </trkpt>
      <trkpt lat="43.04538" lon="0.84374">
        <ele>534.09002686</ele>
        <time>2020-10-29T16:13:52Z</time>
      </trkpt>
      <trkpt lat="43.0453" lon="0.84362">
        <ele>534.17999268</ele>
        <time>2020-10-29T16:13:54Z</time>
      </trkpt>
      <trkpt lat="43.04521" lon="0.84351">
        <ele>534.38000488</ele>
        <time>2020-10-29T16:13:56Z</time>
      </trkpt>
      <trkpt lat="43.04513" lon="0.8434">
        <ele>534.65002441</ele>
        <time>2020-10-29T16:13:58Z</time>
      </trkpt>
      <trkpt lat="43.04505" lon="0.84329">
        <ele>535.09997559</ele>
        <time>2020-10-29T16:14:00Z</time>
      </trkpt>
      <trkpt lat="43.045" lon="0.84323">
        <ele>535.27001953</ele>
        <time>2020-10-29T16:14:01Z</time>
      </trkpt>
      <trkpt lat="43.04492" lon="0.84312">
        <ele>535.55999756</ele>
        <time>2020-10-29T16:14:03Z</time>
      </trkpt>
      <trkpt lat="43.04484" lon="0.84301">
        <ele>536.34997559</ele>
        <time>2020-10-29T16:14:05Z</time>
      </trkpt>
      <trkpt lat="43.04476" lon="0.8429">
        <ele>536.76000977</ele>
        <time>2020-10-29T16:14:07Z</time>
      </trkpt>
      <trkpt lat="43.04468" lon="0.8428">
        <ele>537.70001221</ele>
        <time>2020-10-29T16:14:09Z</time>
      </trkpt>
      <trkpt lat="43.04463" lon="0.84278">
        <ele>538.0300293</ele>
        <time>2020-10-29T16:14:11Z</time>
      </trkpt>
      <trkpt lat="43.04459" lon="0.84281">
        <ele>537.96002197</ele>
        <time>2020-10-29T16:14:12Z</time>
      </trkpt>
      <trkpt lat="43.04448" lon="0.84292">
        <ele>537.45001221</ele>
        <time>2020-10-29T16:14:14Z</time>
      </trkpt>
      <trkpt lat="43.04443" lon="0.84298">
        <ele>537.15002441</ele>
        <time>2020-10-29T16:14:15Z</time>
      </trkpt>
      <trkpt lat="43.04433" lon="0.84311">
        <ele>536.77001953</ele>
        <time>2020-10-29T16:14:17Z</time>
      </trkpt>
      <trkpt lat="43.04428" lon="0.84318">
        <ele>536.63000488</ele>
        <time>2020-10-29T16:14:18Z</time>
      </trkpt>
      <trkpt lat="43.04419" lon="0.84331">
        <ele>536.44000244</ele>
        <time>2020-10-29T16:14:20Z</time>
      </trkpt>
      <trkpt lat="43.0441" lon="0.84345">
        <ele>536.35998535</ele>
        <time>2020-10-29T16:14:22Z</time>
      </trkpt>
      <trkpt lat="43.04402" lon="0.84359">
        <ele>536.19000244</ele>
        <time>2020-10-29T16:14:24Z</time>
      </trkpt>
      <trkpt lat="43.04394" lon="0.84372">
        <ele>536.15002441</ele>
        <time>2020-10-29T16:14:26Z</time>
      </trkpt>
      <trkpt lat="43.0439" lon="0.84379">
        <ele>536.19000244</ele>
        <time>2020-10-29T16:14:27Z</time>
      </trkpt>
      <trkpt lat="43.04383" lon="0.84392">
        <ele>536.2199707</ele>
        <time>2020-10-29T16:14:29Z</time>
      </trkpt>
      <trkpt lat="43.04375" lon="0.84405">
        <ele>536.2199707</ele>
        <time>2020-10-29T16:14:31Z</time>
      </trkpt>
      <trkpt lat="43.04367" lon="0.84418">
        <ele>536.08001709</ele>
        <time>2020-10-29T16:14:33Z</time>
      </trkpt>
      <trkpt lat="43.04359" lon="0.8443">
        <ele>536.07000732</ele>
        <time>2020-10-29T16:14:35Z</time>
      </trkpt>
      <trkpt lat="43.0435" lon="0.84442">
        <ele>536.11999512</ele>
        <time>2020-10-29T16:14:37Z</time>
      </trkpt>
      <trkpt lat="43.04343" lon="0.84453">
        <ele>536.2199707</ele>
        <time>2020-10-29T16:14:39Z</time>
      </trkpt>
      <trkpt lat="43.04335" lon="0.84465">
        <ele>536.28997803</ele>
        <time>2020-10-29T16:14:41Z</time>
      </trkpt>
      <trkpt lat="43.04331" lon="0.84471">
        <ele>536.35998535</ele>
        <time>2020-10-29T16:14:42Z</time>
      </trkpt>
      <trkpt lat="43.04323" lon="0.84483">
        <ele>536.59002686</ele>
        <time>2020-10-29T16:14:44Z</time>
      </trkpt>
      <trkpt lat="43.04319" lon="0.8449">
        <ele>536.73999023</ele>
        <time>2020-10-29T16:14:45Z</time>
      </trkpt>
      <trkpt lat="43.04313" lon="0.84503">
        <ele>536.9699707</ele>
        <time>2020-10-29T16:14:47Z</time>
      </trkpt>
      <trkpt lat="43.04308" lon="0.84518">
        <ele>537.20001221</ele>
        <time>2020-10-29T16:14:49Z</time>
      </trkpt>
      <trkpt lat="43.04307" lon="0.84525">
        <ele>537.34997559</ele>
        <time>2020-10-29T16:14:50Z</time>
      </trkpt>
      <trkpt lat="43.04305" lon="0.84533">
        <ele>537.55999756</ele>
        <time>2020-10-29T16:14:51Z</time>
      </trkpt>
      <trkpt lat="43.04303" lon="0.84541">
        <ele>537.67999268</ele>
        <time>2020-10-29T16:14:52Z</time>
      </trkpt>
      <trkpt lat="43.043" lon="0.84556">
        <ele>537.95001221</ele>
        <time>2020-10-29T16:14:54Z</time>
      </trkpt>
      <trkpt lat="43.04296" lon="0.8457">
        <ele>538.33001709</ele>
        <time>2020-10-29T16:14:56Z</time>
      </trkpt>
      <trkpt lat="43.04295" lon="0.84578">
        <ele>538.55999756</ele>
        <time>2020-10-29T16:14:57Z</time>
      </trkpt>
      <trkpt lat="43.04292" lon="0.84584">
        <ele>538.72998047</ele>
        <time>2020-10-29T16:14:58Z</time>
      </trkpt>
      <trkpt lat="43.04284" lon="0.84588">
        <ele>540.07000732</ele>
        <time>2020-10-29T16:15:00Z</time>
      </trkpt>
      <trkpt lat="43.04277" lon="0.84583">
        <ele>540.61999512</ele>
        <time>2020-10-29T16:15:02Z</time>
      </trkpt>
      <trkpt lat="43.0427" lon="0.84582">
        <ele>540.73999023</ele>
        <time>2020-10-29T16:15:04Z</time>
      </trkpt>
      <trkpt lat="43.04265" lon="0.84585">
        <ele>541.19000244</ele>
        <time>2020-10-29T16:15:05Z</time>
      </trkpt>
      <trkpt lat="43.04255" lon="0.84593">
        <ele>541.85998535</ele>
        <time>2020-10-29T16:15:07Z</time>
      </trkpt>
      <trkpt lat="43.0425" lon="0.84597">
        <ele>542.28997803</ele>
        <time>2020-10-29T16:15:08Z</time>
      </trkpt>
      <trkpt lat="43.0424" lon="0.84602">
        <ele>542.60998535</ele>
        <time>2020-10-29T16:15:10Z</time>
      </trkpt>
      <trkpt lat="43.04234" lon="0.84601">
        <ele>542.97998047</ele>
        <time>2020-10-29T16:15:11Z</time>
      </trkpt>
      <trkpt lat="43.04226" lon="0.84594">
        <ele>543.38000488</ele>
        <time>2020-10-29T16:15:13Z</time>
      </trkpt>
      <trkpt lat="43.04223" lon="0.84588">
        <ele>543.71002197</ele>
        <time>2020-10-29T16:15:14Z</time>
      </trkpt>
      <trkpt lat="43.04221" lon="0.84581">
        <ele>544.02001953</ele>
        <time>2020-10-29T16:15:15Z</time>
      </trkpt>
      <trkpt lat="43.04217" lon="0.84569">
        <ele>544.72998047</ele>
        <time>2020-10-29T16:15:17Z</time>
      </trkpt>
      <trkpt lat="43.04216" lon="0.84566">
        <ele>545.09997559</ele>
        <time>2020-10-29T16:15:18Z</time>
      </trkpt>
      <trkpt lat="43.04214" lon="0.84565">
        <ele>545.27001953</ele>
        <time>2020-10-29T16:15:19Z</time>
      </trkpt>
      <trkpt lat="43.04212" lon="0.84565">
        <ele>545.46002197</ele>
        <time>2020-10-29T16:15:21Z</time>
      </trkpt>
    </trkseg>
  </trk>
</gpx>